<?xml version="1.0" encoding="UTF-8" standalone="no" ?>
<gpx xmlns="http://www.topografix.com/GPX/1/1" xmlns:xsi="http://www.w3.org/2001/XMLSchema-instance" xsi:schemaLocation="http://www.topografix.com/GPX/1/1 http://www.topografix.com/GPX/1/1/gpx.xsd" version="1.1" creator="VisuGPX - https://www.visugpx.com">
  <metadata>
    <name>Mont Veyrier et Mont Baron en boucle</name>
    <desc><![CDATA[Mont Veyrier et Mont Baron en boucle depuis Veyrier du Lac]]></desc>
  </metadata>
  <trk>
    <name><![CDATA[Move]]></name>
    <trkseg>
      <trkpt lat="45.87975" lon="6.17512">
        <ele>448</ele>
        <time>2018-05-20T06:18:31.000Z</time>
      </trkpt>
      <trkpt lat="45.87968" lon="6.17502">
        <ele>450</ele>
        <time>2018-05-20T06:18:38.999Z</time>
      </trkpt>
      <trkpt lat="45.87968" lon="6.17489">
        <ele>450</ele>
        <time>2018-05-20T06:18:49.999Z</time>
      </trkpt>
      <trkpt lat="45.87978" lon="6.1749">
        <ele>449.8979968</ele>
        <time>2018-05-20T06:18:58.822Z</time>
      </trkpt>
      <trkpt lat="45.87987" lon="6.17492">
        <ele>449</ele>
        <time>2018-05-20T06:19:06.822Z</time>
      </trkpt>
      <trkpt lat="45.87996" lon="6.17495">
        <ele>449</ele>
        <time>2018-05-20T06:19:14.822Z</time>
      </trkpt>
      <trkpt lat="45.88005" lon="6.17494">
        <ele>449</ele>
        <time>2018-05-20T06:19:21.822Z</time>
      </trkpt>
      <trkpt lat="45.88012" lon="6.17494">
        <ele>449</ele>
        <time>2018-05-20T06:19:26.822Z</time>
      </trkpt>
      <trkpt lat="45.88014" lon="6.17494">
        <ele>449</ele>
        <time>2018-05-20T06:19:28.822Z</time>
      </trkpt>
      <trkpt lat="45.88017" lon="6.17493">
        <ele>449</ele>
        <time>2018-05-20T06:19:31.822Z</time>
      </trkpt>
      <trkpt lat="45.8802" lon="6.17493">
        <ele>449</ele>
        <time>2018-05-20T06:19:33.822Z</time>
      </trkpt>
      <trkpt lat="45.88023" lon="6.17493">
        <ele>449</ele>
        <time>2018-05-20T06:19:35.822Z</time>
      </trkpt>
      <trkpt lat="45.88026" lon="6.17493">
        <ele>449</ele>
        <time>2018-05-20T06:19:37.822Z</time>
      </trkpt>
      <trkpt lat="45.88028" lon="6.17493">
        <ele>449</ele>
        <time>2018-05-20T06:19:39.822Z</time>
      </trkpt>
      <trkpt lat="45.88031" lon="6.17493">
        <ele>449</ele>
        <time>2018-05-20T06:19:41.822Z</time>
      </trkpt>
      <trkpt lat="45.88033" lon="6.17493">
        <ele>449</ele>
        <time>2018-05-20T06:19:43.822Z</time>
      </trkpt>
      <trkpt lat="45.88036" lon="6.17493">
        <ele>449</ele>
        <time>2018-05-20T06:19:45.822Z</time>
      </trkpt>
      <trkpt lat="45.88038" lon="6.17493">
        <ele>449</ele>
        <time>2018-05-20T06:19:47.822Z</time>
      </trkpt>
      <trkpt lat="45.8804" lon="6.17493">
        <ele>449</ele>
        <time>2018-05-20T06:19:49.822Z</time>
      </trkpt>
      <trkpt lat="45.88043" lon="6.17493">
        <ele>449</ele>
        <time>2018-05-20T06:19:51.822Z</time>
      </trkpt>
      <trkpt lat="45.88046" lon="6.17493">
        <ele>449</ele>
        <time>2018-05-20T06:19:53.822Z</time>
      </trkpt>
      <trkpt lat="45.88048" lon="6.17493">
        <ele>449</ele>
        <time>2018-05-20T06:19:55.822Z</time>
      </trkpt>
      <trkpt lat="45.88051" lon="6.17494">
        <ele>449</ele>
        <time>2018-05-20T06:19:57.822Z</time>
      </trkpt>
      <trkpt lat="45.88054" lon="6.17494">
        <ele>449</ele>
        <time>2018-05-20T06:19:59.822Z</time>
      </trkpt>
      <trkpt lat="45.88056" lon="6.17494">
        <ele>449</ele>
        <time>2018-05-20T06:20:01.822Z</time>
      </trkpt>
      <trkpt lat="45.88059" lon="6.17494">
        <ele>449</ele>
        <time>2018-05-20T06:20:03.822Z</time>
      </trkpt>
      <trkpt lat="45.88061" lon="6.17494">
        <ele>449</ele>
        <time>2018-05-20T06:20:05.822Z</time>
      </trkpt>
      <trkpt lat="45.88063" lon="6.17493">
        <ele>449</ele>
        <time>2018-05-20T06:20:07.822Z</time>
      </trkpt>
      <trkpt lat="45.88066" lon="6.17493">
        <ele>449</ele>
        <time>2018-05-20T06:20:09.822Z</time>
      </trkpt>
      <trkpt lat="45.88067" lon="6.17493">
        <ele>449</ele>
        <time>2018-05-20T06:20:11.822Z</time>
      </trkpt>
      <trkpt lat="45.8807" lon="6.17493">
        <ele>449</ele>
        <time>2018-05-20T06:20:13.822Z</time>
      </trkpt>
      <trkpt lat="45.88073" lon="6.17493">
        <ele>449</ele>
        <time>2018-05-20T06:20:15.822Z</time>
      </trkpt>
      <trkpt lat="45.88075" lon="6.17493">
        <ele>449</ele>
        <time>2018-05-20T06:20:17.822Z</time>
      </trkpt>
      <trkpt lat="45.88077" lon="6.17493">
        <ele>449</ele>
        <time>2018-05-20T06:20:19.822Z</time>
      </trkpt>
      <trkpt lat="45.8808" lon="6.17493">
        <ele>449</ele>
        <time>2018-05-20T06:20:21.822Z</time>
      </trkpt>
      <trkpt lat="45.88082" lon="6.17493">
        <ele>449</ele>
        <time>2018-05-20T06:20:23.822Z</time>
      </trkpt>
      <trkpt lat="45.88085" lon="6.17493">
        <ele>449</ele>
        <time>2018-05-20T06:20:25.822Z</time>
      </trkpt>
      <trkpt lat="45.88087" lon="6.17493">
        <ele>449</ele>
        <time>2018-05-20T06:20:27.822Z</time>
      </trkpt>
      <trkpt lat="45.8809" lon="6.17493">
        <ele>449</ele>
        <time>2018-05-20T06:20:29.822Z</time>
      </trkpt>
      <trkpt lat="45.88092" lon="6.17493">
        <ele>449</ele>
        <time>2018-05-20T06:20:31.822Z</time>
      </trkpt>
      <trkpt lat="45.88095" lon="6.17492">
        <ele>449</ele>
        <time>2018-05-20T06:20:33.822Z</time>
      </trkpt>
      <trkpt lat="45.88097" lon="6.17492">
        <ele>449</ele>
        <time>2018-05-20T06:20:35.822Z</time>
      </trkpt>
      <trkpt lat="45.881" lon="6.17492">
        <ele>449</ele>
        <time>2018-05-20T06:20:37.822Z</time>
      </trkpt>
      <trkpt lat="45.88102" lon="6.17491">
        <ele>448.90096807466</ele>
        <time>2018-05-20T06:20:39.822Z</time>
      </trkpt>
      <trkpt lat="45.88105" lon="6.17491">
        <ele>449.1020032</ele>
        <time>2018-05-20T06:20:41.822Z</time>
      </trkpt>
      <trkpt lat="45.88107" lon="6.17491">
        <ele>450</ele>
        <time>2018-05-20T06:20:43.822Z</time>
      </trkpt>
      <trkpt lat="45.8811" lon="6.1749">
        <ele>449.0247731675</ele>
        <time>2018-05-20T06:20:45.822Z</time>
      </trkpt>
      <trkpt lat="45.88112" lon="6.17489">
        <ele>449</ele>
        <time>2018-05-20T06:20:47.822Z</time>
      </trkpt>
      <trkpt lat="45.88114" lon="6.17488">
        <ele>449</ele>
        <time>2018-05-20T06:20:49.822Z</time>
      </trkpt>
      <trkpt lat="45.88117" lon="6.17487">
        <ele>449</ele>
        <time>2018-05-20T06:20:51.822Z</time>
      </trkpt>
      <trkpt lat="45.88121" lon="6.17485">
        <ele>449</ele>
        <time>2018-05-20T06:20:55.822Z</time>
      </trkpt>
      <trkpt lat="45.88123" lon="6.17484">
        <ele>449</ele>
        <time>2018-05-20T06:20:57.822Z</time>
      </trkpt>
      <trkpt lat="45.88126" lon="6.17483">
        <ele>449</ele>
        <time>2018-05-20T06:20:59.822Z</time>
      </trkpt>
      <trkpt lat="45.88128" lon="6.17482">
        <ele>449</ele>
        <time>2018-05-20T06:21:01.822Z</time>
      </trkpt>
      <trkpt lat="45.8813" lon="6.17481">
        <ele>449</ele>
        <time>2018-05-20T06:21:03.822Z</time>
      </trkpt>
      <trkpt lat="45.88133" lon="6.1748">
        <ele>448.074227049</ele>
        <time>2018-05-20T06:21:05.822Z</time>
      </trkpt>
      <trkpt lat="45.88135" lon="6.17478">
        <ele>449</ele>
        <time>2018-05-20T06:21:07.822Z</time>
      </trkpt>
      <trkpt lat="45.88137" lon="6.17476">
        <ele>449</ele>
        <time>2018-05-20T06:21:09.822Z</time>
      </trkpt>
      <trkpt lat="45.88138" lon="6.17474">
        <ele>449</ele>
        <time>2018-05-20T06:21:11.822Z</time>
      </trkpt>
      <trkpt lat="45.88141" lon="6.17473">
        <ele>449</ele>
        <time>2018-05-20T06:21:13.822Z</time>
      </trkpt>
      <trkpt lat="45.88142" lon="6.17471">
        <ele>449</ele>
        <time>2018-05-20T06:21:15.822Z</time>
      </trkpt>
      <trkpt lat="45.88145" lon="6.17469">
        <ele>448.8979968</ele>
        <time>2018-05-20T06:21:17.822Z</time>
      </trkpt>
      <trkpt lat="45.8815" lon="6.17464">
        <ele>449</ele>
        <time>2018-05-20T06:21:22.822Z</time>
      </trkpt>
      <trkpt lat="45.88152" lon="6.17463">
        <ele>448.00720718643</ele>
        <time>2018-05-20T06:21:24.822Z</time>
      </trkpt>
      <trkpt lat="45.88154" lon="6.17461">
        <ele>449</ele>
        <time>2018-05-20T06:21:26.822Z</time>
      </trkpt>
      <trkpt lat="45.88156" lon="6.17459">
        <ele>449</ele>
        <time>2018-05-20T06:21:28.822Z</time>
      </trkpt>
      <trkpt lat="45.88159" lon="6.17458">
        <ele>449</ele>
        <time>2018-05-20T06:21:31.822Z</time>
      </trkpt>
      <trkpt lat="45.88163" lon="6.17455">
        <ele>449</ele>
        <time>2018-05-20T06:21:35.822Z</time>
      </trkpt>
      <trkpt lat="45.88165" lon="6.17454">
        <ele>449</ele>
        <time>2018-05-20T06:21:37.822Z</time>
      </trkpt>
      <trkpt lat="45.88169" lon="6.17451">
        <ele>449</ele>
        <time>2018-05-20T06:21:40.822Z</time>
      </trkpt>
      <trkpt lat="45.8817" lon="6.17449">
        <ele>449</ele>
        <time>2018-05-20T06:21:42.822Z</time>
      </trkpt>
      <trkpt lat="45.88173" lon="6.17447">
        <ele>449</ele>
        <time>2018-05-20T06:21:45.822Z</time>
      </trkpt>
      <trkpt lat="45.88175" lon="6.17445">
        <ele>449</ele>
        <time>2018-05-20T06:21:47.822Z</time>
      </trkpt>
      <trkpt lat="45.88177" lon="6.17444">
        <ele>449</ele>
        <time>2018-05-20T06:21:49.822Z</time>
      </trkpt>
      <trkpt lat="45.88179" lon="6.17443">
        <ele>449</ele>
        <time>2018-05-20T06:21:51.822Z</time>
      </trkpt>
      <trkpt lat="45.88181" lon="6.17442">
        <ele>449</ele>
        <time>2018-05-20T06:21:53.822Z</time>
      </trkpt>
      <trkpt lat="45.88188" lon="6.17449">
        <ele>449</ele>
        <time>2018-05-20T06:21:59.822Z</time>
      </trkpt>
      <trkpt lat="45.8819" lon="6.17453">
        <ele>449</ele>
        <time>2018-05-20T06:22:01.822Z</time>
      </trkpt>
      <trkpt lat="45.8819" lon="6.17456">
        <ele>450</ele>
        <time>2018-05-20T06:22:03.822Z</time>
      </trkpt>
      <trkpt lat="45.88189" lon="6.17454">
        <ele>450</ele>
        <time>2018-05-20T06:22:08.822Z</time>
      </trkpt>
      <trkpt lat="45.88188" lon="6.17451">
        <ele>450</ele>
        <time>2018-05-20T06:22:10.822Z</time>
      </trkpt>
      <trkpt lat="45.88186" lon="6.17448">
        <ele>450</ele>
        <time>2018-05-20T06:22:12.822Z</time>
      </trkpt>
      <trkpt lat="45.88185" lon="6.17446">
        <ele>449</ele>
        <time>2018-05-20T06:22:14.822Z</time>
      </trkpt>
      <trkpt lat="45.88183" lon="6.17443">
        <ele>449</ele>
        <time>2018-05-20T06:22:16.822Z</time>
      </trkpt>
      <trkpt lat="45.88182" lon="6.17441">
        <ele>449</ele>
        <time>2018-05-20T06:22:18.822Z</time>
      </trkpt>
      <trkpt lat="45.88182" lon="6.17437">
        <ele>449</ele>
        <time>2018-05-20T06:22:21.822Z</time>
      </trkpt>
      <trkpt lat="45.8818" lon="6.17436">
        <ele>449</ele>
        <time>2018-05-20T06:22:29.822Z</time>
      </trkpt>
      <trkpt lat="45.88178" lon="6.17435">
        <ele>449</ele>
        <time>2018-05-20T06:22:38.822Z</time>
      </trkpt>
      <trkpt lat="45.88179" lon="6.17433">
        <ele>448</ele>
        <time>2018-05-20T06:22:59.822Z</time>
      </trkpt>
      <trkpt lat="45.88181" lon="6.17435">
        <ele>449</ele>
        <time>2018-05-20T06:23:17.822Z</time>
      </trkpt>
      <trkpt lat="45.88182" lon="6.17438">
        <ele>449</ele>
        <time>2018-05-20T06:23:19.822Z</time>
      </trkpt>
      <trkpt lat="45.88183" lon="6.17441">
        <ele>449</ele>
        <time>2018-05-20T06:23:22.822Z</time>
      </trkpt>
      <trkpt lat="45.88185" lon="6.17443">
        <ele>449</ele>
        <time>2018-05-20T06:23:24.822Z</time>
      </trkpt>
      <trkpt lat="45.88185" lon="6.17448">
        <ele>449.09273072134</ele>
        <time>2018-05-20T06:23:27.822Z</time>
      </trkpt>
      <trkpt lat="45.88186" lon="6.17451">
        <ele>450</ele>
        <time>2018-05-20T06:23:29.822Z</time>
      </trkpt>
      <trkpt lat="45.88187" lon="6.17453">
        <ele>449.04469075955</ele>
        <time>2018-05-20T06:23:31.822Z</time>
      </trkpt>
      <trkpt lat="45.88188" lon="6.17456">
        <ele>450</ele>
        <time>2018-05-20T06:23:33.822Z</time>
      </trkpt>
      <trkpt lat="45.88189" lon="6.17459">
        <ele>450</ele>
        <time>2018-05-20T06:23:35.822Z</time>
      </trkpt>
      <trkpt lat="45.8819" lon="6.17462">
        <ele>450</ele>
        <time>2018-05-20T06:23:37.822Z</time>
      </trkpt>
      <trkpt lat="45.88191" lon="6.17465">
        <ele>450</ele>
        <time>2018-05-20T06:23:39.822Z</time>
      </trkpt>
      <trkpt lat="45.88192" lon="6.17468">
        <ele>450</ele>
        <time>2018-05-20T06:23:41.822Z</time>
      </trkpt>
      <trkpt lat="45.88193" lon="6.1747">
        <ele>451</ele>
        <time>2018-05-20T06:23:43.822Z</time>
      </trkpt>
      <trkpt lat="45.88194" lon="6.17473">
        <ele>451</ele>
        <time>2018-05-20T06:23:45.822Z</time>
      </trkpt>
      <trkpt lat="45.88196" lon="6.17477">
        <ele>451</ele>
        <time>2018-05-20T06:23:47.822Z</time>
      </trkpt>
      <trkpt lat="45.88198" lon="6.1748">
        <ele>451</ele>
        <time>2018-05-20T06:23:49.822Z</time>
      </trkpt>
      <trkpt lat="45.88199" lon="6.17483">
        <ele>451</ele>
        <time>2018-05-20T06:23:51.822Z</time>
      </trkpt>
      <trkpt lat="45.88201" lon="6.17487">
        <ele>451</ele>
        <time>2018-05-20T06:23:53.822Z</time>
      </trkpt>
      <trkpt lat="45.88202" lon="6.1749">
        <ele>451.01319379976</ele>
        <time>2018-05-20T06:23:55.822Z</time>
      </trkpt>
      <trkpt lat="45.88204" lon="6.17493">
        <ele>452</ele>
        <time>2018-05-20T06:23:57.822Z</time>
      </trkpt>
      <trkpt lat="45.88205" lon="6.17496">
        <ele>452</ele>
        <time>2018-05-20T06:23:59.822Z</time>
      </trkpt>
      <trkpt lat="45.88206" lon="6.17499">
        <ele>452</ele>
        <time>2018-05-20T06:24:01.822Z</time>
      </trkpt>
      <trkpt lat="45.88208" lon="6.17505">
        <ele>452</ele>
        <time>2018-05-20T06:24:05.822Z</time>
      </trkpt>
      <trkpt lat="45.8821" lon="6.17507">
        <ele>452.1020032</ele>
        <time>2018-05-20T06:24:07.822Z</time>
      </trkpt>
      <trkpt lat="45.88211" lon="6.1751">
        <ele>453</ele>
        <time>2018-05-20T06:24:09.822Z</time>
      </trkpt>
      <trkpt lat="45.88212" lon="6.17512">
        <ele>453</ele>
        <time>2018-05-20T06:24:11.822Z</time>
      </trkpt>
      <trkpt lat="45.88215" lon="6.17515">
        <ele>453</ele>
        <time>2018-05-20T06:24:14.822Z</time>
      </trkpt>
      <trkpt lat="45.88218" lon="6.17516">
        <ele>453</ele>
        <time>2018-05-20T06:24:16.822Z</time>
      </trkpt>
      <trkpt lat="45.8822" lon="6.17518">
        <ele>453.1020032</ele>
        <time>2018-05-20T06:24:18.822Z</time>
      </trkpt>
      <trkpt lat="45.88223" lon="6.1752">
        <ele>454.06458666667</ele>
        <time>2018-05-20T06:24:20.822Z</time>
      </trkpt>
      <trkpt lat="45.88224" lon="6.17523">
        <ele>455</ele>
        <time>2018-05-20T06:24:22.822Z</time>
      </trkpt>
      <trkpt lat="45.88227" lon="6.17524">
        <ele>455</ele>
        <time>2018-05-20T06:24:24.822Z</time>
      </trkpt>
      <trkpt lat="45.88229" lon="6.17525">
        <ele>455</ele>
        <time>2018-05-20T06:24:26.822Z</time>
      </trkpt>
      <trkpt lat="45.8823" lon="6.17526">
        <ele>455</ele>
        <time>2018-05-20T06:24:28.822Z</time>
      </trkpt>
      <trkpt lat="45.88233" lon="6.17528">
        <ele>455.07555774683</ele>
        <time>2018-05-20T06:24:30.822Z</time>
      </trkpt>
      <trkpt lat="45.88236" lon="6.17528">
        <ele>456</ele>
        <time>2018-05-20T06:24:32.822Z</time>
      </trkpt>
      <trkpt lat="45.88239" lon="6.17528">
        <ele>456</ele>
        <time>2018-05-20T06:24:34.822Z</time>
      </trkpt>
      <trkpt lat="45.88242" lon="6.17528">
        <ele>456.02391652174</ele>
        <time>2018-05-20T06:24:36.822Z</time>
      </trkpt>
      <trkpt lat="45.88243" lon="6.17529">
        <ele>457</ele>
        <time>2018-05-20T06:24:38.822Z</time>
      </trkpt>
      <trkpt lat="45.88244" lon="6.17533">
        <ele>456</ele>
        <time>2018-05-20T06:24:40.822Z</time>
      </trkpt>
      <trkpt lat="45.88243" lon="6.17536">
        <ele>456</ele>
        <time>2018-05-20T06:24:42.822Z</time>
      </trkpt>
      <trkpt lat="45.88243" lon="6.1754">
        <ele>456</ele>
        <time>2018-05-20T06:24:44.822Z</time>
      </trkpt>
      <trkpt lat="45.88244" lon="6.17542">
        <ele>457</ele>
        <time>2018-05-20T06:24:46.822Z</time>
      </trkpt>
      <trkpt lat="45.88247" lon="6.17545">
        <ele>457</ele>
        <time>2018-05-20T06:24:48.822Z</time>
      </trkpt>
      <trkpt lat="45.88249" lon="6.17547">
        <ele>457</ele>
        <time>2018-05-20T06:24:50.822Z</time>
      </trkpt>
      <trkpt lat="45.8825" lon="6.1755">
        <ele>457</ele>
        <time>2018-05-20T06:24:52.822Z</time>
      </trkpt>
      <trkpt lat="45.88251" lon="6.17552">
        <ele>457</ele>
        <time>2018-05-20T06:24:54.822Z</time>
      </trkpt>
      <trkpt lat="45.88252" lon="6.17555">
        <ele>457</ele>
        <time>2018-05-20T06:24:56.822Z</time>
      </trkpt>
      <trkpt lat="45.88253" lon="6.17557">
        <ele>457.1020032</ele>
        <time>2018-05-20T06:24:58.822Z</time>
      </trkpt>
      <trkpt lat="45.88254" lon="6.1756">
        <ele>458</ele>
        <time>2018-05-20T06:25:00.822Z</time>
      </trkpt>
      <trkpt lat="45.88255" lon="6.17563">
        <ele>458</ele>
        <time>2018-05-20T06:25:02.822Z</time>
      </trkpt>
      <trkpt lat="45.88256" lon="6.17566">
        <ele>458.09026857421</ele>
        <time>2018-05-20T06:25:04.822Z</time>
      </trkpt>
      <trkpt lat="45.88259" lon="6.17578">
        <ele>460</ele>
        <time>2018-05-20T06:25:11.822Z</time>
      </trkpt>
      <trkpt lat="45.88259" lon="6.17584">
        <ele>460.1020032</ele>
        <time>2018-05-20T06:25:15.822Z</time>
      </trkpt>
      <trkpt lat="45.88258" lon="6.17589">
        <ele>461</ele>
        <time>2018-05-20T06:25:18.822Z</time>
      </trkpt>
      <trkpt lat="45.88257" lon="6.17592">
        <ele>461.1020032</ele>
        <time>2018-05-20T06:25:20.822Z</time>
      </trkpt>
      <trkpt lat="45.88255" lon="6.17595">
        <ele>462</ele>
        <time>2018-05-20T06:25:22.822Z</time>
      </trkpt>
      <trkpt lat="45.88254" lon="6.17598">
        <ele>462.09623001497</ele>
        <time>2018-05-20T06:25:24.822Z</time>
      </trkpt>
      <trkpt lat="45.88253" lon="6.17601">
        <ele>463</ele>
        <time>2018-05-20T06:25:26.822Z</time>
      </trkpt>
      <trkpt lat="45.88252" lon="6.17603">
        <ele>463</ele>
        <time>2018-05-20T06:25:28.822Z</time>
      </trkpt>
      <trkpt lat="45.88251" lon="6.17606">
        <ele>463</ele>
        <time>2018-05-20T06:25:30.822Z</time>
      </trkpt>
      <trkpt lat="45.8825" lon="6.17609">
        <ele>463</ele>
        <time>2018-05-20T06:25:32.822Z</time>
      </trkpt>
      <trkpt lat="45.88249" lon="6.17612">
        <ele>463</ele>
        <time>2018-05-20T06:25:34.822Z</time>
      </trkpt>
      <trkpt lat="45.88248" lon="6.17615">
        <ele>464</ele>
        <time>2018-05-20T06:25:36.822Z</time>
      </trkpt>
      <trkpt lat="45.88248" lon="6.17618">
        <ele>464</ele>
        <time>2018-05-20T06:25:38.822Z</time>
      </trkpt>
      <trkpt lat="45.88249" lon="6.17622">
        <ele>464</ele>
        <time>2018-05-20T06:25:40.822Z</time>
      </trkpt>
      <trkpt lat="45.8825" lon="6.17625">
        <ele>465</ele>
        <time>2018-05-20T06:25:42.822Z</time>
      </trkpt>
      <trkpt lat="45.8825" lon="6.17628">
        <ele>465</ele>
        <time>2018-05-20T06:25:44.822Z</time>
      </trkpt>
      <trkpt lat="45.8825" lon="6.17632">
        <ele>466</ele>
        <time>2018-05-20T06:25:46.822Z</time>
      </trkpt>
      <trkpt lat="45.88251" lon="6.17635">
        <ele>466</ele>
        <time>2018-05-20T06:25:48.822Z</time>
      </trkpt>
      <trkpt lat="45.88251" lon="6.17638">
        <ele>466</ele>
        <time>2018-05-20T06:25:50.822Z</time>
      </trkpt>
      <trkpt lat="45.88252" lon="6.1764">
        <ele>467</ele>
        <time>2018-05-20T06:25:52.822Z</time>
      </trkpt>
      <trkpt lat="45.88255" lon="6.17652">
        <ele>469</ele>
        <time>2018-05-20T06:26:00.822Z</time>
      </trkpt>
      <trkpt lat="45.88255" lon="6.17656">
        <ele>469</ele>
        <time>2018-05-20T06:26:03.822Z</time>
      </trkpt>
      <trkpt lat="45.88254" lon="6.17659">
        <ele>469</ele>
        <time>2018-05-20T06:26:05.822Z</time>
      </trkpt>
      <trkpt lat="45.88254" lon="6.17662">
        <ele>469</ele>
        <time>2018-05-20T06:26:07.822Z</time>
      </trkpt>
      <trkpt lat="45.88253" lon="6.17665">
        <ele>470</ele>
        <time>2018-05-20T06:26:10.822Z</time>
      </trkpt>
      <trkpt lat="45.88252" lon="6.17668">
        <ele>470</ele>
        <time>2018-05-20T06:26:12.822Z</time>
      </trkpt>
      <trkpt lat="45.88252" lon="6.17672">
        <ele>470</ele>
        <time>2018-05-20T06:26:15.822Z</time>
      </trkpt>
      <trkpt lat="45.8825" lon="6.17674">
        <ele>470</ele>
        <time>2018-05-20T06:26:17.822Z</time>
      </trkpt>
      <trkpt lat="45.88249" lon="6.17678">
        <ele>471</ele>
        <time>2018-05-20T06:26:20.822Z</time>
      </trkpt>
      <trkpt lat="45.88249" lon="6.17681">
        <ele>471.044677751</ele>
        <time>2018-05-20T06:26:22.822Z</time>
      </trkpt>
      <trkpt lat="45.88248" lon="6.17684">
        <ele>472</ele>
        <time>2018-05-20T06:26:24.822Z</time>
      </trkpt>
      <trkpt lat="45.88248" lon="6.17686">
        <ele>472</ele>
        <time>2018-05-20T06:26:26.822Z</time>
      </trkpt>
      <trkpt lat="45.88247" lon="6.1769">
        <ele>472</ele>
        <time>2018-05-20T06:26:28.822Z</time>
      </trkpt>
      <trkpt lat="45.88247" lon="6.17692">
        <ele>473</ele>
        <time>2018-05-20T06:26:30.822Z</time>
      </trkpt>
      <trkpt lat="45.88247" lon="6.17695">
        <ele>473</ele>
        <time>2018-05-20T06:26:32.822Z</time>
      </trkpt>
      <trkpt lat="45.88247" lon="6.17698">
        <ele>473</ele>
        <time>2018-05-20T06:26:34.822Z</time>
      </trkpt>
      <trkpt lat="45.88247" lon="6.17703">
        <ele>474</ele>
        <time>2018-05-20T06:26:37.822Z</time>
      </trkpt>
      <trkpt lat="45.88246" lon="6.17706">
        <ele>474</ele>
        <time>2018-05-20T06:26:39.822Z</time>
      </trkpt>
      <trkpt lat="45.88245" lon="6.17709">
        <ele>474</ele>
        <time>2018-05-20T06:26:41.822Z</time>
      </trkpt>
      <trkpt lat="45.88245" lon="6.17711">
        <ele>475</ele>
        <time>2018-05-20T06:26:43.822Z</time>
      </trkpt>
      <trkpt lat="45.88245" lon="6.17714">
        <ele>475</ele>
        <time>2018-05-20T06:26:45.822Z</time>
      </trkpt>
      <trkpt lat="45.88245" lon="6.17717">
        <ele>475</ele>
        <time>2018-05-20T06:26:47.822Z</time>
      </trkpt>
      <trkpt lat="45.88245" lon="6.1772">
        <ele>475</ele>
        <time>2018-05-20T06:26:49.822Z</time>
      </trkpt>
      <trkpt lat="45.88245" lon="6.17723">
        <ele>475.1020032</ele>
        <time>2018-05-20T06:26:51.822Z</time>
      </trkpt>
      <trkpt lat="45.88245" lon="6.17726">
        <ele>476</ele>
        <time>2018-05-20T06:26:53.822Z</time>
      </trkpt>
      <trkpt lat="45.88245" lon="6.17729">
        <ele>476</ele>
        <time>2018-05-20T06:26:55.822Z</time>
      </trkpt>
      <trkpt lat="45.88245" lon="6.17732">
        <ele>476</ele>
        <time>2018-05-20T06:26:57.822Z</time>
      </trkpt>
      <trkpt lat="45.88244" lon="6.17736">
        <ele>476.1020032</ele>
        <time>2018-05-20T06:26:59.822Z</time>
      </trkpt>
      <trkpt lat="45.88244" lon="6.17739">
        <ele>478</ele>
        <time>2018-05-20T06:27:01.822Z</time>
      </trkpt>
      <trkpt lat="45.88244" lon="6.17752">
        <ele>479</ele>
        <time>2018-05-20T06:27:09.822Z</time>
      </trkpt>
      <trkpt lat="45.88239" lon="6.17765">
        <ele>481</ele>
        <time>2018-05-20T06:27:17.822Z</time>
      </trkpt>
      <trkpt lat="45.88238" lon="6.17769">
        <ele>481</ele>
        <time>2018-05-20T06:27:21.822Z</time>
      </trkpt>
      <trkpt lat="45.88236" lon="6.17771">
        <ele>481</ele>
        <time>2018-05-20T06:27:24.822Z</time>
      </trkpt>
      <trkpt lat="45.88235" lon="6.17773">
        <ele>481</ele>
        <time>2018-05-20T06:27:27.822Z</time>
      </trkpt>
      <trkpt lat="45.88234" lon="6.17775">
        <ele>481.09189450985</ele>
        <time>2018-05-20T06:27:29.822Z</time>
      </trkpt>
      <trkpt lat="45.88232" lon="6.17778">
        <ele>482</ele>
        <time>2018-05-20T06:27:32.822Z</time>
      </trkpt>
      <trkpt lat="45.88231" lon="6.17779">
        <ele>482</ele>
        <time>2018-05-20T06:27:34.822Z</time>
      </trkpt>
      <trkpt lat="45.88228" lon="6.17793">
        <ele>484.05474339455</ele>
        <time>2018-05-20T06:27:44.822Z</time>
      </trkpt>
      <trkpt lat="45.88227" lon="6.17806">
        <ele>487</ele>
        <time>2018-05-20T06:27:55.822Z</time>
      </trkpt>
      <trkpt lat="45.88219" lon="6.17813">
        <ele>488</ele>
        <time>2018-05-20T06:28:05.822Z</time>
      </trkpt>
      <trkpt lat="45.88218" lon="6.17815">
        <ele>489</ele>
        <time>2018-05-20T06:28:08.822Z</time>
      </trkpt>
      <trkpt lat="45.88217" lon="6.17818">
        <ele>489</ele>
        <time>2018-05-20T06:28:11.822Z</time>
      </trkpt>
      <trkpt lat="45.8822" lon="6.17822">
        <ele>490</ele>
        <time>2018-05-20T06:28:15.822Z</time>
      </trkpt>
      <trkpt lat="45.88221" lon="6.17823">
        <ele>490</ele>
        <time>2018-05-20T06:28:18.822Z</time>
      </trkpt>
      <trkpt lat="45.88222" lon="6.17827">
        <ele>490</ele>
        <time>2018-05-20T06:28:23.822Z</time>
      </trkpt>
      <trkpt lat="45.88231" lon="6.17832">
        <ele>490</ele>
        <time>2018-05-20T06:28:32.822Z</time>
      </trkpt>
      <trkpt lat="45.88238" lon="6.17833">
        <ele>490</ele>
        <time>2018-05-20T06:28:38.822Z</time>
      </trkpt>
      <trkpt lat="45.88246" lon="6.17823">
        <ele>490</ele>
        <time>2018-05-20T06:28:46.822Z</time>
      </trkpt>
      <trkpt lat="45.88253" lon="6.17818">
        <ele>490</ele>
        <time>2018-05-20T06:28:53.822Z</time>
      </trkpt>
      <trkpt lat="45.88255" lon="6.17819">
        <ele>490</ele>
        <time>2018-05-20T06:28:55.822Z</time>
      </trkpt>
      <trkpt lat="45.88262" lon="6.17809">
        <ele>490</ele>
        <time>2018-05-20T06:29:03.822Z</time>
      </trkpt>
      <trkpt lat="45.88269" lon="6.17803">
        <ele>489</ele>
        <time>2018-05-20T06:29:09.822Z</time>
      </trkpt>
      <trkpt lat="45.88277" lon="6.17806">
        <ele>489</ele>
        <time>2018-05-20T06:29:16.822Z</time>
      </trkpt>
      <trkpt lat="45.88281" lon="6.17805">
        <ele>489</ele>
        <time>2018-05-20T06:29:19.822Z</time>
      </trkpt>
      <trkpt lat="45.88283" lon="6.17805">
        <ele>489</ele>
        <time>2018-05-20T06:29:21.822Z</time>
      </trkpt>
      <trkpt lat="45.88285" lon="6.17806">
        <ele>489</ele>
        <time>2018-05-20T06:29:23.822Z</time>
      </trkpt>
      <trkpt lat="45.88287" lon="6.17806">
        <ele>489</ele>
        <time>2018-05-20T06:29:25.822Z</time>
      </trkpt>
      <trkpt lat="45.88289" lon="6.17806">
        <ele>489</ele>
        <time>2018-05-20T06:29:27.822Z</time>
      </trkpt>
      <trkpt lat="45.88291" lon="6.17805">
        <ele>489</ele>
        <time>2018-05-20T06:29:29.822Z</time>
      </trkpt>
      <trkpt lat="45.88293" lon="6.17804">
        <ele>489</ele>
        <time>2018-05-20T06:29:31.822Z</time>
      </trkpt>
      <trkpt lat="45.88295" lon="6.17803">
        <ele>489</ele>
        <time>2018-05-20T06:29:33.822Z</time>
      </trkpt>
      <trkpt lat="45.88297" lon="6.17802">
        <ele>489</ele>
        <time>2018-05-20T06:29:35.822Z</time>
      </trkpt>
      <trkpt lat="45.88299" lon="6.178">
        <ele>489</ele>
        <time>2018-05-20T06:29:37.822Z</time>
      </trkpt>
      <trkpt lat="45.883" lon="6.17798">
        <ele>489</ele>
        <time>2018-05-20T06:29:39.822Z</time>
      </trkpt>
      <trkpt lat="45.88307" lon="6.17791">
        <ele>488</ele>
        <time>2018-05-20T06:29:46.822Z</time>
      </trkpt>
      <trkpt lat="45.88309" lon="6.1779">
        <ele>488</ele>
        <time>2018-05-20T06:29:48.822Z</time>
      </trkpt>
      <trkpt lat="45.88311" lon="6.17789">
        <ele>488</ele>
        <time>2018-05-20T06:29:50.822Z</time>
      </trkpt>
      <trkpt lat="45.88314" lon="6.17789">
        <ele>488</ele>
        <time>2018-05-20T06:29:52.822Z</time>
      </trkpt>
      <trkpt lat="45.88322" lon="6.17784">
        <ele>488</ele>
        <time>2018-05-20T06:29:59.822Z</time>
      </trkpt>
      <trkpt lat="45.88328" lon="6.17777">
        <ele>488</ele>
        <time>2018-05-20T06:30:06.822Z</time>
      </trkpt>
      <trkpt lat="45.88335" lon="6.17781">
        <ele>488</ele>
        <time>2018-05-20T06:30:14.822Z</time>
      </trkpt>
      <trkpt lat="45.88335" lon="6.17784">
        <ele>488</ele>
        <time>2018-05-20T06:30:19.822Z</time>
      </trkpt>
      <trkpt lat="45.88335" lon="6.17787">
        <ele>488</ele>
        <time>2018-05-20T06:30:44.822Z</time>
      </trkpt>
      <trkpt lat="45.8834" lon="6.17786">
        <ele>488</ele>
        <time>2018-05-20T06:31:25.822Z</time>
      </trkpt>
      <trkpt lat="45.88342" lon="6.17789">
        <ele>488</ele>
        <time>2018-05-20T06:31:41.822Z</time>
      </trkpt>
      <trkpt lat="45.88344" lon="6.17791">
        <ele>488</ele>
        <time>2018-05-20T06:31:44.822Z</time>
      </trkpt>
      <trkpt lat="45.88345" lon="6.17794">
        <ele>488</ele>
        <time>2018-05-20T06:31:46.822Z</time>
      </trkpt>
      <trkpt lat="45.88345" lon="6.17797">
        <ele>488.8412217619</ele>
        <time>2018-05-20T06:31:48.822Z</time>
      </trkpt>
      <trkpt lat="45.88346" lon="6.17801">
        <ele>489</ele>
        <time>2018-05-20T06:31:50.822Z</time>
      </trkpt>
      <trkpt lat="45.88347" lon="6.17804">
        <ele>489</ele>
        <time>2018-05-20T06:31:52.822Z</time>
      </trkpt>
      <trkpt lat="45.88348" lon="6.17815">
        <ele>490.074227049</ele>
        <time>2018-05-20T06:31:59.822Z</time>
      </trkpt>
      <trkpt lat="45.88348" lon="6.17819">
        <ele>491</ele>
        <time>2018-05-20T06:32:01.822Z</time>
      </trkpt>
      <trkpt lat="45.8835" lon="6.17824">
        <ele>491</ele>
        <time>2018-05-20T06:32:04.822Z</time>
      </trkpt>
      <trkpt lat="45.88351" lon="6.17836">
        <ele>491.10000250979</ele>
        <time>2018-05-20T06:32:12.822Z</time>
      </trkpt>
      <trkpt lat="45.88352" lon="6.17839">
        <ele>492</ele>
        <time>2018-05-20T06:32:14.822Z</time>
      </trkpt>
      <trkpt lat="45.88355" lon="6.17848">
        <ele>493</ele>
        <time>2018-05-20T06:32:20.822Z</time>
      </trkpt>
      <trkpt lat="45.88355" lon="6.17851">
        <ele>494</ele>
        <time>2018-05-20T06:32:22.822Z</time>
      </trkpt>
      <trkpt lat="45.88356" lon="6.17854">
        <ele>494</ele>
        <time>2018-05-20T06:32:24.822Z</time>
      </trkpt>
      <trkpt lat="45.8836" lon="6.17866">
        <ele>494</ele>
        <time>2018-05-20T06:32:32.822Z</time>
      </trkpt>
      <trkpt lat="45.8836" lon="6.17871">
        <ele>495</ele>
        <time>2018-05-20T06:32:35.822Z</time>
      </trkpt>
      <trkpt lat="45.88359" lon="6.17874">
        <ele>495.1020032</ele>
        <time>2018-05-20T06:32:37.822Z</time>
      </trkpt>
      <trkpt lat="45.88358" lon="6.17879">
        <ele>496</ele>
        <time>2018-05-20T06:32:40.822Z</time>
      </trkpt>
      <trkpt lat="45.88357" lon="6.17882">
        <ele>497</ele>
        <time>2018-05-20T06:32:42.822Z</time>
      </trkpt>
      <trkpt lat="45.88356" lon="6.17885">
        <ele>497</ele>
        <time>2018-05-20T06:32:44.822Z</time>
      </trkpt>
      <trkpt lat="45.88355" lon="6.17888">
        <ele>497</ele>
        <time>2018-05-20T06:32:46.822Z</time>
      </trkpt>
      <trkpt lat="45.88354" lon="6.17891">
        <ele>497</ele>
        <time>2018-05-20T06:32:48.822Z</time>
      </trkpt>
      <trkpt lat="45.88352" lon="6.17894">
        <ele>497.00223287301</ele>
        <time>2018-05-20T06:32:50.822Z</time>
      </trkpt>
      <trkpt lat="45.88351" lon="6.17896">
        <ele>498</ele>
        <time>2018-05-20T06:32:52.822Z</time>
      </trkpt>
      <trkpt lat="45.8835" lon="6.17899">
        <ele>498</ele>
        <time>2018-05-20T06:32:54.822Z</time>
      </trkpt>
      <trkpt lat="45.8835" lon="6.17902">
        <ele>499</ele>
        <time>2018-05-20T06:32:56.822Z</time>
      </trkpt>
      <trkpt lat="45.8835" lon="6.17905">
        <ele>499</ele>
        <time>2018-05-20T06:32:58.822Z</time>
      </trkpt>
      <trkpt lat="45.8835" lon="6.17907">
        <ele>499</ele>
        <time>2018-05-20T06:33:00.822Z</time>
      </trkpt>
      <trkpt lat="45.88351" lon="6.1791">
        <ele>499.1020032</ele>
        <time>2018-05-20T06:33:02.822Z</time>
      </trkpt>
      <trkpt lat="45.88352" lon="6.17914">
        <ele>500</ele>
        <time>2018-05-20T06:33:04.822Z</time>
      </trkpt>
      <trkpt lat="45.88353" lon="6.17916">
        <ele>500</ele>
        <time>2018-05-20T06:33:06.822Z</time>
      </trkpt>
      <trkpt lat="45.88353" lon="6.17919">
        <ele>500</ele>
        <time>2018-05-20T06:33:08.822Z</time>
      </trkpt>
      <trkpt lat="45.88354" lon="6.17922">
        <ele>500.1020032</ele>
        <time>2018-05-20T06:33:10.822Z</time>
      </trkpt>
      <trkpt lat="45.88357" lon="6.17935">
        <ele>502</ele>
        <time>2018-05-20T06:33:20.822Z</time>
      </trkpt>
      <trkpt lat="45.88362" lon="6.17945">
        <ele>503</ele>
        <time>2018-05-20T06:33:28.822Z</time>
      </trkpt>
      <trkpt lat="45.88364" lon="6.17948">
        <ele>504</ele>
        <time>2018-05-20T06:33:30.822Z</time>
      </trkpt>
      <trkpt lat="45.88364" lon="6.17952">
        <ele>504.10000376473</ele>
        <time>2018-05-20T06:33:33.822Z</time>
      </trkpt>
      <trkpt lat="45.88365" lon="6.17957">
        <ele>505</ele>
        <time>2018-05-20T06:33:36.822Z</time>
      </trkpt>
      <trkpt lat="45.88367" lon="6.1796">
        <ele>506</ele>
        <time>2018-05-20T06:33:38.822Z</time>
      </trkpt>
      <trkpt lat="45.88367" lon="6.17963">
        <ele>506</ele>
        <time>2018-05-20T06:33:40.822Z</time>
      </trkpt>
      <trkpt lat="45.8837" lon="6.17971">
        <ele>506</ele>
        <time>2018-05-20T06:33:45.822Z</time>
      </trkpt>
      <trkpt lat="45.88374" lon="6.17983">
        <ele>507</ele>
        <time>2018-05-20T06:33:56.822Z</time>
      </trkpt>
      <trkpt lat="45.88378" lon="6.17996">
        <ele>509</ele>
        <time>2018-05-20T06:34:07.822Z</time>
      </trkpt>
      <trkpt lat="45.88372" lon="6.18007">
        <ele>510</ele>
        <time>2018-05-20T06:34:18.822Z</time>
      </trkpt>
      <trkpt lat="45.88363" lon="6.18014">
        <ele>511</ele>
        <time>2018-05-20T06:34:25.822Z</time>
      </trkpt>
      <trkpt lat="45.88361" lon="6.18017">
        <ele>511</ele>
        <time>2018-05-20T06:34:27.822Z</time>
      </trkpt>
      <trkpt lat="45.8836" lon="6.18021">
        <ele>512</ele>
        <time>2018-05-20T06:34:30.822Z</time>
      </trkpt>
      <trkpt lat="45.8836" lon="6.18024">
        <ele>512</ele>
        <time>2018-05-20T06:34:33.822Z</time>
      </trkpt>
      <trkpt lat="45.88362" lon="6.18027">
        <ele>512</ele>
        <time>2018-05-20T06:34:36.822Z</time>
      </trkpt>
      <trkpt lat="45.88365" lon="6.18027">
        <ele>512</ele>
        <time>2018-05-20T06:34:39.822Z</time>
      </trkpt>
      <trkpt lat="45.88367" lon="6.18028">
        <ele>512</ele>
        <time>2018-05-20T06:34:42.822Z</time>
      </trkpt>
      <trkpt lat="45.88377" lon="6.18031">
        <ele>513</ele>
        <time>2018-05-20T06:34:52.822Z</time>
      </trkpt>
      <trkpt lat="45.88379" lon="6.1803">
        <ele>513</ele>
        <time>2018-05-20T06:34:54.822Z</time>
      </trkpt>
      <trkpt lat="45.88382" lon="6.1803">
        <ele>513.10000250979</ele>
        <time>2018-05-20T06:34:56.822Z</time>
      </trkpt>
      <trkpt lat="45.88384" lon="6.18029">
        <ele>514</ele>
        <time>2018-05-20T06:34:58.822Z</time>
      </trkpt>
      <trkpt lat="45.88386" lon="6.18029">
        <ele>514</ele>
        <time>2018-05-20T06:35:00.822Z</time>
      </trkpt>
      <trkpt lat="45.88388" lon="6.18029">
        <ele>514</ele>
        <time>2018-05-20T06:35:02.822Z</time>
      </trkpt>
      <trkpt lat="45.8839" lon="6.18029">
        <ele>515</ele>
        <time>2018-05-20T06:35:04.822Z</time>
      </trkpt>
      <trkpt lat="45.88393" lon="6.18029">
        <ele>515</ele>
        <time>2018-05-20T06:35:08.822Z</time>
      </trkpt>
      <trkpt lat="45.88395" lon="6.18028">
        <ele>515</ele>
        <time>2018-05-20T06:35:10.822Z</time>
      </trkpt>
      <trkpt lat="45.88397" lon="6.18027">
        <ele>515</ele>
        <time>2018-05-20T06:35:12.822Z</time>
      </trkpt>
      <trkpt lat="45.88398" lon="6.18027">
        <ele>515</ele>
        <time>2018-05-20T06:35:14.822Z</time>
      </trkpt>
      <trkpt lat="45.88408" lon="6.18026">
        <ele>516</ele>
        <time>2018-05-20T06:35:26.822Z</time>
      </trkpt>
      <trkpt lat="45.88416" lon="6.18019">
        <ele>517</ele>
        <time>2018-05-20T06:35:33.822Z</time>
      </trkpt>
      <trkpt lat="45.88425" lon="6.18015">
        <ele>518</ele>
        <time>2018-05-20T06:35:40.822Z</time>
      </trkpt>
      <trkpt lat="45.88431" lon="6.18012">
        <ele>518</ele>
        <time>2018-05-20T06:35:45.822Z</time>
      </trkpt>
      <trkpt lat="45.88433" lon="6.18011">
        <ele>518</ele>
        <time>2018-05-20T06:35:47.822Z</time>
      </trkpt>
      <trkpt lat="45.88435" lon="6.1801">
        <ele>519</ele>
        <time>2018-05-20T06:35:49.822Z</time>
      </trkpt>
      <trkpt lat="45.88437" lon="6.18008">
        <ele>519</ele>
        <time>2018-05-20T06:35:51.822Z</time>
      </trkpt>
      <trkpt lat="45.8844" lon="6.18005">
        <ele>518</ele>
        <time>2018-05-20T06:35:54.822Z</time>
      </trkpt>
      <trkpt lat="45.88441" lon="6.18003">
        <ele>518</ele>
        <time>2018-05-20T06:35:56.822Z</time>
      </trkpt>
      <trkpt lat="45.88443" lon="6.18002">
        <ele>518.96752225119</ele>
        <time>2018-05-20T06:35:58.822Z</time>
      </trkpt>
      <trkpt lat="45.88446" lon="6.18001">
        <ele>519</ele>
        <time>2018-05-20T06:36:01.822Z</time>
      </trkpt>
      <trkpt lat="45.88448" lon="6.18">
        <ele>519</ele>
        <time>2018-05-20T06:36:03.822Z</time>
      </trkpt>
      <trkpt lat="45.8845" lon="6.17999">
        <ele>520</ele>
        <time>2018-05-20T06:36:05.822Z</time>
      </trkpt>
      <trkpt lat="45.88452" lon="6.17998">
        <ele>520</ele>
        <time>2018-05-20T06:36:07.822Z</time>
      </trkpt>
      <trkpt lat="45.88455" lon="6.17996">
        <ele>520.1020032</ele>
        <time>2018-05-20T06:36:09.822Z</time>
      </trkpt>
      <trkpt lat="45.88457" lon="6.17995">
        <ele>521</ele>
        <time>2018-05-20T06:36:11.822Z</time>
      </trkpt>
      <trkpt lat="45.8846" lon="6.17994">
        <ele>521</ele>
        <time>2018-05-20T06:36:14.822Z</time>
      </trkpt>
      <trkpt lat="45.88462" lon="6.17993">
        <ele>521</ele>
        <time>2018-05-20T06:36:16.822Z</time>
      </trkpt>
      <trkpt lat="45.88464" lon="6.17992">
        <ele>521</ele>
        <time>2018-05-20T06:36:18.822Z</time>
      </trkpt>
      <trkpt lat="45.88466" lon="6.17992">
        <ele>522</ele>
        <time>2018-05-20T06:36:20.822Z</time>
      </trkpt>
      <trkpt lat="45.88474" lon="6.17987">
        <ele>523</ele>
        <time>2018-05-20T06:36:28.822Z</time>
      </trkpt>
      <trkpt lat="45.88476" lon="6.17987">
        <ele>523</ele>
        <time>2018-05-20T06:36:30.822Z</time>
      </trkpt>
      <trkpt lat="45.88479" lon="6.17986">
        <ele>523</ele>
        <time>2018-05-20T06:36:32.822Z</time>
      </trkpt>
      <trkpt lat="45.88481" lon="6.17985">
        <ele>523.1020032</ele>
        <time>2018-05-20T06:36:34.822Z</time>
      </trkpt>
      <trkpt lat="45.88483" lon="6.17984">
        <ele>524</ele>
        <time>2018-05-20T06:36:36.822Z</time>
      </trkpt>
      <trkpt lat="45.88485" lon="6.17983">
        <ele>524</ele>
        <time>2018-05-20T06:36:38.822Z</time>
      </trkpt>
      <trkpt lat="45.88487" lon="6.17982">
        <ele>524</ele>
        <time>2018-05-20T06:36:40.822Z</time>
      </trkpt>
      <trkpt lat="45.88489" lon="6.17981">
        <ele>524</ele>
        <time>2018-05-20T06:36:42.822Z</time>
      </trkpt>
      <trkpt lat="45.88492" lon="6.1798">
        <ele>524</ele>
        <time>2018-05-20T06:36:44.822Z</time>
      </trkpt>
      <trkpt lat="45.88494" lon="6.17979">
        <ele>524</ele>
        <time>2018-05-20T06:36:46.822Z</time>
      </trkpt>
      <trkpt lat="45.88496" lon="6.17978">
        <ele>524</ele>
        <time>2018-05-20T06:36:48.822Z</time>
      </trkpt>
      <trkpt lat="45.88498" lon="6.17977">
        <ele>524</ele>
        <time>2018-05-20T06:36:50.822Z</time>
      </trkpt>
      <trkpt lat="45.885" lon="6.17976">
        <ele>524</ele>
        <time>2018-05-20T06:36:52.822Z</time>
      </trkpt>
      <trkpt lat="45.88501" lon="6.17975">
        <ele>524</ele>
        <time>2018-05-20T06:36:54.822Z</time>
      </trkpt>
      <trkpt lat="45.88504" lon="6.17974">
        <ele>524.08368271881</ele>
        <time>2018-05-20T06:36:56.822Z</time>
      </trkpt>
      <trkpt lat="45.88505" lon="6.17973">
        <ele>525</ele>
        <time>2018-05-20T06:36:58.822Z</time>
      </trkpt>
      <trkpt lat="45.88508" lon="6.17972">
        <ele>525</ele>
        <time>2018-05-20T06:37:00.822Z</time>
      </trkpt>
      <trkpt lat="45.8851" lon="6.17972">
        <ele>525</ele>
        <time>2018-05-20T06:37:02.822Z</time>
      </trkpt>
      <trkpt lat="45.88512" lon="6.17971">
        <ele>525.03440872055</ele>
        <time>2018-05-20T06:37:04.822Z</time>
      </trkpt>
      <trkpt lat="45.88514" lon="6.17971">
        <ele>526</ele>
        <time>2018-05-20T06:37:06.822Z</time>
      </trkpt>
      <trkpt lat="45.88516" lon="6.17971">
        <ele>526</ele>
        <time>2018-05-20T06:37:08.822Z</time>
      </trkpt>
      <trkpt lat="45.88519" lon="6.17972">
        <ele>527</ele>
        <time>2018-05-20T06:37:10.822Z</time>
      </trkpt>
      <trkpt lat="45.88521" lon="6.17974">
        <ele>527</ele>
        <time>2018-05-20T06:37:12.822Z</time>
      </trkpt>
      <trkpt lat="45.88523" lon="6.17976">
        <ele>527</ele>
        <time>2018-05-20T06:37:14.822Z</time>
      </trkpt>
      <trkpt lat="45.88525" lon="6.17978">
        <ele>527</ele>
        <time>2018-05-20T06:37:16.822Z</time>
      </trkpt>
      <trkpt lat="45.88526" lon="6.17981">
        <ele>528</ele>
        <time>2018-05-20T06:37:18.822Z</time>
      </trkpt>
      <trkpt lat="45.88527" lon="6.17984">
        <ele>528</ele>
        <time>2018-05-20T06:37:20.822Z</time>
      </trkpt>
      <trkpt lat="45.88527" lon="6.17988">
        <ele>528</ele>
        <time>2018-05-20T06:37:22.822Z</time>
      </trkpt>
      <trkpt lat="45.88528" lon="6.17991">
        <ele>528</ele>
        <time>2018-05-20T06:37:24.822Z</time>
      </trkpt>
      <trkpt lat="45.88528" lon="6.17995">
        <ele>528</ele>
        <time>2018-05-20T06:37:26.822Z</time>
      </trkpt>
      <trkpt lat="45.88528" lon="6.17998">
        <ele>528</ele>
        <time>2018-05-20T06:37:28.822Z</time>
      </trkpt>
      <trkpt lat="45.88528" lon="6.18001">
        <ele>528.8412217619</ele>
        <time>2018-05-20T06:37:30.822Z</time>
      </trkpt>
      <trkpt lat="45.88522" lon="6.18011">
        <ele>530</ele>
        <time>2018-05-20T06:37:39.822Z</time>
      </trkpt>
      <trkpt lat="45.88519" lon="6.18014">
        <ele>530</ele>
        <time>2018-05-20T06:37:42.822Z</time>
      </trkpt>
      <trkpt lat="45.88517" lon="6.18016">
        <ele>531</ele>
        <time>2018-05-20T06:37:44.822Z</time>
      </trkpt>
      <trkpt lat="45.88515" lon="6.18018">
        <ele>531</ele>
        <time>2018-05-20T06:37:46.822Z</time>
      </trkpt>
      <trkpt lat="45.88513" lon="6.1802">
        <ele>531</ele>
        <time>2018-05-20T06:37:48.822Z</time>
      </trkpt>
      <trkpt lat="45.8851" lon="6.18023">
        <ele>531</ele>
        <time>2018-05-20T06:37:50.822Z</time>
      </trkpt>
      <trkpt lat="45.88508" lon="6.18027">
        <ele>531</ele>
        <time>2018-05-20T06:37:53.822Z</time>
      </trkpt>
      <trkpt lat="45.88506" lon="6.18029">
        <ele>531.00221868244</ele>
        <time>2018-05-20T06:37:55.822Z</time>
      </trkpt>
      <trkpt lat="45.88504" lon="6.18032">
        <ele>532</ele>
        <time>2018-05-20T06:37:57.822Z</time>
      </trkpt>
      <trkpt lat="45.88502" lon="6.18034">
        <ele>532</ele>
        <time>2018-05-20T06:37:59.822Z</time>
      </trkpt>
      <trkpt lat="45.885" lon="6.18036">
        <ele>532</ele>
        <time>2018-05-20T06:38:01.822Z</time>
      </trkpt>
      <trkpt lat="45.88498" lon="6.18038">
        <ele>532</ele>
        <time>2018-05-20T06:38:03.822Z</time>
      </trkpt>
      <trkpt lat="45.88496" lon="6.1804">
        <ele>532</ele>
        <time>2018-05-20T06:38:05.822Z</time>
      </trkpt>
      <trkpt lat="45.88494" lon="6.18042">
        <ele>532</ele>
        <time>2018-05-20T06:38:07.822Z</time>
      </trkpt>
      <trkpt lat="45.88492" lon="6.18045">
        <ele>532</ele>
        <time>2018-05-20T06:38:09.822Z</time>
      </trkpt>
      <trkpt lat="45.88487" lon="6.1805">
        <ele>533</ele>
        <time>2018-05-20T06:38:16.822Z</time>
      </trkpt>
      <trkpt lat="45.88485" lon="6.18052">
        <ele>533.1020032</ele>
        <time>2018-05-20T06:38:18.822Z</time>
      </trkpt>
      <trkpt lat="45.88484" lon="6.18056">
        <ele>534</ele>
        <time>2018-05-20T06:38:20.822Z</time>
      </trkpt>
      <trkpt lat="45.88483" lon="6.18059">
        <ele>534</ele>
        <time>2018-05-20T06:38:22.822Z</time>
      </trkpt>
      <trkpt lat="45.88482" lon="6.18063">
        <ele>534.03440872055</ele>
        <time>2018-05-20T06:38:24.822Z</time>
      </trkpt>
      <trkpt lat="45.88482" lon="6.18067">
        <ele>535</ele>
        <time>2018-05-20T06:38:26.822Z</time>
      </trkpt>
      <trkpt lat="45.88482" lon="6.18071">
        <ele>535</ele>
        <time>2018-05-20T06:38:28.822Z</time>
      </trkpt>
      <trkpt lat="45.88481" lon="6.18074">
        <ele>535.1020032</ele>
        <time>2018-05-20T06:38:30.822Z</time>
      </trkpt>
      <trkpt lat="45.88482" lon="6.18077">
        <ele>536</ele>
        <time>2018-05-20T06:38:32.822Z</time>
      </trkpt>
      <trkpt lat="45.88486" lon="6.18083">
        <ele>537</ele>
        <time>2018-05-20T06:38:37.822Z</time>
      </trkpt>
      <trkpt lat="45.88494" lon="6.18087">
        <ele>538</ele>
        <time>2018-05-20T06:38:44.822Z</time>
      </trkpt>
      <trkpt lat="45.88496" lon="6.18088">
        <ele>538</ele>
        <time>2018-05-20T06:38:46.822Z</time>
      </trkpt>
      <trkpt lat="45.88501" lon="6.18089">
        <ele>539</ele>
        <time>2018-05-20T06:38:51.822Z</time>
      </trkpt>
      <trkpt lat="45.88503" lon="6.18089">
        <ele>539</ele>
        <time>2018-05-20T06:38:53.822Z</time>
      </trkpt>
      <trkpt lat="45.88505" lon="6.18089">
        <ele>539</ele>
        <time>2018-05-20T06:38:55.822Z</time>
      </trkpt>
      <trkpt lat="45.88507" lon="6.18089">
        <ele>539</ele>
        <time>2018-05-20T06:38:57.822Z</time>
      </trkpt>
      <trkpt lat="45.8851" lon="6.18089">
        <ele>539</ele>
        <time>2018-05-20T06:38:59.822Z</time>
      </trkpt>
      <trkpt lat="45.88512" lon="6.18088">
        <ele>539</ele>
        <time>2018-05-20T06:39:01.822Z</time>
      </trkpt>
      <trkpt lat="45.88514" lon="6.18086">
        <ele>539</ele>
        <time>2018-05-20T06:39:03.822Z</time>
      </trkpt>
      <trkpt lat="45.88516" lon="6.18084">
        <ele>539</ele>
        <time>2018-05-20T06:39:05.822Z</time>
      </trkpt>
      <trkpt lat="45.88517" lon="6.18083">
        <ele>539</ele>
        <time>2018-05-20T06:39:07.822Z</time>
      </trkpt>
      <trkpt lat="45.88518" lon="6.1808">
        <ele>540</ele>
        <time>2018-05-20T06:39:21.822Z</time>
      </trkpt>
      <trkpt lat="45.88519" lon="6.18076">
        <ele>540</ele>
        <time>2018-05-20T06:39:24.822Z</time>
      </trkpt>
      <trkpt lat="45.8852" lon="6.18074">
        <ele>540</ele>
        <time>2018-05-20T06:39:26.822Z</time>
      </trkpt>
      <trkpt lat="45.88522" lon="6.18072">
        <ele>541</ele>
        <time>2018-05-20T06:39:28.822Z</time>
      </trkpt>
      <trkpt lat="45.88523" lon="6.1807">
        <ele>541</ele>
        <time>2018-05-20T06:39:30.822Z</time>
      </trkpt>
      <trkpt lat="45.88525" lon="6.18068">
        <ele>541</ele>
        <time>2018-05-20T06:39:32.822Z</time>
      </trkpt>
      <trkpt lat="45.88527" lon="6.18066">
        <ele>541</ele>
        <time>2018-05-20T06:39:35.822Z</time>
      </trkpt>
      <trkpt lat="45.88529" lon="6.18063">
        <ele>541</ele>
        <time>2018-05-20T06:39:39.822Z</time>
      </trkpt>
      <trkpt lat="45.8853" lon="6.18062">
        <ele>541.09026857421</ele>
        <time>2018-05-20T06:39:41.822Z</time>
      </trkpt>
      <trkpt lat="45.88532" lon="6.1806">
        <ele>542</ele>
        <time>2018-05-20T06:39:43.822Z</time>
      </trkpt>
      <trkpt lat="45.88534" lon="6.18058">
        <ele>542</ele>
        <time>2018-05-20T06:39:45.822Z</time>
      </trkpt>
      <trkpt lat="45.88536" lon="6.18057">
        <ele>542</ele>
        <time>2018-05-20T06:39:47.822Z</time>
      </trkpt>
      <trkpt lat="45.88537" lon="6.18056">
        <ele>542</ele>
        <time>2018-05-20T06:39:49.822Z</time>
      </trkpt>
      <trkpt lat="45.88539" lon="6.18055">
        <ele>542</ele>
        <time>2018-05-20T06:39:51.822Z</time>
      </trkpt>
      <trkpt lat="45.88541" lon="6.18053">
        <ele>542</ele>
        <time>2018-05-20T06:39:53.822Z</time>
      </trkpt>
      <trkpt lat="45.88544" lon="6.18053">
        <ele>543</ele>
        <time>2018-05-20T06:39:55.822Z</time>
      </trkpt>
      <trkpt lat="45.88546" lon="6.18053">
        <ele>543</ele>
        <time>2018-05-20T06:39:57.822Z</time>
      </trkpt>
      <trkpt lat="45.88548" lon="6.18051">
        <ele>543</ele>
        <time>2018-05-20T06:39:59.822Z</time>
      </trkpt>
      <trkpt lat="45.8855" lon="6.1805">
        <ele>543</ele>
        <time>2018-05-20T06:40:01.822Z</time>
      </trkpt>
      <trkpt lat="45.88552" lon="6.18048">
        <ele>543</ele>
        <time>2018-05-20T06:40:03.822Z</time>
      </trkpt>
      <trkpt lat="45.88554" lon="6.18047">
        <ele>543.1020032</ele>
        <time>2018-05-20T06:40:05.822Z</time>
      </trkpt>
      <trkpt lat="45.88556" lon="6.18045">
        <ele>544</ele>
        <time>2018-05-20T06:40:07.822Z</time>
      </trkpt>
      <trkpt lat="45.88559" lon="6.18044">
        <ele>544</ele>
        <time>2018-05-20T06:40:09.822Z</time>
      </trkpt>
      <trkpt lat="45.88561" lon="6.18043">
        <ele>544</ele>
        <time>2018-05-20T06:40:11.822Z</time>
      </trkpt>
      <trkpt lat="45.88563" lon="6.18042">
        <ele>544</ele>
        <time>2018-05-20T06:40:13.822Z</time>
      </trkpt>
      <trkpt lat="45.88565" lon="6.1804">
        <ele>545</ele>
        <time>2018-05-20T06:40:15.822Z</time>
      </trkpt>
      <trkpt lat="45.88567" lon="6.18038">
        <ele>545</ele>
        <time>2018-05-20T06:40:17.822Z</time>
      </trkpt>
      <trkpt lat="45.8857" lon="6.18037">
        <ele>545</ele>
        <time>2018-05-20T06:40:19.822Z</time>
      </trkpt>
      <trkpt lat="45.88571" lon="6.18036">
        <ele>545</ele>
        <time>2018-05-20T06:40:21.822Z</time>
      </trkpt>
      <trkpt lat="45.88573" lon="6.18035">
        <ele>545</ele>
        <time>2018-05-20T06:40:23.822Z</time>
      </trkpt>
      <trkpt lat="45.88575" lon="6.18033">
        <ele>545</ele>
        <time>2018-05-20T06:40:25.822Z</time>
      </trkpt>
      <trkpt lat="45.88578" lon="6.18032">
        <ele>545</ele>
        <time>2018-05-20T06:40:28.822Z</time>
      </trkpt>
      <trkpt lat="45.8858" lon="6.18031">
        <ele>545.09026857421</ele>
        <time>2018-05-20T06:40:30.822Z</time>
      </trkpt>
      <trkpt lat="45.88582" lon="6.1803">
        <ele>546</ele>
        <time>2018-05-20T06:40:32.822Z</time>
      </trkpt>
      <trkpt lat="45.88584" lon="6.1803">
        <ele>546</ele>
        <time>2018-05-20T06:40:34.822Z</time>
      </trkpt>
      <trkpt lat="45.88586" lon="6.18028">
        <ele>546</ele>
        <time>2018-05-20T06:40:36.822Z</time>
      </trkpt>
      <trkpt lat="45.88589" lon="6.18027">
        <ele>546</ele>
        <time>2018-05-20T06:40:38.822Z</time>
      </trkpt>
      <trkpt lat="45.88591" lon="6.18026">
        <ele>546.83485090909</ele>
        <time>2018-05-20T06:40:40.822Z</time>
      </trkpt>
      <trkpt lat="45.88593" lon="6.18025">
        <ele>547</ele>
        <time>2018-05-20T06:40:42.822Z</time>
      </trkpt>
      <trkpt lat="45.88597" lon="6.18022">
        <ele>547</ele>
        <time>2018-05-20T06:40:46.822Z</time>
      </trkpt>
      <trkpt lat="45.88606" lon="6.18019">
        <ele>547.09532980836</ele>
        <time>2018-05-20T06:40:53.822Z</time>
      </trkpt>
      <trkpt lat="45.88612" lon="6.18019">
        <ele>549</ele>
        <time>2018-05-20T06:40:59.822Z</time>
      </trkpt>
      <trkpt lat="45.88614" lon="6.18017">
        <ele>549</ele>
        <time>2018-05-20T06:41:01.822Z</time>
      </trkpt>
      <trkpt lat="45.88616" lon="6.18016">
        <ele>549</ele>
        <time>2018-05-20T06:41:03.822Z</time>
      </trkpt>
      <trkpt lat="45.88619" lon="6.18014">
        <ele>549</ele>
        <time>2018-05-20T06:41:05.822Z</time>
      </trkpt>
      <trkpt lat="45.8862" lon="6.18012">
        <ele>549</ele>
        <time>2018-05-20T06:41:07.822Z</time>
      </trkpt>
      <trkpt lat="45.88622" lon="6.1801">
        <ele>549</ele>
        <time>2018-05-20T06:41:09.822Z</time>
      </trkpt>
      <trkpt lat="45.88624" lon="6.18007">
        <ele>549</ele>
        <time>2018-05-20T06:41:11.822Z</time>
      </trkpt>
      <trkpt lat="45.88629" lon="6.18002">
        <ele>550</ele>
        <time>2018-05-20T06:41:16.822Z</time>
      </trkpt>
      <trkpt lat="45.88631" lon="6.18">
        <ele>550</ele>
        <time>2018-05-20T06:41:18.822Z</time>
      </trkpt>
      <trkpt lat="45.88634" lon="6.17998">
        <ele>550</ele>
        <time>2018-05-20T06:41:20.822Z</time>
      </trkpt>
      <trkpt lat="45.88635" lon="6.17996">
        <ele>550</ele>
        <time>2018-05-20T06:41:22.822Z</time>
      </trkpt>
      <trkpt lat="45.88637" lon="6.17994">
        <ele>550</ele>
        <time>2018-05-20T06:41:24.822Z</time>
      </trkpt>
      <trkpt lat="45.88639" lon="6.17993">
        <ele>550</ele>
        <time>2018-05-20T06:41:26.822Z</time>
      </trkpt>
      <trkpt lat="45.88641" lon="6.17991">
        <ele>551</ele>
        <time>2018-05-20T06:41:28.822Z</time>
      </trkpt>
      <trkpt lat="45.88642" lon="6.17989">
        <ele>551</ele>
        <time>2018-05-20T06:41:30.822Z</time>
      </trkpt>
      <trkpt lat="45.88644" lon="6.17987">
        <ele>551.044677751</ele>
        <time>2018-05-20T06:41:32.822Z</time>
      </trkpt>
      <trkpt lat="45.88647" lon="6.17984">
        <ele>552</ele>
        <time>2018-05-20T06:41:35.822Z</time>
      </trkpt>
      <trkpt lat="45.88651" lon="6.17981">
        <ele>552</ele>
        <time>2018-05-20T06:41:39.822Z</time>
      </trkpt>
      <trkpt lat="45.88652" lon="6.17978">
        <ele>552</ele>
        <time>2018-05-20T06:41:41.822Z</time>
      </trkpt>
      <trkpt lat="45.88654" lon="6.17977">
        <ele>552</ele>
        <time>2018-05-20T06:41:43.822Z</time>
      </trkpt>
      <trkpt lat="45.88656" lon="6.17975">
        <ele>553</ele>
        <time>2018-05-20T06:41:45.822Z</time>
      </trkpt>
      <trkpt lat="45.88657" lon="6.17972">
        <ele>553</ele>
        <time>2018-05-20T06:41:47.822Z</time>
      </trkpt>
      <trkpt lat="45.88659" lon="6.1797">
        <ele>553</ele>
        <time>2018-05-20T06:41:49.822Z</time>
      </trkpt>
      <trkpt lat="45.88662" lon="6.17968">
        <ele>553</ele>
        <time>2018-05-20T06:41:51.822Z</time>
      </trkpt>
      <trkpt lat="45.88664" lon="6.17966">
        <ele>553</ele>
        <time>2018-05-20T06:41:53.822Z</time>
      </trkpt>
      <trkpt lat="45.88665" lon="6.17964">
        <ele>553</ele>
        <time>2018-05-20T06:41:55.822Z</time>
      </trkpt>
      <trkpt lat="45.88667" lon="6.17963">
        <ele>553</ele>
        <time>2018-05-20T06:41:57.822Z</time>
      </trkpt>
      <trkpt lat="45.88669" lon="6.17961">
        <ele>553</ele>
        <time>2018-05-20T06:41:59.822Z</time>
      </trkpt>
      <trkpt lat="45.88671" lon="6.1796">
        <ele>553</ele>
        <time>2018-05-20T06:42:01.822Z</time>
      </trkpt>
      <trkpt lat="45.88673" lon="6.17958">
        <ele>553</ele>
        <time>2018-05-20T06:42:03.822Z</time>
      </trkpt>
      <trkpt lat="45.88675" lon="6.17957">
        <ele>553</ele>
        <time>2018-05-20T06:42:05.822Z</time>
      </trkpt>
      <trkpt lat="45.88678" lon="6.17956">
        <ele>554</ele>
        <time>2018-05-20T06:42:07.822Z</time>
      </trkpt>
      <trkpt lat="45.88679" lon="6.17953">
        <ele>554.08947598891</ele>
        <time>2018-05-20T06:42:09.822Z</time>
      </trkpt>
      <trkpt lat="45.88682" lon="6.17952">
        <ele>555</ele>
        <time>2018-05-20T06:42:11.822Z</time>
      </trkpt>
      <trkpt lat="45.88683" lon="6.17951">
        <ele>555</ele>
        <time>2018-05-20T06:42:13.822Z</time>
      </trkpt>
      <trkpt lat="45.88686" lon="6.17949">
        <ele>555</ele>
        <time>2018-05-20T06:42:15.822Z</time>
      </trkpt>
      <trkpt lat="45.88687" lon="6.17947">
        <ele>555</ele>
        <time>2018-05-20T06:42:17.822Z</time>
      </trkpt>
      <trkpt lat="45.88689" lon="6.17946">
        <ele>555</ele>
        <time>2018-05-20T06:42:19.822Z</time>
      </trkpt>
      <trkpt lat="45.88691" lon="6.17946">
        <ele>555</ele>
        <time>2018-05-20T06:42:21.822Z</time>
      </trkpt>
      <trkpt lat="45.88692" lon="6.17944">
        <ele>555</ele>
        <time>2018-05-20T06:42:23.822Z</time>
      </trkpt>
      <trkpt lat="45.88694" lon="6.17943">
        <ele>555</ele>
        <time>2018-05-20T06:42:25.822Z</time>
      </trkpt>
      <trkpt lat="45.88697" lon="6.17941">
        <ele>556.09358119216</ele>
        <time>2018-05-20T06:42:27.822Z</time>
      </trkpt>
      <trkpt lat="45.88699" lon="6.17939">
        <ele>556.8979968</ele>
        <time>2018-05-20T06:42:29.822Z</time>
      </trkpt>
      <trkpt lat="45.88701" lon="6.17937">
        <ele>556</ele>
        <time>2018-05-20T06:42:31.822Z</time>
      </trkpt>
      <trkpt lat="45.88703" lon="6.17936">
        <ele>556</ele>
        <time>2018-05-20T06:42:33.822Z</time>
      </trkpt>
      <trkpt lat="45.88705" lon="6.17935">
        <ele>556</ele>
        <time>2018-05-20T06:42:35.822Z</time>
      </trkpt>
      <trkpt lat="45.88707" lon="6.17934">
        <ele>556</ele>
        <time>2018-05-20T06:42:37.822Z</time>
      </trkpt>
      <trkpt lat="45.88709" lon="6.17933">
        <ele>556.05474339455</ele>
        <time>2018-05-20T06:42:39.822Z</time>
      </trkpt>
      <trkpt lat="45.88711" lon="6.17932">
        <ele>557</ele>
        <time>2018-05-20T06:42:41.822Z</time>
      </trkpt>
      <trkpt lat="45.88714" lon="6.17931">
        <ele>557</ele>
        <time>2018-05-20T06:42:43.822Z</time>
      </trkpt>
      <trkpt lat="45.88716" lon="6.1793">
        <ele>557</ele>
        <time>2018-05-20T06:42:45.822Z</time>
      </trkpt>
      <trkpt lat="45.88718" lon="6.17929">
        <ele>557</ele>
        <time>2018-05-20T06:42:47.822Z</time>
      </trkpt>
      <trkpt lat="45.88721" lon="6.17929">
        <ele>558</ele>
        <time>2018-05-20T06:42:49.822Z</time>
      </trkpt>
      <trkpt lat="45.88723" lon="6.17928">
        <ele>558</ele>
        <time>2018-05-20T06:42:51.822Z</time>
      </trkpt>
      <trkpt lat="45.88725" lon="6.17928">
        <ele>558</ele>
        <time>2018-05-20T06:42:53.822Z</time>
      </trkpt>
      <trkpt lat="45.88727" lon="6.17927">
        <ele>558</ele>
        <time>2018-05-20T06:42:55.822Z</time>
      </trkpt>
      <trkpt lat="45.88729" lon="6.17926">
        <ele>558</ele>
        <time>2018-05-20T06:42:57.822Z</time>
      </trkpt>
      <trkpt lat="45.88732" lon="6.17925">
        <ele>558</ele>
        <time>2018-05-20T06:42:59.822Z</time>
      </trkpt>
      <trkpt lat="45.88734" lon="6.17924">
        <ele>559</ele>
        <time>2018-05-20T06:43:01.822Z</time>
      </trkpt>
      <trkpt lat="45.88736" lon="6.17923">
        <ele>559</ele>
        <time>2018-05-20T06:43:03.822Z</time>
      </trkpt>
      <trkpt lat="45.88738" lon="6.17923">
        <ele>559</ele>
        <time>2018-05-20T06:43:05.822Z</time>
      </trkpt>
      <trkpt lat="45.88741" lon="6.17923">
        <ele>559</ele>
        <time>2018-05-20T06:43:07.822Z</time>
      </trkpt>
      <trkpt lat="45.88743" lon="6.17924">
        <ele>560</ele>
        <time>2018-05-20T06:43:09.822Z</time>
      </trkpt>
      <trkpt lat="45.88745" lon="6.17924">
        <ele>560</ele>
        <time>2018-05-20T06:43:11.822Z</time>
      </trkpt>
      <trkpt lat="45.88747" lon="6.17923">
        <ele>560</ele>
        <time>2018-05-20T06:43:13.822Z</time>
      </trkpt>
      <trkpt lat="45.88749" lon="6.17922">
        <ele>561</ele>
        <time>2018-05-20T06:43:15.822Z</time>
      </trkpt>
      <trkpt lat="45.88752" lon="6.17921">
        <ele>561</ele>
        <time>2018-05-20T06:43:17.822Z</time>
      </trkpt>
      <trkpt lat="45.88754" lon="6.17919">
        <ele>561</ele>
        <time>2018-05-20T06:43:20.822Z</time>
      </trkpt>
      <trkpt lat="45.88756" lon="6.17918">
        <ele>561</ele>
        <time>2018-05-20T06:43:22.822Z</time>
      </trkpt>
      <trkpt lat="45.88759" lon="6.17917">
        <ele>562</ele>
        <time>2018-05-20T06:43:24.822Z</time>
      </trkpt>
      <trkpt lat="45.88761" lon="6.17916">
        <ele>562</ele>
        <time>2018-05-20T06:43:26.822Z</time>
      </trkpt>
      <trkpt lat="45.88763" lon="6.17914">
        <ele>562</ele>
        <time>2018-05-20T06:43:28.822Z</time>
      </trkpt>
      <trkpt lat="45.88765" lon="6.17913">
        <ele>562.07133074947</ele>
        <time>2018-05-20T06:43:30.822Z</time>
      </trkpt>
      <trkpt lat="45.88768" lon="6.17912">
        <ele>563</ele>
        <time>2018-05-20T06:43:32.822Z</time>
      </trkpt>
      <trkpt lat="45.8877" lon="6.1791">
        <ele>563</ele>
        <time>2018-05-20T06:43:34.822Z</time>
      </trkpt>
      <trkpt lat="45.88774" lon="6.17908">
        <ele>563</ele>
        <time>2018-05-20T06:43:37.822Z</time>
      </trkpt>
      <trkpt lat="45.88776" lon="6.17905">
        <ele>564</ele>
        <time>2018-05-20T06:43:40.822Z</time>
      </trkpt>
      <trkpt lat="45.88779" lon="6.17904">
        <ele>564</ele>
        <time>2018-05-20T06:43:42.822Z</time>
      </trkpt>
      <trkpt lat="45.88781" lon="6.17903">
        <ele>564</ele>
        <time>2018-05-20T06:43:44.822Z</time>
      </trkpt>
      <trkpt lat="45.88788" lon="6.17899">
        <ele>564</ele>
        <time>2018-05-20T06:43:51.822Z</time>
      </trkpt>
      <trkpt lat="45.88799" lon="6.17897">
        <ele>565</ele>
        <time>2018-05-20T06:44:03.822Z</time>
      </trkpt>
      <trkpt lat="45.88809" lon="6.17898">
        <ele>566</ele>
        <time>2018-05-20T06:44:09.822Z</time>
      </trkpt>
      <trkpt lat="45.88814" lon="6.179">
        <ele>567</ele>
        <time>2018-05-20T06:44:14.822Z</time>
      </trkpt>
      <trkpt lat="45.88816" lon="6.179">
        <ele>567.074227049</ele>
        <time>2018-05-20T06:44:16.822Z</time>
      </trkpt>
      <trkpt lat="45.88818" lon="6.17901">
        <ele>568</ele>
        <time>2018-05-20T06:44:18.822Z</time>
      </trkpt>
      <trkpt lat="45.8882" lon="6.17901">
        <ele>568</ele>
        <time>2018-05-20T06:44:20.822Z</time>
      </trkpt>
      <trkpt lat="45.88824" lon="6.17904">
        <ele>568</ele>
        <time>2018-05-20T06:44:23.822Z</time>
      </trkpt>
      <trkpt lat="45.88828" lon="6.17906">
        <ele>569</ele>
        <time>2018-05-20T06:44:29.822Z</time>
      </trkpt>
      <trkpt lat="45.88837" lon="6.17913">
        <ele>571</ele>
        <time>2018-05-20T06:44:39.822Z</time>
      </trkpt>
      <trkpt lat="45.88839" lon="6.17915">
        <ele>572</ele>
        <time>2018-05-20T06:44:42.822Z</time>
      </trkpt>
      <trkpt lat="45.8884" lon="6.17918">
        <ele>572</ele>
        <time>2018-05-20T06:44:45.822Z</time>
      </trkpt>
      <trkpt lat="45.88842" lon="6.17919">
        <ele>572</ele>
        <time>2018-05-20T06:44:47.822Z</time>
      </trkpt>
      <trkpt lat="45.88844" lon="6.17921">
        <ele>573</ele>
        <time>2018-05-20T06:44:51.822Z</time>
      </trkpt>
      <trkpt lat="45.88845" lon="6.17922">
        <ele>573.10099358731</ele>
        <time>2018-05-20T06:44:54.822Z</time>
      </trkpt>
      <trkpt lat="45.88848" lon="6.17925">
        <ele>574</ele>
        <time>2018-05-20T06:44:57.822Z</time>
      </trkpt>
      <trkpt lat="45.88849" lon="6.17926">
        <ele>575</ele>
        <time>2018-05-20T06:44:59.822Z</time>
      </trkpt>
      <trkpt lat="45.88851" lon="6.17928">
        <ele>575</ele>
        <time>2018-05-20T06:45:01.822Z</time>
      </trkpt>
      <trkpt lat="45.88852" lon="6.1793">
        <ele>575</ele>
        <time>2018-05-20T06:45:03.822Z</time>
      </trkpt>
      <trkpt lat="45.88854" lon="6.17931">
        <ele>576</ele>
        <time>2018-05-20T06:45:05.822Z</time>
      </trkpt>
      <trkpt lat="45.8886" lon="6.17937">
        <ele>579</ele>
        <time>2018-05-20T06:45:15.822Z</time>
      </trkpt>
      <trkpt lat="45.88862" lon="6.17938">
        <ele>580</ele>
        <time>2018-05-20T06:45:18.822Z</time>
      </trkpt>
      <trkpt lat="45.88865" lon="6.17939">
        <ele>580</ele>
        <time>2018-05-20T06:45:21.822Z</time>
      </trkpt>
      <trkpt lat="45.88866" lon="6.1794">
        <ele>580</ele>
        <time>2018-05-20T06:45:23.822Z</time>
      </trkpt>
      <trkpt lat="45.88868" lon="6.17942">
        <ele>581</ele>
        <time>2018-05-20T06:45:26.822Z</time>
      </trkpt>
      <trkpt lat="45.88877" lon="6.17945">
        <ele>582.1020032</ele>
        <time>2018-05-20T06:45:36.822Z</time>
      </trkpt>
      <trkpt lat="45.88878" lon="6.17951">
        <ele>584</ele>
        <time>2018-05-20T06:45:51.822Z</time>
      </trkpt>
      <trkpt lat="45.88879" lon="6.17948">
        <ele>584</ele>
        <time>2018-05-20T06:46:02.822Z</time>
      </trkpt>
      <trkpt lat="45.8888" lon="6.17946">
        <ele>584</ele>
        <time>2018-05-20T06:46:04.822Z</time>
      </trkpt>
      <trkpt lat="45.8888" lon="6.17943">
        <ele>584</ele>
        <time>2018-05-20T06:46:10.822Z</time>
      </trkpt>
      <trkpt lat="45.88877" lon="6.17955">
        <ele>584</ele>
        <time>2018-05-20T06:46:22.822Z</time>
      </trkpt>
      <trkpt lat="45.8888" lon="6.17942">
        <ele>584</ele>
        <time>2018-05-20T06:46:47.822Z</time>
      </trkpt>
      <trkpt lat="45.88879" lon="6.17938">
        <ele>584</ele>
        <time>2018-05-20T06:46:56.822Z</time>
      </trkpt>
      <trkpt lat="45.8888" lon="6.17935">
        <ele>584</ele>
        <time>2018-05-20T06:46:58.822Z</time>
      </trkpt>
      <trkpt lat="45.88881" lon="6.17932">
        <ele>584</ele>
        <time>2018-05-20T06:47:01.822Z</time>
      </trkpt>
      <trkpt lat="45.88884" lon="6.17925">
        <ele>585</ele>
        <time>2018-05-20T06:47:06.822Z</time>
      </trkpt>
      <trkpt lat="45.88887" lon="6.17925">
        <ele>586.00221868244</ele>
        <time>2018-05-20T06:47:13.822Z</time>
      </trkpt>
      <trkpt lat="45.88889" lon="6.17922">
        <ele>588</ele>
        <time>2018-05-20T06:47:18.822Z</time>
      </trkpt>
      <trkpt lat="45.88892" lon="6.17919">
        <ele>590</ele>
        <time>2018-05-20T06:47:28.822Z</time>
      </trkpt>
      <trkpt lat="45.88895" lon="6.17918">
        <ele>591</ele>
        <time>2018-05-20T06:47:35.822Z</time>
      </trkpt>
      <trkpt lat="45.88896" lon="6.17916">
        <ele>591</ele>
        <time>2018-05-20T06:47:39.822Z</time>
      </trkpt>
      <trkpt lat="45.88898" lon="6.17913">
        <ele>592.1020032</ele>
        <time>2018-05-20T06:47:43.822Z</time>
      </trkpt>
      <trkpt lat="45.88899" lon="6.1791">
        <ele>593</ele>
        <time>2018-05-20T06:47:46.822Z</time>
      </trkpt>
      <trkpt lat="45.88901" lon="6.17909">
        <ele>595</ele>
        <time>2018-05-20T06:47:52.822Z</time>
      </trkpt>
      <trkpt lat="45.88905" lon="6.17907">
        <ele>596</ele>
        <time>2018-05-20T06:48:03.822Z</time>
      </trkpt>
      <trkpt lat="45.88906" lon="6.17906">
        <ele>598</ele>
        <time>2018-05-20T06:48:09.822Z</time>
      </trkpt>
      <trkpt lat="45.88908" lon="6.17906">
        <ele>598</ele>
        <time>2018-05-20T06:48:11.822Z</time>
      </trkpt>
      <trkpt lat="45.88911" lon="6.17907">
        <ele>600</ele>
        <time>2018-05-20T06:48:17.822Z</time>
      </trkpt>
      <trkpt lat="45.88913" lon="6.17907">
        <ele>600</ele>
        <time>2018-05-20T06:48:21.822Z</time>
      </trkpt>
      <trkpt lat="45.88915" lon="6.17908">
        <ele>600</ele>
        <time>2018-05-20T06:48:24.822Z</time>
      </trkpt>
      <trkpt lat="45.88917" lon="6.17909">
        <ele>600.00221868244</ele>
        <time>2018-05-20T06:48:29.822Z</time>
      </trkpt>
      <trkpt lat="45.88919" lon="6.1791">
        <ele>601</ele>
        <time>2018-05-20T06:48:34.822Z</time>
      </trkpt>
      <trkpt lat="45.88921" lon="6.17909">
        <ele>603</ele>
        <time>2018-05-20T06:48:42.822Z</time>
      </trkpt>
      <trkpt lat="45.88923" lon="6.17909">
        <ele>603</ele>
        <time>2018-05-20T06:48:45.822Z</time>
      </trkpt>
      <trkpt lat="45.88925" lon="6.17908">
        <ele>605</ele>
        <time>2018-05-20T06:48:50.822Z</time>
      </trkpt>
      <trkpt lat="45.88934" lon="6.17905">
        <ele>608</ele>
        <time>2018-05-20T06:49:04.822Z</time>
      </trkpt>
      <trkpt lat="45.88943" lon="6.17904">
        <ele>609</ele>
        <time>2018-05-20T06:49:15.822Z</time>
      </trkpt>
      <trkpt lat="45.88945" lon="6.17903">
        <ele>609</ele>
        <time>2018-05-20T06:49:18.822Z</time>
      </trkpt>
      <trkpt lat="45.88953" lon="6.17895">
        <ele>610</ele>
        <time>2018-05-20T06:49:30.822Z</time>
      </trkpt>
      <trkpt lat="45.88954" lon="6.17892">
        <ele>610</ele>
        <time>2018-05-20T06:49:33.822Z</time>
      </trkpt>
      <trkpt lat="45.88956" lon="6.17891">
        <ele>610</ele>
        <time>2018-05-20T06:49:35.822Z</time>
      </trkpt>
      <trkpt lat="45.88958" lon="6.17889">
        <ele>610</ele>
        <time>2018-05-20T06:49:38.822Z</time>
      </trkpt>
      <trkpt lat="45.8896" lon="6.17883">
        <ele>610</ele>
        <time>2018-05-20T06:49:42.822Z</time>
      </trkpt>
      <trkpt lat="45.88961" lon="6.17881">
        <ele>611</ele>
        <time>2018-05-20T06:49:44.822Z</time>
      </trkpt>
      <trkpt lat="45.88963" lon="6.17879">
        <ele>611</ele>
        <time>2018-05-20T06:49:47.822Z</time>
      </trkpt>
      <trkpt lat="45.88964" lon="6.17876">
        <ele>611</ele>
        <time>2018-05-20T06:49:50.822Z</time>
      </trkpt>
      <trkpt lat="45.88966" lon="6.17874">
        <ele>611</ele>
        <time>2018-05-20T06:49:52.822Z</time>
      </trkpt>
      <trkpt lat="45.88967" lon="6.17873">
        <ele>611</ele>
        <time>2018-05-20T06:49:54.822Z</time>
      </trkpt>
      <trkpt lat="45.88969" lon="6.1787">
        <ele>611</ele>
        <time>2018-05-20T06:49:57.822Z</time>
      </trkpt>
      <trkpt lat="45.88978" lon="6.17868">
        <ele>613</ele>
        <time>2018-05-20T06:50:05.822Z</time>
      </trkpt>
      <trkpt lat="45.88987" lon="6.17867">
        <ele>615</ele>
        <time>2018-05-20T06:50:16.822Z</time>
      </trkpt>
      <trkpt lat="45.88997" lon="6.17861">
        <ele>616</ele>
        <time>2018-05-20T06:50:28.822Z</time>
      </trkpt>
      <trkpt lat="45.88999" lon="6.1786">
        <ele>617</ele>
        <time>2018-05-20T06:50:31.822Z</time>
      </trkpt>
      <trkpt lat="45.89006" lon="6.17856">
        <ele>618</ele>
        <time>2018-05-20T06:50:42.822Z</time>
      </trkpt>
      <trkpt lat="45.8901" lon="6.17853">
        <ele>618</ele>
        <time>2018-05-20T06:50:47.822Z</time>
      </trkpt>
      <trkpt lat="45.89012" lon="6.17853">
        <ele>618</ele>
        <time>2018-05-20T06:50:49.822Z</time>
      </trkpt>
      <trkpt lat="45.89013" lon="6.17851">
        <ele>619</ele>
        <time>2018-05-20T06:50:52.822Z</time>
      </trkpt>
      <trkpt lat="45.89015" lon="6.1785">
        <ele>620</ele>
        <time>2018-05-20T06:50:55.822Z</time>
      </trkpt>
      <trkpt lat="45.89017" lon="6.17848">
        <ele>620</ele>
        <time>2018-05-20T06:50:58.822Z</time>
      </trkpt>
      <trkpt lat="45.89019" lon="6.17847">
        <ele>621</ele>
        <time>2018-05-20T06:51:01.822Z</time>
      </trkpt>
      <trkpt lat="45.89022" lon="6.17846">
        <ele>621</ele>
        <time>2018-05-20T06:51:05.822Z</time>
      </trkpt>
      <trkpt lat="45.89023" lon="6.17844">
        <ele>622</ele>
        <time>2018-05-20T06:51:12.822Z</time>
      </trkpt>
      <trkpt lat="45.89025" lon="6.17843">
        <ele>623</ele>
        <time>2018-05-20T06:51:15.822Z</time>
      </trkpt>
      <trkpt lat="45.89027" lon="6.17843">
        <ele>623</ele>
        <time>2018-05-20T06:51:18.822Z</time>
      </trkpt>
      <trkpt lat="45.8903" lon="6.17842">
        <ele>624.0836707505</ele>
        <time>2018-05-20T06:51:21.822Z</time>
      </trkpt>
      <trkpt lat="45.89038" lon="6.17836">
        <ele>626.07727515151</ele>
        <time>2018-05-20T06:51:31.822Z</time>
      </trkpt>
      <trkpt lat="45.89046" lon="6.1783">
        <ele>628</ele>
        <time>2018-05-20T06:51:44.822Z</time>
      </trkpt>
      <trkpt lat="45.8905" lon="6.17828">
        <ele>629</ele>
        <time>2018-05-20T06:51:50.822Z</time>
      </trkpt>
      <trkpt lat="45.8906" lon="6.17825">
        <ele>631</ele>
        <time>2018-05-20T06:52:01.822Z</time>
      </trkpt>
      <trkpt lat="45.89064" lon="6.17824">
        <ele>632</ele>
        <time>2018-05-20T06:52:05.822Z</time>
      </trkpt>
      <trkpt lat="45.89066" lon="6.17823">
        <ele>632</ele>
        <time>2018-05-20T06:52:08.822Z</time>
      </trkpt>
      <trkpt lat="45.89068" lon="6.17822">
        <ele>633.1020032</ele>
        <time>2018-05-20T06:52:11.822Z</time>
      </trkpt>
      <trkpt lat="45.89071" lon="6.17822">
        <ele>634</ele>
        <time>2018-05-20T06:52:15.822Z</time>
      </trkpt>
      <trkpt lat="45.89073" lon="6.17822">
        <ele>635</ele>
        <time>2018-05-20T06:52:19.822Z</time>
      </trkpt>
      <trkpt lat="45.89076" lon="6.17821">
        <ele>636</ele>
        <time>2018-05-20T06:52:24.822Z</time>
      </trkpt>
      <trkpt lat="45.89078" lon="6.1782">
        <ele>636</ele>
        <time>2018-05-20T06:52:27.822Z</time>
      </trkpt>
      <trkpt lat="45.89087" lon="6.17818">
        <ele>637</ele>
        <time>2018-05-20T06:52:37.822Z</time>
      </trkpt>
      <trkpt lat="45.8909" lon="6.17816">
        <ele>638</ele>
        <time>2018-05-20T06:52:41.822Z</time>
      </trkpt>
      <trkpt lat="45.89093" lon="6.17815">
        <ele>638</ele>
        <time>2018-05-20T06:52:45.822Z</time>
      </trkpt>
      <trkpt lat="45.891" lon="6.17815">
        <ele>639</ele>
        <time>2018-05-20T06:52:55.822Z</time>
      </trkpt>
      <trkpt lat="45.89101" lon="6.17814">
        <ele>639.1030016</ele>
        <time>2018-05-20T06:52:57.822Z</time>
      </trkpt>
      <trkpt lat="45.89105" lon="6.17812">
        <ele>640</ele>
        <time>2018-05-20T06:53:02.822Z</time>
      </trkpt>
      <trkpt lat="45.89108" lon="6.17809">
        <ele>641</ele>
        <time>2018-05-20T06:53:09.822Z</time>
      </trkpt>
      <trkpt lat="45.8911" lon="6.17808">
        <ele>641</ele>
        <time>2018-05-20T06:53:12.822Z</time>
      </trkpt>
      <trkpt lat="45.89112" lon="6.17809">
        <ele>641</ele>
        <time>2018-05-20T06:53:15.822Z</time>
      </trkpt>
      <trkpt lat="45.89115" lon="6.17808">
        <ele>641</ele>
        <time>2018-05-20T06:53:19.822Z</time>
      </trkpt>
      <trkpt lat="45.89118" lon="6.17808">
        <ele>641.04472525525</ele>
        <time>2018-05-20T06:53:22.822Z</time>
      </trkpt>
      <trkpt lat="45.89119" lon="6.17807">
        <ele>642</ele>
        <time>2018-05-20T06:53:26.822Z</time>
      </trkpt>
      <trkpt lat="45.89122" lon="6.17806">
        <ele>642</ele>
        <time>2018-05-20T06:53:28.822Z</time>
      </trkpt>
      <trkpt lat="45.89124" lon="6.17805">
        <ele>643</ele>
        <time>2018-05-20T06:53:31.822Z</time>
      </trkpt>
      <trkpt lat="45.89126" lon="6.17804">
        <ele>643</ele>
        <time>2018-05-20T06:53:34.822Z</time>
      </trkpt>
      <trkpt lat="45.89128" lon="6.17802">
        <ele>644</ele>
        <time>2018-05-20T06:53:37.822Z</time>
      </trkpt>
      <trkpt lat="45.89136" lon="6.17796">
        <ele>644</ele>
        <time>2018-05-20T06:53:49.822Z</time>
      </trkpt>
      <trkpt lat="45.89143" lon="6.17792">
        <ele>645</ele>
        <time>2018-05-20T06:53:59.822Z</time>
      </trkpt>
      <trkpt lat="45.8915" lon="6.17792">
        <ele>646</ele>
        <time>2018-05-20T06:54:10.822Z</time>
      </trkpt>
      <trkpt lat="45.8916" lon="6.1779">
        <ele>646</ele>
        <time>2018-05-20T06:54:26.822Z</time>
      </trkpt>
      <trkpt lat="45.89166" lon="6.17796">
        <ele>647</ele>
        <time>2018-05-20T06:55:33.822Z</time>
      </trkpt>
      <trkpt lat="45.89169" lon="6.17795">
        <ele>647</ele>
        <time>2018-05-20T06:55:38.822Z</time>
      </trkpt>
      <trkpt lat="45.89171" lon="6.17792">
        <ele>649</ele>
        <time>2018-05-20T06:55:43.822Z</time>
      </trkpt>
      <trkpt lat="45.89174" lon="6.1779">
        <ele>649</ele>
        <time>2018-05-20T06:55:48.822Z</time>
      </trkpt>
      <trkpt lat="45.89183" lon="6.17786">
        <ele>652</ele>
        <time>2018-05-20T06:55:59.822Z</time>
      </trkpt>
      <trkpt lat="45.89192" lon="6.17782">
        <ele>654</ele>
        <time>2018-05-20T06:56:11.822Z</time>
      </trkpt>
      <trkpt lat="45.89201" lon="6.17777">
        <ele>656</ele>
        <time>2018-05-20T06:56:28.822Z</time>
      </trkpt>
      <trkpt lat="45.89209" lon="6.17771">
        <ele>657</ele>
        <time>2018-05-20T06:56:37.822Z</time>
      </trkpt>
      <trkpt lat="45.89219" lon="6.17773">
        <ele>659.1020032</ele>
        <time>2018-05-20T06:56:46.822Z</time>
      </trkpt>
      <trkpt lat="45.89229" lon="6.17774">
        <ele>662</ele>
        <time>2018-05-20T06:56:58.822Z</time>
      </trkpt>
      <trkpt lat="45.89238" lon="6.17767">
        <ele>663</ele>
        <time>2018-05-20T06:57:08.822Z</time>
      </trkpt>
      <trkpt lat="45.89247" lon="6.17762">
        <ele>665</ele>
        <time>2018-05-20T06:57:21.822Z</time>
      </trkpt>
      <trkpt lat="45.89256" lon="6.17764">
        <ele>666</ele>
        <time>2018-05-20T06:57:35.822Z</time>
      </trkpt>
      <trkpt lat="45.89264" lon="6.17762">
        <ele>668</ele>
        <time>2018-05-20T06:57:47.822Z</time>
      </trkpt>
      <trkpt lat="45.89266" lon="6.17762">
        <ele>669</ele>
        <time>2018-05-20T06:57:50.822Z</time>
      </trkpt>
      <trkpt lat="45.89268" lon="6.17763">
        <ele>669.06458666667</ele>
        <time>2018-05-20T06:57:52.822Z</time>
      </trkpt>
      <trkpt lat="45.89277" lon="6.17764">
        <ele>672</ele>
        <time>2018-05-20T06:58:04.822Z</time>
      </trkpt>
      <trkpt lat="45.89282" lon="6.17763">
        <ele>673</ele>
        <time>2018-05-20T06:58:14.822Z</time>
      </trkpt>
      <trkpt lat="45.89284" lon="6.17764">
        <ele>673</ele>
        <time>2018-05-20T06:58:16.822Z</time>
      </trkpt>
      <trkpt lat="45.89286" lon="6.17764">
        <ele>673</ele>
        <time>2018-05-20T06:58:18.822Z</time>
      </trkpt>
      <trkpt lat="45.89288" lon="6.17765">
        <ele>674</ele>
        <time>2018-05-20T06:58:21.822Z</time>
      </trkpt>
      <trkpt lat="45.89291" lon="6.17766">
        <ele>674</ele>
        <time>2018-05-20T06:58:24.822Z</time>
      </trkpt>
      <trkpt lat="45.89293" lon="6.17766">
        <ele>675</ele>
        <time>2018-05-20T06:58:27.822Z</time>
      </trkpt>
      <trkpt lat="45.89296" lon="6.17766">
        <ele>675</ele>
        <time>2018-05-20T06:58:30.822Z</time>
      </trkpt>
      <trkpt lat="45.89298" lon="6.17766">
        <ele>676</ele>
        <time>2018-05-20T06:58:33.822Z</time>
      </trkpt>
      <trkpt lat="45.893" lon="6.17766">
        <ele>676</ele>
        <time>2018-05-20T06:58:36.822Z</time>
      </trkpt>
      <trkpt lat="45.89304" lon="6.17761">
        <ele>678.09808</ele>
        <time>2018-05-20T06:58:47.822Z</time>
      </trkpt>
      <trkpt lat="45.89313" lon="6.17758">
        <ele>680</ele>
        <time>2018-05-20T06:58:58.822Z</time>
      </trkpt>
      <trkpt lat="45.89323" lon="6.17754">
        <ele>682</ele>
        <time>2018-05-20T06:59:14.822Z</time>
      </trkpt>
      <trkpt lat="45.89332" lon="6.17751">
        <ele>684.074227049</ele>
        <time>2018-05-20T06:59:27.822Z</time>
      </trkpt>
      <trkpt lat="45.89342" lon="6.1775">
        <ele>686.8412217619</ele>
        <time>2018-05-20T06:59:40.822Z</time>
      </trkpt>
      <trkpt lat="45.89345" lon="6.17749">
        <ele>688</ele>
        <time>2018-05-20T06:59:44.822Z</time>
      </trkpt>
      <trkpt lat="45.89355" lon="6.17748">
        <ele>689</ele>
        <time>2018-05-20T07:00:01.822Z</time>
      </trkpt>
      <trkpt lat="45.89364" lon="6.17751">
        <ele>690</ele>
        <time>2018-05-20T07:00:14.822Z</time>
      </trkpt>
      <trkpt lat="45.89373" lon="6.17757">
        <ele>692</ele>
        <time>2018-05-20T07:00:27.822Z</time>
      </trkpt>
      <trkpt lat="45.89382" lon="6.17759">
        <ele>693</ele>
        <time>2018-05-20T07:00:35.822Z</time>
      </trkpt>
      <trkpt lat="45.89392" lon="6.1776">
        <ele>693</ele>
        <time>2018-05-20T07:00:49.822Z</time>
      </trkpt>
      <trkpt lat="45.894" lon="6.17756">
        <ele>697</ele>
        <time>2018-05-20T07:01:04.822Z</time>
      </trkpt>
      <trkpt lat="45.8941" lon="6.17758">
        <ele>698</ele>
        <time>2018-05-20T07:01:16.822Z</time>
      </trkpt>
      <trkpt lat="45.89419" lon="6.17757">
        <ele>700</ele>
        <time>2018-05-20T07:01:31.822Z</time>
      </trkpt>
      <trkpt lat="45.89428" lon="6.1776">
        <ele>702</ele>
        <time>2018-05-20T07:01:39.822Z</time>
      </trkpt>
      <trkpt lat="45.89436" lon="6.17768">
        <ele>703</ele>
        <time>2018-05-20T07:01:46.822Z</time>
      </trkpt>
      <trkpt lat="45.89443" lon="6.17779">
        <ele>703</ele>
        <time>2018-05-20T07:01:53.822Z</time>
      </trkpt>
      <trkpt lat="45.89452" lon="6.17783">
        <ele>705</ele>
        <time>2018-05-20T07:02:00.822Z</time>
      </trkpt>
      <trkpt lat="45.89461" lon="6.17787">
        <ele>707</ele>
        <time>2018-05-20T07:02:18.822Z</time>
      </trkpt>
      <trkpt lat="45.8947" lon="6.17787">
        <ele>708</ele>
        <time>2018-05-20T07:02:26.822Z</time>
      </trkpt>
      <trkpt lat="45.89479" lon="6.17796">
        <ele>709</ele>
        <time>2018-05-20T07:02:34.822Z</time>
      </trkpt>
      <trkpt lat="45.89488" lon="6.17798">
        <ele>709.1020032</ele>
        <time>2018-05-20T07:02:45.822Z</time>
      </trkpt>
      <trkpt lat="45.89494" lon="6.17808">
        <ele>710.06458666667</ele>
        <time>2018-05-20T07:02:58.822Z</time>
      </trkpt>
      <trkpt lat="45.89502" lon="6.17815">
        <ele>711</ele>
        <time>2018-05-20T07:03:06.822Z</time>
      </trkpt>
      <trkpt lat="45.8951" lon="6.17822">
        <ele>712</ele>
        <time>2018-05-20T07:03:15.822Z</time>
      </trkpt>
      <trkpt lat="45.89517" lon="6.17832">
        <ele>712</ele>
        <time>2018-05-20T07:03:22.822Z</time>
      </trkpt>
      <trkpt lat="45.89526" lon="6.17841">
        <ele>714</ele>
        <time>2018-05-20T07:03:40.822Z</time>
      </trkpt>
      <trkpt lat="45.89533" lon="6.17852">
        <ele>717</ele>
        <time>2018-05-20T07:04:04.822Z</time>
      </trkpt>
      <trkpt lat="45.89543" lon="6.17857">
        <ele>718</ele>
        <time>2018-05-20T07:04:08.822Z</time>
      </trkpt>
      <trkpt lat="45.89552" lon="6.17861">
        <ele>722</ele>
        <time>2018-05-20T07:04:38.822Z</time>
      </trkpt>
      <trkpt lat="45.89561" lon="6.17856">
        <ele>728</ele>
        <time>2018-05-20T07:05:06.822Z</time>
      </trkpt>
      <trkpt lat="45.89562" lon="6.17843">
        <ele>732.1020032</ele>
        <time>2018-05-20T07:05:31.822Z</time>
      </trkpt>
      <trkpt lat="45.8957" lon="6.17837">
        <ele>738</ele>
        <time>2018-05-20T07:06:07.822Z</time>
      </trkpt>
      <trkpt lat="45.89578" lon="6.17829">
        <ele>739.1020032</ele>
        <time>2018-05-20T07:06:16.822Z</time>
      </trkpt>
      <trkpt lat="45.89585" lon="6.1782">
        <ele>742</ele>
        <time>2018-05-20T07:06:27.822Z</time>
      </trkpt>
      <trkpt lat="45.89587" lon="6.17808">
        <ele>745.10000250979</ele>
        <time>2018-05-20T07:06:48.822Z</time>
      </trkpt>
      <trkpt lat="45.89596" lon="6.17802">
        <ele>748</ele>
        <time>2018-05-20T07:07:04.822Z</time>
      </trkpt>
      <trkpt lat="45.89604" lon="6.17797">
        <ele>750</ele>
        <time>2018-05-20T07:07:18.822Z</time>
      </trkpt>
      <trkpt lat="45.89611" lon="6.17787">
        <ele>753</ele>
        <time>2018-05-20T07:07:37.822Z</time>
      </trkpt>
      <trkpt lat="45.89617" lon="6.17777">
        <ele>757</ele>
        <time>2018-05-20T07:07:59.822Z</time>
      </trkpt>
      <trkpt lat="45.89621" lon="6.17765">
        <ele>760</ele>
        <time>2018-05-20T07:08:14.822Z</time>
      </trkpt>
      <trkpt lat="45.89629" lon="6.17758">
        <ele>763</ele>
        <time>2018-05-20T07:08:37.822Z</time>
      </trkpt>
      <trkpt lat="45.8963" lon="6.17744">
        <ele>768</ele>
        <time>2018-05-20T07:09:06.822Z</time>
      </trkpt>
      <trkpt lat="45.89635" lon="6.17733">
        <ele>771</ele>
        <time>2018-05-20T07:09:25.822Z</time>
      </trkpt>
      <trkpt lat="45.89635" lon="6.1772">
        <ele>774</ele>
        <time>2018-05-20T07:09:39.822Z</time>
      </trkpt>
      <trkpt lat="45.89644" lon="6.17713">
        <ele>775</ele>
        <time>2018-05-20T07:09:55.822Z</time>
      </trkpt>
      <trkpt lat="45.89641" lon="6.177">
        <ele>775</ele>
        <time>2018-05-20T07:10:34.822Z</time>
      </trkpt>
      <trkpt lat="45.89654" lon="6.1771">
        <ele>777</ele>
        <time>2018-05-20T07:11:06.822Z</time>
      </trkpt>
      <trkpt lat="45.89665" lon="6.17713">
        <ele>777</ele>
        <time>2018-05-20T07:11:10.822Z</time>
      </trkpt>
      <trkpt lat="45.89655" lon="6.17709">
        <ele>778</ele>
        <time>2018-05-20T07:11:15.822Z</time>
      </trkpt>
      <trkpt lat="45.89648" lon="6.17698">
        <ele>778</ele>
        <time>2018-05-20T07:11:21.822Z</time>
      </trkpt>
      <trkpt lat="45.89657" lon="6.17692">
        <ele>781</ele>
        <time>2018-05-20T07:11:40.822Z</time>
      </trkpt>
      <trkpt lat="45.89666" lon="6.1769">
        <ele>784</ele>
        <time>2018-05-20T07:11:59.822Z</time>
      </trkpt>
      <trkpt lat="45.89675" lon="6.17693">
        <ele>784.01319379976</ele>
        <time>2018-05-20T07:12:22.822Z</time>
      </trkpt>
      <trkpt lat="45.89685" lon="6.17694">
        <ele>786</ele>
        <time>2018-05-20T07:12:34.822Z</time>
      </trkpt>
      <trkpt lat="45.89693" lon="6.17699">
        <ele>788</ele>
        <time>2018-05-20T07:12:44.822Z</time>
      </trkpt>
      <trkpt lat="45.89704" lon="6.17698">
        <ele>790</ele>
        <time>2018-05-20T07:12:58.822Z</time>
      </trkpt>
      <trkpt lat="45.89714" lon="6.17699">
        <ele>792</ele>
        <time>2018-05-20T07:13:16.822Z</time>
      </trkpt>
      <trkpt lat="45.89723" lon="6.17701">
        <ele>794</ele>
        <time>2018-05-20T07:13:29.822Z</time>
      </trkpt>
      <trkpt lat="45.89733" lon="6.177">
        <ele>796</ele>
        <time>2018-05-20T07:13:40.822Z</time>
      </trkpt>
      <trkpt lat="45.89742" lon="6.17707">
        <ele>799</ele>
        <time>2018-05-20T07:13:53.822Z</time>
      </trkpt>
      <trkpt lat="45.89751" lon="6.17714">
        <ele>800</ele>
        <time>2018-05-20T07:14:04.822Z</time>
      </trkpt>
      <trkpt lat="45.89759" lon="6.17716">
        <ele>800</ele>
        <time>2018-05-20T07:14:10.822Z</time>
      </trkpt>
      <trkpt lat="45.89766" lon="6.17728">
        <ele>801</ele>
        <time>2018-05-20T07:14:20.822Z</time>
      </trkpt>
      <trkpt lat="45.89774" lon="6.17739">
        <ele>801</ele>
        <time>2018-05-20T07:14:25.822Z</time>
      </trkpt>
      <trkpt lat="45.89781" lon="6.17751">
        <ele>801</ele>
        <time>2018-05-20T07:14:31.822Z</time>
      </trkpt>
      <trkpt lat="45.89789" lon="6.17756">
        <ele>802</ele>
        <time>2018-05-20T07:14:36.822Z</time>
      </trkpt>
      <trkpt lat="45.89797" lon="6.17746">
        <ele>805</ele>
        <time>2018-05-20T07:15:20.822Z</time>
      </trkpt>
      <trkpt lat="45.89805" lon="6.17742">
        <ele>805.074227049</ele>
        <time>2018-05-20T07:15:28.822Z</time>
      </trkpt>
      <trkpt lat="45.89815" lon="6.17744">
        <ele>808</ele>
        <time>2018-05-20T07:15:41.822Z</time>
      </trkpt>
      <trkpt lat="45.89821" lon="6.17734">
        <ele>810</ele>
        <time>2018-05-20T07:15:57.822Z</time>
      </trkpt>
      <trkpt lat="45.8983" lon="6.17732">
        <ele>814</ele>
        <time>2018-05-20T07:16:16.822Z</time>
      </trkpt>
      <trkpt lat="45.89838" lon="6.17724">
        <ele>818</ele>
        <time>2018-05-20T07:16:33.822Z</time>
      </trkpt>
      <trkpt lat="45.89842" lon="6.17711">
        <ele>820</ele>
        <time>2018-05-20T07:16:40.822Z</time>
      </trkpt>
      <trkpt lat="45.89842" lon="6.17698">
        <ele>822</ele>
        <time>2018-05-20T07:17:02.822Z</time>
      </trkpt>
      <trkpt lat="45.89839" lon="6.17685">
        <ele>823.10099358731</ele>
        <time>2018-05-20T07:17:12.822Z</time>
      </trkpt>
      <trkpt lat="45.89832" lon="6.17676">
        <ele>824</ele>
        <time>2018-05-20T07:17:23.822Z</time>
      </trkpt>
      <trkpt lat="45.89834" lon="6.17662">
        <ele>825.00221868244</ele>
        <time>2018-05-20T07:17:37.822Z</time>
      </trkpt>
      <trkpt lat="45.89827" lon="6.17651">
        <ele>827</ele>
        <time>2018-05-20T07:17:48.822Z</time>
      </trkpt>
      <trkpt lat="45.89823" lon="6.17639">
        <ele>827</ele>
        <time>2018-05-20T07:17:56.822Z</time>
      </trkpt>
      <trkpt lat="45.89826" lon="6.17627">
        <ele>828</ele>
        <time>2018-05-20T07:18:05.822Z</time>
      </trkpt>
      <trkpt lat="45.89826" lon="6.17613">
        <ele>830</ele>
        <time>2018-05-20T07:18:17.822Z</time>
      </trkpt>
      <trkpt lat="45.89831" lon="6.17602">
        <ele>831</ele>
        <time>2018-05-20T07:18:39.822Z</time>
      </trkpt>
      <trkpt lat="45.89838" lon="6.17594">
        <ele>835</ele>
        <time>2018-05-20T07:18:58.822Z</time>
      </trkpt>
      <trkpt lat="45.89846" lon="6.17586">
        <ele>842</ele>
        <time>2018-05-20T07:19:45.822Z</time>
      </trkpt>
      <trkpt lat="45.89843" lon="6.17574">
        <ele>841</ele>
        <time>2018-05-20T07:20:39.822Z</time>
      </trkpt>
      <trkpt lat="45.89835" lon="6.17565">
        <ele>841</ele>
        <time>2018-05-20T07:20:49.822Z</time>
      </trkpt>
      <trkpt lat="45.89827" lon="6.17556">
        <ele>842</ele>
        <time>2018-05-20T07:21:06.822Z</time>
      </trkpt>
      <trkpt lat="45.89826" lon="6.17543">
        <ele>845</ele>
        <time>2018-05-20T07:21:22.822Z</time>
      </trkpt>
      <trkpt lat="45.89826" lon="6.17535">
        <ele>846</ele>
        <time>2018-05-20T07:21:28.822Z</time>
      </trkpt>
      <trkpt lat="45.89825" lon="6.17532">
        <ele>846.81629673174</ele>
        <time>2018-05-20T07:21:31.822Z</time>
      </trkpt>
      <trkpt lat="45.89826" lon="6.17529">
        <ele>847</ele>
        <time>2018-05-20T07:21:34.822Z</time>
      </trkpt>
      <trkpt lat="45.89825" lon="6.17526">
        <ele>847</ele>
        <time>2018-05-20T07:21:37.822Z</time>
      </trkpt>
      <trkpt lat="45.89824" lon="6.17524">
        <ele>848</ele>
        <time>2018-05-20T07:21:39.822Z</time>
      </trkpt>
      <trkpt lat="45.89823" lon="6.17521">
        <ele>848</ele>
        <time>2018-05-20T07:21:42.822Z</time>
      </trkpt>
      <trkpt lat="45.89824" lon="6.17519">
        <ele>849</ele>
        <time>2018-05-20T07:21:46.822Z</time>
      </trkpt>
      <trkpt lat="45.89826" lon="6.17517">
        <ele>849</ele>
        <time>2018-05-20T07:21:50.822Z</time>
      </trkpt>
      <trkpt lat="45.89826" lon="6.17514">
        <ele>850</ele>
        <time>2018-05-20T07:21:54.822Z</time>
      </trkpt>
      <trkpt lat="45.89825" lon="6.17511">
        <ele>851</ele>
        <time>2018-05-20T07:21:58.822Z</time>
      </trkpt>
      <trkpt lat="45.89825" lon="6.17508">
        <ele>851</ele>
        <time>2018-05-20T07:22:01.822Z</time>
      </trkpt>
      <trkpt lat="45.89825" lon="6.17504">
        <ele>852</ele>
        <time>2018-05-20T07:22:04.822Z</time>
      </trkpt>
      <trkpt lat="45.89825" lon="6.17501">
        <ele>853.1020032</ele>
        <time>2018-05-20T07:22:12.822Z</time>
      </trkpt>
      <trkpt lat="45.89825" lon="6.17497">
        <ele>855</ele>
        <time>2018-05-20T07:22:18.822Z</time>
      </trkpt>
      <trkpt lat="45.89827" lon="6.17494">
        <ele>855.9752268325</ele>
        <time>2018-05-20T07:22:22.822Z</time>
      </trkpt>
      <trkpt lat="45.89828" lon="6.17492">
        <ele>857</ele>
        <time>2018-05-20T07:22:26.822Z</time>
      </trkpt>
      <trkpt lat="45.89829" lon="6.17488">
        <ele>857</ele>
        <time>2018-05-20T07:22:33.822Z</time>
      </trkpt>
      <trkpt lat="45.89829" lon="6.17485">
        <ele>858</ele>
        <time>2018-05-20T07:22:36.822Z</time>
      </trkpt>
      <trkpt lat="45.89831" lon="6.17482">
        <ele>858</ele>
        <time>2018-05-20T07:22:40.822Z</time>
      </trkpt>
      <trkpt lat="45.89841" lon="6.17483">
        <ele>858</ele>
        <time>2018-05-20T07:23:01.822Z</time>
      </trkpt>
      <trkpt lat="45.89832" lon="6.1748">
        <ele>860.16769067171</ele>
        <time>2018-05-20T07:24:44.822Z</time>
      </trkpt>
      <trkpt lat="45.89827" lon="6.17468">
        <ele>860.09714620083</ele>
        <time>2018-05-20T07:25:04.822Z</time>
      </trkpt>
      <trkpt lat="45.89826" lon="6.17466">
        <ele>862</ele>
        <time>2018-05-20T07:25:08.822Z</time>
      </trkpt>
      <trkpt lat="45.89825" lon="6.17462">
        <ele>862.06458666667</ele>
        <time>2018-05-20T07:25:11.822Z</time>
      </trkpt>
      <trkpt lat="45.89826" lon="6.17459">
        <ele>863.10099358731</ele>
        <time>2018-05-20T07:25:21.822Z</time>
      </trkpt>
      <trkpt lat="45.89827" lon="6.17456">
        <ele>864</ele>
        <time>2018-05-20T07:25:24.822Z</time>
      </trkpt>
      <trkpt lat="45.89827" lon="6.17453">
        <ele>864</ele>
        <time>2018-05-20T07:25:27.822Z</time>
      </trkpt>
      <trkpt lat="45.89827" lon="6.1745">
        <ele>865</ele>
        <time>2018-05-20T07:25:31.822Z</time>
      </trkpt>
      <trkpt lat="45.89828" lon="6.17448">
        <ele>866</ele>
        <time>2018-05-20T07:25:34.822Z</time>
      </trkpt>
      <trkpt lat="45.89828" lon="6.17445">
        <ele>866</ele>
        <time>2018-05-20T07:25:38.822Z</time>
      </trkpt>
      <trkpt lat="45.8983" lon="6.17444">
        <ele>867</ele>
        <time>2018-05-20T07:25:41.822Z</time>
      </trkpt>
      <trkpt lat="45.89831" lon="6.17441">
        <ele>867</ele>
        <time>2018-05-20T07:25:43.822Z</time>
      </trkpt>
      <trkpt lat="45.89832" lon="6.17439">
        <ele>868</ele>
        <time>2018-05-20T07:25:45.822Z</time>
      </trkpt>
      <trkpt lat="45.8983" lon="6.17435">
        <ele>868</ele>
        <time>2018-05-20T07:25:49.822Z</time>
      </trkpt>
      <trkpt lat="45.8983" lon="6.17432">
        <ele>868</ele>
        <time>2018-05-20T07:25:52.822Z</time>
      </trkpt>
      <trkpt lat="45.89828" lon="6.17429">
        <ele>869</ele>
        <time>2018-05-20T07:25:55.822Z</time>
      </trkpt>
      <trkpt lat="45.89828" lon="6.17426">
        <ele>869</ele>
        <time>2018-05-20T07:25:58.822Z</time>
      </trkpt>
      <trkpt lat="45.89827" lon="6.17424">
        <ele>870</ele>
        <time>2018-05-20T07:26:01.822Z</time>
      </trkpt>
      <trkpt lat="45.89827" lon="6.17421">
        <ele>870</ele>
        <time>2018-05-20T07:26:04.822Z</time>
      </trkpt>
      <trkpt lat="45.89827" lon="6.17418">
        <ele>871</ele>
        <time>2018-05-20T07:26:06.822Z</time>
      </trkpt>
      <trkpt lat="45.89827" lon="6.17415">
        <ele>871.10099358731</ele>
        <time>2018-05-20T07:26:08.822Z</time>
      </trkpt>
      <trkpt lat="45.89828" lon="6.1741">
        <ele>873</ele>
        <time>2018-05-20T07:26:14.822Z</time>
      </trkpt>
      <trkpt lat="45.89828" lon="6.17407">
        <ele>874</ele>
        <time>2018-05-20T07:26:17.822Z</time>
      </trkpt>
      <trkpt lat="45.89829" lon="6.17404">
        <ele>874</ele>
        <time>2018-05-20T07:26:21.822Z</time>
      </trkpt>
      <trkpt lat="45.8983" lon="6.17402">
        <ele>875</ele>
        <time>2018-05-20T07:26:26.822Z</time>
      </trkpt>
      <trkpt lat="45.89831" lon="6.17399">
        <ele>876</ele>
        <time>2018-05-20T07:26:29.822Z</time>
      </trkpt>
      <trkpt lat="45.89831" lon="6.17396">
        <ele>876</ele>
        <time>2018-05-20T07:26:31.822Z</time>
      </trkpt>
      <trkpt lat="45.89831" lon="6.17392">
        <ele>876</ele>
        <time>2018-05-20T07:26:37.822Z</time>
      </trkpt>
      <trkpt lat="45.89833" lon="6.17386">
        <ele>878.1020032</ele>
        <time>2018-05-20T07:26:44.822Z</time>
      </trkpt>
      <trkpt lat="45.89833" lon="6.17383">
        <ele>879</ele>
        <time>2018-05-20T07:26:48.822Z</time>
      </trkpt>
      <trkpt lat="45.89833" lon="6.1738">
        <ele>879</ele>
        <time>2018-05-20T07:26:51.822Z</time>
      </trkpt>
      <trkpt lat="45.89835" lon="6.17379">
        <ele>881</ele>
        <time>2018-05-20T07:26:56.822Z</time>
      </trkpt>
      <trkpt lat="45.89837" lon="6.17379">
        <ele>882</ele>
        <time>2018-05-20T07:26:59.822Z</time>
      </trkpt>
      <trkpt lat="45.89838" lon="6.17377">
        <ele>882.1020032</ele>
        <time>2018-05-20T07:27:09.822Z</time>
      </trkpt>
      <trkpt lat="45.8984" lon="6.17375">
        <ele>883</ele>
        <time>2018-05-20T07:27:12.822Z</time>
      </trkpt>
      <trkpt lat="45.8985" lon="6.17374">
        <ele>885</ele>
        <time>2018-05-20T07:27:23.822Z</time>
      </trkpt>
      <trkpt lat="45.89855" lon="6.17373">
        <ele>887</ele>
        <time>2018-05-20T07:27:32.822Z</time>
      </trkpt>
      <trkpt lat="45.89864" lon="6.17381">
        <ele>887</ele>
        <time>2018-05-20T07:27:40.822Z</time>
      </trkpt>
      <trkpt lat="45.89866" lon="6.17384">
        <ele>887</ele>
        <time>2018-05-20T07:27:48.822Z</time>
      </trkpt>
      <trkpt lat="45.89871" lon="6.17385">
        <ele>888</ele>
        <time>2018-05-20T07:27:58.822Z</time>
      </trkpt>
      <trkpt lat="45.8988" lon="6.17387">
        <ele>890</ele>
        <time>2018-05-20T07:28:14.822Z</time>
      </trkpt>
      <trkpt lat="45.89884" lon="6.17386">
        <ele>892</ele>
        <time>2018-05-20T07:28:23.822Z</time>
      </trkpt>
      <trkpt lat="45.89886" lon="6.17386">
        <ele>892.1020032</ele>
        <time>2018-05-20T07:28:27.822Z</time>
      </trkpt>
      <trkpt lat="45.89888" lon="6.17385">
        <ele>895</ele>
        <time>2018-05-20T07:28:33.822Z</time>
      </trkpt>
      <trkpt lat="45.8989" lon="6.17385">
        <ele>895</ele>
        <time>2018-05-20T07:28:35.822Z</time>
      </trkpt>
      <trkpt lat="45.89893" lon="6.17386">
        <ele>896</ele>
        <time>2018-05-20T07:28:38.822Z</time>
      </trkpt>
      <trkpt lat="45.89898" lon="6.17389">
        <ele>896</ele>
        <time>2018-05-20T07:28:45.822Z</time>
      </trkpt>
      <trkpt lat="45.89907" lon="6.17393">
        <ele>898</ele>
        <time>2018-05-20T07:28:56.822Z</time>
      </trkpt>
      <trkpt lat="45.89917" lon="6.17389">
        <ele>899</ele>
        <time>2018-05-20T07:29:10.822Z</time>
      </trkpt>
      <trkpt lat="45.89926" lon="6.17388">
        <ele>900</ele>
        <time>2018-05-20T07:29:30.822Z</time>
      </trkpt>
      <trkpt lat="45.89936" lon="6.1739">
        <ele>901</ele>
        <time>2018-05-20T07:29:41.822Z</time>
      </trkpt>
      <trkpt lat="45.89945" lon="6.17388">
        <ele>903</ele>
        <time>2018-05-20T07:29:53.822Z</time>
      </trkpt>
      <trkpt lat="45.89951" lon="6.17386">
        <ele>905</ele>
        <time>2018-05-20T07:30:02.822Z</time>
      </trkpt>
      <trkpt lat="45.89954" lon="6.17384">
        <ele>905</ele>
        <time>2018-05-20T07:30:06.822Z</time>
      </trkpt>
      <trkpt lat="45.89957" lon="6.17383">
        <ele>905</ele>
        <time>2018-05-20T07:30:08.822Z</time>
      </trkpt>
      <trkpt lat="45.89959" lon="6.17384">
        <ele>907</ele>
        <time>2018-05-20T07:30:15.822Z</time>
      </trkpt>
      <trkpt lat="45.89963" lon="6.1738">
        <ele>908.04882129431</ele>
        <time>2018-05-20T07:30:22.822Z</time>
      </trkpt>
      <trkpt lat="45.89966" lon="6.17379">
        <ele>909</ele>
        <time>2018-05-20T07:30:25.822Z</time>
      </trkpt>
      <trkpt lat="45.89969" lon="6.1738">
        <ele>910</ele>
        <time>2018-05-20T07:30:29.822Z</time>
      </trkpt>
      <trkpt lat="45.89978" lon="6.17386">
        <ele>913</ele>
        <time>2018-05-20T07:30:45.822Z</time>
      </trkpt>
      <trkpt lat="45.89987" lon="6.17389">
        <ele>914</ele>
        <time>2018-05-20T07:30:55.822Z</time>
      </trkpt>
      <trkpt lat="45.89992" lon="6.17389">
        <ele>916</ele>
        <time>2018-05-20T07:31:08.822Z</time>
      </trkpt>
      <trkpt lat="45.90001" lon="6.17388">
        <ele>919</ele>
        <time>2018-05-20T07:31:22.822Z</time>
      </trkpt>
      <trkpt lat="45.90003" lon="6.17387">
        <ele>919</ele>
        <time>2018-05-20T07:31:24.822Z</time>
      </trkpt>
      <trkpt lat="45.90005" lon="6.17387">
        <ele>919.9752268325</ele>
        <time>2018-05-20T07:31:29.822Z</time>
      </trkpt>
      <trkpt lat="45.90007" lon="6.17385">
        <ele>920</ele>
        <time>2018-05-20T07:31:35.822Z</time>
      </trkpt>
      <trkpt lat="45.90008" lon="6.17382">
        <ele>921</ele>
        <time>2018-05-20T07:31:40.822Z</time>
      </trkpt>
      <trkpt lat="45.90009" lon="6.17379">
        <ele>921</ele>
        <time>2018-05-20T07:31:43.822Z</time>
      </trkpt>
      <trkpt lat="45.90011" lon="6.17378">
        <ele>921</ele>
        <time>2018-05-20T07:31:46.822Z</time>
      </trkpt>
      <trkpt lat="45.90013" lon="6.17379">
        <ele>922</ele>
        <time>2018-05-20T07:31:49.822Z</time>
      </trkpt>
      <trkpt lat="45.90015" lon="6.17378">
        <ele>923</ele>
        <time>2018-05-20T07:31:52.822Z</time>
      </trkpt>
      <trkpt lat="45.90017" lon="6.17377">
        <ele>923</ele>
        <time>2018-05-20T07:31:55.822Z</time>
      </trkpt>
      <trkpt lat="45.90019" lon="6.17376">
        <ele>923.1020032</ele>
        <time>2018-05-20T07:32:04.822Z</time>
      </trkpt>
      <trkpt lat="45.90021" lon="6.17375">
        <ele>924</ele>
        <time>2018-05-20T07:32:07.822Z</time>
      </trkpt>
      <trkpt lat="45.90023" lon="6.17374">
        <ele>924.9752268325</ele>
        <time>2018-05-20T07:32:11.822Z</time>
      </trkpt>
      <trkpt lat="45.90025" lon="6.17373">
        <ele>925</ele>
        <time>2018-05-20T07:32:14.822Z</time>
      </trkpt>
      <trkpt lat="45.90027" lon="6.17372">
        <ele>925</ele>
        <time>2018-05-20T07:32:17.822Z</time>
      </trkpt>
      <trkpt lat="45.90028" lon="6.1737">
        <ele>928</ele>
        <time>2018-05-20T07:32:28.822Z</time>
      </trkpt>
      <trkpt lat="45.9003" lon="6.17369">
        <ele>928.10000250979</ele>
        <time>2018-05-20T07:32:30.822Z</time>
      </trkpt>
      <trkpt lat="45.90032" lon="6.17367">
        <ele>930</ele>
        <time>2018-05-20T07:32:34.822Z</time>
      </trkpt>
      <trkpt lat="45.90033" lon="6.17365">
        <ele>930</ele>
        <time>2018-05-20T07:32:38.822Z</time>
      </trkpt>
      <trkpt lat="45.90033" lon="6.17363">
        <ele>932</ele>
        <time>2018-05-20T07:32:43.822Z</time>
      </trkpt>
      <trkpt lat="45.90035" lon="6.1736">
        <ele>932</ele>
        <time>2018-05-20T07:32:49.822Z</time>
      </trkpt>
      <trkpt lat="45.90036" lon="6.17357">
        <ele>932</ele>
        <time>2018-05-20T07:32:51.822Z</time>
      </trkpt>
      <trkpt lat="45.90037" lon="6.17355">
        <ele>932</ele>
        <time>2018-05-20T07:32:53.822Z</time>
      </trkpt>
      <trkpt lat="45.90039" lon="6.17353">
        <ele>932</ele>
        <time>2018-05-20T07:32:55.822Z</time>
      </trkpt>
      <trkpt lat="45.90041" lon="6.17352">
        <ele>932</ele>
        <time>2018-05-20T07:32:58.822Z</time>
      </trkpt>
      <trkpt lat="45.90043" lon="6.17352">
        <ele>934.09026857421</ele>
        <time>2018-05-20T07:33:04.822Z</time>
      </trkpt>
      <trkpt lat="45.90045" lon="6.17351">
        <ele>935</ele>
        <time>2018-05-20T07:33:07.822Z</time>
      </trkpt>
      <trkpt lat="45.90047" lon="6.17349">
        <ele>935</ele>
        <time>2018-05-20T07:33:12.822Z</time>
      </trkpt>
      <trkpt lat="45.90047" lon="6.17347">
        <ele>936</ele>
        <time>2018-05-20T07:33:17.822Z</time>
      </trkpt>
      <trkpt lat="45.90049" lon="6.17345">
        <ele>937</ele>
        <time>2018-05-20T07:33:21.822Z</time>
      </trkpt>
      <trkpt lat="45.90051" lon="6.17344">
        <ele>937</ele>
        <time>2018-05-20T07:33:25.822Z</time>
      </trkpt>
      <trkpt lat="45.90053" lon="6.17343">
        <ele>937</ele>
        <time>2018-05-20T07:33:28.822Z</time>
      </trkpt>
      <trkpt lat="45.90054" lon="6.17341">
        <ele>938</ele>
        <time>2018-05-20T07:33:32.822Z</time>
      </trkpt>
      <trkpt lat="45.90056" lon="6.17339">
        <ele>939</ele>
        <time>2018-05-20T07:33:36.822Z</time>
      </trkpt>
      <trkpt lat="45.90058" lon="6.17338">
        <ele>940</ele>
        <time>2018-05-20T07:33:40.822Z</time>
      </trkpt>
      <trkpt lat="45.9006" lon="6.17337">
        <ele>940.08368271881</ele>
        <time>2018-05-20T07:33:44.822Z</time>
      </trkpt>
      <trkpt lat="45.90062" lon="6.17337">
        <ele>941</ele>
        <time>2018-05-20T07:33:50.822Z</time>
      </trkpt>
      <trkpt lat="45.90063" lon="6.17339">
        <ele>941</ele>
        <time>2018-05-20T07:33:54.822Z</time>
      </trkpt>
      <trkpt lat="45.90065" lon="6.17342">
        <ele>942</ele>
        <time>2018-05-20T07:33:59.822Z</time>
      </trkpt>
      <trkpt lat="45.90066" lon="6.17345">
        <ele>942.0927296423</ele>
        <time>2018-05-20T07:34:02.822Z</time>
      </trkpt>
      <trkpt lat="45.90069" lon="6.17354">
        <ele>943.1020032</ele>
        <time>2018-05-20T07:34:17.822Z</time>
      </trkpt>
      <trkpt lat="45.90072" lon="6.17366">
        <ele>946.1020032</ele>
        <time>2018-05-20T07:34:35.822Z</time>
      </trkpt>
      <trkpt lat="45.90073" lon="6.17368">
        <ele>947.1020032</ele>
        <time>2018-05-20T07:34:38.822Z</time>
      </trkpt>
      <trkpt lat="45.90075" lon="6.17366">
        <ele>948</ele>
        <time>2018-05-20T07:34:43.822Z</time>
      </trkpt>
      <trkpt lat="45.90076" lon="6.17364">
        <ele>949</ele>
        <time>2018-05-20T07:34:47.822Z</time>
      </trkpt>
      <trkpt lat="45.90076" lon="6.17361">
        <ele>950</ele>
        <time>2018-05-20T07:34:51.822Z</time>
      </trkpt>
      <trkpt lat="45.90076" lon="6.17359">
        <ele>950</ele>
        <time>2018-05-20T07:34:57.822Z</time>
      </trkpt>
      <trkpt lat="45.90078" lon="6.17356">
        <ele>950</ele>
        <time>2018-05-20T07:35:03.822Z</time>
      </trkpt>
      <trkpt lat="45.90078" lon="6.17353">
        <ele>950.00223287301</ele>
        <time>2018-05-20T07:35:10.822Z</time>
      </trkpt>
      <trkpt lat="45.90079" lon="6.1735">
        <ele>951.03440872055</ele>
        <time>2018-05-20T07:35:13.822Z</time>
      </trkpt>
      <trkpt lat="45.90081" lon="6.17348">
        <ele>952</ele>
        <time>2018-05-20T07:35:20.822Z</time>
      </trkpt>
      <trkpt lat="45.90083" lon="6.17346">
        <ele>953.01319379976</ele>
        <time>2018-05-20T07:35:24.822Z</time>
      </trkpt>
      <trkpt lat="45.90085" lon="6.17344">
        <ele>954</ele>
        <time>2018-05-20T07:35:28.822Z</time>
      </trkpt>
      <trkpt lat="45.90086" lon="6.17342">
        <ele>954</ele>
        <time>2018-05-20T07:35:32.822Z</time>
      </trkpt>
      <trkpt lat="45.90088" lon="6.17341">
        <ele>955.1020032</ele>
        <time>2018-05-20T07:35:36.822Z</time>
      </trkpt>
      <trkpt lat="45.9009" lon="6.17339">
        <ele>956</ele>
        <time>2018-05-20T07:35:40.822Z</time>
      </trkpt>
      <trkpt lat="45.90092" lon="6.17338">
        <ele>957</ele>
        <time>2018-05-20T07:35:44.822Z</time>
      </trkpt>
      <trkpt lat="45.90093" lon="6.17336">
        <ele>957</ele>
        <time>2018-05-20T07:35:48.822Z</time>
      </trkpt>
      <trkpt lat="45.90094" lon="6.17333">
        <ele>957</ele>
        <time>2018-05-20T07:35:56.822Z</time>
      </trkpt>
      <trkpt lat="45.90095" lon="6.17331">
        <ele>958</ele>
        <time>2018-05-20T07:35:59.822Z</time>
      </trkpt>
      <trkpt lat="45.90097" lon="6.17328">
        <ele>959</ele>
        <time>2018-05-20T07:36:03.822Z</time>
      </trkpt>
      <trkpt lat="45.90099" lon="6.17327">
        <ele>959</ele>
        <time>2018-05-20T07:36:07.822Z</time>
      </trkpt>
      <trkpt lat="45.90101" lon="6.17326">
        <ele>959</ele>
        <time>2018-05-20T07:36:10.822Z</time>
      </trkpt>
      <trkpt lat="45.90104" lon="6.17326">
        <ele>959</ele>
        <time>2018-05-20T07:36:13.822Z</time>
      </trkpt>
      <trkpt lat="45.90106" lon="6.17326">
        <ele>960</ele>
        <time>2018-05-20T07:36:16.822Z</time>
      </trkpt>
      <trkpt lat="45.90108" lon="6.17324">
        <ele>960</ele>
        <time>2018-05-20T07:36:19.822Z</time>
      </trkpt>
      <trkpt lat="45.90109" lon="6.17321">
        <ele>960</ele>
        <time>2018-05-20T07:36:21.822Z</time>
      </trkpt>
      <trkpt lat="45.90111" lon="6.1732">
        <ele>960</ele>
        <time>2018-05-20T07:36:24.822Z</time>
      </trkpt>
      <trkpt lat="45.90112" lon="6.17318">
        <ele>961</ele>
        <time>2018-05-20T07:36:28.822Z</time>
      </trkpt>
      <trkpt lat="45.90114" lon="6.17318">
        <ele>961</ele>
        <time>2018-05-20T07:36:31.822Z</time>
      </trkpt>
      <trkpt lat="45.90116" lon="6.17317">
        <ele>961</ele>
        <time>2018-05-20T07:36:34.822Z</time>
      </trkpt>
      <trkpt lat="45.90119" lon="6.17318">
        <ele>961.04469075955</ele>
        <time>2018-05-20T07:36:37.822Z</time>
      </trkpt>
      <trkpt lat="45.90121" lon="6.17316">
        <ele>963</ele>
        <time>2018-05-20T07:36:41.822Z</time>
      </trkpt>
      <trkpt lat="45.90123" lon="6.17316">
        <ele>963</ele>
        <time>2018-05-20T07:36:45.822Z</time>
      </trkpt>
      <trkpt lat="45.90125" lon="6.17316">
        <ele>964</ele>
        <time>2018-05-20T07:36:49.822Z</time>
      </trkpt>
      <trkpt lat="45.90126" lon="6.17315">
        <ele>964</ele>
        <time>2018-05-20T07:36:52.822Z</time>
      </trkpt>
      <trkpt lat="45.90127" lon="6.17323">
        <ele>966</ele>
        <time>2018-05-20T07:37:03.822Z</time>
      </trkpt>
      <trkpt lat="45.90126" lon="6.17326">
        <ele>966</ele>
        <time>2018-05-20T07:37:06.822Z</time>
      </trkpt>
      <trkpt lat="45.90124" lon="6.17327">
        <ele>967</ele>
        <time>2018-05-20T07:37:08.822Z</time>
      </trkpt>
      <trkpt lat="45.90122" lon="6.17329">
        <ele>967.09189450985</ele>
        <time>2018-05-20T07:37:11.822Z</time>
      </trkpt>
      <trkpt lat="45.90121" lon="6.17331">
        <ele>968</ele>
        <time>2018-05-20T07:37:15.822Z</time>
      </trkpt>
      <trkpt lat="45.9012" lon="6.17334">
        <ele>968</ele>
        <time>2018-05-20T07:37:21.822Z</time>
      </trkpt>
      <trkpt lat="45.90122" lon="6.17333">
        <ele>970</ele>
        <time>2018-05-20T07:37:33.822Z</time>
      </trkpt>
      <trkpt lat="45.90124" lon="6.17333">
        <ele>971</ele>
        <time>2018-05-20T07:37:38.822Z</time>
      </trkpt>
      <trkpt lat="45.90126" lon="6.17332">
        <ele>971</ele>
        <time>2018-05-20T07:37:41.822Z</time>
      </trkpt>
      <trkpt lat="45.90128" lon="6.17331">
        <ele>971.06458666667</ele>
        <time>2018-05-20T07:37:44.822Z</time>
      </trkpt>
      <trkpt lat="45.9013" lon="6.1733">
        <ele>972</ele>
        <time>2018-05-20T07:37:48.822Z</time>
      </trkpt>
      <trkpt lat="45.90132" lon="6.1733">
        <ele>973</ele>
        <time>2018-05-20T07:37:55.822Z</time>
      </trkpt>
      <trkpt lat="45.90131" lon="6.17334">
        <ele>974</ele>
        <time>2018-05-20T07:37:59.822Z</time>
      </trkpt>
      <trkpt lat="45.90131" lon="6.17336">
        <ele>974</ele>
        <time>2018-05-20T07:38:02.822Z</time>
      </trkpt>
      <trkpt lat="45.9013" lon="6.17339">
        <ele>975</ele>
        <time>2018-05-20T07:38:05.822Z</time>
      </trkpt>
      <trkpt lat="45.90129" lon="6.17342">
        <ele>975</ele>
        <time>2018-05-20T07:38:07.822Z</time>
      </trkpt>
      <trkpt lat="45.90123" lon="6.17349">
        <ele>977</ele>
        <time>2018-05-20T07:38:19.822Z</time>
      </trkpt>
      <trkpt lat="45.90123" lon="6.17352">
        <ele>977</ele>
        <time>2018-05-20T07:38:25.822Z</time>
      </trkpt>
      <trkpt lat="45.90122" lon="6.17356">
        <ele>978</ele>
        <time>2018-05-20T07:38:29.822Z</time>
      </trkpt>
      <trkpt lat="45.90122" lon="6.17369">
        <ele>980</ele>
        <time>2018-05-20T07:38:43.822Z</time>
      </trkpt>
      <trkpt lat="45.90122" lon="6.17374">
        <ele>980</ele>
        <time>2018-05-20T07:38:48.822Z</time>
      </trkpt>
      <trkpt lat="45.90121" lon="6.17377">
        <ele>982</ele>
        <time>2018-05-20T07:38:53.822Z</time>
      </trkpt>
      <trkpt lat="45.90122" lon="6.17375">
        <ele>982</ele>
        <time>2018-05-20T07:38:57.822Z</time>
      </trkpt>
      <trkpt lat="45.90123" lon="6.17372">
        <ele>982</ele>
        <time>2018-05-20T07:39:01.822Z</time>
      </trkpt>
      <trkpt lat="45.90124" lon="6.1737">
        <ele>983</ele>
        <time>2018-05-20T07:39:05.822Z</time>
      </trkpt>
      <trkpt lat="45.90125" lon="6.17367">
        <ele>983</ele>
        <time>2018-05-20T07:39:08.822Z</time>
      </trkpt>
      <trkpt lat="45.90126" lon="6.17365">
        <ele>983</ele>
        <time>2018-05-20T07:39:11.822Z</time>
      </trkpt>
      <trkpt lat="45.90128" lon="6.17362">
        <ele>984</ele>
        <time>2018-05-20T07:39:15.822Z</time>
      </trkpt>
      <trkpt lat="45.90129" lon="6.1736">
        <ele>984</ele>
        <time>2018-05-20T07:39:20.822Z</time>
      </trkpt>
      <trkpt lat="45.90132" lon="6.17359">
        <ele>985</ele>
        <time>2018-05-20T07:39:23.822Z</time>
      </trkpt>
      <trkpt lat="45.90134" lon="6.17359">
        <ele>986</ele>
        <time>2018-05-20T07:39:29.822Z</time>
      </trkpt>
      <trkpt lat="45.90136" lon="6.17359">
        <ele>986</ele>
        <time>2018-05-20T07:39:32.822Z</time>
      </trkpt>
      <trkpt lat="45.90136" lon="6.17362">
        <ele>986</ele>
        <time>2018-05-20T07:39:36.822Z</time>
      </trkpt>
      <trkpt lat="45.90134" lon="6.17363">
        <ele>987.00221868244</ele>
        <time>2018-05-20T07:39:39.822Z</time>
      </trkpt>
      <trkpt lat="45.90134" lon="6.17379">
        <ele>990</ele>
        <time>2018-05-20T07:39:55.822Z</time>
      </trkpt>
      <trkpt lat="45.90135" lon="6.17381">
        <ele>990</ele>
        <time>2018-05-20T07:39:58.822Z</time>
      </trkpt>
      <trkpt lat="45.90135" lon="6.17386">
        <ele>991</ele>
        <time>2018-05-20T07:40:02.822Z</time>
      </trkpt>
      <trkpt lat="45.90134" lon="6.17388">
        <ele>992</ele>
        <time>2018-05-20T07:40:07.822Z</time>
      </trkpt>
      <trkpt lat="45.90133" lon="6.17392">
        <ele>992</ele>
        <time>2018-05-20T07:40:13.822Z</time>
      </trkpt>
      <trkpt lat="45.90132" lon="6.17395">
        <ele>993</ele>
        <time>2018-05-20T07:40:17.822Z</time>
      </trkpt>
      <trkpt lat="45.90132" lon="6.17398">
        <ele>994</ele>
        <time>2018-05-20T07:40:20.822Z</time>
      </trkpt>
      <trkpt lat="45.90131" lon="6.17401">
        <ele>994</ele>
        <time>2018-05-20T07:40:22.822Z</time>
      </trkpt>
      <trkpt lat="45.9013" lon="6.17406">
        <ele>994</ele>
        <time>2018-05-20T07:40:26.822Z</time>
      </trkpt>
      <trkpt lat="45.9013" lon="6.1741">
        <ele>995</ele>
        <time>2018-05-20T07:40:31.822Z</time>
      </trkpt>
      <trkpt lat="45.90129" lon="6.17423">
        <ele>996</ele>
        <time>2018-05-20T07:40:44.822Z</time>
      </trkpt>
      <trkpt lat="45.90128" lon="6.17428">
        <ele>997</ele>
        <time>2018-05-20T07:40:49.822Z</time>
      </trkpt>
      <trkpt lat="45.90129" lon="6.17437">
        <ele>998</ele>
        <time>2018-05-20T07:40:58.822Z</time>
      </trkpt>
      <trkpt lat="45.90128" lon="6.17441">
        <ele>998</ele>
        <time>2018-05-20T07:41:04.822Z</time>
      </trkpt>
      <trkpt lat="45.90128" lon="6.17444">
        <ele>999</ele>
        <time>2018-05-20T07:41:08.822Z</time>
      </trkpt>
      <trkpt lat="45.90128" lon="6.17447">
        <ele>999.1020032</ele>
        <time>2018-05-20T07:41:12.822Z</time>
      </trkpt>
      <trkpt lat="45.90127" lon="6.1745">
        <ele>1000</ele>
        <time>2018-05-20T07:41:18.822Z</time>
      </trkpt>
      <trkpt lat="45.90125" lon="6.17451">
        <ele>1000</ele>
        <time>2018-05-20T07:41:22.822Z</time>
      </trkpt>
      <trkpt lat="45.90124" lon="6.17454">
        <ele>1001</ele>
        <time>2018-05-20T07:41:26.822Z</time>
      </trkpt>
      <trkpt lat="45.90126" lon="6.17469">
        <ele>1003</ele>
        <time>2018-05-20T07:41:38.822Z</time>
      </trkpt>
      <trkpt lat="45.90121" lon="6.1748">
        <ele>1003</ele>
        <time>2018-05-20T07:41:53.822Z</time>
      </trkpt>
      <trkpt lat="45.90122" lon="6.17489">
        <ele>1004</ele>
        <time>2018-05-20T07:42:01.822Z</time>
      </trkpt>
      <trkpt lat="45.90122" lon="6.17492">
        <ele>1005</ele>
        <time>2018-05-20T07:42:04.822Z</time>
      </trkpt>
      <trkpt lat="45.90114" lon="6.17499">
        <ele>1006</ele>
        <time>2018-05-20T07:42:14.822Z</time>
      </trkpt>
      <trkpt lat="45.90115" lon="6.17503">
        <ele>1006</ele>
        <time>2018-05-20T07:42:18.822Z</time>
      </trkpt>
      <trkpt lat="45.90116" lon="6.17516">
        <ele>1008.1020032</ele>
        <time>2018-05-20T07:42:33.822Z</time>
      </trkpt>
      <trkpt lat="45.90116" lon="6.17519">
        <ele>1009</ele>
        <time>2018-05-20T07:42:36.822Z</time>
      </trkpt>
      <trkpt lat="45.90115" lon="6.17523">
        <ele>1009</ele>
        <time>2018-05-20T07:42:39.822Z</time>
      </trkpt>
      <trkpt lat="45.90112" lon="6.17535">
        <ele>1011</ele>
        <time>2018-05-20T07:42:51.822Z</time>
      </trkpt>
      <trkpt lat="45.90109" lon="6.17536">
        <ele>1012</ele>
        <time>2018-05-20T07:42:54.822Z</time>
      </trkpt>
      <trkpt lat="45.90109" lon="6.17538">
        <ele>1012</ele>
        <time>2018-05-20T07:42:59.822Z</time>
      </trkpt>
      <trkpt lat="45.90107" lon="6.17542">
        <ele>1012</ele>
        <time>2018-05-20T07:43:03.822Z</time>
      </trkpt>
      <trkpt lat="45.90104" lon="6.17545">
        <ele>1013</ele>
        <time>2018-05-20T07:43:08.822Z</time>
      </trkpt>
      <trkpt lat="45.90102" lon="6.17546">
        <ele>1013</ele>
        <time>2018-05-20T07:43:11.822Z</time>
      </trkpt>
      <trkpt lat="45.901" lon="6.17547">
        <ele>1013</ele>
        <time>2018-05-20T07:43:13.822Z</time>
      </trkpt>
      <trkpt lat="45.90098" lon="6.17547">
        <ele>1013.0927307213</ele>
        <time>2018-05-20T07:43:15.822Z</time>
      </trkpt>
      <trkpt lat="45.90098" lon="6.17544">
        <ele>1016</ele>
        <time>2018-05-20T07:43:27.822Z</time>
      </trkpt>
      <trkpt lat="45.90099" lon="6.17541">
        <ele>1016</ele>
        <time>2018-05-20T07:43:32.822Z</time>
      </trkpt>
      <trkpt lat="45.90101" lon="6.17539">
        <ele>1017</ele>
        <time>2018-05-20T07:43:36.822Z</time>
      </trkpt>
      <trkpt lat="45.90103" lon="6.17538">
        <ele>1017</ele>
        <time>2018-05-20T07:43:41.822Z</time>
      </trkpt>
      <trkpt lat="45.90104" lon="6.17536">
        <ele>1018</ele>
        <time>2018-05-20T07:43:44.822Z</time>
      </trkpt>
      <trkpt lat="45.90106" lon="6.17534">
        <ele>1018</ele>
        <time>2018-05-20T07:43:47.822Z</time>
      </trkpt>
      <trkpt lat="45.90107" lon="6.17533">
        <ele>1018</ele>
        <time>2018-05-20T07:43:50.822Z</time>
      </trkpt>
      <trkpt lat="45.9011" lon="6.17531">
        <ele>1019</ele>
        <time>2018-05-20T07:43:52.822Z</time>
      </trkpt>
      <trkpt lat="45.90111" lon="6.17529">
        <ele>1019</ele>
        <time>2018-05-20T07:43:55.822Z</time>
      </trkpt>
      <trkpt lat="45.90113" lon="6.17529">
        <ele>1020</ele>
        <time>2018-05-20T07:44:02.822Z</time>
      </trkpt>
      <trkpt lat="45.90116" lon="6.17527">
        <ele>1021</ele>
        <time>2018-05-20T07:44:07.822Z</time>
      </trkpt>
      <trkpt lat="45.90118" lon="6.17526">
        <ele>1021</ele>
        <time>2018-05-20T07:44:10.822Z</time>
      </trkpt>
      <trkpt lat="45.9012" lon="6.17526">
        <ele>1021.0645866667</ele>
        <time>2018-05-20T07:44:13.822Z</time>
      </trkpt>
      <trkpt lat="45.90122" lon="6.17527">
        <ele>1022</ele>
        <time>2018-05-20T07:44:17.822Z</time>
      </trkpt>
      <trkpt lat="45.90123" lon="6.17529">
        <ele>1022</ele>
        <time>2018-05-20T07:44:22.822Z</time>
      </trkpt>
      <trkpt lat="45.90125" lon="6.17526">
        <ele>1023</ele>
        <time>2018-05-20T07:44:27.822Z</time>
      </trkpt>
      <trkpt lat="45.90126" lon="6.17524">
        <ele>1024</ele>
        <time>2018-05-20T07:44:32.822Z</time>
      </trkpt>
      <trkpt lat="45.90126" lon="6.17527">
        <ele>1025</ele>
        <time>2018-05-20T07:44:38.822Z</time>
      </trkpt>
      <trkpt lat="45.90127" lon="6.1754">
        <ele>1026</ele>
        <time>2018-05-20T07:44:48.822Z</time>
      </trkpt>
      <trkpt lat="45.90126" lon="6.17547">
        <ele>1026</ele>
        <time>2018-05-20T07:44:55.822Z</time>
      </trkpt>
      <trkpt lat="45.9012" lon="6.17551">
        <ele>1029</ele>
        <time>2018-05-20T07:45:09.822Z</time>
      </trkpt>
      <trkpt lat="45.9012" lon="6.17553">
        <ele>1029</ele>
        <time>2018-05-20T07:45:12.822Z</time>
      </trkpt>
      <trkpt lat="45.90118" lon="6.17558">
        <ele>1032</ele>
        <time>2018-05-20T07:45:24.822Z</time>
      </trkpt>
      <trkpt lat="45.90111" lon="6.1757">
        <ele>1032</ele>
        <time>2018-05-20T07:45:37.822Z</time>
      </trkpt>
      <trkpt lat="45.90106" lon="6.1758">
        <ele>1035</ele>
        <time>2018-05-20T07:45:52.822Z</time>
      </trkpt>
      <trkpt lat="45.90105" lon="6.17584">
        <ele>1036</ele>
        <time>2018-05-20T07:45:56.822Z</time>
      </trkpt>
      <trkpt lat="45.90105" lon="6.17587">
        <ele>1036</ele>
        <time>2018-05-20T07:45:59.822Z</time>
      </trkpt>
      <trkpt lat="45.90104" lon="6.17592">
        <ele>1036</ele>
        <time>2018-05-20T07:46:03.822Z</time>
      </trkpt>
      <trkpt lat="45.901" lon="6.17598">
        <ele>1037</ele>
        <time>2018-05-20T07:46:12.822Z</time>
      </trkpt>
      <trkpt lat="45.90099" lon="6.17602">
        <ele>1037</ele>
        <time>2018-05-20T07:46:16.822Z</time>
      </trkpt>
      <trkpt lat="45.90099" lon="6.17606">
        <ele>1037.1020032</ele>
        <time>2018-05-20T07:46:19.822Z</time>
      </trkpt>
      <trkpt lat="45.90099" lon="6.17609">
        <ele>1038</ele>
        <time>2018-05-20T07:46:22.822Z</time>
      </trkpt>
      <trkpt lat="45.901" lon="6.17612">
        <ele>1039</ele>
        <time>2018-05-20T07:46:26.822Z</time>
      </trkpt>
      <trkpt lat="45.90099" lon="6.17615">
        <ele>1039</ele>
        <time>2018-05-20T07:46:30.822Z</time>
      </trkpt>
      <trkpt lat="45.90099" lon="6.17618">
        <ele>1040</ele>
        <time>2018-05-20T07:46:35.822Z</time>
      </trkpt>
      <trkpt lat="45.90099" lon="6.17621">
        <ele>1040.0927307213</ele>
        <time>2018-05-20T07:46:39.822Z</time>
      </trkpt>
      <trkpt lat="45.90099" lon="6.17624">
        <ele>1041</ele>
        <time>2018-05-20T07:46:42.822Z</time>
      </trkpt>
      <trkpt lat="45.90099" lon="6.17626">
        <ele>1041</ele>
        <time>2018-05-20T07:46:46.822Z</time>
      </trkpt>
      <trkpt lat="45.90099" lon="6.17629">
        <ele>1041</ele>
        <time>2018-05-20T07:46:50.822Z</time>
      </trkpt>
      <trkpt lat="45.90099" lon="6.17633">
        <ele>1042</ele>
        <time>2018-05-20T07:46:54.822Z</time>
      </trkpt>
      <trkpt lat="45.90098" lon="6.17636">
        <ele>1042</ele>
        <time>2018-05-20T07:46:57.822Z</time>
      </trkpt>
      <trkpt lat="45.90099" lon="6.17649">
        <ele>1045</ele>
        <time>2018-05-20T07:47:09.822Z</time>
      </trkpt>
      <trkpt lat="45.90099" lon="6.17657">
        <ele>1045</ele>
        <time>2018-05-20T07:47:15.822Z</time>
      </trkpt>
      <trkpt lat="45.901" lon="6.1766">
        <ele>1046</ele>
        <time>2018-05-20T07:47:19.822Z</time>
      </trkpt>
      <trkpt lat="45.90101" lon="6.17665">
        <ele>1047</ele>
        <time>2018-05-20T07:47:23.822Z</time>
      </trkpt>
      <trkpt lat="45.90101" lon="6.17668">
        <ele>1047</ele>
        <time>2018-05-20T07:47:26.822Z</time>
      </trkpt>
      <trkpt lat="45.90104" lon="6.17658">
        <ele>1049</ele>
        <time>2018-05-20T07:47:41.822Z</time>
      </trkpt>
      <trkpt lat="45.90105" lon="6.17656">
        <ele>1049.0971462008</ele>
        <time>2018-05-20T07:47:44.822Z</time>
      </trkpt>
      <trkpt lat="45.90105" lon="6.17653">
        <ele>1050</ele>
        <time>2018-05-20T07:47:50.822Z</time>
      </trkpt>
      <trkpt lat="45.90106" lon="6.1765">
        <ele>1051</ele>
        <time>2018-05-20T07:47:55.822Z</time>
      </trkpt>
      <trkpt lat="45.90107" lon="6.17648">
        <ele>1051</ele>
        <time>2018-05-20T07:47:58.822Z</time>
      </trkpt>
      <trkpt lat="45.90108" lon="6.17645">
        <ele>1052</ele>
        <time>2018-05-20T07:48:02.822Z</time>
      </trkpt>
      <trkpt lat="45.90109" lon="6.17642">
        <ele>1053</ele>
        <time>2018-05-20T07:48:06.822Z</time>
      </trkpt>
      <trkpt lat="45.9011" lon="6.1764">
        <ele>1053.0131937998</ele>
        <time>2018-05-20T07:48:09.822Z</time>
      </trkpt>
      <trkpt lat="45.9011" lon="6.17636">
        <ele>1055</ele>
        <time>2018-05-20T07:48:16.822Z</time>
      </trkpt>
      <trkpt lat="45.90112" lon="6.17634">
        <ele>1055</ele>
        <time>2018-05-20T07:48:19.822Z</time>
      </trkpt>
      <trkpt lat="45.90112" lon="6.17632">
        <ele>1056</ele>
        <time>2018-05-20T07:48:22.822Z</time>
      </trkpt>
      <trkpt lat="45.90112" lon="6.17629">
        <ele>1056</ele>
        <time>2018-05-20T07:48:26.822Z</time>
      </trkpt>
      <trkpt lat="45.90113" lon="6.17626">
        <ele>1056.0918945098</ele>
        <time>2018-05-20T07:48:30.822Z</time>
      </trkpt>
      <trkpt lat="45.90114" lon="6.17624">
        <ele>1057</ele>
        <time>2018-05-20T07:48:32.822Z</time>
      </trkpt>
      <trkpt lat="45.90117" lon="6.17621">
        <ele>1058</ele>
        <time>2018-05-20T07:48:36.822Z</time>
      </trkpt>
      <trkpt lat="45.90119" lon="6.1762">
        <ele>1058</ele>
        <time>2018-05-20T07:48:38.822Z</time>
      </trkpt>
      <trkpt lat="45.90121" lon="6.17617">
        <ele>1059</ele>
        <time>2018-05-20T07:48:41.822Z</time>
      </trkpt>
      <trkpt lat="45.90122" lon="6.17616">
        <ele>1059</ele>
        <time>2018-05-20T07:48:44.822Z</time>
      </trkpt>
      <trkpt lat="45.90124" lon="6.17614">
        <ele>1059.0344087205</ele>
        <time>2018-05-20T07:48:47.822Z</time>
      </trkpt>
      <trkpt lat="45.90125" lon="6.17612">
        <ele>1060</ele>
        <time>2018-05-20T07:48:51.822Z</time>
      </trkpt>
      <trkpt lat="45.90127" lon="6.1761">
        <ele>1061</ele>
        <time>2018-05-20T07:48:54.822Z</time>
      </trkpt>
      <trkpt lat="45.90129" lon="6.1761">
        <ele>1062</ele>
        <time>2018-05-20T07:48:57.822Z</time>
      </trkpt>
      <trkpt lat="45.90131" lon="6.17609">
        <ele>1062</ele>
        <time>2018-05-20T07:49:00.822Z</time>
      </trkpt>
      <trkpt lat="45.90132" lon="6.17609">
        <ele>1063</ele>
        <time>2018-05-20T07:49:03.822Z</time>
      </trkpt>
      <trkpt lat="45.90134" lon="6.17608">
        <ele>1064</ele>
        <time>2018-05-20T07:49:07.822Z</time>
      </trkpt>
      <trkpt lat="45.90136" lon="6.17608">
        <ele>1064</ele>
        <time>2018-05-20T07:49:11.822Z</time>
      </trkpt>
      <trkpt lat="45.90138" lon="6.17607">
        <ele>1065</ele>
        <time>2018-05-20T07:49:18.822Z</time>
      </trkpt>
      <trkpt lat="45.9014" lon="6.17605">
        <ele>1066</ele>
        <time>2018-05-20T07:49:25.822Z</time>
      </trkpt>
      <trkpt lat="45.90142" lon="6.17606">
        <ele>1066.1020032</ele>
        <time>2018-05-20T07:49:29.822Z</time>
      </trkpt>
      <trkpt lat="45.90142" lon="6.17609">
        <ele>1068</ele>
        <time>2018-05-20T07:49:33.822Z</time>
      </trkpt>
      <trkpt lat="45.90142" lon="6.17612">
        <ele>1069</ele>
        <time>2018-05-20T07:49:37.822Z</time>
      </trkpt>
      <trkpt lat="45.9014" lon="6.17614">
        <ele>1069</ele>
        <time>2018-05-20T07:49:40.822Z</time>
      </trkpt>
      <trkpt lat="45.90139" lon="6.17617">
        <ele>1069</ele>
        <time>2018-05-20T07:49:44.822Z</time>
      </trkpt>
      <trkpt lat="45.90138" lon="6.17621">
        <ele>1070</ele>
        <time>2018-05-20T07:49:47.822Z</time>
      </trkpt>
      <trkpt lat="45.90137" lon="6.17623">
        <ele>1070</ele>
        <time>2018-05-20T07:49:50.822Z</time>
      </trkpt>
      <trkpt lat="45.90139" lon="6.17627">
        <ele>1071</ele>
        <time>2018-05-20T07:49:53.822Z</time>
      </trkpt>
      <trkpt lat="45.90139" lon="6.1763">
        <ele>1071</ele>
        <time>2018-05-20T07:49:56.822Z</time>
      </trkpt>
      <trkpt lat="45.90138" lon="6.17633">
        <ele>1071</ele>
        <time>2018-05-20T07:49:59.822Z</time>
      </trkpt>
      <trkpt lat="45.90138" lon="6.17636">
        <ele>1072</ele>
        <time>2018-05-20T07:50:03.822Z</time>
      </trkpt>
      <trkpt lat="45.90137" lon="6.17634">
        <ele>1074</ele>
        <time>2018-05-20T07:50:10.822Z</time>
      </trkpt>
      <trkpt lat="45.90139" lon="6.17632">
        <ele>1074</ele>
        <time>2018-05-20T07:50:16.822Z</time>
      </trkpt>
      <trkpt lat="45.9014" lon="6.17629">
        <ele>1074</ele>
        <time>2018-05-20T07:50:20.822Z</time>
      </trkpt>
      <trkpt lat="45.90142" lon="6.17628">
        <ele>1075</ele>
        <time>2018-05-20T07:50:23.822Z</time>
      </trkpt>
      <trkpt lat="45.90144" lon="6.17626">
        <ele>1076</ele>
        <time>2018-05-20T07:50:26.822Z</time>
      </trkpt>
      <trkpt lat="45.90145" lon="6.17624">
        <ele>1076</ele>
        <time>2018-05-20T07:50:29.822Z</time>
      </trkpt>
      <trkpt lat="45.90147" lon="6.17623">
        <ele>1076.0902685742</ele>
        <time>2018-05-20T07:50:32.822Z</time>
      </trkpt>
      <trkpt lat="45.90149" lon="6.17622">
        <ele>1078</ele>
        <time>2018-05-20T07:50:36.822Z</time>
      </trkpt>
      <trkpt lat="45.90151" lon="6.17621">
        <ele>1078</ele>
        <time>2018-05-20T07:50:39.822Z</time>
      </trkpt>
      <trkpt lat="45.90153" lon="6.1762">
        <ele>1079</ele>
        <time>2018-05-20T07:50:42.822Z</time>
      </trkpt>
      <trkpt lat="45.90154" lon="6.17617">
        <ele>1079.1020032</ele>
        <time>2018-05-20T07:50:46.822Z</time>
      </trkpt>
      <trkpt lat="45.90156" lon="6.17615">
        <ele>1080</ele>
        <time>2018-05-20T07:50:50.822Z</time>
      </trkpt>
      <trkpt lat="45.90158" lon="6.17613">
        <ele>1080</ele>
        <time>2018-05-20T07:50:52.822Z</time>
      </trkpt>
      <trkpt lat="45.90159" lon="6.17611">
        <ele>1080.0239165217</ele>
        <time>2018-05-20T07:50:54.822Z</time>
      </trkpt>
      <trkpt lat="45.90161" lon="6.1761">
        <ele>1081</ele>
        <time>2018-05-20T07:50:56.822Z</time>
      </trkpt>
      <trkpt lat="45.90163" lon="6.17609">
        <ele>1081</ele>
        <time>2018-05-20T07:50:59.822Z</time>
      </trkpt>
      <trkpt lat="45.90164" lon="6.17606">
        <ele>1081</ele>
        <time>2018-05-20T07:51:02.822Z</time>
      </trkpt>
      <trkpt lat="45.90166" lon="6.17604">
        <ele>1081</ele>
        <time>2018-05-20T07:51:05.822Z</time>
      </trkpt>
      <trkpt lat="45.90168" lon="6.17603">
        <ele>1082</ele>
        <time>2018-05-20T07:51:08.822Z</time>
      </trkpt>
      <trkpt lat="45.9017" lon="6.17602">
        <ele>1082.0929354572</ele>
        <time>2018-05-20T07:51:12.822Z</time>
      </trkpt>
      <trkpt lat="45.90172" lon="6.176">
        <ele>1083</ele>
        <time>2018-05-20T07:51:16.822Z</time>
      </trkpt>
      <trkpt lat="45.90173" lon="6.17599">
        <ele>1083</ele>
        <time>2018-05-20T07:51:19.822Z</time>
      </trkpt>
      <trkpt lat="45.90175" lon="6.17598">
        <ele>1083.1020032</ele>
        <time>2018-05-20T07:51:22.822Z</time>
      </trkpt>
      <trkpt lat="45.90177" lon="6.17596">
        <ele>1084</ele>
        <time>2018-05-20T07:51:25.822Z</time>
      </trkpt>
      <trkpt lat="45.90179" lon="6.17594">
        <ele>1084</ele>
        <time>2018-05-20T07:51:27.822Z</time>
      </trkpt>
      <trkpt lat="45.9018" lon="6.17593">
        <ele>1084</ele>
        <time>2018-05-20T07:51:30.822Z</time>
      </trkpt>
      <trkpt lat="45.90182" lon="6.17592">
        <ele>1084</ele>
        <time>2018-05-20T07:51:32.822Z</time>
      </trkpt>
      <trkpt lat="45.90184" lon="6.17591">
        <ele>1084.077864848</ele>
        <time>2018-05-20T07:51:35.822Z</time>
      </trkpt>
      <trkpt lat="45.90186" lon="6.1759">
        <ele>1086</ele>
        <time>2018-05-20T07:51:40.822Z</time>
      </trkpt>
      <trkpt lat="45.90188" lon="6.17589">
        <ele>1087</ele>
        <time>2018-05-20T07:51:43.822Z</time>
      </trkpt>
      <trkpt lat="45.9019" lon="6.17586">
        <ele>1088</ele>
        <time>2018-05-20T07:51:47.822Z</time>
      </trkpt>
      <trkpt lat="45.90192" lon="6.17586">
        <ele>1089</ele>
        <time>2018-05-20T07:51:51.822Z</time>
      </trkpt>
      <trkpt lat="45.90195" lon="6.17584">
        <ele>1089.0239165217</ele>
        <time>2018-05-20T07:51:57.822Z</time>
      </trkpt>
      <trkpt lat="45.90197" lon="6.17583">
        <ele>1090</ele>
        <time>2018-05-20T07:52:01.822Z</time>
      </trkpt>
      <trkpt lat="45.90199" lon="6.17582">
        <ele>1090</ele>
        <time>2018-05-20T07:52:05.822Z</time>
      </trkpt>
      <trkpt lat="45.90201" lon="6.1758">
        <ele>1091</ele>
        <time>2018-05-20T07:52:08.822Z</time>
      </trkpt>
      <trkpt lat="45.90202" lon="6.17578">
        <ele>1091.0547433946</ele>
        <time>2018-05-20T07:52:11.822Z</time>
      </trkpt>
      <trkpt lat="45.90204" lon="6.17578">
        <ele>1092</ele>
        <time>2018-05-20T07:52:15.822Z</time>
      </trkpt>
      <trkpt lat="45.90206" lon="6.17577">
        <ele>1093</ele>
        <time>2018-05-20T07:52:19.822Z</time>
      </trkpt>
      <trkpt lat="45.90209" lon="6.17577">
        <ele>1093.9666640468</ele>
        <time>2018-05-20T07:52:24.822Z</time>
      </trkpt>
      <trkpt lat="45.90211" lon="6.17576">
        <ele>1094</ele>
        <time>2018-05-20T07:52:27.822Z</time>
      </trkpt>
      <trkpt lat="45.90213" lon="6.17574">
        <ele>1094</ele>
        <time>2018-05-20T07:52:30.822Z</time>
      </trkpt>
      <trkpt lat="45.90215" lon="6.17572">
        <ele>1095</ele>
        <time>2018-05-20T07:52:33.822Z</time>
      </trkpt>
      <trkpt lat="45.90217" lon="6.1757">
        <ele>1095</ele>
        <time>2018-05-20T07:52:36.822Z</time>
      </trkpt>
      <trkpt lat="45.90219" lon="6.17568">
        <ele>1095</ele>
        <time>2018-05-20T07:52:39.822Z</time>
      </trkpt>
      <trkpt lat="45.90221" lon="6.17566">
        <ele>1096</ele>
        <time>2018-05-20T07:52:42.822Z</time>
      </trkpt>
      <trkpt lat="45.90223" lon="6.17564">
        <ele>1097</ele>
        <time>2018-05-20T07:52:45.822Z</time>
      </trkpt>
      <trkpt lat="45.90224" lon="6.17562">
        <ele>1097</ele>
        <time>2018-05-20T07:52:53.822Z</time>
      </trkpt>
      <trkpt lat="45.90226" lon="6.17562">
        <ele>1098</ele>
        <time>2018-05-20T07:53:01.822Z</time>
      </trkpt>
      <trkpt lat="45.90228" lon="6.17562">
        <ele>1100</ele>
        <time>2018-05-20T07:53:06.822Z</time>
      </trkpt>
      <trkpt lat="45.90229" lon="6.17565">
        <ele>1101</ele>
        <time>2018-05-20T07:53:14.822Z</time>
      </trkpt>
      <trkpt lat="45.90231" lon="6.17566">
        <ele>1102</ele>
        <time>2018-05-20T07:53:20.822Z</time>
      </trkpt>
      <trkpt lat="45.90233" lon="6.17567">
        <ele>1105</ele>
        <time>2018-05-20T07:53:52.822Z</time>
      </trkpt>
      <trkpt lat="45.90235" lon="6.17566">
        <ele>1105.0446907595</ele>
        <time>2018-05-20T07:53:57.822Z</time>
      </trkpt>
      <trkpt lat="45.90237" lon="6.17565">
        <ele>1107</ele>
        <time>2018-05-20T07:54:03.822Z</time>
      </trkpt>
      <trkpt lat="45.90238" lon="6.17563">
        <ele>1107</ele>
        <time>2018-05-20T07:54:10.822Z</time>
      </trkpt>
      <trkpt lat="45.9024" lon="6.17563">
        <ele>1108.0902685742</ele>
        <time>2018-05-20T07:54:15.822Z</time>
      </trkpt>
      <trkpt lat="45.90242" lon="6.17564">
        <ele>1109.096228853</ele>
        <time>2018-05-20T07:54:21.822Z</time>
      </trkpt>
      <trkpt lat="45.90242" lon="6.17561">
        <ele>1111</ele>
        <time>2018-05-20T07:54:26.822Z</time>
      </trkpt>
      <trkpt lat="45.90244" lon="6.1756">
        <ele>1112</ele>
        <time>2018-05-20T07:54:35.822Z</time>
      </trkpt>
      <trkpt lat="45.90246" lon="6.1756">
        <ele>1112</ele>
        <time>2018-05-20T07:54:40.822Z</time>
      </trkpt>
      <trkpt lat="45.90249" lon="6.17558">
        <ele>1113</ele>
        <time>2018-05-20T07:55:37.822Z</time>
      </trkpt>
      <trkpt lat="45.90251" lon="6.17556">
        <ele>1113.1020032</ele>
        <time>2018-05-20T07:55:41.822Z</time>
      </trkpt>
      <trkpt lat="45.90253" lon="6.17555">
        <ele>1115.0239165217</ele>
        <time>2018-05-20T07:55:48.822Z</time>
      </trkpt>
      <trkpt lat="45.90255" lon="6.17557">
        <ele>1117</ele>
        <time>2018-05-20T07:55:56.822Z</time>
      </trkpt>
      <trkpt lat="45.90256" lon="6.17556">
        <ele>1118</ele>
        <time>2018-05-20T07:56:02.822Z</time>
      </trkpt>
      <trkpt lat="45.90257" lon="6.17553">
        <ele>1118.0902685742</ele>
        <time>2018-05-20T07:56:06.822Z</time>
      </trkpt>
      <trkpt lat="45.90257" lon="6.1755">
        <ele>1119</ele>
        <time>2018-05-20T07:56:09.822Z</time>
      </trkpt>
      <trkpt lat="45.90257" lon="6.17547">
        <ele>1118.1020032</ele>
        <time>2018-05-20T07:56:12.822Z</time>
      </trkpt>
      <trkpt lat="45.90258" lon="6.17545">
        <ele>1119</ele>
        <time>2018-05-20T07:56:16.822Z</time>
      </trkpt>
      <trkpt lat="45.90258" lon="6.17542">
        <ele>1121</ele>
        <time>2018-05-20T07:56:20.822Z</time>
      </trkpt>
      <trkpt lat="45.90259" lon="6.1754">
        <ele>1121</ele>
        <time>2018-05-20T07:56:25.822Z</time>
      </trkpt>
      <trkpt lat="45.90261" lon="6.17537">
        <ele>1121</ele>
        <time>2018-05-20T07:56:30.822Z</time>
      </trkpt>
      <trkpt lat="45.90263" lon="6.17536">
        <ele>1121</ele>
        <time>2018-05-20T07:57:01.822Z</time>
      </trkpt>
      <trkpt lat="45.90263" lon="6.17533">
        <ele>1122</ele>
        <time>2018-05-20T07:57:08.822Z</time>
      </trkpt>
      <trkpt lat="45.90264" lon="6.1753">
        <ele>1122</ele>
        <time>2018-05-20T07:57:12.822Z</time>
      </trkpt>
      <trkpt lat="45.90263" lon="6.17527">
        <ele>1123</ele>
        <time>2018-05-20T07:57:16.822Z</time>
      </trkpt>
      <trkpt lat="45.90264" lon="6.17524">
        <ele>1123</ele>
        <time>2018-05-20T07:57:19.822Z</time>
      </trkpt>
      <trkpt lat="45.90265" lon="6.17522">
        <ele>1123</ele>
        <time>2018-05-20T07:57:21.822Z</time>
      </trkpt>
      <trkpt lat="45.90267" lon="6.1752">
        <ele>1125</ele>
        <time>2018-05-20T07:57:25.822Z</time>
      </trkpt>
      <trkpt lat="45.90268" lon="6.17519">
        <ele>1125</ele>
        <time>2018-05-20T07:57:38.822Z</time>
      </trkpt>
      <trkpt lat="45.9027" lon="6.17517">
        <ele>1125</ele>
        <time>2018-05-20T07:57:42.822Z</time>
      </trkpt>
      <trkpt lat="45.90275" lon="6.1751">
        <ele>1128</ele>
        <time>2018-05-20T07:57:57.822Z</time>
      </trkpt>
      <trkpt lat="45.90276" lon="6.17507">
        <ele>1128</ele>
        <time>2018-05-20T07:58:00.822Z</time>
      </trkpt>
      <trkpt lat="45.90278" lon="6.17505">
        <ele>1128.0927296423</ele>
        <time>2018-05-20T07:58:08.822Z</time>
      </trkpt>
      <trkpt lat="45.90279" lon="6.17503">
        <ele>1130</ele>
        <time>2018-05-20T07:58:15.822Z</time>
      </trkpt>
      <trkpt lat="45.90281" lon="6.17501">
        <ele>1131</ele>
        <time>2018-05-20T07:58:21.822Z</time>
      </trkpt>
      <trkpt lat="45.90283" lon="6.17495">
        <ele>1132</ele>
        <time>2018-05-20T07:58:28.822Z</time>
      </trkpt>
      <trkpt lat="45.90285" lon="6.17493">
        <ele>1133</ele>
        <time>2018-05-20T07:58:31.822Z</time>
      </trkpt>
      <trkpt lat="45.90286" lon="6.17491">
        <ele>1133</ele>
        <time>2018-05-20T07:58:35.822Z</time>
      </trkpt>
      <trkpt lat="45.90287" lon="6.17488">
        <ele>1133.0344087205</ele>
        <time>2018-05-20T07:58:39.822Z</time>
      </trkpt>
      <trkpt lat="45.90289" lon="6.17487">
        <ele>1136</ele>
        <time>2018-05-20T07:58:48.822Z</time>
      </trkpt>
      <trkpt lat="45.9029" lon="6.17484">
        <ele>1136.8043837767</ele>
        <time>2018-05-20T07:58:53.822Z</time>
      </trkpt>
      <trkpt lat="45.90291" lon="6.17482">
        <ele>1137</ele>
        <time>2018-05-20T07:58:57.822Z</time>
      </trkpt>
      <trkpt lat="45.90292" lon="6.1748">
        <ele>1137.1663987221</ele>
        <time>2018-05-20T07:59:02.822Z</time>
      </trkpt>
      <trkpt lat="45.90294" lon="6.17478">
        <ele>1139</ele>
        <time>2018-05-20T07:59:11.822Z</time>
      </trkpt>
      <trkpt lat="45.90295" lon="6.17476">
        <ele>1139.1020032</ele>
        <time>2018-05-20T07:59:19.822Z</time>
      </trkpt>
      <trkpt lat="45.90296" lon="6.17474">
        <ele>1141</ele>
        <time>2018-05-20T07:59:32.822Z</time>
      </trkpt>
      <trkpt lat="45.90297" lon="6.17471">
        <ele>1142.1020032</ele>
        <time>2018-05-20T07:59:42.822Z</time>
      </trkpt>
      <trkpt lat="45.90298" lon="6.17469">
        <ele>1144</ele>
        <time>2018-05-20T07:59:54.822Z</time>
      </trkpt>
      <trkpt lat="45.90299" lon="6.17466">
        <ele>1145</ele>
        <time>2018-05-20T08:00:02.822Z</time>
      </trkpt>
      <trkpt lat="45.90301" lon="6.17464">
        <ele>1147</ele>
        <time>2018-05-20T08:00:24.822Z</time>
      </trkpt>
      <trkpt lat="45.90302" lon="6.17463">
        <ele>1148</ele>
        <time>2018-05-20T08:00:33.822Z</time>
      </trkpt>
      <trkpt lat="45.90303" lon="6.17461">
        <ele>1150</ele>
        <time>2018-05-20T08:00:51.822Z</time>
      </trkpt>
      <trkpt lat="45.90305" lon="6.1746">
        <ele>1150</ele>
        <time>2018-05-20T08:01:06.822Z</time>
      </trkpt>
      <trkpt lat="45.90307" lon="6.17461">
        <ele>1153</ele>
        <time>2018-05-20T08:01:22.822Z</time>
      </trkpt>
      <trkpt lat="45.90309" lon="6.17463">
        <ele>1154</ele>
        <time>2018-05-20T08:01:28.822Z</time>
      </trkpt>
      <trkpt lat="45.90309" lon="6.17465">
        <ele>1154</ele>
        <time>2018-05-20T08:01:41.822Z</time>
      </trkpt>
      <trkpt lat="45.9031" lon="6.17468">
        <ele>1154</ele>
        <time>2018-05-20T08:01:46.822Z</time>
      </trkpt>
      <trkpt lat="45.90312" lon="6.17469">
        <ele>1155</ele>
        <time>2018-05-20T08:01:50.822Z</time>
      </trkpt>
      <trkpt lat="45.90314" lon="6.17471">
        <ele>1156</ele>
        <time>2018-05-20T08:01:54.822Z</time>
      </trkpt>
      <trkpt lat="45.90313" lon="6.17473">
        <ele>1157</ele>
        <time>2018-05-20T08:01:59.822Z</time>
      </trkpt>
      <trkpt lat="45.90314" lon="6.17476">
        <ele>1156</ele>
        <time>2018-05-20T08:02:03.822Z</time>
      </trkpt>
      <trkpt lat="45.90314" lon="6.17478">
        <ele>1157</ele>
        <time>2018-05-20T08:02:07.822Z</time>
      </trkpt>
      <trkpt lat="45.90314" lon="6.17481">
        <ele>1157</ele>
        <time>2018-05-20T08:02:11.822Z</time>
      </trkpt>
      <trkpt lat="45.90315" lon="6.17484">
        <ele>1158.1020032</ele>
        <time>2018-05-20T08:02:15.822Z</time>
      </trkpt>
      <trkpt lat="45.90316" lon="6.17487">
        <ele>1159</ele>
        <time>2018-05-20T08:02:18.822Z</time>
      </trkpt>
      <trkpt lat="45.90316" lon="6.1749">
        <ele>1160</ele>
        <time>2018-05-20T08:02:22.822Z</time>
      </trkpt>
      <trkpt lat="45.90316" lon="6.17493">
        <ele>1160</ele>
        <time>2018-05-20T08:02:26.822Z</time>
      </trkpt>
      <trkpt lat="45.90316" lon="6.17495">
        <ele>1161</ele>
        <time>2018-05-20T08:02:32.822Z</time>
      </trkpt>
      <trkpt lat="45.90317" lon="6.17498">
        <ele>1162</ele>
        <time>2018-05-20T08:02:37.822Z</time>
      </trkpt>
      <trkpt lat="45.90316" lon="6.17501">
        <ele>1163</ele>
        <time>2018-05-20T08:02:42.822Z</time>
      </trkpt>
      <trkpt lat="45.90316" lon="6.17504">
        <ele>1164</ele>
        <time>2018-05-20T08:02:47.822Z</time>
      </trkpt>
      <trkpt lat="45.90315" lon="6.17507">
        <ele>1164</ele>
        <time>2018-05-20T08:02:52.822Z</time>
      </trkpt>
      <trkpt lat="45.90316" lon="6.1751">
        <ele>1164</ele>
        <time>2018-05-20T08:02:56.822Z</time>
      </trkpt>
      <trkpt lat="45.90316" lon="6.17512">
        <ele>1165</ele>
        <time>2018-05-20T08:03:00.822Z</time>
      </trkpt>
      <trkpt lat="45.90316" lon="6.17515">
        <ele>1167</ele>
        <time>2018-05-20T08:03:10.822Z</time>
      </trkpt>
      <trkpt lat="45.90317" lon="6.17517">
        <ele>1168</ele>
        <time>2018-05-20T08:03:18.822Z</time>
      </trkpt>
      <trkpt lat="45.90317" lon="6.1752">
        <ele>1167</ele>
        <time>2018-05-20T08:04:11.822Z</time>
      </trkpt>
      <trkpt lat="45.90319" lon="6.17522">
        <ele>1167</ele>
        <time>2018-05-20T08:04:54.822Z</time>
      </trkpt>
      <trkpt lat="45.90319" lon="6.17519">
        <ele>1167</ele>
        <time>2018-05-20T08:05:17.822Z</time>
      </trkpt>
      <trkpt lat="45.90318" lon="6.17518">
        <ele>1167</ele>
        <time>2018-05-20T08:06:07.822Z</time>
      </trkpt>
      <trkpt lat="45.90318" lon="6.17515">
        <ele>1168</ele>
        <time>2018-05-20T08:06:12.822Z</time>
      </trkpt>
      <trkpt lat="45.90319" lon="6.17512">
        <ele>1170</ele>
        <time>2018-05-20T08:06:19.822Z</time>
      </trkpt>
      <trkpt lat="45.9032" lon="6.1751">
        <ele>1171.1020032</ele>
        <time>2018-05-20T08:06:24.822Z</time>
      </trkpt>
      <trkpt lat="45.90321" lon="6.17507">
        <ele>1173</ele>
        <time>2018-05-20T08:06:28.822Z</time>
      </trkpt>
      <trkpt lat="45.90322" lon="6.17505">
        <ele>1174</ele>
        <time>2018-05-20T08:06:34.822Z</time>
      </trkpt>
      <trkpt lat="45.90324" lon="6.17503">
        <ele>1175</ele>
        <time>2018-05-20T08:06:52.822Z</time>
      </trkpt>
      <trkpt lat="45.90325" lon="6.17501">
        <ele>1175</ele>
        <time>2018-05-20T08:06:58.822Z</time>
      </trkpt>
      <trkpt lat="45.90327" lon="6.17498">
        <ele>1176</ele>
        <time>2018-05-20T08:07:02.822Z</time>
      </trkpt>
      <trkpt lat="45.90329" lon="6.17497">
        <ele>1177</ele>
        <time>2018-05-20T08:07:06.822Z</time>
      </trkpt>
      <trkpt lat="45.90331" lon="6.17496">
        <ele>1177.0944474074</ele>
        <time>2018-05-20T08:07:11.822Z</time>
      </trkpt>
      <trkpt lat="45.90332" lon="6.17494">
        <ele>1178</ele>
        <time>2018-05-20T08:07:15.822Z</time>
      </trkpt>
      <trkpt lat="45.90333" lon="6.17492">
        <ele>1178</ele>
        <time>2018-05-20T08:07:24.822Z</time>
      </trkpt>
      <trkpt lat="45.90332" lon="6.17489">
        <ele>1178</ele>
        <time>2018-05-20T08:11:16.822Z</time>
      </trkpt>
      <trkpt lat="45.90333" lon="6.17492">
        <ele>1177.1020032</ele>
        <time>2018-05-20T08:12:14.822Z</time>
      </trkpt>
      <trkpt lat="45.90333" lon="6.17494">
        <ele>1178.1020032</ele>
        <time>2018-05-20T08:12:17.822Z</time>
      </trkpt>
      <trkpt lat="45.90333" lon="6.17497">
        <ele>1179.1020032</ele>
        <time>2018-05-20T08:12:20.822Z</time>
      </trkpt>
      <trkpt lat="45.90334" lon="6.17501">
        <ele>1180</ele>
        <time>2018-05-20T08:12:23.822Z</time>
      </trkpt>
      <trkpt lat="45.90335" lon="6.17504">
        <ele>1180</ele>
        <time>2018-05-20T08:12:26.822Z</time>
      </trkpt>
      <trkpt lat="45.90334" lon="6.17506">
        <ele>1181</ele>
        <time>2018-05-20T08:12:28.822Z</time>
      </trkpt>
      <trkpt lat="45.90333" lon="6.17509">
        <ele>1181</ele>
        <time>2018-05-20T08:12:30.822Z</time>
      </trkpt>
      <trkpt lat="45.90333" lon="6.17513">
        <ele>1181</ele>
        <time>2018-05-20T08:12:32.822Z</time>
      </trkpt>
      <trkpt lat="45.90332" lon="6.17517">
        <ele>1181</ele>
        <time>2018-05-20T08:12:34.822Z</time>
      </trkpt>
      <trkpt lat="45.90331" lon="6.17519">
        <ele>1181.1020032</ele>
        <time>2018-05-20T08:12:36.822Z</time>
      </trkpt>
      <trkpt lat="45.9033" lon="6.17522">
        <ele>1182</ele>
        <time>2018-05-20T08:12:38.822Z</time>
      </trkpt>
      <trkpt lat="45.90329" lon="6.17524">
        <ele>1183</ele>
        <time>2018-05-20T08:12:40.822Z</time>
      </trkpt>
      <trkpt lat="45.90329" lon="6.17527">
        <ele>1183</ele>
        <time>2018-05-20T08:12:43.822Z</time>
      </trkpt>
      <trkpt lat="45.9033" lon="6.17531">
        <ele>1183</ele>
        <time>2018-05-20T08:12:46.822Z</time>
      </trkpt>
      <trkpt lat="45.9033" lon="6.17534">
        <ele>1183</ele>
        <time>2018-05-20T08:12:49.822Z</time>
      </trkpt>
      <trkpt lat="45.90331" lon="6.17537">
        <ele>1183</ele>
        <time>2018-05-20T08:12:53.822Z</time>
      </trkpt>
      <trkpt lat="45.90332" lon="6.17539">
        <ele>1183.1009935873</ele>
        <time>2018-05-20T08:12:56.822Z</time>
      </trkpt>
      <trkpt lat="45.90334" lon="6.17541">
        <ele>1184</ele>
        <time>2018-05-20T08:12:58.822Z</time>
      </trkpt>
      <trkpt lat="45.90336" lon="6.17543">
        <ele>1184</ele>
        <time>2018-05-20T08:13:01.822Z</time>
      </trkpt>
      <trkpt lat="45.90338" lon="6.17545">
        <ele>1185</ele>
        <time>2018-05-20T08:13:04.822Z</time>
      </trkpt>
      <trkpt lat="45.90339" lon="6.17548">
        <ele>1185.1000025098</ele>
        <time>2018-05-20T08:13:06.822Z</time>
      </trkpt>
      <trkpt lat="45.90341" lon="6.1755">
        <ele>1186</ele>
        <time>2018-05-20T08:13:10.822Z</time>
      </trkpt>
      <trkpt lat="45.90344" lon="6.17551">
        <ele>1187</ele>
        <time>2018-05-20T08:13:13.822Z</time>
      </trkpt>
      <trkpt lat="45.90347" lon="6.17552">
        <ele>1187</ele>
        <time>2018-05-20T08:13:16.822Z</time>
      </trkpt>
      <trkpt lat="45.90348" lon="6.17553">
        <ele>1187.0645866667</ele>
        <time>2018-05-20T08:13:19.822Z</time>
      </trkpt>
      <trkpt lat="45.9035" lon="6.17555">
        <ele>1188.9839314286</ele>
        <time>2018-05-20T08:13:24.822Z</time>
      </trkpt>
      <trkpt lat="45.90352" lon="6.17555">
        <ele>1190.1009935873</ele>
        <time>2018-05-20T08:13:29.822Z</time>
      </trkpt>
      <trkpt lat="45.90354" lon="6.17556">
        <ele>1192</ele>
        <time>2018-05-20T08:13:33.822Z</time>
      </trkpt>
      <trkpt lat="45.90356" lon="6.17556">
        <ele>1193</ele>
        <time>2018-05-20T08:13:37.822Z</time>
      </trkpt>
      <trkpt lat="45.90358" lon="6.17556">
        <ele>1193</ele>
        <time>2018-05-20T08:13:43.822Z</time>
      </trkpt>
      <trkpt lat="45.9036" lon="6.17555">
        <ele>1194</ele>
        <time>2018-05-20T08:13:48.822Z</time>
      </trkpt>
      <trkpt lat="45.90362" lon="6.17554">
        <ele>1195.0944474074</ele>
        <time>2018-05-20T08:13:53.822Z</time>
      </trkpt>
      <trkpt lat="45.90363" lon="6.17551">
        <ele>1197</ele>
        <time>2018-05-20T08:13:57.822Z</time>
      </trkpt>
      <trkpt lat="45.90364" lon="6.17548">
        <ele>1198.9244422532</ele>
        <time>2018-05-20T08:14:04.822Z</time>
      </trkpt>
      <trkpt lat="45.90365" lon="6.17547">
        <ele>1199</ele>
        <time>2018-05-20T08:14:09.822Z</time>
      </trkpt>
      <trkpt lat="45.90368" lon="6.17545">
        <ele>1199</ele>
        <time>2018-05-20T08:14:12.822Z</time>
      </trkpt>
      <trkpt lat="45.90369" lon="6.17545">
        <ele>1199</ele>
        <time>2018-05-20T08:14:15.822Z</time>
      </trkpt>
      <trkpt lat="45.90371" lon="6.17545">
        <ele>1199</ele>
        <time>2018-05-20T08:14:18.822Z</time>
      </trkpt>
      <trkpt lat="45.90374" lon="6.17547">
        <ele>1200</ele>
        <time>2018-05-20T08:14:21.822Z</time>
      </trkpt>
      <trkpt lat="45.90374" lon="6.17549">
        <ele>1200.0744550644</ele>
        <time>2018-05-20T08:14:23.822Z</time>
      </trkpt>
      <trkpt lat="45.90375" lon="6.17552">
        <ele>1201</ele>
        <time>2018-05-20T08:14:26.822Z</time>
      </trkpt>
      <trkpt lat="45.90376" lon="6.17555">
        <ele>1201</ele>
        <time>2018-05-20T08:14:29.822Z</time>
      </trkpt>
      <trkpt lat="45.90374" lon="6.17557">
        <ele>1202</ele>
        <time>2018-05-20T08:14:34.822Z</time>
      </trkpt>
      <trkpt lat="45.90374" lon="6.17561">
        <ele>1202</ele>
        <time>2018-05-20T08:14:38.822Z</time>
      </trkpt>
      <trkpt lat="45.90372" lon="6.17563">
        <ele>1202</ele>
        <time>2018-05-20T08:14:40.822Z</time>
      </trkpt>
      <trkpt lat="45.90371" lon="6.17565">
        <ele>1203</ele>
        <time>2018-05-20T08:14:42.822Z</time>
      </trkpt>
      <trkpt lat="45.9037" lon="6.17568">
        <ele>1203.0645866667</ele>
        <time>2018-05-20T08:14:46.822Z</time>
      </trkpt>
      <trkpt lat="45.90371" lon="6.17571">
        <ele>1204</ele>
        <time>2018-05-20T08:14:50.822Z</time>
      </trkpt>
      <trkpt lat="45.9037" lon="6.17574">
        <ele>1205</ele>
        <time>2018-05-20T08:14:53.822Z</time>
      </trkpt>
      <trkpt lat="45.9037" lon="6.17577">
        <ele>1205</ele>
        <time>2018-05-20T08:14:56.822Z</time>
      </trkpt>
      <trkpt lat="45.9037" lon="6.17579">
        <ele>1206</ele>
        <time>2018-05-20T08:15:00.822Z</time>
      </trkpt>
      <trkpt lat="45.90368" lon="6.17581">
        <ele>1206</ele>
        <time>2018-05-20T08:15:03.822Z</time>
      </trkpt>
      <trkpt lat="45.90367" lon="6.17584">
        <ele>1206</ele>
        <time>2018-05-20T08:15:06.822Z</time>
      </trkpt>
      <trkpt lat="45.90365" lon="6.17586">
        <ele>1208</ele>
        <time>2018-05-20T08:15:10.822Z</time>
      </trkpt>
      <trkpt lat="45.90363" lon="6.17588">
        <ele>1208</ele>
        <time>2018-05-20T08:15:14.822Z</time>
      </trkpt>
      <trkpt lat="45.90362" lon="6.1759">
        <ele>1209</ele>
        <time>2018-05-20T08:15:17.822Z</time>
      </trkpt>
      <trkpt lat="45.90361" lon="6.17592">
        <ele>1210</ele>
        <time>2018-05-20T08:15:22.822Z</time>
      </trkpt>
      <trkpt lat="45.90359" lon="6.17594">
        <ele>1211</ele>
        <time>2018-05-20T08:15:28.822Z</time>
      </trkpt>
      <trkpt lat="45.90359" lon="6.17597">
        <ele>1212</ele>
        <time>2018-05-20T08:15:32.822Z</time>
      </trkpt>
      <trkpt lat="45.90358" lon="6.17601">
        <ele>1213</ele>
        <time>2018-05-20T08:15:35.822Z</time>
      </trkpt>
      <trkpt lat="45.90356" lon="6.17602">
        <ele>1213</ele>
        <time>2018-05-20T08:15:39.822Z</time>
      </trkpt>
      <trkpt lat="45.90355" lon="6.17605">
        <ele>1213</ele>
        <time>2018-05-20T08:15:43.822Z</time>
      </trkpt>
      <trkpt lat="45.90354" lon="6.17608">
        <ele>1214</ele>
        <time>2018-05-20T08:15:47.822Z</time>
      </trkpt>
      <trkpt lat="45.90353" lon="6.17609">
        <ele>1215</ele>
        <time>2018-05-20T08:15:51.822Z</time>
      </trkpt>
      <trkpt lat="45.90351" lon="6.1761">
        <ele>1215</ele>
        <time>2018-05-20T08:15:55.822Z</time>
      </trkpt>
      <trkpt lat="45.90349" lon="6.1761">
        <ele>1216</ele>
        <time>2018-05-20T08:15:58.822Z</time>
      </trkpt>
      <trkpt lat="45.90347" lon="6.17611">
        <ele>1216</ele>
        <time>2018-05-20T08:16:01.822Z</time>
      </trkpt>
      <trkpt lat="45.90345" lon="6.17611">
        <ele>1215</ele>
        <time>2018-05-20T08:16:04.822Z</time>
      </trkpt>
      <trkpt lat="45.90344" lon="6.17614">
        <ele>1216</ele>
        <time>2018-05-20T08:16:12.822Z</time>
      </trkpt>
      <trkpt lat="45.90341" lon="6.17614">
        <ele>1216</ele>
        <time>2018-05-20T08:16:16.822Z</time>
      </trkpt>
      <trkpt lat="45.9034" lon="6.17617">
        <ele>1216</ele>
        <time>2018-05-20T08:16:19.822Z</time>
      </trkpt>
      <trkpt lat="45.90337" lon="6.17618">
        <ele>1216.1020032</ele>
        <time>2018-05-20T08:16:22.822Z</time>
      </trkpt>
      <trkpt lat="45.90336" lon="6.17619">
        <ele>1217</ele>
        <time>2018-05-20T08:16:24.822Z</time>
      </trkpt>
      <trkpt lat="45.90335" lon="6.17622">
        <ele>1217</ele>
        <time>2018-05-20T08:16:28.822Z</time>
      </trkpt>
      <trkpt lat="45.90333" lon="6.17624">
        <ele>1218.0836827188</ele>
        <time>2018-05-20T08:16:32.822Z</time>
      </trkpt>
      <trkpt lat="45.90331" lon="6.17626">
        <ele>1219</ele>
        <time>2018-05-20T08:16:36.822Z</time>
      </trkpt>
      <trkpt lat="45.9033" lon="6.17628">
        <ele>1219.096228853</ele>
        <time>2018-05-20T08:16:39.822Z</time>
      </trkpt>
      <trkpt lat="45.90329" lon="6.1763">
        <ele>1221</ele>
        <time>2018-05-20T08:16:43.822Z</time>
      </trkpt>
      <trkpt lat="45.90327" lon="6.17632">
        <ele>1221.1020032</ele>
        <time>2018-05-20T08:16:46.822Z</time>
      </trkpt>
      <trkpt lat="45.90326" lon="6.17634">
        <ele>1222</ele>
        <time>2018-05-20T08:16:49.822Z</time>
      </trkpt>
      <trkpt lat="45.90325" lon="6.17637">
        <ele>1222</ele>
        <time>2018-05-20T08:16:53.822Z</time>
      </trkpt>
      <trkpt lat="45.90322" lon="6.17638">
        <ele>1222.8412217619</ele>
        <time>2018-05-20T08:16:56.822Z</time>
      </trkpt>
      <trkpt lat="45.9032" lon="6.17639">
        <ele>1223.1020032</ele>
        <time>2018-05-20T08:16:59.822Z</time>
      </trkpt>
      <trkpt lat="45.90318" lon="6.17641">
        <ele>1225</ele>
        <time>2018-05-20T08:17:03.822Z</time>
      </trkpt>
      <trkpt lat="45.90316" lon="6.17643">
        <ele>1226</ele>
        <time>2018-05-20T08:17:06.822Z</time>
      </trkpt>
      <trkpt lat="45.90315" lon="6.17644">
        <ele>1226</ele>
        <time>2018-05-20T08:17:08.822Z</time>
      </trkpt>
      <trkpt lat="45.90313" lon="6.17646">
        <ele>1227</ele>
        <time>2018-05-20T08:17:11.822Z</time>
      </trkpt>
      <trkpt lat="45.90311" lon="6.17648">
        <ele>1227</ele>
        <time>2018-05-20T08:17:14.822Z</time>
      </trkpt>
      <trkpt lat="45.9031" lon="6.1765">
        <ele>1227</ele>
        <time>2018-05-20T08:17:17.822Z</time>
      </trkpt>
      <trkpt lat="45.90309" lon="6.17653">
        <ele>1227</ele>
        <time>2018-05-20T08:17:20.822Z</time>
      </trkpt>
      <trkpt lat="45.90307" lon="6.17655">
        <ele>1227</ele>
        <time>2018-05-20T08:17:24.822Z</time>
      </trkpt>
      <trkpt lat="45.90305" lon="6.17657">
        <ele>1227</ele>
        <time>2018-05-20T08:17:26.822Z</time>
      </trkpt>
      <trkpt lat="45.90303" lon="6.17658">
        <ele>1228</ele>
        <time>2018-05-20T08:17:28.822Z</time>
      </trkpt>
      <trkpt lat="45.90302" lon="6.17659">
        <ele>1228</ele>
        <time>2018-05-20T08:17:30.822Z</time>
      </trkpt>
      <trkpt lat="45.90299" lon="6.1766">
        <ele>1228</ele>
        <time>2018-05-20T08:17:33.822Z</time>
      </trkpt>
      <trkpt lat="45.90297" lon="6.17661">
        <ele>1228.0239165217</ele>
        <time>2018-05-20T08:17:36.822Z</time>
      </trkpt>
      <trkpt lat="45.90296" lon="6.17661">
        <ele>1229</ele>
        <time>2018-05-20T08:17:39.822Z</time>
      </trkpt>
      <trkpt lat="45.90293" lon="6.17659">
        <ele>1229.0836827188</ele>
        <time>2018-05-20T08:17:42.822Z</time>
      </trkpt>
      <trkpt lat="45.90292" lon="6.17657">
        <ele>1230</ele>
        <time>2018-05-20T08:17:45.822Z</time>
      </trkpt>
      <trkpt lat="45.90289" lon="6.17657">
        <ele>1230</ele>
        <time>2018-05-20T08:17:49.822Z</time>
      </trkpt>
      <trkpt lat="45.90287" lon="6.17657">
        <ele>1230</ele>
        <time>2018-05-20T08:17:52.822Z</time>
      </trkpt>
      <trkpt lat="45.90285" lon="6.17659">
        <ele>1229.8979968</ele>
        <time>2018-05-20T08:17:56.822Z</time>
      </trkpt>
      <trkpt lat="45.90283" lon="6.17659">
        <ele>1230</ele>
        <time>2018-05-20T08:17:59.822Z</time>
      </trkpt>
      <trkpt lat="45.90281" lon="6.1766">
        <ele>1230</ele>
        <time>2018-05-20T08:18:01.822Z</time>
      </trkpt>
      <trkpt lat="45.90279" lon="6.17663">
        <ele>1230</ele>
        <time>2018-05-20T08:18:04.822Z</time>
      </trkpt>
      <trkpt lat="45.90278" lon="6.17665">
        <ele>1230</ele>
        <time>2018-05-20T08:18:07.822Z</time>
      </trkpt>
      <trkpt lat="45.90278" lon="6.17668">
        <ele>1231</ele>
        <time>2018-05-20T08:18:11.822Z</time>
      </trkpt>
      <trkpt lat="45.90277" lon="6.17672">
        <ele>1230.9553092405</ele>
        <time>2018-05-20T08:18:15.822Z</time>
      </trkpt>
      <trkpt lat="45.90276" lon="6.17674">
        <ele>1230.074227049</ele>
        <time>2018-05-20T08:18:18.822Z</time>
      </trkpt>
      <trkpt lat="45.90275" lon="6.17677">
        <ele>1231</ele>
        <time>2018-05-20T08:18:21.822Z</time>
      </trkpt>
      <trkpt lat="45.90273" lon="6.1768">
        <ele>1232</ele>
        <time>2018-05-20T08:18:24.822Z</time>
      </trkpt>
      <trkpt lat="45.90272" lon="6.17682">
        <ele>1232</ele>
        <time>2018-05-20T08:18:27.822Z</time>
      </trkpt>
      <trkpt lat="45.9027" lon="6.17684">
        <ele>1232</ele>
        <time>2018-05-20T08:18:30.822Z</time>
      </trkpt>
      <trkpt lat="45.90268" lon="6.17686">
        <ele>1232</ele>
        <time>2018-05-20T08:18:33.822Z</time>
      </trkpt>
      <trkpt lat="45.90268" lon="6.17689">
        <ele>1231</ele>
        <time>2018-05-20T08:18:35.822Z</time>
      </trkpt>
      <trkpt lat="45.90269" lon="6.17692">
        <ele>1231</ele>
        <time>2018-05-20T08:18:37.822Z</time>
      </trkpt>
      <trkpt lat="45.90268" lon="6.17695">
        <ele>1231</ele>
        <time>2018-05-20T08:18:39.822Z</time>
      </trkpt>
      <trkpt lat="45.90267" lon="6.17697">
        <ele>1231</ele>
        <time>2018-05-20T08:18:43.822Z</time>
      </trkpt>
      <trkpt lat="45.90265" lon="6.17698">
        <ele>1231</ele>
        <time>2018-05-20T08:18:47.822Z</time>
      </trkpt>
      <trkpt lat="45.90266" lon="6.17696">
        <ele>1231</ele>
        <time>2018-05-20T08:19:07.822Z</time>
      </trkpt>
      <trkpt lat="45.90267" lon="6.177">
        <ele>1231</ele>
        <time>2018-05-20T08:19:11.822Z</time>
      </trkpt>
      <trkpt lat="45.90267" lon="6.17703">
        <ele>1230.9072692787</ele>
        <time>2018-05-20T08:19:13.822Z</time>
      </trkpt>
      <trkpt lat="45.90266" lon="6.17706">
        <ele>1231</ele>
        <time>2018-05-20T08:19:16.822Z</time>
      </trkpt>
      <trkpt lat="45.90265" lon="6.17709">
        <ele>1231</ele>
        <time>2018-05-20T08:19:18.822Z</time>
      </trkpt>
      <trkpt lat="45.90264" lon="6.17711">
        <ele>1231</ele>
        <time>2018-05-20T08:19:20.822Z</time>
      </trkpt>
      <trkpt lat="45.90262" lon="6.17713">
        <ele>1231.1020032</ele>
        <time>2018-05-20T08:19:22.822Z</time>
      </trkpt>
      <trkpt lat="45.9026" lon="6.17714">
        <ele>1232</ele>
        <time>2018-05-20T08:19:24.822Z</time>
      </trkpt>
      <trkpt lat="45.90259" lon="6.17717">
        <ele>1233</ele>
        <time>2018-05-20T08:19:28.822Z</time>
      </trkpt>
      <trkpt lat="45.90257" lon="6.17719">
        <ele>1233</ele>
        <time>2018-05-20T08:19:30.822Z</time>
      </trkpt>
      <trkpt lat="45.90255" lon="6.1772">
        <ele>1233.096230015</ele>
        <time>2018-05-20T08:19:32.822Z</time>
      </trkpt>
      <trkpt lat="45.90253" lon="6.17722">
        <ele>1234</ele>
        <time>2018-05-20T08:19:34.822Z</time>
      </trkpt>
      <trkpt lat="45.90252" lon="6.17726">
        <ele>1234</ele>
        <time>2018-05-20T08:19:37.822Z</time>
      </trkpt>
      <trkpt lat="45.90251" lon="6.17728">
        <ele>1235</ele>
        <time>2018-05-20T08:19:40.822Z</time>
      </trkpt>
      <trkpt lat="45.90249" lon="6.1773">
        <ele>1236</ele>
        <time>2018-05-20T08:19:43.822Z</time>
      </trkpt>
      <trkpt lat="45.90247" lon="6.17732">
        <ele>1237</ele>
        <time>2018-05-20T08:19:45.822Z</time>
      </trkpt>
      <trkpt lat="45.90246" lon="6.17733">
        <ele>1237</ele>
        <time>2018-05-20T08:19:47.822Z</time>
      </trkpt>
      <trkpt lat="45.90243" lon="6.17735">
        <ele>1237.1020032</ele>
        <time>2018-05-20T08:19:50.822Z</time>
      </trkpt>
      <trkpt lat="45.90242" lon="6.17737">
        <ele>1239</ele>
        <time>2018-05-20T08:19:53.822Z</time>
      </trkpt>
      <trkpt lat="45.90241" lon="6.1774">
        <ele>1239</ele>
        <time>2018-05-20T08:19:55.822Z</time>
      </trkpt>
      <trkpt lat="45.9024" lon="6.17742">
        <ele>1241</ele>
        <time>2018-05-20T08:19:58.822Z</time>
      </trkpt>
      <trkpt lat="45.90238" lon="6.17743">
        <ele>1241</ele>
        <time>2018-05-20T08:20:00.822Z</time>
      </trkpt>
      <trkpt lat="45.90236" lon="6.17745">
        <ele>1241</ele>
        <time>2018-05-20T08:20:02.822Z</time>
      </trkpt>
      <trkpt lat="45.90235" lon="6.17747">
        <ele>1242</ele>
        <time>2018-05-20T08:20:05.822Z</time>
      </trkpt>
      <trkpt lat="45.90235" lon="6.17751">
        <ele>1242</ele>
        <time>2018-05-20T08:20:10.822Z</time>
      </trkpt>
      <trkpt lat="45.90235" lon="6.17753">
        <ele>1242</ele>
        <time>2018-05-20T08:20:13.822Z</time>
      </trkpt>
      <trkpt lat="45.90235" lon="6.17756">
        <ele>1242.1020032</ele>
        <time>2018-05-20T08:20:15.822Z</time>
      </trkpt>
      <trkpt lat="45.90234" lon="6.1776">
        <ele>1243</ele>
        <time>2018-05-20T08:20:18.822Z</time>
      </trkpt>
      <trkpt lat="45.90234" lon="6.17763">
        <ele>1243</ele>
        <time>2018-05-20T08:20:21.822Z</time>
      </trkpt>
      <trkpt lat="45.90233" lon="6.17767">
        <ele>1243</ele>
        <time>2018-05-20T08:20:24.822Z</time>
      </trkpt>
      <trkpt lat="45.90231" lon="6.1777">
        <ele>1243</ele>
        <time>2018-05-20T08:20:27.822Z</time>
      </trkpt>
      <trkpt lat="45.9023" lon="6.17772">
        <ele>1243</ele>
        <time>2018-05-20T08:20:30.822Z</time>
      </trkpt>
      <trkpt lat="45.90228" lon="6.17775">
        <ele>1244</ele>
        <time>2018-05-20T08:20:33.822Z</time>
      </trkpt>
      <trkpt lat="45.90227" lon="6.17777">
        <ele>1245</ele>
        <time>2018-05-20T08:20:36.822Z</time>
      </trkpt>
      <trkpt lat="45.90225" lon="6.17779">
        <ele>1245</ele>
        <time>2018-05-20T08:20:39.822Z</time>
      </trkpt>
      <trkpt lat="45.90223" lon="6.17781">
        <ele>1245</ele>
        <time>2018-05-20T08:20:41.822Z</time>
      </trkpt>
      <trkpt lat="45.90221" lon="6.17783">
        <ele>1245</ele>
        <time>2018-05-20T08:20:43.822Z</time>
      </trkpt>
      <trkpt lat="45.9022" lon="6.17785">
        <ele>1244</ele>
        <time>2018-05-20T08:20:45.822Z</time>
      </trkpt>
      <trkpt lat="45.90218" lon="6.17787">
        <ele>1244</ele>
        <time>2018-05-20T08:20:47.822Z</time>
      </trkpt>
      <trkpt lat="45.90217" lon="6.17789">
        <ele>1244</ele>
        <time>2018-05-20T08:20:49.822Z</time>
      </trkpt>
      <trkpt lat="45.90217" lon="6.17792">
        <ele>1244.0902685742</ele>
        <time>2018-05-20T08:20:53.822Z</time>
      </trkpt>
      <trkpt lat="45.90219" lon="6.17793">
        <ele>1245</ele>
        <time>2018-05-20T08:20:56.822Z</time>
      </trkpt>
      <trkpt lat="45.90221" lon="6.17793">
        <ele>1245</ele>
        <time>2018-05-20T08:20:59.822Z</time>
      </trkpt>
      <trkpt lat="45.90223" lon="6.17794">
        <ele>1245</ele>
        <time>2018-05-20T08:21:01.822Z</time>
      </trkpt>
      <trkpt lat="45.90225" lon="6.17794">
        <ele>1245</ele>
        <time>2018-05-20T08:21:03.822Z</time>
      </trkpt>
      <trkpt lat="45.90227" lon="6.17794">
        <ele>1246</ele>
        <time>2018-05-20T08:21:05.822Z</time>
      </trkpt>
      <trkpt lat="45.90229" lon="6.17794">
        <ele>1246.0918945098</ele>
        <time>2018-05-20T08:21:07.822Z</time>
      </trkpt>
      <trkpt lat="45.90231" lon="6.17795">
        <ele>1248</ele>
        <time>2018-05-20T08:21:09.822Z</time>
      </trkpt>
      <trkpt lat="45.90233" lon="6.17795">
        <ele>1248</ele>
        <time>2018-05-20T08:21:13.822Z</time>
      </trkpt>
      <trkpt lat="45.90233" lon="6.17798">
        <ele>1249</ele>
        <time>2018-05-20T08:21:16.822Z</time>
      </trkpt>
      <trkpt lat="45.90233" lon="6.17801">
        <ele>1250</ele>
        <time>2018-05-20T08:21:20.822Z</time>
      </trkpt>
      <trkpt lat="45.90235" lon="6.17804">
        <ele>1250</ele>
        <time>2018-05-20T08:21:23.822Z</time>
      </trkpt>
      <trkpt lat="45.90236" lon="6.17807">
        <ele>1250.0239165217</ele>
        <time>2018-05-20T08:21:25.822Z</time>
      </trkpt>
      <trkpt lat="45.90236" lon="6.1781">
        <ele>1251</ele>
        <time>2018-05-20T08:21:28.822Z</time>
      </trkpt>
      <trkpt lat="45.90236" lon="6.17812">
        <ele>1251</ele>
        <time>2018-05-20T08:21:31.822Z</time>
      </trkpt>
      <trkpt lat="45.90236" lon="6.17815">
        <ele>1252</ele>
        <time>2018-05-20T08:21:33.822Z</time>
      </trkpt>
      <trkpt lat="45.90237" lon="6.17818">
        <ele>1253</ele>
        <time>2018-05-20T08:21:36.822Z</time>
      </trkpt>
      <trkpt lat="45.90236" lon="6.17821">
        <ele>1253.1000037647</ele>
        <time>2018-05-20T08:21:39.822Z</time>
      </trkpt>
      <trkpt lat="45.90234" lon="6.17821">
        <ele>1254</ele>
        <time>2018-05-20T08:21:42.822Z</time>
      </trkpt>
      <trkpt lat="45.90233" lon="6.17824">
        <ele>1255</ele>
        <time>2018-05-20T08:21:47.822Z</time>
      </trkpt>
      <trkpt lat="45.90234" lon="6.17827">
        <ele>1255.0645866667</ele>
        <time>2018-05-20T08:21:50.822Z</time>
      </trkpt>
      <trkpt lat="45.90234" lon="6.1783">
        <ele>1256</ele>
        <time>2018-05-20T08:21:54.822Z</time>
      </trkpt>
      <trkpt lat="45.90234" lon="6.17832">
        <ele>1257</ele>
        <time>2018-05-20T08:21:56.822Z</time>
      </trkpt>
      <trkpt lat="45.90233" lon="6.17835">
        <ele>1257</ele>
        <time>2018-05-20T08:21:59.822Z</time>
      </trkpt>
      <trkpt lat="45.90231" lon="6.17834">
        <ele>1257</ele>
        <time>2018-05-20T08:22:02.822Z</time>
      </trkpt>
      <trkpt lat="45.90229" lon="6.17833">
        <ele>1259</ele>
        <time>2018-05-20T08:22:05.822Z</time>
      </trkpt>
      <trkpt lat="45.90227" lon="6.17834">
        <ele>1259</ele>
        <time>2018-05-20T08:22:09.822Z</time>
      </trkpt>
      <trkpt lat="45.90225" lon="6.17836">
        <ele>1259</ele>
        <time>2018-05-20T08:22:13.822Z</time>
      </trkpt>
      <trkpt lat="45.90224" lon="6.17839">
        <ele>1260</ele>
        <time>2018-05-20T08:22:16.822Z</time>
      </trkpt>
      <trkpt lat="45.90222" lon="6.17842">
        <ele>1260</ele>
        <time>2018-05-20T08:22:21.822Z</time>
      </trkpt>
      <trkpt lat="45.9022" lon="6.17843">
        <ele>1261</ele>
        <time>2018-05-20T08:22:24.822Z</time>
      </trkpt>
      <trkpt lat="45.90219" lon="6.17846">
        <ele>1262</ele>
        <time>2018-05-20T08:22:29.822Z</time>
      </trkpt>
      <trkpt lat="45.90217" lon="6.17848">
        <ele>1262.9752268325</ele>
        <time>2018-05-20T08:22:32.822Z</time>
      </trkpt>
      <trkpt lat="45.90216" lon="6.17849">
        <ele>1263</ele>
        <time>2018-05-20T08:22:34.822Z</time>
      </trkpt>
      <trkpt lat="45.90213" lon="6.1785">
        <ele>1263</ele>
        <time>2018-05-20T08:22:37.822Z</time>
      </trkpt>
      <trkpt lat="45.90212" lon="6.17853">
        <ele>1262</ele>
        <time>2018-05-20T08:22:42.822Z</time>
      </trkpt>
      <trkpt lat="45.90211" lon="6.17855">
        <ele>1262</ele>
        <time>2018-05-20T08:22:45.822Z</time>
      </trkpt>
      <trkpt lat="45.9021" lon="6.17858">
        <ele>1262</ele>
        <time>2018-05-20T08:22:49.822Z</time>
      </trkpt>
      <trkpt lat="45.90208" lon="6.1786">
        <ele>1261</ele>
        <time>2018-05-20T08:22:54.822Z</time>
      </trkpt>
      <trkpt lat="45.90208" lon="6.17863">
        <ele>1259</ele>
        <time>2018-05-20T08:23:01.822Z</time>
      </trkpt>
      <trkpt lat="45.90207" lon="6.17867">
        <ele>1259</ele>
        <time>2018-05-20T08:23:05.822Z</time>
      </trkpt>
      <trkpt lat="45.90206" lon="6.17869">
        <ele>1257.9902387246</ele>
        <time>2018-05-20T08:23:08.822Z</time>
      </trkpt>
      <trkpt lat="45.90204" lon="6.1787">
        <ele>1256</ele>
        <time>2018-05-20T08:23:10.822Z</time>
      </trkpt>
      <trkpt lat="45.90202" lon="6.17872">
        <ele>1256</ele>
        <time>2018-05-20T08:23:13.822Z</time>
      </trkpt>
      <trkpt lat="45.902" lon="6.17874">
        <ele>1255.1651490909</ele>
        <time>2018-05-20T08:23:16.822Z</time>
      </trkpt>
      <trkpt lat="45.902" lon="6.17877">
        <ele>1255</ele>
        <time>2018-05-20T08:23:19.822Z</time>
      </trkpt>
      <trkpt lat="45.90201" lon="6.1788">
        <ele>1254</ele>
        <time>2018-05-20T08:23:37.822Z</time>
      </trkpt>
      <trkpt lat="45.90202" lon="6.17883">
        <ele>1253</ele>
        <time>2018-05-20T08:23:40.822Z</time>
      </trkpt>
      <trkpt lat="45.90204" lon="6.17885">
        <ele>1253</ele>
        <time>2018-05-20T08:23:43.822Z</time>
      </trkpt>
      <trkpt lat="45.90206" lon="6.17885">
        <ele>1253</ele>
        <time>2018-05-20T08:23:46.822Z</time>
      </trkpt>
      <trkpt lat="45.90208" lon="6.17886">
        <ele>1254</ele>
        <time>2018-05-20T08:23:49.822Z</time>
      </trkpt>
      <trkpt lat="45.90208" lon="6.1789">
        <ele>1255</ele>
        <time>2018-05-20T08:23:53.822Z</time>
      </trkpt>
      <trkpt lat="45.90206" lon="6.17892">
        <ele>1255</ele>
        <time>2018-05-20T08:23:56.822Z</time>
      </trkpt>
      <trkpt lat="45.90205" lon="6.17894">
        <ele>1255.074227049</ele>
        <time>2018-05-20T08:23:59.822Z</time>
      </trkpt>
      <trkpt lat="45.90203" lon="6.17896">
        <ele>1256</ele>
        <time>2018-05-20T08:24:02.822Z</time>
      </trkpt>
      <trkpt lat="45.90202" lon="6.17899">
        <ele>1257</ele>
        <time>2018-05-20T08:24:06.822Z</time>
      </trkpt>
      <trkpt lat="45.90201" lon="6.17902">
        <ele>1258</ele>
        <time>2018-05-20T08:24:09.822Z</time>
      </trkpt>
      <trkpt lat="45.902" lon="6.17906">
        <ele>1258</ele>
        <time>2018-05-20T08:24:12.822Z</time>
      </trkpt>
      <trkpt lat="45.90198" lon="6.17909">
        <ele>1259.0022186824</ele>
        <time>2018-05-20T08:24:15.822Z</time>
      </trkpt>
      <trkpt lat="45.90196" lon="6.17911">
        <ele>1259.955322249</ele>
        <time>2018-05-20T08:24:18.822Z</time>
      </trkpt>
      <trkpt lat="45.90194" lon="6.17914">
        <ele>1259</ele>
        <time>2018-05-20T08:24:21.822Z</time>
      </trkpt>
      <trkpt lat="45.90194" lon="6.17917">
        <ele>1259</ele>
        <time>2018-05-20T08:24:24.822Z</time>
      </trkpt>
      <trkpt lat="45.90193" lon="6.1792">
        <ele>1260.1020032</ele>
        <time>2018-05-20T08:24:30.822Z</time>
      </trkpt>
      <trkpt lat="45.90192" lon="6.17924">
        <ele>1261.1020032</ele>
        <time>2018-05-20T08:24:34.822Z</time>
      </trkpt>
      <trkpt lat="45.90191" lon="6.17927">
        <ele>1262</ele>
        <time>2018-05-20T08:24:37.822Z</time>
      </trkpt>
      <trkpt lat="45.90191" lon="6.17929">
        <ele>1262.0910742857</ele>
        <time>2018-05-20T08:24:40.822Z</time>
      </trkpt>
      <trkpt lat="45.9019" lon="6.17932">
        <ele>1263</ele>
        <time>2018-05-20T08:24:44.822Z</time>
      </trkpt>
      <trkpt lat="45.9019" lon="6.17935">
        <ele>1262.8979968</ele>
        <time>2018-05-20T08:24:48.822Z</time>
      </trkpt>
      <trkpt lat="45.9019" lon="6.17938">
        <ele>1261</ele>
        <time>2018-05-20T08:24:53.822Z</time>
      </trkpt>
      <trkpt lat="45.90189" lon="6.17941">
        <ele>1261</ele>
        <time>2018-05-20T08:24:58.822Z</time>
      </trkpt>
      <trkpt lat="45.90189" lon="6.17944">
        <ele>1262</ele>
        <time>2018-05-20T08:25:12.822Z</time>
      </trkpt>
      <trkpt lat="45.90189" lon="6.17947">
        <ele>1262</ele>
        <time>2018-05-20T08:25:16.822Z</time>
      </trkpt>
      <trkpt lat="45.9019" lon="6.1795">
        <ele>1262</ele>
        <time>2018-05-20T08:25:19.822Z</time>
      </trkpt>
      <trkpt lat="45.9019" lon="6.17954">
        <ele>1262</ele>
        <time>2018-05-20T08:25:22.822Z</time>
      </trkpt>
      <trkpt lat="45.9019" lon="6.17957">
        <ele>1262</ele>
        <time>2018-05-20T08:25:24.822Z</time>
      </trkpt>
      <trkpt lat="45.90192" lon="6.1796">
        <ele>1261</ele>
        <time>2018-05-20T08:25:27.822Z</time>
      </trkpt>
      <trkpt lat="45.90192" lon="6.17962">
        <ele>1261.8348509091</ele>
        <time>2018-05-20T08:25:29.822Z</time>
      </trkpt>
      <trkpt lat="45.90192" lon="6.17965">
        <ele>1262</ele>
        <time>2018-05-20T08:25:31.822Z</time>
      </trkpt>
      <trkpt lat="45.90193" lon="6.17968">
        <ele>1262</ele>
        <time>2018-05-20T08:25:33.822Z</time>
      </trkpt>
      <trkpt lat="45.90191" lon="6.1797">
        <ele>1262</ele>
        <time>2018-05-20T08:25:36.822Z</time>
      </trkpt>
      <trkpt lat="45.90191" lon="6.17973">
        <ele>1263</ele>
        <time>2018-05-20T08:25:52.822Z</time>
      </trkpt>
      <trkpt lat="45.90191" lon="6.17976">
        <ele>1263</ele>
        <time>2018-05-20T08:25:55.822Z</time>
      </trkpt>
      <trkpt lat="45.90191" lon="6.17979">
        <ele>1263</ele>
        <time>2018-05-20T08:25:58.822Z</time>
      </trkpt>
      <trkpt lat="45.90191" lon="6.17982">
        <ele>1263</ele>
        <time>2018-05-20T08:26:01.822Z</time>
      </trkpt>
      <trkpt lat="45.90191" lon="6.17986">
        <ele>1262</ele>
        <time>2018-05-20T08:26:05.822Z</time>
      </trkpt>
      <trkpt lat="45.9019" lon="6.17988">
        <ele>1262</ele>
        <time>2018-05-20T08:26:07.822Z</time>
      </trkpt>
      <trkpt lat="45.90189" lon="6.1799">
        <ele>1261.9046701916</ele>
        <time>2018-05-20T08:26:09.822Z</time>
      </trkpt>
      <trkpt lat="45.90187" lon="6.17992">
        <ele>1261</ele>
        <time>2018-05-20T08:26:11.822Z</time>
      </trkpt>
      <trkpt lat="45.90185" lon="6.17994">
        <ele>1261</ele>
        <time>2018-05-20T08:26:14.822Z</time>
      </trkpt>
      <trkpt lat="45.90183" lon="6.17996">
        <ele>1261</ele>
        <time>2018-05-20T08:26:17.822Z</time>
      </trkpt>
      <trkpt lat="45.90182" lon="6.17999">
        <ele>1261</ele>
        <time>2018-05-20T08:26:20.822Z</time>
      </trkpt>
      <trkpt lat="45.9018" lon="6.18001">
        <ele>1261</ele>
        <time>2018-05-20T08:26:23.822Z</time>
      </trkpt>
      <trkpt lat="45.90179" lon="6.18004">
        <ele>1260</ele>
        <time>2018-05-20T08:26:25.822Z</time>
      </trkpt>
      <trkpt lat="45.90178" lon="6.18008">
        <ele>1260</ele>
        <time>2018-05-20T08:26:28.822Z</time>
      </trkpt>
      <trkpt lat="45.90179" lon="6.18011">
        <ele>1260</ele>
        <time>2018-05-20T08:26:31.822Z</time>
      </trkpt>
      <trkpt lat="45.90178" lon="6.18014">
        <ele>1260</ele>
        <time>2018-05-20T08:26:33.822Z</time>
      </trkpt>
      <trkpt lat="45.90176" lon="6.18016">
        <ele>1261</ele>
        <time>2018-05-20T08:26:35.822Z</time>
      </trkpt>
      <trkpt lat="45.90173" lon="6.18017">
        <ele>1261</ele>
        <time>2018-05-20T08:26:37.822Z</time>
      </trkpt>
      <trkpt lat="45.90171" lon="6.18018">
        <ele>1261</ele>
        <time>2018-05-20T08:26:39.822Z</time>
      </trkpt>
      <trkpt lat="45.90169" lon="6.18019">
        <ele>1261</ele>
        <time>2018-05-20T08:26:42.822Z</time>
      </trkpt>
      <trkpt lat="45.90167" lon="6.18021">
        <ele>1262</ele>
        <time>2018-05-20T08:26:45.822Z</time>
      </trkpt>
      <trkpt lat="45.90167" lon="6.18023">
        <ele>1263</ele>
        <time>2018-05-20T08:26:48.822Z</time>
      </trkpt>
      <trkpt lat="45.90165" lon="6.18026">
        <ele>1264</ele>
        <time>2018-05-20T08:26:52.822Z</time>
      </trkpt>
      <trkpt lat="45.90166" lon="6.18028">
        <ele>1263.8979968</ele>
        <time>2018-05-20T08:26:57.822Z</time>
      </trkpt>
      <trkpt lat="45.90165" lon="6.18031">
        <ele>1262.9097314258</ele>
        <time>2018-05-20T08:27:00.822Z</time>
      </trkpt>
      <trkpt lat="45.90163" lon="6.18033">
        <ele>1261.9276571408</ele>
        <time>2018-05-20T08:27:03.822Z</time>
      </trkpt>
      <trkpt lat="45.90162" lon="6.18034">
        <ele>1261</ele>
        <time>2018-05-20T08:27:06.822Z</time>
      </trkpt>
      <trkpt lat="45.9016" lon="6.18035">
        <ele>1260</ele>
        <time>2018-05-20T08:27:08.822Z</time>
      </trkpt>
      <trkpt lat="45.90158" lon="6.18035">
        <ele>1260</ele>
        <time>2018-05-20T08:27:10.822Z</time>
      </trkpt>
      <trkpt lat="45.90156" lon="6.18035">
        <ele>1260</ele>
        <time>2018-05-20T08:27:12.822Z</time>
      </trkpt>
      <trkpt lat="45.90153" lon="6.18036">
        <ele>1260</ele>
        <time>2018-05-20T08:27:15.822Z</time>
      </trkpt>
      <trkpt lat="45.90151" lon="6.18036">
        <ele>1259.90192</ele>
        <time>2018-05-20T08:27:17.822Z</time>
      </trkpt>
      <trkpt lat="45.90149" lon="6.18036">
        <ele>1258</ele>
        <time>2018-05-20T08:27:20.822Z</time>
      </trkpt>
      <trkpt lat="45.90147" lon="6.18036">
        <ele>1258</ele>
        <time>2018-05-20T08:27:22.822Z</time>
      </trkpt>
      <trkpt lat="45.90144" lon="6.18035">
        <ele>1257.9655912795</ele>
        <time>2018-05-20T08:27:25.822Z</time>
      </trkpt>
      <trkpt lat="45.90141" lon="6.18035">
        <ele>1258</ele>
        <time>2018-05-20T08:27:28.822Z</time>
      </trkpt>
      <trkpt lat="45.90139" lon="6.18035">
        <ele>1258</ele>
        <time>2018-05-20T08:27:30.822Z</time>
      </trkpt>
      <trkpt lat="45.90137" lon="6.18035">
        <ele>1258</ele>
        <time>2018-05-20T08:27:32.822Z</time>
      </trkpt>
      <trkpt lat="45.90135" lon="6.18037">
        <ele>1259</ele>
        <time>2018-05-20T08:27:36.822Z</time>
      </trkpt>
      <trkpt lat="45.90134" lon="6.1804">
        <ele>1259</ele>
        <time>2018-05-20T08:27:39.822Z</time>
      </trkpt>
      <trkpt lat="45.90132" lon="6.18042">
        <ele>1259</ele>
        <time>2018-05-20T08:27:41.822Z</time>
      </trkpt>
      <trkpt lat="45.9013" lon="6.18044">
        <ele>1259</ele>
        <time>2018-05-20T08:27:44.822Z</time>
      </trkpt>
      <trkpt lat="45.90127" lon="6.18043">
        <ele>1258</ele>
        <time>2018-05-20T08:27:47.822Z</time>
      </trkpt>
      <trkpt lat="45.90125" lon="6.18044">
        <ele>1258</ele>
        <time>2018-05-20T08:27:50.822Z</time>
      </trkpt>
      <trkpt lat="45.90125" lon="6.18047">
        <ele>1258</ele>
        <time>2018-05-20T08:27:53.822Z</time>
      </trkpt>
      <trkpt lat="45.90123" lon="6.18049">
        <ele>1258</ele>
        <time>2018-05-20T08:27:55.822Z</time>
      </trkpt>
      <trkpt lat="45.90123" lon="6.18052">
        <ele>1258</ele>
        <time>2018-05-20T08:27:57.822Z</time>
      </trkpt>
      <trkpt lat="45.9012" lon="6.18053">
        <ele>1259</ele>
        <time>2018-05-20T08:28:00.822Z</time>
      </trkpt>
      <trkpt lat="45.90118" lon="6.18054">
        <ele>1260</ele>
        <time>2018-05-20T08:28:04.822Z</time>
      </trkpt>
      <trkpt lat="45.90116" lon="6.18056">
        <ele>1260</ele>
        <time>2018-05-20T08:28:06.822Z</time>
      </trkpt>
      <trkpt lat="45.90115" lon="6.18059">
        <ele>1261</ele>
        <time>2018-05-20T08:28:09.822Z</time>
      </trkpt>
      <trkpt lat="45.90113" lon="6.18061">
        <ele>1262</ele>
        <time>2018-05-20T08:28:12.822Z</time>
      </trkpt>
      <trkpt lat="45.90111" lon="6.18062">
        <ele>1262</ele>
        <time>2018-05-20T08:28:16.822Z</time>
      </trkpt>
      <trkpt lat="45.90112" lon="6.18063">
        <ele>1263</ele>
        <time>2018-05-20T08:29:29.822Z</time>
      </trkpt>
      <trkpt lat="45.90112" lon="6.18065">
        <ele>1263</ele>
        <time>2018-05-20T08:31:27.822Z</time>
      </trkpt>
      <trkpt lat="45.90111" lon="6.18068">
        <ele>1263</ele>
        <time>2018-05-20T08:31:30.822Z</time>
      </trkpt>
      <trkpt lat="45.9011" lon="6.18071">
        <ele>1264</ele>
        <time>2018-05-20T08:31:33.822Z</time>
      </trkpt>
      <trkpt lat="45.90109" lon="6.18073">
        <ele>1263.1020032</ele>
        <time>2018-05-20T08:31:36.822Z</time>
      </trkpt>
      <trkpt lat="45.90109" lon="6.18076">
        <ele>1265</ele>
        <time>2018-05-20T08:31:42.822Z</time>
      </trkpt>
      <trkpt lat="45.90109" lon="6.1808">
        <ele>1265</ele>
        <time>2018-05-20T08:31:46.822Z</time>
      </trkpt>
      <trkpt lat="45.90111" lon="6.18082">
        <ele>1265</ele>
        <time>2018-05-20T08:31:49.822Z</time>
      </trkpt>
      <trkpt lat="45.90113" lon="6.18083">
        <ele>1266</ele>
        <time>2018-05-20T08:31:52.822Z</time>
      </trkpt>
      <trkpt lat="45.90115" lon="6.18085">
        <ele>1266</ele>
        <time>2018-05-20T08:31:55.822Z</time>
      </trkpt>
      <trkpt lat="45.90117" lon="6.18085">
        <ele>1266</ele>
        <time>2018-05-20T08:31:57.822Z</time>
      </trkpt>
      <trkpt lat="45.90119" lon="6.18086">
        <ele>1266.09808</ele>
        <time>2018-05-20T08:31:59.822Z</time>
      </trkpt>
      <trkpt lat="45.90121" lon="6.18087">
        <ele>1268</ele>
        <time>2018-05-20T08:32:02.822Z</time>
      </trkpt>
      <trkpt lat="45.90123" lon="6.18089">
        <ele>1268</ele>
        <time>2018-05-20T08:32:06.822Z</time>
      </trkpt>
      <trkpt lat="45.90125" lon="6.18092">
        <ele>1269</ele>
        <time>2018-05-20T08:32:09.822Z</time>
      </trkpt>
      <trkpt lat="45.90127" lon="6.18094">
        <ele>1269</ele>
        <time>2018-05-20T08:32:13.822Z</time>
      </trkpt>
      <trkpt lat="45.90129" lon="6.18096">
        <ele>1270</ele>
        <time>2018-05-20T08:32:16.822Z</time>
      </trkpt>
      <trkpt lat="45.9013" lon="6.18099">
        <ele>1270</ele>
        <time>2018-05-20T08:32:19.822Z</time>
      </trkpt>
      <trkpt lat="45.90131" lon="6.18102">
        <ele>1272</ele>
        <time>2018-05-20T08:32:25.822Z</time>
      </trkpt>
      <trkpt lat="45.90131" lon="6.18104">
        <ele>1273</ele>
        <time>2018-05-20T08:32:28.822Z</time>
      </trkpt>
      <trkpt lat="45.9013" lon="6.18107">
        <ele>1274</ele>
        <time>2018-05-20T08:32:31.822Z</time>
      </trkpt>
      <trkpt lat="45.90128" lon="6.18108">
        <ele>1274.1020032</ele>
        <time>2018-05-20T08:32:34.822Z</time>
      </trkpt>
      <trkpt lat="45.90127" lon="6.18111">
        <ele>1275.1020032</ele>
        <time>2018-05-20T08:32:39.822Z</time>
      </trkpt>
      <trkpt lat="45.90125" lon="6.18113">
        <ele>1276</ele>
        <time>2018-05-20T08:32:43.822Z</time>
      </trkpt>
      <trkpt lat="45.90123" lon="6.18114">
        <ele>1276.8348509091</ele>
        <time>2018-05-20T08:32:46.822Z</time>
      </trkpt>
      <trkpt lat="45.90121" lon="6.18116">
        <ele>1277</ele>
        <time>2018-05-20T08:32:49.822Z</time>
      </trkpt>
      <trkpt lat="45.90122" lon="6.18119">
        <ele>1277</ele>
        <time>2018-05-20T08:32:53.822Z</time>
      </trkpt>
      <trkpt lat="45.90124" lon="6.18122">
        <ele>1278</ele>
        <time>2018-05-20T08:32:57.822Z</time>
      </trkpt>
      <trkpt lat="45.90123" lon="6.18125">
        <ele>1279</ele>
        <time>2018-05-20T08:33:05.822Z</time>
      </trkpt>
      <trkpt lat="45.90122" lon="6.18127">
        <ele>1280</ele>
        <time>2018-05-20T08:33:08.822Z</time>
      </trkpt>
      <trkpt lat="45.90121" lon="6.18129">
        <ele>1281</ele>
        <time>2018-05-20T08:33:15.822Z</time>
      </trkpt>
      <trkpt lat="45.90119" lon="6.1813">
        <ele>1281</ele>
        <time>2018-05-20T08:33:18.822Z</time>
      </trkpt>
      <trkpt lat="45.90117" lon="6.18132">
        <ele>1281</ele>
        <time>2018-05-20T08:33:21.822Z</time>
      </trkpt>
      <trkpt lat="45.90116" lon="6.18133">
        <ele>1281</ele>
        <time>2018-05-20T08:33:24.822Z</time>
      </trkpt>
      <trkpt lat="45.90113" lon="6.18134">
        <ele>1282</ele>
        <time>2018-05-20T08:33:27.822Z</time>
      </trkpt>
      <trkpt lat="45.90112" lon="6.18135">
        <ele>1282</ele>
        <time>2018-05-20T08:33:29.822Z</time>
      </trkpt>
      <trkpt lat="45.90109" lon="6.18136">
        <ele>1283</ele>
        <time>2018-05-20T08:33:32.822Z</time>
      </trkpt>
      <trkpt lat="45.90107" lon="6.18138">
        <ele>1283</ele>
        <time>2018-05-20T08:33:36.822Z</time>
      </trkpt>
      <trkpt lat="45.90106" lon="6.1814">
        <ele>1283</ele>
        <time>2018-05-20T08:33:42.822Z</time>
      </trkpt>
      <trkpt lat="45.90105" lon="6.18143">
        <ele>1283</ele>
        <time>2018-05-20T08:33:45.822Z</time>
      </trkpt>
      <trkpt lat="45.90104" lon="6.18145">
        <ele>1282.0131937998</ele>
        <time>2018-05-20T08:33:48.822Z</time>
      </trkpt>
      <trkpt lat="45.90104" lon="6.18148">
        <ele>1283.074227049</ele>
        <time>2018-05-20T08:33:54.822Z</time>
      </trkpt>
      <trkpt lat="45.90105" lon="6.18151">
        <ele>1284.1020032</ele>
        <time>2018-05-20T08:34:00.822Z</time>
      </trkpt>
      <trkpt lat="45.90104" lon="6.18153">
        <ele>1285</ele>
        <time>2018-05-20T08:34:04.822Z</time>
      </trkpt>
      <trkpt lat="45.90102" lon="6.18156">
        <ele>1285</ele>
        <time>2018-05-20T08:34:08.822Z</time>
      </trkpt>
      <trkpt lat="45.90101" lon="6.18158">
        <ele>1284.1020032</ele>
        <time>2018-05-20T08:34:11.822Z</time>
      </trkpt>
      <trkpt lat="45.901" lon="6.18161">
        <ele>1285</ele>
        <time>2018-05-20T08:34:15.822Z</time>
      </trkpt>
      <trkpt lat="45.90099" lon="6.18163">
        <ele>1285</ele>
        <time>2018-05-20T08:34:18.822Z</time>
      </trkpt>
      <trkpt lat="45.90098" lon="6.18165">
        <ele>1285</ele>
        <time>2018-05-20T08:34:22.822Z</time>
      </trkpt>
      <trkpt lat="45.90096" lon="6.18167">
        <ele>1285</ele>
        <time>2018-05-20T08:34:26.822Z</time>
      </trkpt>
      <trkpt lat="45.90093" lon="6.18169">
        <ele>1285</ele>
        <time>2018-05-20T08:34:29.822Z</time>
      </trkpt>
      <trkpt lat="45.90092" lon="6.18171">
        <ele>1285</ele>
        <time>2018-05-20T08:34:31.822Z</time>
      </trkpt>
      <trkpt lat="45.90091" lon="6.18174">
        <ele>1285</ele>
        <time>2018-05-20T08:34:33.822Z</time>
      </trkpt>
      <trkpt lat="45.9009" lon="6.18177">
        <ele>1285</ele>
        <time>2018-05-20T08:34:36.822Z</time>
      </trkpt>
      <trkpt lat="45.9009" lon="6.1818">
        <ele>1285</ele>
        <time>2018-05-20T08:34:39.822Z</time>
      </trkpt>
      <trkpt lat="45.90089" lon="6.18183">
        <ele>1285</ele>
        <time>2018-05-20T08:34:42.822Z</time>
      </trkpt>
      <trkpt lat="45.90088" lon="6.18186">
        <ele>1285</ele>
        <time>2018-05-20T08:34:45.822Z</time>
      </trkpt>
      <trkpt lat="45.90088" lon="6.18189">
        <ele>1285</ele>
        <time>2018-05-20T08:34:47.822Z</time>
      </trkpt>
      <trkpt lat="45.90089" lon="6.18192">
        <ele>1284.9977813176</ele>
        <time>2018-05-20T08:34:51.822Z</time>
      </trkpt>
      <trkpt lat="45.90088" lon="6.18195">
        <ele>1284</ele>
        <time>2018-05-20T08:34:53.822Z</time>
      </trkpt>
      <trkpt lat="45.90088" lon="6.18198">
        <ele>1284</ele>
        <time>2018-05-20T08:34:56.822Z</time>
      </trkpt>
      <trkpt lat="45.90086" lon="6.18201">
        <ele>1284</ele>
        <time>2018-05-20T08:34:59.822Z</time>
      </trkpt>
      <trkpt lat="45.90085" lon="6.18203">
        <ele>1284</ele>
        <time>2018-05-20T08:35:01.822Z</time>
      </trkpt>
      <trkpt lat="45.90083" lon="6.18206">
        <ele>1286</ele>
        <time>2018-05-20T08:35:10.822Z</time>
      </trkpt>
      <trkpt lat="45.90081" lon="6.18208">
        <ele>1286</ele>
        <time>2018-05-20T08:35:13.822Z</time>
      </trkpt>
      <trkpt lat="45.9008" lon="6.18211">
        <ele>1286.9752487013</ele>
        <time>2018-05-20T08:35:16.822Z</time>
      </trkpt>
      <trkpt lat="45.90079" lon="6.18213">
        <ele>1286</ele>
        <time>2018-05-20T08:35:19.822Z</time>
      </trkpt>
      <trkpt lat="45.90079" lon="6.18216">
        <ele>1288</ele>
        <time>2018-05-20T08:35:22.822Z</time>
      </trkpt>
      <trkpt lat="45.9008" lon="6.18218">
        <ele>1288</ele>
        <time>2018-05-20T08:35:25.822Z</time>
      </trkpt>
      <trkpt lat="45.9008" lon="6.18222">
        <ele>1287</ele>
        <time>2018-05-20T08:35:29.822Z</time>
      </trkpt>
      <trkpt lat="45.9008" lon="6.18225">
        <ele>1286</ele>
        <time>2018-05-20T08:35:33.822Z</time>
      </trkpt>
      <trkpt lat="45.90079" lon="6.18228">
        <ele>1285</ele>
        <time>2018-05-20T08:35:36.822Z</time>
      </trkpt>
      <trkpt lat="45.90077" lon="6.1823">
        <ele>1285</ele>
        <time>2018-05-20T08:35:38.822Z</time>
      </trkpt>
      <trkpt lat="45.90076" lon="6.18232">
        <ele>1285</ele>
        <time>2018-05-20T08:35:40.822Z</time>
      </trkpt>
      <trkpt lat="45.90074" lon="6.18234">
        <ele>1285.1030016</ele>
        <time>2018-05-20T08:35:43.822Z</time>
      </trkpt>
      <trkpt lat="45.90073" lon="6.18236">
        <ele>1286.0902737267</ele>
        <time>2018-05-20T08:35:46.822Z</time>
      </trkpt>
      <trkpt lat="45.90073" lon="6.18239">
        <ele>1287</ele>
        <time>2018-05-20T08:35:50.822Z</time>
      </trkpt>
      <trkpt lat="45.90073" lon="6.18241">
        <ele>1288</ele>
        <time>2018-05-20T08:35:53.822Z</time>
      </trkpt>
      <trkpt lat="45.90075" lon="6.18244">
        <ele>1288</ele>
        <time>2018-05-20T08:35:59.822Z</time>
      </trkpt>
      <trkpt lat="45.90076" lon="6.18246">
        <ele>1289</ele>
        <time>2018-05-20T08:36:02.822Z</time>
      </trkpt>
      <trkpt lat="45.90075" lon="6.18249">
        <ele>1290.0902737267</ele>
        <time>2018-05-20T08:36:08.822Z</time>
      </trkpt>
      <trkpt lat="45.90073" lon="6.1825">
        <ele>1291</ele>
        <time>2018-05-20T08:36:11.822Z</time>
      </trkpt>
      <trkpt lat="45.90071" lon="6.18252">
        <ele>1292</ele>
        <time>2018-05-20T08:36:14.822Z</time>
      </trkpt>
      <trkpt lat="45.9007" lon="6.18255">
        <ele>1292</ele>
        <time>2018-05-20T08:36:17.822Z</time>
      </trkpt>
      <trkpt lat="45.9007" lon="6.18258">
        <ele>1292</ele>
        <time>2018-05-20T08:36:20.822Z</time>
      </trkpt>
      <trkpt lat="45.90068" lon="6.1826">
        <ele>1293</ele>
        <time>2018-05-20T08:36:23.822Z</time>
      </trkpt>
      <trkpt lat="45.90066" lon="6.18259">
        <ele>1293.0743035283</ele>
        <time>2018-05-20T08:36:26.822Z</time>
      </trkpt>
      <trkpt lat="45.90064" lon="6.18259">
        <ele>1294</ele>
        <time>2018-05-20T08:36:30.822Z</time>
      </trkpt>
      <trkpt lat="45.90062" lon="6.18259">
        <ele>1295</ele>
        <time>2018-05-20T08:36:44.822Z</time>
      </trkpt>
      <trkpt lat="45.90064" lon="6.18258">
        <ele>1295</ele>
        <time>2018-05-20T08:37:22.822Z</time>
      </trkpt>
      <trkpt lat="45.90062" lon="6.18259">
        <ele>1294</ele>
        <time>2018-05-20T08:38:12.822Z</time>
      </trkpt>
      <trkpt lat="45.90061" lon="6.18262">
        <ele>1294</ele>
        <time>2018-05-20T08:39:02.822Z</time>
      </trkpt>
      <trkpt lat="45.90061" lon="6.18259">
        <ele>1295</ele>
        <time>2018-05-20T08:41:01.822Z</time>
      </trkpt>
      <trkpt lat="45.9006" lon="6.1826">
        <ele>1295</ele>
        <time>2018-05-20T08:42:10.822Z</time>
      </trkpt>
      <trkpt lat="45.90061" lon="6.18258">
        <ele>1294</ele>
        <time>2018-05-20T08:42:27.822Z</time>
      </trkpt>
      <trkpt lat="45.90063" lon="6.18257">
        <ele>1294</ele>
        <time>2018-05-20T08:42:56.822Z</time>
      </trkpt>
      <trkpt lat="45.90063" lon="6.18259">
        <ele>1294</ele>
        <time>2018-05-20T08:43:11.822Z</time>
      </trkpt>
      <trkpt lat="45.90061" lon="6.18261">
        <ele>1294</ele>
        <time>2018-05-20T08:43:19.822Z</time>
      </trkpt>
      <trkpt lat="45.90059" lon="6.18262">
        <ele>1295</ele>
        <time>2018-05-20T08:43:23.822Z</time>
      </trkpt>
      <trkpt lat="45.90058" lon="6.18264">
        <ele>1295</ele>
        <time>2018-05-20T08:43:27.822Z</time>
      </trkpt>
      <trkpt lat="45.90055" lon="6.18267">
        <ele>1294</ele>
        <time>2018-05-20T08:43:30.822Z</time>
      </trkpt>
      <trkpt lat="45.90054" lon="6.18269">
        <ele>1294</ele>
        <time>2018-05-20T08:43:32.822Z</time>
      </trkpt>
      <trkpt lat="45.90052" lon="6.18271">
        <ele>1294</ele>
        <time>2018-05-20T08:43:34.822Z</time>
      </trkpt>
      <trkpt lat="45.90049" lon="6.18273">
        <ele>1293</ele>
        <time>2018-05-20T08:43:37.822Z</time>
      </trkpt>
      <trkpt lat="45.90048" lon="6.18274">
        <ele>1293</ele>
        <time>2018-05-20T08:43:39.822Z</time>
      </trkpt>
      <trkpt lat="45.90046" lon="6.18276">
        <ele>1293</ele>
        <time>2018-05-20T08:43:41.822Z</time>
      </trkpt>
      <trkpt lat="45.90045" lon="6.18278">
        <ele>1292.9977813176</ele>
        <time>2018-05-20T08:43:43.822Z</time>
      </trkpt>
      <trkpt lat="45.90043" lon="6.18279">
        <ele>1292</ele>
        <time>2018-05-20T08:43:45.822Z</time>
      </trkpt>
      <trkpt lat="45.90042" lon="6.18281">
        <ele>1292</ele>
        <time>2018-05-20T08:43:47.822Z</time>
      </trkpt>
      <trkpt lat="45.90041" lon="6.18283">
        <ele>1291</ele>
        <time>2018-05-20T08:43:50.822Z</time>
      </trkpt>
      <trkpt lat="45.90041" lon="6.18286">
        <ele>1290.9977813176</ele>
        <time>2018-05-20T08:43:53.822Z</time>
      </trkpt>
      <trkpt lat="45.90039" lon="6.18288">
        <ele>1289</ele>
        <time>2018-05-20T08:43:58.822Z</time>
      </trkpt>
      <trkpt lat="45.90037" lon="6.18291">
        <ele>1288</ele>
        <time>2018-05-20T08:44:01.822Z</time>
      </trkpt>
      <trkpt lat="45.90034" lon="6.18293">
        <ele>1288</ele>
        <time>2018-05-20T08:44:04.822Z</time>
      </trkpt>
      <trkpt lat="45.90032" lon="6.18295">
        <ele>1287</ele>
        <time>2018-05-20T08:44:07.822Z</time>
      </trkpt>
      <trkpt lat="45.9003" lon="6.18298">
        <ele>1287</ele>
        <time>2018-05-20T08:44:10.822Z</time>
      </trkpt>
      <trkpt lat="45.90029" lon="6.183">
        <ele>1287</ele>
        <time>2018-05-20T08:44:12.822Z</time>
      </trkpt>
      <trkpt lat="45.90027" lon="6.18302">
        <ele>1287</ele>
        <time>2018-05-20T08:44:15.822Z</time>
      </trkpt>
      <trkpt lat="45.90024" lon="6.18303">
        <ele>1287</ele>
        <time>2018-05-20T08:44:18.822Z</time>
      </trkpt>
      <trkpt lat="45.90023" lon="6.18305">
        <ele>1286.90192</ele>
        <time>2018-05-20T08:44:20.822Z</time>
      </trkpt>
      <trkpt lat="45.90021" lon="6.18307">
        <ele>1286</ele>
        <time>2018-05-20T08:44:23.822Z</time>
      </trkpt>
      <trkpt lat="45.90019" lon="6.18308">
        <ele>1286</ele>
        <time>2018-05-20T08:44:25.822Z</time>
      </trkpt>
      <trkpt lat="45.90017" lon="6.1831">
        <ele>1286</ele>
        <time>2018-05-20T08:44:28.822Z</time>
      </trkpt>
      <trkpt lat="45.90016" lon="6.18312">
        <ele>1285.9046701916</ele>
        <time>2018-05-20T08:44:31.822Z</time>
      </trkpt>
      <trkpt lat="45.90014" lon="6.18313">
        <ele>1284</ele>
        <time>2018-05-20T08:44:34.822Z</time>
      </trkpt>
      <trkpt lat="45.90012" lon="6.18314">
        <ele>1284</ele>
        <time>2018-05-20T08:45:44.822Z</time>
      </trkpt>
      <trkpt lat="45.9001" lon="6.18317">
        <ele>1284</ele>
        <time>2018-05-20T08:45:48.822Z</time>
      </trkpt>
      <trkpt lat="45.90008" lon="6.18319">
        <ele>1283</ele>
        <time>2018-05-20T08:45:51.822Z</time>
      </trkpt>
      <trkpt lat="45.90007" lon="6.18321">
        <ele>1283</ele>
        <time>2018-05-20T08:45:53.822Z</time>
      </trkpt>
      <trkpt lat="45.90006" lon="6.18323">
        <ele>1282.9070645428</ele>
        <time>2018-05-20T08:45:56.822Z</time>
      </trkpt>
      <trkpt lat="45.90004" lon="6.18325">
        <ele>1282</ele>
        <time>2018-05-20T08:45:58.822Z</time>
      </trkpt>
      <trkpt lat="45.90002" lon="6.18326">
        <ele>1281</ele>
        <time>2018-05-20T08:46:00.822Z</time>
      </trkpt>
      <trkpt lat="45.90001" lon="6.18329">
        <ele>1281</ele>
        <time>2018-05-20T08:46:03.822Z</time>
      </trkpt>
      <trkpt lat="45.89999" lon="6.18331">
        <ele>1281</ele>
        <time>2018-05-20T08:46:05.822Z</time>
      </trkpt>
      <trkpt lat="45.89998" lon="6.18334">
        <ele>1280</ele>
        <time>2018-05-20T08:46:08.822Z</time>
      </trkpt>
      <trkpt lat="45.9" lon="6.18335">
        <ele>1281</ele>
        <time>2018-05-20T08:46:14.822Z</time>
      </trkpt>
      <trkpt lat="45.89999" lon="6.18338">
        <ele>1281</ele>
        <time>2018-05-20T08:47:21.822Z</time>
      </trkpt>
      <trkpt lat="45.89998" lon="6.1834">
        <ele>1280</ele>
        <time>2018-05-20T08:47:24.822Z</time>
      </trkpt>
      <trkpt lat="45.89998" lon="6.18343">
        <ele>1280</ele>
        <time>2018-05-20T08:47:27.822Z</time>
      </trkpt>
      <trkpt lat="45.89997" lon="6.18346">
        <ele>1280</ele>
        <time>2018-05-20T08:47:30.822Z</time>
      </trkpt>
      <trkpt lat="45.89996" lon="6.18349">
        <ele>1280</ele>
        <time>2018-05-20T08:47:32.822Z</time>
      </trkpt>
      <trkpt lat="45.89995" lon="6.18352">
        <ele>1280</ele>
        <time>2018-05-20T08:47:35.822Z</time>
      </trkpt>
      <trkpt lat="45.89994" lon="6.18355">
        <ele>1280</ele>
        <time>2018-05-20T08:47:39.822Z</time>
      </trkpt>
      <trkpt lat="45.89993" lon="6.18357">
        <ele>1280</ele>
        <time>2018-05-20T08:47:41.822Z</time>
      </trkpt>
      <trkpt lat="45.89993" lon="6.1836">
        <ele>1280</ele>
        <time>2018-05-20T08:47:43.822Z</time>
      </trkpt>
      <trkpt lat="45.89991" lon="6.18362">
        <ele>1280</ele>
        <time>2018-05-20T08:47:45.822Z</time>
      </trkpt>
      <trkpt lat="45.8999" lon="6.18365">
        <ele>1279.8979968</ele>
        <time>2018-05-20T08:47:47.822Z</time>
      </trkpt>
      <trkpt lat="45.89988" lon="6.18367">
        <ele>1279</ele>
        <time>2018-05-20T08:47:49.822Z</time>
      </trkpt>
      <trkpt lat="45.89987" lon="6.1837">
        <ele>1279</ele>
        <time>2018-05-20T08:47:51.822Z</time>
      </trkpt>
      <trkpt lat="45.89985" lon="6.18372">
        <ele>1279</ele>
        <time>2018-05-20T08:47:53.822Z</time>
      </trkpt>
      <trkpt lat="45.89982" lon="6.18374">
        <ele>1279</ele>
        <time>2018-05-20T08:47:55.822Z</time>
      </trkpt>
      <trkpt lat="45.8998" lon="6.18375">
        <ele>1279</ele>
        <time>2018-05-20T08:47:57.822Z</time>
      </trkpt>
      <trkpt lat="45.89978" lon="6.18377">
        <ele>1279</ele>
        <time>2018-05-20T08:47:59.822Z</time>
      </trkpt>
      <trkpt lat="45.89976" lon="6.18379">
        <ele>1279</ele>
        <time>2018-05-20T08:48:01.822Z</time>
      </trkpt>
      <trkpt lat="45.89973" lon="6.18381">
        <ele>1279</ele>
        <time>2018-05-20T08:48:03.822Z</time>
      </trkpt>
      <trkpt lat="45.89971" lon="6.18383">
        <ele>1279</ele>
        <time>2018-05-20T08:48:05.822Z</time>
      </trkpt>
      <trkpt lat="45.89969" lon="6.18385">
        <ele>1279</ele>
        <time>2018-05-20T08:48:07.822Z</time>
      </trkpt>
      <trkpt lat="45.89967" lon="6.18388">
        <ele>1279</ele>
        <time>2018-05-20T08:48:09.822Z</time>
      </trkpt>
      <trkpt lat="45.89966" lon="6.1839">
        <ele>1279</ele>
        <time>2018-05-20T08:48:11.822Z</time>
      </trkpt>
      <trkpt lat="45.89965" lon="6.18392">
        <ele>1279</ele>
        <time>2018-05-20T08:48:14.822Z</time>
      </trkpt>
      <trkpt lat="45.89964" lon="6.18395">
        <ele>1279</ele>
        <time>2018-05-20T08:48:16.822Z</time>
      </trkpt>
      <trkpt lat="45.89962" lon="6.18396">
        <ele>1278</ele>
        <time>2018-05-20T08:48:19.822Z</time>
      </trkpt>
      <trkpt lat="45.8996" lon="6.18399">
        <ele>1278</ele>
        <time>2018-05-20T08:48:22.822Z</time>
      </trkpt>
      <trkpt lat="45.89959" lon="6.18401">
        <ele>1278</ele>
        <time>2018-05-20T08:48:25.822Z</time>
      </trkpt>
      <trkpt lat="45.89957" lon="6.18403">
        <ele>1277.0247731675</ele>
        <time>2018-05-20T08:48:27.822Z</time>
      </trkpt>
      <trkpt lat="45.89955" lon="6.18405">
        <ele>1277</ele>
        <time>2018-05-20T08:48:29.822Z</time>
      </trkpt>
      <trkpt lat="45.89952" lon="6.18406">
        <ele>1277</ele>
        <time>2018-05-20T08:48:32.822Z</time>
      </trkpt>
      <trkpt lat="45.8995" lon="6.18407">
        <ele>1276.8979968</ele>
        <time>2018-05-20T08:48:34.822Z</time>
      </trkpt>
      <trkpt lat="45.89948" lon="6.18409">
        <ele>1276</ele>
        <time>2018-05-20T08:48:36.822Z</time>
      </trkpt>
      <trkpt lat="45.89947" lon="6.18411">
        <ele>1276</ele>
        <time>2018-05-20T08:48:38.822Z</time>
      </trkpt>
      <trkpt lat="45.89945" lon="6.18414">
        <ele>1276</ele>
        <time>2018-05-20T08:48:41.822Z</time>
      </trkpt>
      <trkpt lat="45.89944" lon="6.18415">
        <ele>1276</ele>
        <time>2018-05-20T08:48:43.822Z</time>
      </trkpt>
      <trkpt lat="45.89942" lon="6.18417">
        <ele>1276</ele>
        <time>2018-05-20T08:48:45.822Z</time>
      </trkpt>
      <trkpt lat="45.8994" lon="6.18418">
        <ele>1276</ele>
        <time>2018-05-20T08:48:47.822Z</time>
      </trkpt>
      <trkpt lat="45.89939" lon="6.18421">
        <ele>1276</ele>
        <time>2018-05-20T08:48:49.822Z</time>
      </trkpt>
      <trkpt lat="45.89938" lon="6.18424">
        <ele>1275.997767127</ele>
        <time>2018-05-20T08:48:52.822Z</time>
      </trkpt>
      <trkpt lat="45.89937" lon="6.18427">
        <ele>1275</ele>
        <time>2018-05-20T08:48:54.822Z</time>
      </trkpt>
      <trkpt lat="45.89934" lon="6.1843">
        <ele>1274.8990064127</ele>
        <time>2018-05-20T08:48:57.822Z</time>
      </trkpt>
      <trkpt lat="45.89933" lon="6.18431">
        <ele>1274</ele>
        <time>2018-05-20T08:48:59.822Z</time>
      </trkpt>
      <trkpt lat="45.89931" lon="6.18432">
        <ele>1275.074227049</ele>
        <time>2018-05-20T08:49:01.822Z</time>
      </trkpt>
      <trkpt lat="45.89928" lon="6.18433">
        <ele>1276</ele>
        <time>2018-05-20T08:49:04.822Z</time>
      </trkpt>
      <trkpt lat="45.89926" lon="6.18434">
        <ele>1276</ele>
        <time>2018-05-20T08:49:06.822Z</time>
      </trkpt>
      <trkpt lat="45.89925" lon="6.18435">
        <ele>1276</ele>
        <time>2018-05-20T08:49:08.822Z</time>
      </trkpt>
      <trkpt lat="45.89923" lon="6.18437">
        <ele>1275</ele>
        <time>2018-05-20T08:49:10.822Z</time>
      </trkpt>
      <trkpt lat="45.89921" lon="6.18438">
        <ele>1275</ele>
        <time>2018-05-20T08:49:13.822Z</time>
      </trkpt>
      <trkpt lat="45.89918" lon="6.1844">
        <ele>1275</ele>
        <time>2018-05-20T08:49:17.822Z</time>
      </trkpt>
      <trkpt lat="45.89917" lon="6.18441">
        <ele>1275</ele>
        <time>2018-05-20T08:49:19.822Z</time>
      </trkpt>
      <trkpt lat="45.89915" lon="6.18442">
        <ele>1275</ele>
        <time>2018-05-20T08:49:21.822Z</time>
      </trkpt>
      <trkpt lat="45.89913" lon="6.18444">
        <ele>1275</ele>
        <time>2018-05-20T08:49:23.822Z</time>
      </trkpt>
      <trkpt lat="45.89911" lon="6.18445">
        <ele>1275</ele>
        <time>2018-05-20T08:49:25.822Z</time>
      </trkpt>
      <trkpt lat="45.89909" lon="6.18447">
        <ele>1275</ele>
        <time>2018-05-20T08:49:27.822Z</time>
      </trkpt>
      <trkpt lat="45.89907" lon="6.18449">
        <ele>1274.9089257143</ele>
        <time>2018-05-20T08:49:29.822Z</time>
      </trkpt>
      <trkpt lat="45.89906" lon="6.18451">
        <ele>1274</ele>
        <time>2018-05-20T08:49:31.822Z</time>
      </trkpt>
      <trkpt lat="45.89904" lon="6.18454">
        <ele>1274</ele>
        <time>2018-05-20T08:49:33.822Z</time>
      </trkpt>
      <trkpt lat="45.89903" lon="6.18456">
        <ele>1274.074227049</ele>
        <time>2018-05-20T08:49:36.822Z</time>
      </trkpt>
      <trkpt lat="45.89901" lon="6.18458">
        <ele>1275</ele>
        <time>2018-05-20T08:49:39.822Z</time>
      </trkpt>
      <trkpt lat="45.89899" lon="6.1846">
        <ele>1276</ele>
        <time>2018-05-20T08:49:41.822Z</time>
      </trkpt>
      <trkpt lat="45.89897" lon="6.18461">
        <ele>1276</ele>
        <time>2018-05-20T08:49:43.822Z</time>
      </trkpt>
      <trkpt lat="45.89894" lon="6.18462">
        <ele>1276</ele>
        <time>2018-05-20T08:49:45.822Z</time>
      </trkpt>
      <trkpt lat="45.89892" lon="6.18464">
        <ele>1276</ele>
        <time>2018-05-20T08:49:48.822Z</time>
      </trkpt>
      <trkpt lat="45.89891" lon="6.18466">
        <ele>1276.0772751515</ele>
        <time>2018-05-20T08:49:51.822Z</time>
      </trkpt>
      <trkpt lat="45.89888" lon="6.18466">
        <ele>1277</ele>
        <time>2018-05-20T08:49:54.822Z</time>
      </trkpt>
      <trkpt lat="45.89886" lon="6.18466">
        <ele>1277.8102964706</ele>
        <time>2018-05-20T08:49:57.822Z</time>
      </trkpt>
      <trkpt lat="45.89884" lon="6.18467">
        <ele>1278</ele>
        <time>2018-05-20T08:50:00.822Z</time>
      </trkpt>
      <trkpt lat="45.89882" lon="6.18468">
        <ele>1278</ele>
        <time>2018-05-20T08:50:02.822Z</time>
      </trkpt>
      <trkpt lat="45.89881" lon="6.18469">
        <ele>1278</ele>
        <time>2018-05-20T08:50:04.822Z</time>
      </trkpt>
      <trkpt lat="45.89878" lon="6.18471">
        <ele>1278</ele>
        <time>2018-05-20T08:50:07.822Z</time>
      </trkpt>
      <trkpt lat="45.89876" lon="6.18473">
        <ele>1278</ele>
        <time>2018-05-20T08:50:22.822Z</time>
      </trkpt>
      <trkpt lat="45.89875" lon="6.18475">
        <ele>1278</ele>
        <time>2018-05-20T08:50:25.822Z</time>
      </trkpt>
      <trkpt lat="45.89873" lon="6.18476">
        <ele>1279</ele>
        <time>2018-05-20T08:50:29.822Z</time>
      </trkpt>
      <trkpt lat="45.89872" lon="6.18478">
        <ele>1279</ele>
        <time>2018-05-20T08:50:31.822Z</time>
      </trkpt>
      <trkpt lat="45.8987" lon="6.1848">
        <ele>1279</ele>
        <time>2018-05-20T08:50:33.822Z</time>
      </trkpt>
      <trkpt lat="45.89868" lon="6.18481">
        <ele>1279</ele>
        <time>2018-05-20T08:50:35.822Z</time>
      </trkpt>
      <trkpt lat="45.89866" lon="6.18482">
        <ele>1279</ele>
        <time>2018-05-20T08:50:37.822Z</time>
      </trkpt>
      <trkpt lat="45.89864" lon="6.18484">
        <ele>1279</ele>
        <time>2018-05-20T08:50:39.822Z</time>
      </trkpt>
      <trkpt lat="45.89863" lon="6.18486">
        <ele>1278.8979968</ele>
        <time>2018-05-20T08:50:42.822Z</time>
      </trkpt>
      <trkpt lat="45.8986" lon="6.18487">
        <ele>1278</ele>
        <time>2018-05-20T08:50:45.822Z</time>
      </trkpt>
      <trkpt lat="45.89858" lon="6.18488">
        <ele>1278</ele>
        <time>2018-05-20T08:50:48.822Z</time>
      </trkpt>
      <trkpt lat="45.89857" lon="6.1849">
        <ele>1278</ele>
        <time>2018-05-20T08:50:50.822Z</time>
      </trkpt>
      <trkpt lat="45.89855" lon="6.18493">
        <ele>1278.0953298084</ele>
        <time>2018-05-20T08:50:53.822Z</time>
      </trkpt>
      <trkpt lat="45.89854" lon="6.18496">
        <ele>1279</ele>
        <time>2018-05-20T08:50:55.822Z</time>
      </trkpt>
      <trkpt lat="45.89853" lon="6.18499">
        <ele>1280</ele>
        <time>2018-05-20T08:50:57.822Z</time>
      </trkpt>
      <trkpt lat="45.89852" lon="6.18501">
        <ele>1280</ele>
        <time>2018-05-20T08:50:59.822Z</time>
      </trkpt>
      <trkpt lat="45.8985" lon="6.18502">
        <ele>1280</ele>
        <time>2018-05-20T08:51:01.822Z</time>
      </trkpt>
      <trkpt lat="45.89848" lon="6.18502">
        <ele>1280</ele>
        <time>2018-05-20T08:51:04.822Z</time>
      </trkpt>
      <trkpt lat="45.89845" lon="6.18503">
        <ele>1281</ele>
        <time>2018-05-20T08:51:07.822Z</time>
      </trkpt>
      <trkpt lat="45.89843" lon="6.18505">
        <ele>1281</ele>
        <time>2018-05-20T08:51:10.822Z</time>
      </trkpt>
      <trkpt lat="45.89841" lon="6.18505">
        <ele>1281</ele>
        <time>2018-05-20T08:51:12.822Z</time>
      </trkpt>
      <trkpt lat="45.89839" lon="6.18505">
        <ele>1281</ele>
        <time>2018-05-20T08:51:15.822Z</time>
      </trkpt>
      <trkpt lat="45.89837" lon="6.18507">
        <ele>1281</ele>
        <time>2018-05-20T08:51:18.822Z</time>
      </trkpt>
      <trkpt lat="45.89834" lon="6.18508">
        <ele>1282</ele>
        <time>2018-05-20T08:51:20.822Z</time>
      </trkpt>
      <trkpt lat="45.89832" lon="6.18509">
        <ele>1282</ele>
        <time>2018-05-20T08:51:22.822Z</time>
      </trkpt>
      <trkpt lat="45.8983" lon="6.18509">
        <ele>1282</ele>
        <time>2018-05-20T08:51:24.822Z</time>
      </trkpt>
      <trkpt lat="45.89828" lon="6.1851">
        <ele>1282</ele>
        <time>2018-05-20T08:51:27.822Z</time>
      </trkpt>
      <trkpt lat="45.89826" lon="6.18511">
        <ele>1282</ele>
        <time>2018-05-20T08:51:30.822Z</time>
      </trkpt>
      <trkpt lat="45.89825" lon="6.18512">
        <ele>1282</ele>
        <time>2018-05-20T08:51:33.822Z</time>
      </trkpt>
      <trkpt lat="45.89822" lon="6.18513">
        <ele>1283</ele>
        <time>2018-05-20T08:51:36.822Z</time>
      </trkpt>
      <trkpt lat="45.89821" lon="6.18515">
        <ele>1283</ele>
        <time>2018-05-20T08:51:40.822Z</time>
      </trkpt>
      <trkpt lat="45.8982" lon="6.18518">
        <ele>1283</ele>
        <time>2018-05-20T08:51:44.822Z</time>
      </trkpt>
      <trkpt lat="45.89817" lon="6.1852">
        <ele>1283</ele>
        <time>2018-05-20T08:51:47.822Z</time>
      </trkpt>
      <trkpt lat="45.89816" lon="6.18522">
        <ele>1282.9046701916</ele>
        <time>2018-05-20T08:51:50.822Z</time>
      </trkpt>
      <trkpt lat="45.89815" lon="6.18525">
        <ele>1282</ele>
        <time>2018-05-20T08:51:55.822Z</time>
      </trkpt>
      <trkpt lat="45.89813" lon="6.18526">
        <ele>1281</ele>
        <time>2018-05-20T08:51:58.822Z</time>
      </trkpt>
      <trkpt lat="45.8981" lon="6.18528">
        <ele>1281</ele>
        <time>2018-05-20T08:52:01.822Z</time>
      </trkpt>
      <trkpt lat="45.89808" lon="6.18529">
        <ele>1280</ele>
        <time>2018-05-20T08:52:03.822Z</time>
      </trkpt>
      <trkpt lat="45.89805" lon="6.18531">
        <ele>1280</ele>
        <time>2018-05-20T08:52:06.822Z</time>
      </trkpt>
      <trkpt lat="45.89803" lon="6.18532">
        <ele>1280</ele>
        <time>2018-05-20T08:52:08.822Z</time>
      </trkpt>
      <trkpt lat="45.89801" lon="6.18532">
        <ele>1280</ele>
        <time>2018-05-20T08:52:10.822Z</time>
      </trkpt>
      <trkpt lat="45.89798" lon="6.18533">
        <ele>1280</ele>
        <time>2018-05-20T08:52:12.822Z</time>
      </trkpt>
      <trkpt lat="45.89797" lon="6.18534">
        <ele>1280</ele>
        <time>2018-05-20T08:52:14.822Z</time>
      </trkpt>
      <trkpt lat="45.89794" lon="6.18534">
        <ele>1280.1020032</ele>
        <time>2018-05-20T08:52:16.822Z</time>
      </trkpt>
      <trkpt lat="45.89792" lon="6.18535">
        <ele>1281.002232873</ele>
        <time>2018-05-20T08:52:18.822Z</time>
      </trkpt>
      <trkpt lat="45.8979" lon="6.18534">
        <ele>1282</ele>
        <time>2018-05-20T08:52:21.822Z</time>
      </trkpt>
      <trkpt lat="45.89788" lon="6.18534">
        <ele>1282</ele>
        <time>2018-05-20T08:52:23.822Z</time>
      </trkpt>
      <trkpt lat="45.89786" lon="6.18533">
        <ele>1283</ele>
        <time>2018-05-20T08:52:26.822Z</time>
      </trkpt>
      <trkpt lat="45.89784" lon="6.18535">
        <ele>1283</ele>
        <time>2018-05-20T08:52:29.822Z</time>
      </trkpt>
      <trkpt lat="45.89782" lon="6.18536">
        <ele>1284</ele>
        <time>2018-05-20T08:52:32.822Z</time>
      </trkpt>
      <trkpt lat="45.89779" lon="6.18536">
        <ele>1284</ele>
        <time>2018-05-20T08:52:36.822Z</time>
      </trkpt>
      <trkpt lat="45.89777" lon="6.18537">
        <ele>1284</ele>
        <time>2018-05-20T08:52:39.822Z</time>
      </trkpt>
      <trkpt lat="45.89775" lon="6.18539">
        <ele>1285</ele>
        <time>2018-05-20T08:52:42.822Z</time>
      </trkpt>
      <trkpt lat="45.89773" lon="6.1854">
        <ele>1285</ele>
        <time>2018-05-20T08:52:45.822Z</time>
      </trkpt>
      <trkpt lat="45.89771" lon="6.18542">
        <ele>1284</ele>
        <time>2018-05-20T08:52:48.822Z</time>
      </trkpt>
      <trkpt lat="45.89769" lon="6.18543">
        <ele>1284</ele>
        <time>2018-05-20T08:52:51.822Z</time>
      </trkpt>
      <trkpt lat="45.89767" lon="6.18544">
        <ele>1284</ele>
        <time>2018-05-20T08:52:55.822Z</time>
      </trkpt>
      <trkpt lat="45.89765" lon="6.18545">
        <ele>1283</ele>
        <time>2018-05-20T08:52:58.822Z</time>
      </trkpt>
      <trkpt lat="45.89763" lon="6.18547">
        <ele>1283</ele>
        <time>2018-05-20T08:53:00.822Z</time>
      </trkpt>
      <trkpt lat="45.89761" lon="6.18551">
        <ele>1283</ele>
        <time>2018-05-20T08:53:03.822Z</time>
      </trkpt>
      <trkpt lat="45.8976" lon="6.18553">
        <ele>1283</ele>
        <time>2018-05-20T08:53:06.822Z</time>
      </trkpt>
      <trkpt lat="45.89758" lon="6.18554">
        <ele>1283</ele>
        <time>2018-05-20T08:53:08.822Z</time>
      </trkpt>
      <trkpt lat="45.89756" lon="6.18555">
        <ele>1283.0344087205</ele>
        <time>2018-05-20T08:53:11.822Z</time>
      </trkpt>
      <trkpt lat="45.89754" lon="6.18556">
        <ele>1285</ele>
        <time>2018-05-20T08:53:14.822Z</time>
      </trkpt>
      <trkpt lat="45.89753" lon="6.18558">
        <ele>1285.1009935873</ele>
        <time>2018-05-20T08:53:16.822Z</time>
      </trkpt>
      <trkpt lat="45.89752" lon="6.18562">
        <ele>1286</ele>
        <time>2018-05-20T08:53:19.822Z</time>
      </trkpt>
      <trkpt lat="45.8975" lon="6.18564">
        <ele>1287</ele>
        <time>2018-05-20T08:53:21.822Z</time>
      </trkpt>
      <trkpt lat="45.89749" lon="6.18566">
        <ele>1287</ele>
        <time>2018-05-20T08:53:23.822Z</time>
      </trkpt>
      <trkpt lat="45.89747" lon="6.18568">
        <ele>1287</ele>
        <time>2018-05-20T08:53:26.822Z</time>
      </trkpt>
      <trkpt lat="45.89745" lon="6.18569">
        <ele>1288</ele>
        <time>2018-05-20T08:53:29.822Z</time>
      </trkpt>
      <trkpt lat="45.89742" lon="6.18569">
        <ele>1288.1020032</ele>
        <time>2018-05-20T08:53:32.822Z</time>
      </trkpt>
      <trkpt lat="45.8974" lon="6.1857">
        <ele>1289</ele>
        <time>2018-05-20T08:53:35.822Z</time>
      </trkpt>
      <trkpt lat="45.89738" lon="6.18569">
        <ele>1290</ele>
        <time>2018-05-20T08:53:38.822Z</time>
      </trkpt>
      <trkpt lat="45.89737" lon="6.18567">
        <ele>1290</ele>
        <time>2018-05-20T08:53:41.822Z</time>
      </trkpt>
      <trkpt lat="45.89735" lon="6.18567">
        <ele>1290</ele>
        <time>2018-05-20T08:53:45.822Z</time>
      </trkpt>
      <trkpt lat="45.89733" lon="6.18569">
        <ele>1290</ele>
        <time>2018-05-20T08:53:48.822Z</time>
      </trkpt>
      <trkpt lat="45.89732" lon="6.18571">
        <ele>1290</ele>
        <time>2018-05-20T08:53:51.822Z</time>
      </trkpt>
      <trkpt lat="45.8973" lon="6.18573">
        <ele>1289</ele>
        <time>2018-05-20T08:53:54.822Z</time>
      </trkpt>
      <trkpt lat="45.89728" lon="6.18574">
        <ele>1291</ele>
        <time>2018-05-20T08:53:59.822Z</time>
      </trkpt>
      <trkpt lat="45.89726" lon="6.18573">
        <ele>1291</ele>
        <time>2018-05-20T08:54:03.822Z</time>
      </trkpt>
      <trkpt lat="45.89724" lon="6.18574">
        <ele>1291</ele>
        <time>2018-05-20T08:54:06.822Z</time>
      </trkpt>
      <trkpt lat="45.89722" lon="6.18574">
        <ele>1291</ele>
        <time>2018-05-20T08:54:09.822Z</time>
      </trkpt>
      <trkpt lat="45.8972" lon="6.18574">
        <ele>1290.8979968</ele>
        <time>2018-05-20T08:54:12.822Z</time>
      </trkpt>
      <trkpt lat="45.89717" lon="6.18574">
        <ele>1290</ele>
        <time>2018-05-20T08:54:14.822Z</time>
      </trkpt>
      <trkpt lat="45.89715" lon="6.18572">
        <ele>1290</ele>
        <time>2018-05-20T08:54:17.822Z</time>
      </trkpt>
      <trkpt lat="45.89713" lon="6.1857">
        <ele>1290.044677751</ele>
        <time>2018-05-20T08:54:20.822Z</time>
      </trkpt>
      <trkpt lat="45.89712" lon="6.18568">
        <ele>1291</ele>
        <time>2018-05-20T08:54:25.822Z</time>
      </trkpt>
      <trkpt lat="45.8971" lon="6.1857">
        <ele>1291</ele>
        <time>2018-05-20T08:54:29.822Z</time>
      </trkpt>
      <trkpt lat="45.89708" lon="6.18571">
        <ele>1292</ele>
        <time>2018-05-20T08:54:42.822Z</time>
      </trkpt>
      <trkpt lat="45.89706" lon="6.18572">
        <ele>1292</ele>
        <time>2018-05-20T08:54:44.822Z</time>
      </trkpt>
      <trkpt lat="45.89704" lon="6.18574">
        <ele>1291</ele>
        <time>2018-05-20T08:54:46.822Z</time>
      </trkpt>
      <trkpt lat="45.89703" lon="6.18575">
        <ele>1291</ele>
        <time>2018-05-20T08:54:48.822Z</time>
      </trkpt>
      <trkpt lat="45.89701" lon="6.18577">
        <ele>1291</ele>
        <time>2018-05-20T08:54:51.822Z</time>
      </trkpt>
      <trkpt lat="45.89699" lon="6.18579">
        <ele>1291</ele>
        <time>2018-05-20T08:54:54.822Z</time>
      </trkpt>
      <trkpt lat="45.89697" lon="6.18581">
        <ele>1291</ele>
        <time>2018-05-20T08:54:57.822Z</time>
      </trkpt>
      <trkpt lat="45.89695" lon="6.18583">
        <ele>1291</ele>
        <time>2018-05-20T08:55:01.822Z</time>
      </trkpt>
      <trkpt lat="45.89694" lon="6.18585">
        <ele>1292</ele>
        <time>2018-05-20T08:55:04.822Z</time>
      </trkpt>
      <trkpt lat="45.89693" lon="6.18586">
        <ele>1293</ele>
        <time>2018-05-20T08:55:07.822Z</time>
      </trkpt>
      <trkpt lat="45.89691" lon="6.18588">
        <ele>1293</ele>
        <time>2018-05-20T08:55:12.822Z</time>
      </trkpt>
      <trkpt lat="45.89689" lon="6.18591">
        <ele>1293</ele>
        <time>2018-05-20T08:55:15.822Z</time>
      </trkpt>
      <trkpt lat="45.89688" lon="6.18592">
        <ele>1293</ele>
        <time>2018-05-20T08:55:18.822Z</time>
      </trkpt>
      <trkpt lat="45.89687" lon="6.18594">
        <ele>1293</ele>
        <time>2018-05-20T08:55:22.822Z</time>
      </trkpt>
      <trkpt lat="45.89687" lon="6.18597">
        <ele>1293</ele>
        <time>2018-05-20T08:55:27.822Z</time>
      </trkpt>
      <trkpt lat="45.89685" lon="6.18598">
        <ele>1293</ele>
        <time>2018-05-20T08:55:45.822Z</time>
      </trkpt>
      <trkpt lat="45.89683" lon="6.18598">
        <ele>1293</ele>
        <time>2018-05-20T08:55:48.822Z</time>
      </trkpt>
      <trkpt lat="45.89681" lon="6.18597">
        <ele>1293</ele>
        <time>2018-05-20T08:55:53.822Z</time>
      </trkpt>
      <trkpt lat="45.89682" lon="6.186">
        <ele>1293</ele>
        <time>2018-05-20T08:57:52.822Z</time>
      </trkpt>
      <trkpt lat="45.89684" lon="6.18601">
        <ele>1293</ele>
        <time>2018-05-20T08:58:19.822Z</time>
      </trkpt>
      <trkpt lat="45.89682" lon="6.18601">
        <ele>1293</ele>
        <time>2018-05-20T08:58:37.822Z</time>
      </trkpt>
      <trkpt lat="45.89684" lon="6.186">
        <ele>1293</ele>
        <time>2018-05-20T08:58:56.822Z</time>
      </trkpt>
      <trkpt lat="45.89684" lon="6.18598">
        <ele>1293</ele>
        <time>2018-05-20T08:59:09.822Z</time>
      </trkpt>
      <trkpt lat="45.89686" lon="6.18597">
        <ele>1294</ele>
        <time>2018-05-20T08:59:27.822Z</time>
      </trkpt>
      <trkpt lat="45.89687" lon="6.186">
        <ele>1293.0929354572</ele>
        <time>2018-05-20T08:59:33.822Z</time>
      </trkpt>
      <trkpt lat="45.89687" lon="6.18603">
        <ele>1294</ele>
        <time>2018-05-20T08:59:35.822Z</time>
      </trkpt>
      <trkpt lat="45.89685" lon="6.18605">
        <ele>1294.0772751515</ele>
        <time>2018-05-20T08:59:40.822Z</time>
      </trkpt>
      <trkpt lat="45.89684" lon="6.18608">
        <ele>1294</ele>
        <time>2018-05-20T08:59:49.822Z</time>
      </trkpt>
      <trkpt lat="45.89682" lon="6.18609">
        <ele>1295</ele>
        <time>2018-05-20T08:59:51.822Z</time>
      </trkpt>
      <trkpt lat="45.89681" lon="6.18612">
        <ele>1296</ele>
        <time>2018-05-20T08:59:53.822Z</time>
      </trkpt>
      <trkpt lat="45.8968" lon="6.18614">
        <ele>1296.1020032</ele>
        <time>2018-05-20T08:59:55.822Z</time>
      </trkpt>
      <trkpt lat="45.8968" lon="6.18616">
        <ele>1297</ele>
        <time>2018-05-20T08:59:57.822Z</time>
      </trkpt>
      <trkpt lat="45.89679" lon="6.1862">
        <ele>1297</ele>
        <time>2018-05-20T09:00:00.822Z</time>
      </trkpt>
      <trkpt lat="45.89678" lon="6.18622">
        <ele>1297</ele>
        <time>2018-05-20T09:00:02.822Z</time>
      </trkpt>
      <trkpt lat="45.89677" lon="6.18625">
        <ele>1297</ele>
        <time>2018-05-20T09:00:04.822Z</time>
      </trkpt>
      <trkpt lat="45.89677" lon="6.18628">
        <ele>1297</ele>
        <time>2018-05-20T09:00:07.822Z</time>
      </trkpt>
      <trkpt lat="45.89676" lon="6.18631">
        <ele>1297</ele>
        <time>2018-05-20T09:00:09.822Z</time>
      </trkpt>
      <trkpt lat="45.89676" lon="6.18634">
        <ele>1297</ele>
        <time>2018-05-20T09:00:11.822Z</time>
      </trkpt>
      <trkpt lat="45.89676" lon="6.18638">
        <ele>1297</ele>
        <time>2018-05-20T09:00:14.822Z</time>
      </trkpt>
      <trkpt lat="45.89678" lon="6.1864">
        <ele>1299</ele>
        <time>2018-05-20T09:00:19.822Z</time>
      </trkpt>
      <trkpt lat="45.89679" lon="6.18641">
        <ele>1300</ele>
        <time>2018-05-20T09:00:22.822Z</time>
      </trkpt>
      <trkpt lat="45.89681" lon="6.18639">
        <ele>1301.0836707505</ele>
        <time>2018-05-20T09:00:27.822Z</time>
      </trkpt>
      <trkpt lat="45.89683" lon="6.18638">
        <ele>1303</ele>
        <time>2018-05-20T09:00:34.822Z</time>
      </trkpt>
      <trkpt lat="45.89684" lon="6.18636">
        <ele>1304</ele>
        <time>2018-05-20T09:00:37.822Z</time>
      </trkpt>
      <trkpt lat="45.89686" lon="6.18638">
        <ele>1304</ele>
        <time>2018-05-20T09:00:46.822Z</time>
      </trkpt>
      <trkpt lat="45.89686" lon="6.1864">
        <ele>1305</ele>
        <time>2018-05-20T09:00:53.822Z</time>
      </trkpt>
      <trkpt lat="45.89684" lon="6.18642">
        <ele>1305</ele>
        <time>2018-05-20T09:00:56.822Z</time>
      </trkpt>
      <trkpt lat="45.89684" lon="6.18645">
        <ele>1306</ele>
        <time>2018-05-20T09:01:00.822Z</time>
      </trkpt>
      <trkpt lat="45.89682" lon="6.18646">
        <ele>1306</ele>
        <time>2018-05-20T09:01:03.822Z</time>
      </trkpt>
      <trkpt lat="45.89681" lon="6.18648">
        <ele>1306</ele>
        <time>2018-05-20T09:01:06.822Z</time>
      </trkpt>
      <trkpt lat="45.89679" lon="6.18651">
        <ele>1305.8979968</ele>
        <time>2018-05-20T09:01:09.822Z</time>
      </trkpt>
      <trkpt lat="45.89678" lon="6.18654">
        <ele>1305</ele>
        <time>2018-05-20T09:01:11.822Z</time>
      </trkpt>
      <trkpt lat="45.89678" lon="6.18656">
        <ele>1306</ele>
        <time>2018-05-20T09:01:14.822Z</time>
      </trkpt>
      <trkpt lat="45.89677" lon="6.18659">
        <ele>1306</ele>
        <time>2018-05-20T09:01:20.822Z</time>
      </trkpt>
      <trkpt lat="45.89677" lon="6.18661">
        <ele>1306</ele>
        <time>2018-05-20T09:01:26.822Z</time>
      </trkpt>
      <trkpt lat="45.89676" lon="6.18664">
        <ele>1306</ele>
        <time>2018-05-20T09:01:31.822Z</time>
      </trkpt>
      <trkpt lat="45.89675" lon="6.18667">
        <ele>1306</ele>
        <time>2018-05-20T09:01:34.822Z</time>
      </trkpt>
      <trkpt lat="45.89675" lon="6.1867">
        <ele>1306</ele>
        <time>2018-05-20T09:01:37.822Z</time>
      </trkpt>
      <trkpt lat="45.89675" lon="6.18673">
        <ele>1305</ele>
        <time>2018-05-20T09:01:40.822Z</time>
      </trkpt>
      <trkpt lat="45.89675" lon="6.18677">
        <ele>1305</ele>
        <time>2018-05-20T09:01:43.822Z</time>
      </trkpt>
      <trkpt lat="45.89673" lon="6.18679">
        <ele>1304</ele>
        <time>2018-05-20T09:01:45.822Z</time>
      </trkpt>
      <trkpt lat="45.89671" lon="6.18681">
        <ele>1304</ele>
        <time>2018-05-20T09:01:47.822Z</time>
      </trkpt>
      <trkpt lat="45.8967" lon="6.18683">
        <ele>1303.9163292495</ele>
        <time>2018-05-20T09:01:49.822Z</time>
      </trkpt>
      <trkpt lat="45.89668" lon="6.18685">
        <ele>1303</ele>
        <time>2018-05-20T09:01:52.822Z</time>
      </trkpt>
      <trkpt lat="45.89665" lon="6.18687">
        <ele>1303</ele>
        <time>2018-05-20T09:01:54.822Z</time>
      </trkpt>
      <trkpt lat="45.89663" lon="6.18689">
        <ele>1302.9009680747</ele>
        <time>2018-05-20T09:01:56.822Z</time>
      </trkpt>
      <trkpt lat="45.8966" lon="6.1869">
        <ele>1302</ele>
        <time>2018-05-20T09:01:58.822Z</time>
      </trkpt>
      <trkpt lat="45.89658" lon="6.18688">
        <ele>1302</ele>
        <time>2018-05-20T09:02:01.822Z</time>
      </trkpt>
      <trkpt lat="45.89657" lon="6.18688">
        <ele>1302</ele>
        <time>2018-05-20T09:02:04.822Z</time>
      </trkpt>
      <trkpt lat="45.89655" lon="6.18691">
        <ele>1302</ele>
        <time>2018-05-20T09:02:07.822Z</time>
      </trkpt>
      <trkpt lat="45.89653" lon="6.18692">
        <ele>1301.8979968</ele>
        <time>2018-05-20T09:02:10.822Z</time>
      </trkpt>
      <trkpt lat="45.89651" lon="6.18694">
        <ele>1301</ele>
        <time>2018-05-20T09:02:14.822Z</time>
      </trkpt>
      <trkpt lat="45.89649" lon="6.18695">
        <ele>1300</ele>
        <time>2018-05-20T09:02:18.822Z</time>
      </trkpt>
      <trkpt lat="45.89647" lon="6.18696">
        <ele>1299</ele>
        <time>2018-05-20T09:02:21.822Z</time>
      </trkpt>
      <trkpt lat="45.89645" lon="6.18697">
        <ele>1298.8999962353</ele>
        <time>2018-05-20T09:02:23.822Z</time>
      </trkpt>
      <trkpt lat="45.89643" lon="6.18699">
        <ele>1298</ele>
        <time>2018-05-20T09:02:26.822Z</time>
      </trkpt>
      <trkpt lat="45.89641" lon="6.18698">
        <ele>1299</ele>
        <time>2018-05-20T09:02:29.822Z</time>
      </trkpt>
      <trkpt lat="45.89638" lon="6.18698">
        <ele>1299</ele>
        <time>2018-05-20T09:02:32.822Z</time>
      </trkpt>
      <trkpt lat="45.89636" lon="6.18699">
        <ele>1299</ele>
        <time>2018-05-20T09:02:35.822Z</time>
      </trkpt>
      <trkpt lat="45.89634" lon="6.18699">
        <ele>1299</ele>
        <time>2018-05-20T09:02:47.822Z</time>
      </trkpt>
      <trkpt lat="45.89632" lon="6.187">
        <ele>1298.0547433946</ele>
        <time>2018-05-20T09:02:56.822Z</time>
      </trkpt>
      <trkpt lat="45.8963" lon="6.18701">
        <ele>1298.9163292495</ele>
        <time>2018-05-20T09:02:59.822Z</time>
      </trkpt>
      <trkpt lat="45.89628" lon="6.18703">
        <ele>1298</ele>
        <time>2018-05-20T09:03:02.822Z</time>
      </trkpt>
      <trkpt lat="45.89627" lon="6.18706">
        <ele>1296.9046701916</ele>
        <time>2018-05-20T09:03:06.822Z</time>
      </trkpt>
      <trkpt lat="45.89626" lon="6.18709">
        <ele>1295.9244422532</ele>
        <time>2018-05-20T09:03:09.822Z</time>
      </trkpt>
      <trkpt lat="45.89624" lon="6.18711">
        <ele>1295</ele>
        <time>2018-05-20T09:03:12.822Z</time>
      </trkpt>
      <trkpt lat="45.89622" lon="6.18713">
        <ele>1293</ele>
        <time>2018-05-20T09:03:14.822Z</time>
      </trkpt>
      <trkpt lat="45.89621" lon="6.18714">
        <ele>1293</ele>
        <time>2018-05-20T09:03:16.822Z</time>
      </trkpt>
      <trkpt lat="45.89619" lon="6.18716">
        <ele>1293</ele>
        <time>2018-05-20T09:03:19.822Z</time>
      </trkpt>
      <trkpt lat="45.89617" lon="6.18717">
        <ele>1293</ele>
        <time>2018-05-20T09:03:21.822Z</time>
      </trkpt>
      <trkpt lat="45.89615" lon="6.18719">
        <ele>1293</ele>
        <time>2018-05-20T09:03:24.822Z</time>
      </trkpt>
      <trkpt lat="45.89614" lon="6.18722">
        <ele>1291</ele>
        <time>2018-05-20T09:03:30.822Z</time>
      </trkpt>
      <trkpt lat="45.89612" lon="6.18723">
        <ele>1291</ele>
        <time>2018-05-20T09:03:32.822Z</time>
      </trkpt>
      <trkpt lat="45.8961" lon="6.18726">
        <ele>1289</ele>
        <time>2018-05-20T09:03:35.822Z</time>
      </trkpt>
      <trkpt lat="45.89609" lon="6.18729">
        <ele>1288.9354133333</ele>
        <time>2018-05-20T09:03:37.822Z</time>
      </trkpt>
      <trkpt lat="45.89607" lon="6.18731">
        <ele>1288</ele>
        <time>2018-05-20T09:03:39.822Z</time>
      </trkpt>
      <trkpt lat="45.89605" lon="6.18732">
        <ele>1287</ele>
        <time>2018-05-20T09:03:41.822Z</time>
      </trkpt>
      <trkpt lat="45.89603" lon="6.18734">
        <ele>1286.9070645428</ele>
        <time>2018-05-20T09:03:43.822Z</time>
      </trkpt>
      <trkpt lat="45.89601" lon="6.18736">
        <ele>1285.0247731675</ele>
        <time>2018-05-20T09:03:45.822Z</time>
      </trkpt>
      <trkpt lat="45.89599" lon="6.18737">
        <ele>1284.2128548571</ele>
        <time>2018-05-20T09:03:48.822Z</time>
      </trkpt>
      <trkpt lat="45.89597" lon="6.18738">
        <ele>1283.90192</ele>
        <time>2018-05-20T09:03:50.822Z</time>
      </trkpt>
      <trkpt lat="45.89597" lon="6.18735">
        <ele>1283</ele>
        <time>2018-05-20T09:03:54.822Z</time>
      </trkpt>
      <trkpt lat="45.89595" lon="6.18734">
        <ele>1281.9064188078</ele>
        <time>2018-05-20T09:03:58.822Z</time>
      </trkpt>
      <trkpt lat="45.89593" lon="6.18733">
        <ele>1281</ele>
        <time>2018-05-20T09:04:01.822Z</time>
      </trkpt>
      <trkpt lat="45.89591" lon="6.18732">
        <ele>1280.90192</ele>
        <time>2018-05-20T09:04:04.822Z</time>
      </trkpt>
      <trkpt lat="45.89588" lon="6.18731">
        <ele>1280</ele>
        <time>2018-05-20T09:04:06.822Z</time>
      </trkpt>
      <trkpt lat="45.89586" lon="6.18731">
        <ele>1279</ele>
        <time>2018-05-20T09:04:08.822Z</time>
      </trkpt>
      <trkpt lat="45.89583" lon="6.1873">
        <ele>1278.9354133333</ele>
        <time>2018-05-20T09:04:10.822Z</time>
      </trkpt>
      <trkpt lat="45.89581" lon="6.18729">
        <ele>1277</ele>
        <time>2018-05-20T09:04:12.822Z</time>
      </trkpt>
      <trkpt lat="45.89579" lon="6.18731">
        <ele>1275</ele>
        <time>2018-05-20T09:04:15.822Z</time>
      </trkpt>
      <trkpt lat="45.89578" lon="6.18734">
        <ele>1275</ele>
        <time>2018-05-20T09:04:17.822Z</time>
      </trkpt>
      <trkpt lat="45.89578" lon="6.18738">
        <ele>1275</ele>
        <time>2018-05-20T09:04:20.822Z</time>
      </trkpt>
      <trkpt lat="45.89577" lon="6.18741">
        <ele>1275</ele>
        <time>2018-05-20T09:04:22.822Z</time>
      </trkpt>
      <trkpt lat="45.89576" lon="6.18743">
        <ele>1274.9452566054</ele>
        <time>2018-05-20T09:04:23.822Z</time>
      </trkpt>
      <trkpt lat="45.89574" lon="6.18745">
        <ele>1274</ele>
        <time>2018-05-20T09:04:24.822Z</time>
      </trkpt>
      <trkpt lat="45.89572" lon="6.18747">
        <ele>1274</ele>
        <time>2018-05-20T09:04:25.822Z</time>
      </trkpt>
      <trkpt lat="45.89571" lon="6.18748">
        <ele>1274</ele>
        <time>2018-05-20T09:04:26.822Z</time>
      </trkpt>
      <trkpt lat="45.89569" lon="6.18751">
        <ele>1274.0990319253</ele>
        <time>2018-05-20T09:04:28.822Z</time>
      </trkpt>
      <trkpt lat="45.89566" lon="6.18751">
        <ele>1275</ele>
        <time>2018-05-20T09:04:30.822Z</time>
      </trkpt>
      <trkpt lat="45.89564" lon="6.18751">
        <ele>1275</ele>
        <time>2018-05-20T09:04:32.822Z</time>
      </trkpt>
      <trkpt lat="45.89561" lon="6.18751">
        <ele>1275</ele>
        <time>2018-05-20T09:04:34.822Z</time>
      </trkpt>
      <trkpt lat="45.8956" lon="6.18753">
        <ele>1276</ele>
        <time>2018-05-20T09:04:36.822Z</time>
      </trkpt>
      <trkpt lat="45.89558" lon="6.18755">
        <ele>1276</ele>
        <time>2018-05-20T09:04:39.822Z</time>
      </trkpt>
      <trkpt lat="45.89556" lon="6.18756">
        <ele>1276</ele>
        <time>2018-05-20T09:04:41.822Z</time>
      </trkpt>
      <trkpt lat="45.89554" lon="6.18757">
        <ele>1275</ele>
        <time>2018-05-20T09:04:44.822Z</time>
      </trkpt>
      <trkpt lat="45.89553" lon="6.18759">
        <ele>1275</ele>
        <time>2018-05-20T09:04:47.822Z</time>
      </trkpt>
      <trkpt lat="45.89551" lon="6.18759">
        <ele>1273.9028537992</ele>
        <time>2018-05-20T09:04:49.822Z</time>
      </trkpt>
      <trkpt lat="45.89548" lon="6.18761">
        <ele>1273</ele>
        <time>2018-05-20T09:04:51.822Z</time>
      </trkpt>
      <trkpt lat="45.89545" lon="6.18763">
        <ele>1272.9163292495</ele>
        <time>2018-05-20T09:04:53.822Z</time>
      </trkpt>
      <trkpt lat="45.89543" lon="6.18765">
        <ele>1272</ele>
        <time>2018-05-20T09:04:55.822Z</time>
      </trkpt>
      <trkpt lat="45.8954" lon="6.18768">
        <ele>1271</ele>
        <time>2018-05-20T09:04:58.822Z</time>
      </trkpt>
      <trkpt lat="45.89538" lon="6.1877">
        <ele>1271</ele>
        <time>2018-05-20T09:05:00.822Z</time>
      </trkpt>
      <trkpt lat="45.89535" lon="6.18771">
        <ele>1271</ele>
        <time>2018-05-20T09:05:02.822Z</time>
      </trkpt>
      <trkpt lat="45.89532" lon="6.18771">
        <ele>1271</ele>
        <time>2018-05-20T09:05:04.822Z</time>
      </trkpt>
      <trkpt lat="45.89529" lon="6.18771">
        <ele>1271</ele>
        <time>2018-05-20T09:05:06.822Z</time>
      </trkpt>
      <trkpt lat="45.89527" lon="6.18769">
        <ele>1271</ele>
        <time>2018-05-20T09:05:08.822Z</time>
      </trkpt>
      <trkpt lat="45.89525" lon="6.18768">
        <ele>1271</ele>
        <time>2018-05-20T09:05:10.822Z</time>
      </trkpt>
      <trkpt lat="45.89522" lon="6.18766">
        <ele>1272</ele>
        <time>2018-05-20T09:05:13.822Z</time>
      </trkpt>
      <trkpt lat="45.89521" lon="6.18766">
        <ele>1272.1020032</ele>
        <time>2018-05-20T09:05:15.822Z</time>
      </trkpt>
      <trkpt lat="45.89518" lon="6.18766">
        <ele>1273</ele>
        <time>2018-05-20T09:05:17.822Z</time>
      </trkpt>
      <trkpt lat="45.89515" lon="6.18767">
        <ele>1273</ele>
        <time>2018-05-20T09:05:19.822Z</time>
      </trkpt>
      <trkpt lat="45.89513" lon="6.18766">
        <ele>1273.1020032</ele>
        <time>2018-05-20T09:05:21.822Z</time>
      </trkpt>
      <trkpt lat="45.89511" lon="6.18765">
        <ele>1275</ele>
        <time>2018-05-20T09:05:24.822Z</time>
      </trkpt>
      <trkpt lat="45.89509" lon="6.18766">
        <ele>1274</ele>
        <time>2018-05-20T09:05:28.822Z</time>
      </trkpt>
      <trkpt lat="45.89508" lon="6.18768">
        <ele>1275</ele>
        <time>2018-05-20T09:05:32.822Z</time>
      </trkpt>
      <trkpt lat="45.89506" lon="6.18769">
        <ele>1274.0247731675</ele>
        <time>2018-05-20T09:05:36.822Z</time>
      </trkpt>
      <trkpt lat="45.89504" lon="6.18771">
        <ele>1274</ele>
        <time>2018-05-20T09:05:40.822Z</time>
      </trkpt>
      <trkpt lat="45.89501" lon="6.18772">
        <ele>1273</ele>
        <time>2018-05-20T09:05:43.822Z</time>
      </trkpt>
      <trkpt lat="45.89499" lon="6.18773">
        <ele>1272.8979968</ele>
        <time>2018-05-20T09:05:45.822Z</time>
      </trkpt>
      <trkpt lat="45.89498" lon="6.18773">
        <ele>1272</ele>
        <time>2018-05-20T09:05:48.822Z</time>
      </trkpt>
      <trkpt lat="45.89496" lon="6.18772">
        <ele>1271</ele>
        <time>2018-05-20T09:05:52.822Z</time>
      </trkpt>
      <trkpt lat="45.89494" lon="6.18774">
        <ele>1271</ele>
        <time>2018-05-20T09:05:56.822Z</time>
      </trkpt>
      <trkpt lat="45.89492" lon="6.18776">
        <ele>1269.8979968</ele>
        <time>2018-05-20T09:05:59.822Z</time>
      </trkpt>
      <trkpt lat="45.89491" lon="6.18779">
        <ele>1268</ele>
        <time>2018-05-20T09:06:02.822Z</time>
      </trkpt>
      <trkpt lat="45.89491" lon="6.18781">
        <ele>1266.9354133333</ele>
        <time>2018-05-20T09:06:05.822Z</time>
      </trkpt>
      <trkpt lat="45.8949" lon="6.18782">
        <ele>1265</ele>
        <time>2018-05-20T09:06:08.822Z</time>
      </trkpt>
      <trkpt lat="45.89489" lon="6.18785">
        <ele>1265</ele>
        <time>2018-05-20T09:06:11.822Z</time>
      </trkpt>
      <trkpt lat="45.89488" lon="6.18787">
        <ele>1264.9868062002</ele>
        <time>2018-05-20T09:06:13.822Z</time>
      </trkpt>
      <trkpt lat="45.89486" lon="6.18789">
        <ele>1262.9452566054</ele>
        <time>2018-05-20T09:06:16.822Z</time>
      </trkpt>
      <trkpt lat="45.89484" lon="6.18791">
        <ele>1261.9297662784</ele>
        <time>2018-05-20T09:06:19.822Z</time>
      </trkpt>
      <trkpt lat="45.89482" lon="6.18793">
        <ele>1259.8979968</ele>
        <time>2018-05-20T09:06:23.822Z</time>
      </trkpt>
      <trkpt lat="45.8948" lon="6.18795">
        <ele>1258</ele>
        <time>2018-05-20T09:06:26.822Z</time>
      </trkpt>
      <trkpt lat="45.89478" lon="6.18797">
        <ele>1257</ele>
        <time>2018-05-20T09:06:29.822Z</time>
      </trkpt>
      <trkpt lat="45.89476" lon="6.18799">
        <ele>1256</ele>
        <time>2018-05-20T09:06:31.822Z</time>
      </trkpt>
      <trkpt lat="45.89474" lon="6.18801">
        <ele>1255</ele>
        <time>2018-05-20T09:06:33.822Z</time>
      </trkpt>
      <trkpt lat="45.89471" lon="6.18802">
        <ele>1254</ele>
        <time>2018-05-20T09:06:35.822Z</time>
      </trkpt>
      <trkpt lat="45.89469" lon="6.18802">
        <ele>1254</ele>
        <time>2018-05-20T09:06:37.822Z</time>
      </trkpt>
      <trkpt lat="45.89466" lon="6.18802">
        <ele>1254</ele>
        <time>2018-05-20T09:06:39.822Z</time>
      </trkpt>
      <trkpt lat="45.89466" lon="6.18799">
        <ele>1255</ele>
        <time>2018-05-20T09:06:42.822Z</time>
      </trkpt>
      <trkpt lat="45.89467" lon="6.18797">
        <ele>1255</ele>
        <time>2018-05-20T09:06:49.822Z</time>
      </trkpt>
      <trkpt lat="45.89469" lon="6.18796">
        <ele>1254</ele>
        <time>2018-05-20T09:06:58.822Z</time>
      </trkpt>
      <trkpt lat="45.89471" lon="6.18794">
        <ele>1254.1020032</ele>
        <time>2018-05-20T09:07:08.822Z</time>
      </trkpt>
      <trkpt lat="45.89473" lon="6.18793">
        <ele>1254</ele>
        <time>2018-05-20T09:07:14.822Z</time>
      </trkpt>
      <trkpt lat="45.89474" lon="6.18795">
        <ele>1254</ele>
        <time>2018-05-20T09:07:18.822Z</time>
      </trkpt>
      <trkpt lat="45.89473" lon="6.18793">
        <ele>1254</ele>
        <time>2018-05-20T09:08:00.822Z</time>
      </trkpt>
      <trkpt lat="45.89474" lon="6.18795">
        <ele>1253</ele>
        <time>2018-05-20T09:08:18.822Z</time>
      </trkpt>
      <trkpt lat="45.89472" lon="6.18794">
        <ele>1254</ele>
        <time>2018-05-20T09:09:51.822Z</time>
      </trkpt>
      <trkpt lat="45.8947" lon="6.18792">
        <ele>1254</ele>
        <time>2018-05-20T09:09:54.822Z</time>
      </trkpt>
      <trkpt lat="45.89468" lon="6.18791">
        <ele>1254</ele>
        <time>2018-05-20T09:09:56.822Z</time>
      </trkpt>
      <trkpt lat="45.89466" lon="6.18789">
        <ele>1253</ele>
        <time>2018-05-20T09:09:58.822Z</time>
      </trkpt>
      <trkpt lat="45.89464" lon="6.18789">
        <ele>1253</ele>
        <time>2018-05-20T09:10:00.822Z</time>
      </trkpt>
      <trkpt lat="45.89461" lon="6.1879">
        <ele>1253</ele>
        <time>2018-05-20T09:10:02.822Z</time>
      </trkpt>
      <trkpt lat="45.89459" lon="6.18789">
        <ele>1253</ele>
        <time>2018-05-20T09:10:04.822Z</time>
      </trkpt>
      <trkpt lat="45.89457" lon="6.18787">
        <ele>1253</ele>
        <time>2018-05-20T09:10:06.822Z</time>
      </trkpt>
      <trkpt lat="45.89456" lon="6.1879">
        <ele>1253</ele>
        <time>2018-05-20T09:10:15.822Z</time>
      </trkpt>
      <trkpt lat="45.89454" lon="6.18792">
        <ele>1254.0022186824</ele>
        <time>2018-05-20T09:10:19.822Z</time>
      </trkpt>
      <trkpt lat="45.89453" lon="6.18794">
        <ele>1256</ele>
        <time>2018-05-20T09:10:23.822Z</time>
      </trkpt>
      <trkpt lat="45.89452" lon="6.18797">
        <ele>1257</ele>
        <time>2018-05-20T09:10:30.822Z</time>
      </trkpt>
      <trkpt lat="45.89452" lon="6.188">
        <ele>1257</ele>
        <time>2018-05-20T09:10:34.822Z</time>
      </trkpt>
      <trkpt lat="45.89451" lon="6.18803">
        <ele>1258</ele>
        <time>2018-05-20T09:10:37.822Z</time>
      </trkpt>
      <trkpt lat="45.89451" lon="6.18805">
        <ele>1258</ele>
        <time>2018-05-20T09:10:40.822Z</time>
      </trkpt>
      <trkpt lat="45.89449" lon="6.18807">
        <ele>1258</ele>
        <time>2018-05-20T09:10:44.822Z</time>
      </trkpt>
      <trkpt lat="45.89447" lon="6.18808">
        <ele>1258</ele>
        <time>2018-05-20T09:10:46.822Z</time>
      </trkpt>
      <trkpt lat="45.89445" lon="6.18809">
        <ele>1258</ele>
        <time>2018-05-20T09:10:48.822Z</time>
      </trkpt>
      <trkpt lat="45.89443" lon="6.1881">
        <ele>1258.0971462008</ele>
        <time>2018-05-20T09:10:51.822Z</time>
      </trkpt>
      <trkpt lat="45.89441" lon="6.18812">
        <ele>1260</ele>
        <time>2018-05-20T09:10:54.822Z</time>
      </trkpt>
      <trkpt lat="45.89439" lon="6.18813">
        <ele>1260</ele>
        <time>2018-05-20T09:10:56.822Z</time>
      </trkpt>
      <trkpt lat="45.89437" lon="6.18815">
        <ele>1260</ele>
        <time>2018-05-20T09:10:58.822Z</time>
      </trkpt>
      <trkpt lat="45.89435" lon="6.18816">
        <ele>1260</ele>
        <time>2018-05-20T09:11:00.822Z</time>
      </trkpt>
      <trkpt lat="45.89433" lon="6.18817">
        <ele>1259</ele>
        <time>2018-05-20T09:11:02.822Z</time>
      </trkpt>
      <trkpt lat="45.89431" lon="6.18817">
        <ele>1259</ele>
        <time>2018-05-20T09:11:04.822Z</time>
      </trkpt>
      <trkpt lat="45.89428" lon="6.18817">
        <ele>1259</ele>
        <time>2018-05-20T09:11:07.822Z</time>
      </trkpt>
      <trkpt lat="45.89426" lon="6.18817">
        <ele>1260</ele>
        <time>2018-05-20T09:11:09.822Z</time>
      </trkpt>
      <trkpt lat="45.89424" lon="6.18819">
        <ele>1260</ele>
        <time>2018-05-20T09:11:12.822Z</time>
      </trkpt>
      <trkpt lat="45.89422" lon="6.1882">
        <ele>1260</ele>
        <time>2018-05-20T09:11:14.822Z</time>
      </trkpt>
      <trkpt lat="45.8942" lon="6.18821">
        <ele>1260</ele>
        <time>2018-05-20T09:11:17.822Z</time>
      </trkpt>
      <trkpt lat="45.89418" lon="6.18822">
        <ele>1260</ele>
        <time>2018-05-20T09:11:21.822Z</time>
      </trkpt>
      <trkpt lat="45.89416" lon="6.18823">
        <ele>1260</ele>
        <time>2018-05-20T09:11:24.822Z</time>
      </trkpt>
      <trkpt lat="45.89413" lon="6.18824">
        <ele>1260</ele>
        <time>2018-05-20T09:11:27.822Z</time>
      </trkpt>
      <trkpt lat="45.89411" lon="6.18825">
        <ele>1259</ele>
        <time>2018-05-20T09:11:30.822Z</time>
      </trkpt>
      <trkpt lat="45.89409" lon="6.18827">
        <ele>1259</ele>
        <time>2018-05-20T09:11:33.822Z</time>
      </trkpt>
      <trkpt lat="45.89408" lon="6.1883">
        <ele>1258</ele>
        <time>2018-05-20T09:11:36.822Z</time>
      </trkpt>
      <trkpt lat="45.89406" lon="6.18832">
        <ele>1258</ele>
        <time>2018-05-20T09:11:38.822Z</time>
      </trkpt>
      <trkpt lat="45.89404" lon="6.18832">
        <ele>1258</ele>
        <time>2018-05-20T09:11:40.822Z</time>
      </trkpt>
      <trkpt lat="45.89402" lon="6.18834">
        <ele>1257</ele>
        <time>2018-05-20T09:11:42.822Z</time>
      </trkpt>
      <trkpt lat="45.89399" lon="6.18834">
        <ele>1257</ele>
        <time>2018-05-20T09:11:44.822Z</time>
      </trkpt>
      <trkpt lat="45.89397" lon="6.18835">
        <ele>1257</ele>
        <time>2018-05-20T09:11:46.822Z</time>
      </trkpt>
      <trkpt lat="45.89395" lon="6.18835">
        <ele>1257</ele>
        <time>2018-05-20T09:11:48.822Z</time>
      </trkpt>
      <trkpt lat="45.89394" lon="6.18837">
        <ele>1257</ele>
        <time>2018-05-20T09:11:51.822Z</time>
      </trkpt>
      <trkpt lat="45.89392" lon="6.18839">
        <ele>1255.9009680747</ele>
        <time>2018-05-20T09:11:54.822Z</time>
      </trkpt>
      <trkpt lat="45.89389" lon="6.18841">
        <ele>1255</ele>
        <time>2018-05-20T09:11:57.822Z</time>
      </trkpt>
      <trkpt lat="45.89387" lon="6.18841">
        <ele>1254</ele>
        <time>2018-05-20T09:12:00.822Z</time>
      </trkpt>
      <trkpt lat="45.89385" lon="6.18844">
        <ele>1254</ele>
        <time>2018-05-20T09:12:03.822Z</time>
      </trkpt>
      <trkpt lat="45.89383" lon="6.18845">
        <ele>1253</ele>
        <time>2018-05-20T09:12:05.822Z</time>
      </trkpt>
      <trkpt lat="45.89381" lon="6.18846">
        <ele>1253</ele>
        <time>2018-05-20T09:12:07.822Z</time>
      </trkpt>
      <trkpt lat="45.89379" lon="6.18847">
        <ele>1253.0929354572</ele>
        <time>2018-05-20T09:12:10.822Z</time>
      </trkpt>
      <trkpt lat="45.89377" lon="6.18848">
        <ele>1254</ele>
        <time>2018-05-20T09:12:13.822Z</time>
      </trkpt>
      <trkpt lat="45.89374" lon="6.18848">
        <ele>1253</ele>
        <time>2018-05-20T09:12:18.822Z</time>
      </trkpt>
      <trkpt lat="45.89372" lon="6.18849">
        <ele>1252</ele>
        <time>2018-05-20T09:12:20.822Z</time>
      </trkpt>
      <trkpt lat="45.8937" lon="6.18849">
        <ele>1252</ele>
        <time>2018-05-20T09:12:22.822Z</time>
      </trkpt>
      <trkpt lat="45.89368" lon="6.18852">
        <ele>1251</ele>
        <time>2018-05-20T09:12:26.822Z</time>
      </trkpt>
      <trkpt lat="45.89367" lon="6.18854">
        <ele>1250</ele>
        <time>2018-05-20T09:12:29.822Z</time>
      </trkpt>
      <trkpt lat="45.89365" lon="6.18856">
        <ele>1250</ele>
        <time>2018-05-20T09:12:32.822Z</time>
      </trkpt>
      <trkpt lat="45.89362" lon="6.18856">
        <ele>1249.0160685714</ele>
        <time>2018-05-20T09:12:34.822Z</time>
      </trkpt>
      <trkpt lat="45.8936" lon="6.18857">
        <ele>1249</ele>
        <time>2018-05-20T09:12:36.822Z</time>
      </trkpt>
      <trkpt lat="45.89357" lon="6.18858">
        <ele>1249</ele>
        <time>2018-05-20T09:12:38.822Z</time>
      </trkpt>
      <trkpt lat="45.89354" lon="6.18859">
        <ele>1249</ele>
        <time>2018-05-20T09:12:40.822Z</time>
      </trkpt>
      <trkpt lat="45.89352" lon="6.18859">
        <ele>1249</ele>
        <time>2018-05-20T09:12:42.822Z</time>
      </trkpt>
      <trkpt lat="45.8935" lon="6.18859">
        <ele>1249</ele>
        <time>2018-05-20T09:12:44.822Z</time>
      </trkpt>
      <trkpt lat="45.89347" lon="6.18859">
        <ele>1250</ele>
        <time>2018-05-20T09:12:47.822Z</time>
      </trkpt>
      <trkpt lat="45.89345" lon="6.1886">
        <ele>1250</ele>
        <time>2018-05-20T09:12:49.822Z</time>
      </trkpt>
      <trkpt lat="45.89343" lon="6.18861">
        <ele>1250</ele>
        <time>2018-05-20T09:12:51.822Z</time>
      </trkpt>
      <trkpt lat="45.8934" lon="6.18862">
        <ele>1250</ele>
        <time>2018-05-20T09:12:54.822Z</time>
      </trkpt>
      <trkpt lat="45.89338" lon="6.18863">
        <ele>1250</ele>
        <time>2018-05-20T09:12:57.822Z</time>
      </trkpt>
      <trkpt lat="45.89336" lon="6.18865">
        <ele>1250</ele>
        <time>2018-05-20T09:13:00.822Z</time>
      </trkpt>
      <trkpt lat="45.89334" lon="6.18866">
        <ele>1249</ele>
        <time>2018-05-20T09:13:22.822Z</time>
      </trkpt>
      <trkpt lat="45.89332" lon="6.18867">
        <ele>1249</ele>
        <time>2018-05-20T09:13:24.822Z</time>
      </trkpt>
      <trkpt lat="45.8933" lon="6.18867">
        <ele>1249</ele>
        <time>2018-05-20T09:13:26.822Z</time>
      </trkpt>
      <trkpt lat="45.89328" lon="6.18867">
        <ele>1250</ele>
        <time>2018-05-20T09:13:28.822Z</time>
      </trkpt>
      <trkpt lat="45.89325" lon="6.18867">
        <ele>1250</ele>
        <time>2018-05-20T09:13:31.822Z</time>
      </trkpt>
      <trkpt lat="45.89323" lon="6.18868">
        <ele>1250</ele>
        <time>2018-05-20T09:13:34.822Z</time>
      </trkpt>
      <trkpt lat="45.89321" lon="6.1887">
        <ele>1250</ele>
        <time>2018-05-20T09:13:36.822Z</time>
      </trkpt>
      <trkpt lat="45.89319" lon="6.18871">
        <ele>1250</ele>
        <time>2018-05-20T09:13:38.822Z</time>
      </trkpt>
      <trkpt lat="45.89316" lon="6.18872">
        <ele>1249.8979968</ele>
        <time>2018-05-20T09:13:40.822Z</time>
      </trkpt>
      <trkpt lat="45.89315" lon="6.18873">
        <ele>1249</ele>
        <time>2018-05-20T09:13:42.822Z</time>
      </trkpt>
      <trkpt lat="45.89313" lon="6.18874">
        <ele>1249</ele>
        <time>2018-05-20T09:13:44.822Z</time>
      </trkpt>
      <trkpt lat="45.89311" lon="6.18876">
        <ele>1249</ele>
        <time>2018-05-20T09:13:46.822Z</time>
      </trkpt>
      <trkpt lat="45.89309" lon="6.18878">
        <ele>1248</ele>
        <time>2018-05-20T09:13:49.822Z</time>
      </trkpt>
      <trkpt lat="45.89307" lon="6.18879">
        <ele>1247</ele>
        <time>2018-05-20T09:13:55.822Z</time>
      </trkpt>
      <trkpt lat="45.89305" lon="6.18881">
        <ele>1247</ele>
        <time>2018-05-20T09:13:58.822Z</time>
      </trkpt>
      <trkpt lat="45.89303" lon="6.18883">
        <ele>1247</ele>
        <time>2018-05-20T09:14:00.822Z</time>
      </trkpt>
      <trkpt lat="45.89301" lon="6.18884">
        <ele>1247</ele>
        <time>2018-05-20T09:14:02.822Z</time>
      </trkpt>
      <trkpt lat="45.89299" lon="6.18885">
        <ele>1247</ele>
        <time>2018-05-20T09:14:04.822Z</time>
      </trkpt>
      <trkpt lat="45.89297" lon="6.18887">
        <ele>1247</ele>
        <time>2018-05-20T09:14:06.822Z</time>
      </trkpt>
      <trkpt lat="45.89295" lon="6.18889">
        <ele>1247</ele>
        <time>2018-05-20T09:14:08.822Z</time>
      </trkpt>
      <trkpt lat="45.89294" lon="6.1889">
        <ele>1248</ele>
        <time>2018-05-20T09:14:10.822Z</time>
      </trkpt>
      <trkpt lat="45.89292" lon="6.18892">
        <ele>1248</ele>
        <time>2018-05-20T09:14:15.822Z</time>
      </trkpt>
      <trkpt lat="45.89289" lon="6.18894">
        <ele>1248</ele>
        <time>2018-05-20T09:14:17.822Z</time>
      </trkpt>
      <trkpt lat="45.89287" lon="6.18895">
        <ele>1249</ele>
        <time>2018-05-20T09:14:19.822Z</time>
      </trkpt>
      <trkpt lat="45.89285" lon="6.18895">
        <ele>1249</ele>
        <time>2018-05-20T09:14:21.822Z</time>
      </trkpt>
      <trkpt lat="45.89282" lon="6.18896">
        <ele>1249.1020032</ele>
        <time>2018-05-20T09:14:24.822Z</time>
      </trkpt>
      <trkpt lat="45.8928" lon="6.18897">
        <ele>1250</ele>
        <time>2018-05-20T09:14:26.822Z</time>
      </trkpt>
      <trkpt lat="45.89278" lon="6.18897">
        <ele>1250</ele>
        <time>2018-05-20T09:14:28.822Z</time>
      </trkpt>
      <trkpt lat="45.89276" lon="6.18898">
        <ele>1250</ele>
        <time>2018-05-20T09:14:30.822Z</time>
      </trkpt>
      <trkpt lat="45.89274" lon="6.18899">
        <ele>1251</ele>
        <time>2018-05-20T09:14:32.822Z</time>
      </trkpt>
      <trkpt lat="45.89272" lon="6.18898">
        <ele>1251.76528</ele>
        <time>2018-05-20T09:14:34.822Z</time>
      </trkpt>
      <trkpt lat="45.8927" lon="6.18901">
        <ele>1252</ele>
        <time>2018-05-20T09:14:39.822Z</time>
      </trkpt>
      <trkpt lat="45.89269" lon="6.18902">
        <ele>1254.0894769936</ele>
        <time>2018-05-20T09:14:44.822Z</time>
      </trkpt>
      <trkpt lat="45.89267" lon="6.18903">
        <ele>1255</ele>
        <time>2018-05-20T09:14:48.822Z</time>
      </trkpt>
      <trkpt lat="45.89264" lon="6.18902">
        <ele>1255.0446907595</ele>
        <time>2018-05-20T09:14:51.822Z</time>
      </trkpt>
      <trkpt lat="45.89262" lon="6.18902">
        <ele>1256</ele>
        <time>2018-05-20T09:14:55.822Z</time>
      </trkpt>
      <trkpt lat="45.8926" lon="6.18902">
        <ele>1256</ele>
        <time>2018-05-20T09:14:58.822Z</time>
      </trkpt>
      <trkpt lat="45.89257" lon="6.18903">
        <ele>1256</ele>
        <time>2018-05-20T09:15:01.822Z</time>
      </trkpt>
      <trkpt lat="45.89255" lon="6.18903">
        <ele>1257</ele>
        <time>2018-05-20T09:15:06.822Z</time>
      </trkpt>
      <trkpt lat="45.89253" lon="6.18903">
        <ele>1257</ele>
        <time>2018-05-20T09:15:09.822Z</time>
      </trkpt>
      <trkpt lat="45.89251" lon="6.18903">
        <ele>1257</ele>
        <time>2018-05-20T09:15:12.822Z</time>
      </trkpt>
      <trkpt lat="45.89249" lon="6.18903">
        <ele>1257</ele>
        <time>2018-05-20T09:15:14.822Z</time>
      </trkpt>
      <trkpt lat="45.89246" lon="6.18903">
        <ele>1258</ele>
        <time>2018-05-20T09:15:17.822Z</time>
      </trkpt>
      <trkpt lat="45.89244" lon="6.18904">
        <ele>1258</ele>
        <time>2018-05-20T09:15:19.822Z</time>
      </trkpt>
      <trkpt lat="45.89242" lon="6.18904">
        <ele>1259</ele>
        <time>2018-05-20T09:15:22.822Z</time>
      </trkpt>
      <trkpt lat="45.89239" lon="6.18905">
        <ele>1259</ele>
        <time>2018-05-20T09:15:25.822Z</time>
      </trkpt>
      <trkpt lat="45.89237" lon="6.18905">
        <ele>1260.096230015</ele>
        <time>2018-05-20T09:15:28.822Z</time>
      </trkpt>
      <trkpt lat="45.89234" lon="6.18904">
        <ele>1261</ele>
        <time>2018-05-20T09:15:31.822Z</time>
      </trkpt>
      <trkpt lat="45.89233" lon="6.18904">
        <ele>1259</ele>
        <time>2018-05-20T09:15:46.822Z</time>
      </trkpt>
      <trkpt lat="45.89234" lon="6.18907">
        <ele>1260</ele>
        <time>2018-05-20T09:16:09.822Z</time>
      </trkpt>
      <trkpt lat="45.89233" lon="6.1891">
        <ele>1260</ele>
        <time>2018-05-20T09:16:12.822Z</time>
      </trkpt>
      <trkpt lat="45.89232" lon="6.18913">
        <ele>1260</ele>
        <time>2018-05-20T09:16:15.822Z</time>
      </trkpt>
      <trkpt lat="45.8923" lon="6.18915">
        <ele>1260</ele>
        <time>2018-05-20T09:16:17.822Z</time>
      </trkpt>
      <trkpt lat="45.89228" lon="6.18916">
        <ele>1260</ele>
        <time>2018-05-20T09:16:20.822Z</time>
      </trkpt>
      <trkpt lat="45.89226" lon="6.18917">
        <ele>1260</ele>
        <time>2018-05-20T09:16:22.822Z</time>
      </trkpt>
      <trkpt lat="45.89224" lon="6.18918">
        <ele>1260</ele>
        <time>2018-05-20T09:16:24.822Z</time>
      </trkpt>
      <trkpt lat="45.89222" lon="6.18919">
        <ele>1260</ele>
        <time>2018-05-20T09:16:26.822Z</time>
      </trkpt>
      <trkpt lat="45.8922" lon="6.18921">
        <ele>1260</ele>
        <time>2018-05-20T09:16:28.822Z</time>
      </trkpt>
      <trkpt lat="45.89218" lon="6.18922">
        <ele>1260</ele>
        <time>2018-05-20T09:16:30.822Z</time>
      </trkpt>
      <trkpt lat="45.89216" lon="6.18924">
        <ele>1260</ele>
        <time>2018-05-20T09:16:33.822Z</time>
      </trkpt>
      <trkpt lat="45.89214" lon="6.18926">
        <ele>1260</ele>
        <time>2018-05-20T09:16:36.822Z</time>
      </trkpt>
      <trkpt lat="45.89212" lon="6.18928">
        <ele>1260</ele>
        <time>2018-05-20T09:16:39.822Z</time>
      </trkpt>
      <trkpt lat="45.8921" lon="6.18929">
        <ele>1261</ele>
        <time>2018-05-20T09:16:53.822Z</time>
      </trkpt>
      <trkpt lat="45.89208" lon="6.18929">
        <ele>1261</ele>
        <time>2018-05-20T09:16:57.822Z</time>
      </trkpt>
      <trkpt lat="45.89206" lon="6.1893">
        <ele>1261</ele>
        <time>2018-05-20T09:17:00.822Z</time>
      </trkpt>
      <trkpt lat="45.89204" lon="6.18932">
        <ele>1261</ele>
        <time>2018-05-20T09:17:03.822Z</time>
      </trkpt>
      <trkpt lat="45.89204" lon="6.18935">
        <ele>1260</ele>
        <time>2018-05-20T09:17:07.822Z</time>
      </trkpt>
      <trkpt lat="45.89203" lon="6.18937">
        <ele>1261</ele>
        <time>2018-05-20T09:17:20.822Z</time>
      </trkpt>
      <trkpt lat="45.89203" lon="6.18935">
        <ele>1260</ele>
        <time>2018-05-20T09:17:54.822Z</time>
      </trkpt>
      <trkpt lat="45.89201" lon="6.18933">
        <ele>1259</ele>
        <time>2018-05-20T09:17:58.822Z</time>
      </trkpt>
      <trkpt lat="45.892" lon="6.18931">
        <ele>1259</ele>
        <time>2018-05-20T09:18:06.822Z</time>
      </trkpt>
      <trkpt lat="45.892" lon="6.18928">
        <ele>1259</ele>
        <time>2018-05-20T09:18:09.822Z</time>
      </trkpt>
      <trkpt lat="45.89198" lon="6.18926">
        <ele>1259</ele>
        <time>2018-05-20T09:18:21.822Z</time>
      </trkpt>
      <trkpt lat="45.89197" lon="6.18924">
        <ele>1259</ele>
        <time>2018-05-20T09:18:24.822Z</time>
      </trkpt>
      <trkpt lat="45.89196" lon="6.18922">
        <ele>1259</ele>
        <time>2018-05-20T09:18:28.822Z</time>
      </trkpt>
      <trkpt lat="45.89194" lon="6.18922">
        <ele>1259</ele>
        <time>2018-05-20T09:18:44.822Z</time>
      </trkpt>
      <trkpt lat="45.89192" lon="6.18921">
        <ele>1259</ele>
        <time>2018-05-20T09:18:46.822Z</time>
      </trkpt>
      <trkpt lat="45.8919" lon="6.18919">
        <ele>1259</ele>
        <time>2018-05-20T09:18:49.822Z</time>
      </trkpt>
      <trkpt lat="45.89188" lon="6.18918">
        <ele>1259</ele>
        <time>2018-05-20T09:18:52.822Z</time>
      </trkpt>
      <trkpt lat="45.89186" lon="6.18916">
        <ele>1259</ele>
        <time>2018-05-20T09:18:55.822Z</time>
      </trkpt>
      <trkpt lat="45.89188" lon="6.18918">
        <ele>1259</ele>
        <time>2018-05-20T09:20:20.822Z</time>
      </trkpt>
      <trkpt lat="45.8919" lon="6.1892">
        <ele>1259</ele>
        <time>2018-05-20T09:20:23.822Z</time>
      </trkpt>
      <trkpt lat="45.89192" lon="6.18923">
        <ele>1259</ele>
        <time>2018-05-20T09:20:26.822Z</time>
      </trkpt>
      <trkpt lat="45.89193" lon="6.18925">
        <ele>1259</ele>
        <time>2018-05-20T09:20:28.822Z</time>
      </trkpt>
      <trkpt lat="45.89192" lon="6.18928">
        <ele>1259.1020032</ele>
        <time>2018-05-20T09:20:31.822Z</time>
      </trkpt>
      <trkpt lat="45.89189" lon="6.18927">
        <ele>1260</ele>
        <time>2018-05-20T09:20:34.822Z</time>
      </trkpt>
      <trkpt lat="45.89187" lon="6.18928">
        <ele>1260</ele>
        <time>2018-05-20T09:20:46.822Z</time>
      </trkpt>
      <trkpt lat="45.89186" lon="6.1893">
        <ele>1260</ele>
        <time>2018-05-20T09:20:49.822Z</time>
      </trkpt>
      <trkpt lat="45.89185" lon="6.18932">
        <ele>1260</ele>
        <time>2018-05-20T09:20:51.822Z</time>
      </trkpt>
      <trkpt lat="45.89183" lon="6.18934">
        <ele>1260</ele>
        <time>2018-05-20T09:20:53.822Z</time>
      </trkpt>
      <trkpt lat="45.89181" lon="6.18935">
        <ele>1260</ele>
        <time>2018-05-20T09:20:55.822Z</time>
      </trkpt>
      <trkpt lat="45.89179" lon="6.18937">
        <ele>1260</ele>
        <time>2018-05-20T09:20:57.822Z</time>
      </trkpt>
      <trkpt lat="45.89177" lon="6.18937">
        <ele>1260</ele>
        <time>2018-05-20T09:20:59.822Z</time>
      </trkpt>
      <trkpt lat="45.89175" lon="6.18935">
        <ele>1260</ele>
        <time>2018-05-20T09:21:02.822Z</time>
      </trkpt>
      <trkpt lat="45.89173" lon="6.18934">
        <ele>1260</ele>
        <time>2018-05-20T09:21:04.822Z</time>
      </trkpt>
      <trkpt lat="45.89171" lon="6.18933">
        <ele>1260</ele>
        <time>2018-05-20T09:21:06.822Z</time>
      </trkpt>
      <trkpt lat="45.89169" lon="6.18933">
        <ele>1260</ele>
        <time>2018-05-20T09:21:08.822Z</time>
      </trkpt>
      <trkpt lat="45.89167" lon="6.18933">
        <ele>1260</ele>
        <time>2018-05-20T09:21:10.822Z</time>
      </trkpt>
      <trkpt lat="45.89165" lon="6.18934">
        <ele>1260</ele>
        <time>2018-05-20T09:21:12.822Z</time>
      </trkpt>
      <trkpt lat="45.89162" lon="6.18935">
        <ele>1260</ele>
        <time>2018-05-20T09:21:15.822Z</time>
      </trkpt>
      <trkpt lat="45.8916" lon="6.18937">
        <ele>1260</ele>
        <time>2018-05-20T09:21:18.822Z</time>
      </trkpt>
      <trkpt lat="45.89158" lon="6.18938">
        <ele>1260</ele>
        <time>2018-05-20T09:21:28.822Z</time>
      </trkpt>
      <trkpt lat="45.89156" lon="6.18938">
        <ele>1259</ele>
        <time>2018-05-20T09:21:51.822Z</time>
      </trkpt>
      <trkpt lat="45.89154" lon="6.1894">
        <ele>1259</ele>
        <time>2018-05-20T09:21:57.822Z</time>
      </trkpt>
      <trkpt lat="45.89153" lon="6.18941">
        <ele>1259</ele>
        <time>2018-05-20T09:21:59.822Z</time>
      </trkpt>
      <trkpt lat="45.89151" lon="6.18942">
        <ele>1258</ele>
        <time>2018-05-20T09:22:01.822Z</time>
      </trkpt>
      <trkpt lat="45.89149" lon="6.18942">
        <ele>1258</ele>
        <time>2018-05-20T09:22:05.822Z</time>
      </trkpt>
      <trkpt lat="45.89147" lon="6.18944">
        <ele>1257.9009680747</ele>
        <time>2018-05-20T09:22:07.822Z</time>
      </trkpt>
      <trkpt lat="45.89145" lon="6.18945">
        <ele>1256.922135152</ele>
        <time>2018-05-20T09:22:09.822Z</time>
      </trkpt>
      <trkpt lat="45.89143" lon="6.18947">
        <ele>1256</ele>
        <time>2018-05-20T09:22:11.822Z</time>
      </trkpt>
      <trkpt lat="45.89142" lon="6.18949">
        <ele>1255.90192</ele>
        <time>2018-05-20T09:22:13.822Z</time>
      </trkpt>
      <trkpt lat="45.89141" lon="6.18951">
        <ele>1254</ele>
        <time>2018-05-20T09:22:15.822Z</time>
      </trkpt>
      <trkpt lat="45.89139" lon="6.18954">
        <ele>1254</ele>
        <time>2018-05-20T09:22:18.822Z</time>
      </trkpt>
      <trkpt lat="45.89137" lon="6.18956">
        <ele>1253</ele>
        <time>2018-05-20T09:22:21.822Z</time>
      </trkpt>
      <trkpt lat="45.89135" lon="6.18957">
        <ele>1251.8979968</ele>
        <time>2018-05-20T09:22:23.822Z</time>
      </trkpt>
      <trkpt lat="45.89134" lon="6.1896">
        <ele>1251</ele>
        <time>2018-05-20T09:22:26.822Z</time>
      </trkpt>
      <trkpt lat="45.89132" lon="6.18962">
        <ele>1250.1625</ele>
        <time>2018-05-20T09:22:29.822Z</time>
      </trkpt>
      <trkpt lat="45.8913" lon="6.18961">
        <ele>1250</ele>
        <time>2018-05-20T09:22:32.822Z</time>
      </trkpt>
      <trkpt lat="45.8913" lon="6.18958">
        <ele>1250</ele>
        <time>2018-05-20T09:22:35.822Z</time>
      </trkpt>
      <trkpt lat="45.89131" lon="6.18955">
        <ele>1250</ele>
        <time>2018-05-20T09:22:37.822Z</time>
      </trkpt>
      <trkpt lat="45.89131" lon="6.18952">
        <ele>1250</ele>
        <time>2018-05-20T09:22:39.822Z</time>
      </trkpt>
      <trkpt lat="45.89131" lon="6.18948">
        <ele>1249</ele>
        <time>2018-05-20T09:22:42.822Z</time>
      </trkpt>
      <trkpt lat="45.89131" lon="6.18945">
        <ele>1249</ele>
        <time>2018-05-20T09:22:44.822Z</time>
      </trkpt>
      <trkpt lat="45.89129" lon="6.18944">
        <ele>1248</ele>
        <time>2018-05-20T09:22:50.822Z</time>
      </trkpt>
      <trkpt lat="45.89127" lon="6.18944">
        <ele>1248</ele>
        <time>2018-05-20T09:22:53.822Z</time>
      </trkpt>
      <trkpt lat="45.89125" lon="6.18945">
        <ele>1248</ele>
        <time>2018-05-20T09:22:56.822Z</time>
      </trkpt>
      <trkpt lat="45.89123" lon="6.18946">
        <ele>1246.8979968</ele>
        <time>2018-05-20T09:22:58.822Z</time>
      </trkpt>
      <trkpt lat="45.8912" lon="6.18948">
        <ele>1246</ele>
        <time>2018-05-20T09:23:00.822Z</time>
      </trkpt>
      <trkpt lat="45.89118" lon="6.18949">
        <ele>1246</ele>
        <time>2018-05-20T09:23:02.822Z</time>
      </trkpt>
      <trkpt lat="45.89116" lon="6.1895">
        <ele>1246</ele>
        <time>2018-05-20T09:23:04.822Z</time>
      </trkpt>
      <trkpt lat="45.89114" lon="6.18952">
        <ele>1245</ele>
        <time>2018-05-20T09:23:06.822Z</time>
      </trkpt>
      <trkpt lat="45.89112" lon="6.18953">
        <ele>1245</ele>
        <time>2018-05-20T09:23:08.822Z</time>
      </trkpt>
      <trkpt lat="45.8911" lon="6.18954">
        <ele>1244.9009680747</ele>
        <time>2018-05-20T09:23:10.822Z</time>
      </trkpt>
      <trkpt lat="45.89108" lon="6.18955">
        <ele>1244.09808</ele>
        <time>2018-05-20T09:23:13.822Z</time>
      </trkpt>
      <trkpt lat="45.89106" lon="6.18955">
        <ele>1245</ele>
        <time>2018-05-20T09:23:16.822Z</time>
      </trkpt>
      <trkpt lat="45.89104" lon="6.18956">
        <ele>1244</ele>
        <time>2018-05-20T09:23:51.822Z</time>
      </trkpt>
      <trkpt lat="45.89102" lon="6.18957">
        <ele>1244</ele>
        <time>2018-05-20T09:23:54.822Z</time>
      </trkpt>
      <trkpt lat="45.89101" lon="6.18959">
        <ele>1243.9072692787</ele>
        <time>2018-05-20T09:23:57.822Z</time>
      </trkpt>
      <trkpt lat="45.89099" lon="6.18961">
        <ele>1242.8979968</ele>
        <time>2018-05-20T09:23:59.822Z</time>
      </trkpt>
      <trkpt lat="45.89097" lon="6.18964">
        <ele>1241</ele>
        <time>2018-05-20T09:24:02.822Z</time>
      </trkpt>
      <trkpt lat="45.89096" lon="6.18966">
        <ele>1240.1776056244</ele>
        <time>2018-05-20T09:24:04.822Z</time>
      </trkpt>
      <trkpt lat="45.89095" lon="6.18969">
        <ele>1238</ele>
        <time>2018-05-20T09:24:07.822Z</time>
      </trkpt>
      <trkpt lat="45.89094" lon="6.18966">
        <ele>1236</ele>
        <time>2018-05-20T09:24:12.822Z</time>
      </trkpt>
      <trkpt lat="45.89094" lon="6.18969">
        <ele>1235.0247731675</ele>
        <time>2018-05-20T09:24:18.822Z</time>
      </trkpt>
      <trkpt lat="45.89094" lon="6.18972">
        <ele>1235</ele>
        <time>2018-05-20T09:24:22.822Z</time>
      </trkpt>
      <trkpt lat="45.89094" lon="6.18975">
        <ele>1234</ele>
        <time>2018-05-20T09:24:28.822Z</time>
      </trkpt>
      <trkpt lat="45.89092" lon="6.18978">
        <ele>1233</ele>
        <time>2018-05-20T09:24:31.822Z</time>
      </trkpt>
      <trkpt lat="45.89092" lon="6.18981">
        <ele>1232</ele>
        <time>2018-05-20T09:24:34.822Z</time>
      </trkpt>
      <trkpt lat="45.8909" lon="6.18984">
        <ele>1231</ele>
        <time>2018-05-20T09:24:49.822Z</time>
      </trkpt>
      <trkpt lat="45.89089" lon="6.18986">
        <ele>1230</ele>
        <time>2018-05-20T09:25:01.822Z</time>
      </trkpt>
      <trkpt lat="45.89088" lon="6.18989">
        <ele>1228.9070645428</ele>
        <time>2018-05-20T09:25:04.822Z</time>
      </trkpt>
      <trkpt lat="45.89087" lon="6.18992">
        <ele>1228</ele>
        <time>2018-05-20T09:25:08.822Z</time>
      </trkpt>
      <trkpt lat="45.89085" lon="6.18995">
        <ele>1228</ele>
        <time>2018-05-20T09:26:45.822Z</time>
      </trkpt>
      <trkpt lat="45.89084" lon="6.18997">
        <ele>1227</ele>
        <time>2018-05-20T09:26:47.822Z</time>
      </trkpt>
      <trkpt lat="45.89083" lon="6.18999">
        <ele>1227</ele>
        <time>2018-05-20T09:26:50.822Z</time>
      </trkpt>
      <trkpt lat="45.8908" lon="6.19">
        <ele>1225</ele>
        <time>2018-05-20T09:26:53.822Z</time>
      </trkpt>
      <trkpt lat="45.89079" lon="6.19003">
        <ele>1224</ele>
        <time>2018-05-20T09:26:57.822Z</time>
      </trkpt>
      <trkpt lat="45.89078" lon="6.19005">
        <ele>1223</ele>
        <time>2018-05-20T09:26:59.822Z</time>
      </trkpt>
      <trkpt lat="45.89077" lon="6.19008">
        <ele>1223</ele>
        <time>2018-05-20T09:27:02.822Z</time>
      </trkpt>
      <trkpt lat="45.89078" lon="6.1901">
        <ele>1222</ele>
        <time>2018-05-20T09:27:11.822Z</time>
      </trkpt>
      <trkpt lat="45.89079" lon="6.19014">
        <ele>1222</ele>
        <time>2018-05-20T09:27:14.822Z</time>
      </trkpt>
      <trkpt lat="45.89079" lon="6.19017">
        <ele>1220.8019361493</ele>
        <time>2018-05-20T09:27:16.822Z</time>
      </trkpt>
      <trkpt lat="45.89081" lon="6.1902">
        <ele>1219</ele>
        <time>2018-05-20T09:27:19.822Z</time>
      </trkpt>
      <trkpt lat="45.89081" lon="6.19023">
        <ele>1218</ele>
        <time>2018-05-20T09:27:22.822Z</time>
      </trkpt>
      <trkpt lat="45.89079" lon="6.19023">
        <ele>1218</ele>
        <time>2018-05-20T09:27:24.822Z</time>
      </trkpt>
      <trkpt lat="45.89077" lon="6.19025">
        <ele>1217.9097314258</ele>
        <time>2018-05-20T09:27:27.822Z</time>
      </trkpt>
      <trkpt lat="45.89075" lon="6.19026">
        <ele>1217</ele>
        <time>2018-05-20T09:27:30.822Z</time>
      </trkpt>
      <trkpt lat="45.89073" lon="6.19023">
        <ele>1216</ele>
        <time>2018-05-20T09:27:34.822Z</time>
      </trkpt>
      <trkpt lat="45.89072" lon="6.19026">
        <ele>1214.8979968</ele>
        <time>2018-05-20T09:27:39.822Z</time>
      </trkpt>
      <trkpt lat="45.89071" lon="6.19028">
        <ele>1213.9070645428</ele>
        <time>2018-05-20T09:27:41.822Z</time>
      </trkpt>
      <trkpt lat="45.89069" lon="6.19031">
        <ele>1212</ele>
        <time>2018-05-20T09:27:44.822Z</time>
      </trkpt>
      <trkpt lat="45.89068" lon="6.19033">
        <ele>1212</ele>
        <time>2018-05-20T09:27:47.822Z</time>
      </trkpt>
      <trkpt lat="45.89066" lon="6.19035">
        <ele>1211</ele>
        <time>2018-05-20T09:27:50.822Z</time>
      </trkpt>
      <trkpt lat="45.89064" lon="6.19035">
        <ele>1210</ele>
        <time>2018-05-20T09:27:53.822Z</time>
      </trkpt>
      <trkpt lat="45.89062" lon="6.19035">
        <ele>1208</ele>
        <time>2018-05-20T09:27:57.822Z</time>
      </trkpt>
      <trkpt lat="45.8906" lon="6.19035">
        <ele>1208</ele>
        <time>2018-05-20T09:28:00.822Z</time>
      </trkpt>
      <trkpt lat="45.89059" lon="6.19032">
        <ele>1207.9163292495</ele>
        <time>2018-05-20T09:28:03.822Z</time>
      </trkpt>
      <trkpt lat="45.89058" lon="6.19029">
        <ele>1206</ele>
        <time>2018-05-20T09:28:06.822Z</time>
      </trkpt>
      <trkpt lat="45.89057" lon="6.19027">
        <ele>1205</ele>
        <time>2018-05-20T09:28:09.822Z</time>
      </trkpt>
      <trkpt lat="45.89057" lon="6.1903">
        <ele>1204</ele>
        <time>2018-05-20T09:28:52.822Z</time>
      </trkpt>
      <trkpt lat="45.89055" lon="6.19032">
        <ele>1204</ele>
        <time>2018-05-20T09:28:56.822Z</time>
      </trkpt>
      <trkpt lat="45.89055" lon="6.19035">
        <ele>1203.8979968</ele>
        <time>2018-05-20T09:28:58.822Z</time>
      </trkpt>
      <trkpt lat="45.89055" lon="6.19038">
        <ele>1202</ele>
        <time>2018-05-20T09:29:01.822Z</time>
      </trkpt>
      <trkpt lat="45.89054" lon="6.1904">
        <ele>1201</ele>
        <time>2018-05-20T09:29:06.822Z</time>
      </trkpt>
      <trkpt lat="45.89055" lon="6.19043">
        <ele>1201</ele>
        <time>2018-05-20T09:29:11.822Z</time>
      </trkpt>
      <trkpt lat="45.89056" lon="6.19046">
        <ele>1200</ele>
        <time>2018-05-20T09:29:15.822Z</time>
      </trkpt>
      <trkpt lat="45.89055" lon="6.19049">
        <ele>1199</ele>
        <time>2018-05-20T09:29:19.822Z</time>
      </trkpt>
      <trkpt lat="45.89057" lon="6.19051">
        <ele>1198</ele>
        <time>2018-05-20T09:29:34.822Z</time>
      </trkpt>
      <trkpt lat="45.89058" lon="6.19054">
        <ele>1197.9055525926</ele>
        <time>2018-05-20T09:29:37.822Z</time>
      </trkpt>
      <trkpt lat="45.89058" lon="6.19057">
        <ele>1197</ele>
        <time>2018-05-20T09:29:39.822Z</time>
      </trkpt>
      <trkpt lat="45.89057" lon="6.19059">
        <ele>1196</ele>
        <time>2018-05-20T09:29:41.822Z</time>
      </trkpt>
      <trkpt lat="45.89056" lon="6.19062">
        <ele>1196</ele>
        <time>2018-05-20T09:29:44.822Z</time>
      </trkpt>
      <trkpt lat="45.89058" lon="6.19064">
        <ele>1195</ele>
        <time>2018-05-20T09:29:48.822Z</time>
      </trkpt>
      <trkpt lat="45.8906" lon="6.19063">
        <ele>1195</ele>
        <time>2018-05-20T09:29:50.822Z</time>
      </trkpt>
      <trkpt lat="45.89062" lon="6.19062">
        <ele>1195</ele>
        <time>2018-05-20T09:29:52.822Z</time>
      </trkpt>
      <trkpt lat="45.89064" lon="6.19062">
        <ele>1195</ele>
        <time>2018-05-20T09:29:55.822Z</time>
      </trkpt>
      <trkpt lat="45.89065" lon="6.19065">
        <ele>1194.0333250994</ele>
        <time>2018-05-20T09:29:57.822Z</time>
      </trkpt>
      <trkpt lat="45.89064" lon="6.19068">
        <ele>1193</ele>
        <time>2018-05-20T09:30:00.822Z</time>
      </trkpt>
      <trkpt lat="45.89065" lon="6.19072">
        <ele>1192</ele>
        <time>2018-05-20T09:30:03.822Z</time>
      </trkpt>
      <trkpt lat="45.89066" lon="6.19074">
        <ele>1192</ele>
        <time>2018-05-20T09:30:05.822Z</time>
      </trkpt>
      <trkpt lat="45.89069" lon="6.19075">
        <ele>1191</ele>
        <time>2018-05-20T09:30:08.822Z</time>
      </trkpt>
      <trkpt lat="45.89071" lon="6.19077">
        <ele>1189</ele>
        <time>2018-05-20T09:30:11.822Z</time>
      </trkpt>
      <trkpt lat="45.89073" lon="6.19078">
        <ele>1188.9070645428</ele>
        <time>2018-05-20T09:30:14.822Z</time>
      </trkpt>
      <trkpt lat="45.89076" lon="6.19077">
        <ele>1187.0160685714</ele>
        <time>2018-05-20T09:30:16.822Z</time>
      </trkpt>
      <trkpt lat="45.89078" lon="6.19079">
        <ele>1186.9064188078</ele>
        <time>2018-05-20T09:30:18.822Z</time>
      </trkpt>
      <trkpt lat="45.8908" lon="6.19079">
        <ele>1185.9452566054</ele>
        <time>2018-05-20T09:30:22.822Z</time>
      </trkpt>
      <trkpt lat="45.89082" lon="6.1908">
        <ele>1183.8979968</ele>
        <time>2018-05-20T09:30:27.822Z</time>
      </trkpt>
      <trkpt lat="45.89084" lon="6.19083">
        <ele>1183</ele>
        <time>2018-05-20T09:30:30.822Z</time>
      </trkpt>
      <trkpt lat="45.89086" lon="6.19084">
        <ele>1183.9097314258</ele>
        <time>2018-05-20T09:30:36.822Z</time>
      </trkpt>
      <trkpt lat="45.89088" lon="6.19085">
        <ele>1183</ele>
        <time>2018-05-20T09:30:39.822Z</time>
      </trkpt>
      <trkpt lat="45.8909" lon="6.19085">
        <ele>1183</ele>
        <time>2018-05-20T09:30:42.822Z</time>
      </trkpt>
      <trkpt lat="45.89092" lon="6.19085">
        <ele>1183</ele>
        <time>2018-05-20T09:30:45.822Z</time>
      </trkpt>
      <trkpt lat="45.89101" lon="6.19085">
        <ele>1179.9028537992</ele>
        <time>2018-05-20T09:31:04.822Z</time>
      </trkpt>
      <trkpt lat="45.89111" lon="6.19087">
        <ele>1178</ele>
        <time>2018-05-20T09:31:31.822Z</time>
      </trkpt>
      <trkpt lat="45.89119" lon="6.19095">
        <ele>1176</ele>
        <time>2018-05-20T09:31:39.822Z</time>
      </trkpt>
      <trkpt lat="45.8911" lon="6.19101">
        <ele>1172</ele>
        <time>2018-05-20T09:31:50.822Z</time>
      </trkpt>
      <trkpt lat="45.89104" lon="6.19106">
        <ele>1170.8979968</ele>
        <time>2018-05-20T09:31:57.822Z</time>
      </trkpt>
      <trkpt lat="45.89103" lon="6.19108">
        <ele>1170</ele>
        <time>2018-05-20T09:31:59.822Z</time>
      </trkpt>
      <trkpt lat="45.89102" lon="6.19111">
        <ele>1166</ele>
        <time>2018-05-20T09:32:03.822Z</time>
      </trkpt>
      <trkpt lat="45.89101" lon="6.19113">
        <ele>1166</ele>
        <time>2018-05-20T09:32:05.822Z</time>
      </trkpt>
      <trkpt lat="45.89102" lon="6.19116">
        <ele>1164.9064188078</ele>
        <time>2018-05-20T09:32:09.822Z</time>
      </trkpt>
      <trkpt lat="45.89102" lon="6.19119">
        <ele>1164</ele>
        <time>2018-05-20T09:32:12.822Z</time>
      </trkpt>
      <trkpt lat="45.891" lon="6.1912">
        <ele>1164</ele>
        <time>2018-05-20T09:32:14.822Z</time>
      </trkpt>
      <trkpt lat="45.89099" lon="6.19123">
        <ele>1164</ele>
        <time>2018-05-20T09:32:16.822Z</time>
      </trkpt>
      <trkpt lat="45.8909" lon="6.19127">
        <ele>1161</ele>
        <time>2018-05-20T09:32:23.822Z</time>
      </trkpt>
      <trkpt lat="45.89086" lon="6.19132">
        <ele>1160</ele>
        <time>2018-05-20T09:32:31.822Z</time>
      </trkpt>
      <trkpt lat="45.89086" lon="6.19135">
        <ele>1158</ele>
        <time>2018-05-20T09:32:35.822Z</time>
      </trkpt>
      <trkpt lat="45.89096" lon="6.19135">
        <ele>1156</ele>
        <time>2018-05-20T09:32:46.822Z</time>
      </trkpt>
      <trkpt lat="45.89091" lon="6.19147">
        <ele>1155</ele>
        <time>2018-05-20T09:32:55.822Z</time>
      </trkpt>
      <trkpt lat="45.89083" lon="6.19154">
        <ele>1153</ele>
        <time>2018-05-20T09:33:06.822Z</time>
      </trkpt>
      <trkpt lat="45.89081" lon="6.19155">
        <ele>1153</ele>
        <time>2018-05-20T09:33:08.822Z</time>
      </trkpt>
      <trkpt lat="45.89079" lon="6.19154">
        <ele>1152</ele>
        <time>2018-05-20T09:33:10.822Z</time>
      </trkpt>
      <trkpt lat="45.89076" lon="6.19154">
        <ele>1152</ele>
        <time>2018-05-20T09:33:16.822Z</time>
      </trkpt>
      <trkpt lat="45.89074" lon="6.19157">
        <ele>1152</ele>
        <time>2018-05-20T09:33:18.822Z</time>
      </trkpt>
      <trkpt lat="45.89073" lon="6.19158">
        <ele>1151</ele>
        <time>2018-05-20T09:33:20.822Z</time>
      </trkpt>
      <trkpt lat="45.89063" lon="6.19158">
        <ele>1151</ele>
        <time>2018-05-20T09:33:28.822Z</time>
      </trkpt>
      <trkpt lat="45.89063" lon="6.1915">
        <ele>1152</ele>
        <time>2018-05-20T09:33:39.822Z</time>
      </trkpt>
      <trkpt lat="45.8906" lon="6.19151">
        <ele>1151</ele>
        <time>2018-05-20T09:33:52.822Z</time>
      </trkpt>
      <trkpt lat="45.89058" lon="6.19152">
        <ele>1150</ele>
        <time>2018-05-20T09:33:54.822Z</time>
      </trkpt>
      <trkpt lat="45.89057" lon="6.19153">
        <ele>1149</ele>
        <time>2018-05-20T09:33:56.822Z</time>
      </trkpt>
      <trkpt lat="45.89055" lon="6.19158">
        <ele>1146</ele>
        <time>2018-05-20T09:34:08.822Z</time>
      </trkpt>
      <trkpt lat="45.89053" lon="6.1917">
        <ele>1142.9028537992</ele>
        <time>2018-05-20T09:34:20.822Z</time>
      </trkpt>
      <trkpt lat="45.89053" lon="6.19176">
        <ele>1142</ele>
        <time>2018-05-20T09:34:25.822Z</time>
      </trkpt>
      <trkpt lat="45.89051" lon="6.19178">
        <ele>1142</ele>
        <time>2018-05-20T09:34:31.822Z</time>
      </trkpt>
      <trkpt lat="45.89052" lon="6.19171">
        <ele>1141</ele>
        <time>2018-05-20T09:34:43.822Z</time>
      </trkpt>
      <trkpt lat="45.8905" lon="6.19169">
        <ele>1141</ele>
        <time>2018-05-20T09:34:56.822Z</time>
      </trkpt>
      <trkpt lat="45.89049" lon="6.19167">
        <ele>1141</ele>
        <time>2018-05-20T09:34:59.822Z</time>
      </trkpt>
      <trkpt lat="45.89048" lon="6.19163">
        <ele>1141</ele>
        <time>2018-05-20T09:35:08.822Z</time>
      </trkpt>
      <trkpt lat="45.89044" lon="6.19166">
        <ele>1141</ele>
        <time>2018-05-20T09:35:16.822Z</time>
      </trkpt>
      <trkpt lat="45.8905" lon="6.19159">
        <ele>1141</ele>
        <time>2018-05-20T09:35:43.822Z</time>
      </trkpt>
      <trkpt lat="45.89051" lon="6.19155">
        <ele>1141</ele>
        <time>2018-05-20T09:35:51.822Z</time>
      </trkpt>
      <trkpt lat="45.89051" lon="6.1915">
        <ele>1141</ele>
        <time>2018-05-20T09:37:01.822Z</time>
      </trkpt>
      <trkpt lat="45.89049" lon="6.19152">
        <ele>1141</ele>
        <time>2018-05-20T09:37:05.822Z</time>
      </trkpt>
      <trkpt lat="45.89048" lon="6.19157">
        <ele>1141</ele>
        <time>2018-05-20T09:37:11.822Z</time>
      </trkpt>
      <trkpt lat="45.89045" lon="6.19161">
        <ele>1141</ele>
        <time>2018-05-20T09:37:15.822Z</time>
      </trkpt>
      <trkpt lat="45.89044" lon="6.1916">
        <ele>1140.9553092405</ele>
        <time>2018-05-20T09:37:19.822Z</time>
      </trkpt>
      <trkpt lat="45.89042" lon="6.19158">
        <ele>1140</ele>
        <time>2018-05-20T09:37:21.822Z</time>
      </trkpt>
      <trkpt lat="45.89035" lon="6.19149">
        <ele>1138</ele>
        <time>2018-05-20T09:37:31.822Z</time>
      </trkpt>
      <trkpt lat="45.89026" lon="6.19155">
        <ele>1134.80384</ele>
        <time>2018-05-20T09:37:43.822Z</time>
      </trkpt>
      <trkpt lat="45.89016" lon="6.19157">
        <ele>1129.1772327096</ele>
        <time>2018-05-20T09:37:53.822Z</time>
      </trkpt>
      <trkpt lat="45.89006" lon="6.19155">
        <ele>1126</ele>
        <time>2018-05-20T09:38:02.822Z</time>
      </trkpt>
      <trkpt lat="45.88997" lon="6.19157">
        <ele>1125</ele>
        <time>2018-05-20T09:38:11.822Z</time>
      </trkpt>
      <trkpt lat="45.88989" lon="6.19165">
        <ele>1118</ele>
        <time>2018-05-20T09:38:37.822Z</time>
      </trkpt>
      <trkpt lat="45.88988" lon="6.19161">
        <ele>1118</ele>
        <time>2018-05-20T09:38:40.822Z</time>
      </trkpt>
      <trkpt lat="45.88979" lon="6.19159">
        <ele>1116</ele>
        <time>2018-05-20T09:38:50.822Z</time>
      </trkpt>
      <trkpt lat="45.88975" lon="6.19159">
        <ele>1115</ele>
        <time>2018-05-20T09:38:53.822Z</time>
      </trkpt>
      <trkpt lat="45.88972" lon="6.1916">
        <ele>1115</ele>
        <time>2018-05-20T09:38:55.822Z</time>
      </trkpt>
      <trkpt lat="45.88982" lon="6.19162">
        <ele>1110</ele>
        <time>2018-05-20T09:39:13.822Z</time>
      </trkpt>
      <trkpt lat="45.88972" lon="6.19163">
        <ele>1109</ele>
        <time>2018-05-20T09:39:34.822Z</time>
      </trkpt>
      <trkpt lat="45.88962" lon="6.19162">
        <ele>1108</ele>
        <time>2018-05-20T09:39:40.822Z</time>
      </trkpt>
      <trkpt lat="45.8896" lon="6.19161">
        <ele>1107.8979968</ele>
        <time>2018-05-20T09:39:42.822Z</time>
      </trkpt>
      <trkpt lat="45.88959" lon="6.19159">
        <ele>1106.8979968</ele>
        <time>2018-05-20T09:39:44.822Z</time>
      </trkpt>
      <trkpt lat="45.88957" lon="6.19159">
        <ele>1106</ele>
        <time>2018-05-20T09:39:46.822Z</time>
      </trkpt>
      <trkpt lat="45.88955" lon="6.19157">
        <ele>1106</ele>
        <time>2018-05-20T09:39:48.822Z</time>
      </trkpt>
      <trkpt lat="45.8895" lon="6.19155">
        <ele>1104</ele>
        <time>2018-05-20T09:39:58.822Z</time>
      </trkpt>
      <trkpt lat="45.88944" lon="6.19152">
        <ele>1101.1651490909</ele>
        <time>2018-05-20T09:40:07.822Z</time>
      </trkpt>
      <trkpt lat="45.88942" lon="6.19149">
        <ele>1101</ele>
        <time>2018-05-20T09:40:10.822Z</time>
      </trkpt>
      <trkpt lat="45.88938" lon="6.19146">
        <ele>1101</ele>
        <time>2018-05-20T09:40:14.822Z</time>
      </trkpt>
      <trkpt lat="45.88936" lon="6.19148">
        <ele>1100</ele>
        <time>2018-05-20T09:40:18.822Z</time>
      </trkpt>
      <trkpt lat="45.88934" lon="6.19147">
        <ele>1099</ele>
        <time>2018-05-20T09:40:23.822Z</time>
      </trkpt>
      <trkpt lat="45.88932" lon="6.19146">
        <ele>1098.9977813176</ele>
        <time>2018-05-20T09:40:25.822Z</time>
      </trkpt>
      <trkpt lat="45.88931" lon="6.19142">
        <ele>1096.8979968</ele>
        <time>2018-05-20T09:40:29.822Z</time>
      </trkpt>
      <trkpt lat="45.88927" lon="6.19136">
        <ele>1096</ele>
        <time>2018-05-20T09:40:34.822Z</time>
      </trkpt>
      <trkpt lat="45.88926" lon="6.19123">
        <ele>1094</ele>
        <time>2018-05-20T09:40:42.822Z</time>
      </trkpt>
      <trkpt lat="45.8892" lon="6.19111">
        <ele>1093</ele>
        <time>2018-05-20T09:40:50.822Z</time>
      </trkpt>
      <trkpt lat="45.88927" lon="6.19103">
        <ele>1093</ele>
        <time>2018-05-20T09:41:17.822Z</time>
      </trkpt>
      <trkpt lat="45.88928" lon="6.19098">
        <ele>1093</ele>
        <time>2018-05-20T09:41:29.822Z</time>
      </trkpt>
      <trkpt lat="45.88925" lon="6.19096">
        <ele>1093</ele>
        <time>2018-05-20T09:41:32.822Z</time>
      </trkpt>
      <trkpt lat="45.88921" lon="6.19095">
        <ele>1093</ele>
        <time>2018-05-20T09:41:36.822Z</time>
      </trkpt>
      <trkpt lat="45.88919" lon="6.19095">
        <ele>1092</ele>
        <time>2018-05-20T09:41:38.822Z</time>
      </trkpt>
      <trkpt lat="45.88916" lon="6.19093">
        <ele>1092</ele>
        <time>2018-05-20T09:41:40.822Z</time>
      </trkpt>
      <trkpt lat="45.88914" lon="6.19094">
        <ele>1091.9163292495</ele>
        <time>2018-05-20T09:41:43.822Z</time>
      </trkpt>
      <trkpt lat="45.88911" lon="6.19095">
        <ele>1091</ele>
        <time>2018-05-20T09:41:45.822Z</time>
      </trkpt>
      <trkpt lat="45.8891" lon="6.19096">
        <ele>1091</ele>
        <time>2018-05-20T09:41:47.822Z</time>
      </trkpt>
      <trkpt lat="45.88907" lon="6.19096">
        <ele>1091</ele>
        <time>2018-05-20T09:41:49.822Z</time>
      </trkpt>
      <trkpt lat="45.88905" lon="6.19096">
        <ele>1089</ele>
        <time>2018-05-20T09:41:53.822Z</time>
      </trkpt>
      <trkpt lat="45.88903" lon="6.19093">
        <ele>1087.9009680747</ele>
        <time>2018-05-20T09:41:55.822Z</time>
      </trkpt>
      <trkpt lat="45.88901" lon="6.1909">
        <ele>1087</ele>
        <time>2018-05-20T09:41:57.822Z</time>
      </trkpt>
      <trkpt lat="45.88899" lon="6.19088">
        <ele>1087</ele>
        <time>2018-05-20T09:41:59.822Z</time>
      </trkpt>
      <trkpt lat="45.88898" lon="6.19085">
        <ele>1085.049546335</ele>
        <time>2018-05-20T09:42:01.822Z</time>
      </trkpt>
      <trkpt lat="45.88897" lon="6.19083">
        <ele>1085</ele>
        <time>2018-05-20T09:42:03.822Z</time>
      </trkpt>
      <trkpt lat="45.88894" lon="6.19083">
        <ele>1085</ele>
        <time>2018-05-20T09:42:05.822Z</time>
      </trkpt>
      <trkpt lat="45.88892" lon="6.19082">
        <ele>1085</ele>
        <time>2018-05-20T09:42:07.822Z</time>
      </trkpt>
      <trkpt lat="45.8889" lon="6.1908">
        <ele>1084.1776056244</ele>
        <time>2018-05-20T09:42:10.822Z</time>
      </trkpt>
      <trkpt lat="45.88887" lon="6.19064">
        <ele>1083</ele>
        <time>2018-05-20T09:42:16.822Z</time>
      </trkpt>
      <trkpt lat="45.88884" lon="6.19055">
        <ele>1083</ele>
        <time>2018-05-20T09:42:22.822Z</time>
      </trkpt>
      <trkpt lat="45.88884" lon="6.19052">
        <ele>1083</ele>
        <time>2018-05-20T09:42:24.822Z</time>
      </trkpt>
      <trkpt lat="45.88882" lon="6.19053">
        <ele>1082.1587782381</ele>
        <time>2018-05-20T09:42:26.822Z</time>
      </trkpt>
      <trkpt lat="45.88879" lon="6.19053">
        <ele>1081.8979968</ele>
        <time>2018-05-20T09:42:29.822Z</time>
      </trkpt>
      <trkpt lat="45.88877" lon="6.19052">
        <ele>1081</ele>
        <time>2018-05-20T09:42:31.822Z</time>
      </trkpt>
      <trkpt lat="45.88877" lon="6.19049">
        <ele>1081</ele>
        <time>2018-05-20T09:42:34.822Z</time>
      </trkpt>
      <trkpt lat="45.88875" lon="6.19047">
        <ele>1079.9097314258</ele>
        <time>2018-05-20T09:42:37.822Z</time>
      </trkpt>
      <trkpt lat="45.88873" lon="6.19045">
        <ele>1079</ele>
        <time>2018-05-20T09:42:39.822Z</time>
      </trkpt>
      <trkpt lat="45.88872" lon="6.19043">
        <ele>1079</ele>
        <time>2018-05-20T09:42:42.822Z</time>
      </trkpt>
      <trkpt lat="45.8887" lon="6.19043">
        <ele>1078</ele>
        <time>2018-05-20T09:42:45.822Z</time>
      </trkpt>
      <trkpt lat="45.88868" lon="6.19041">
        <ele>1078</ele>
        <time>2018-05-20T09:42:47.822Z</time>
      </trkpt>
      <trkpt lat="45.88867" lon="6.19039">
        <ele>1078</ele>
        <time>2018-05-20T09:42:49.822Z</time>
      </trkpt>
      <trkpt lat="45.88864" lon="6.1904">
        <ele>1078</ele>
        <time>2018-05-20T09:42:52.822Z</time>
      </trkpt>
      <trkpt lat="45.88862" lon="6.19039">
        <ele>1078</ele>
        <time>2018-05-20T09:42:55.822Z</time>
      </trkpt>
      <trkpt lat="45.8886" lon="6.19037">
        <ele>1078</ele>
        <time>2018-05-20T09:42:57.822Z</time>
      </trkpt>
      <trkpt lat="45.88859" lon="6.19032">
        <ele>1078</ele>
        <time>2018-05-20T09:42:59.822Z</time>
      </trkpt>
      <trkpt lat="45.88857" lon="6.19029">
        <ele>1077</ele>
        <time>2018-05-20T09:43:01.822Z</time>
      </trkpt>
      <trkpt lat="45.88855" lon="6.19026">
        <ele>1077</ele>
        <time>2018-05-20T09:43:03.822Z</time>
      </trkpt>
      <trkpt lat="45.88853" lon="6.19025">
        <ele>1077</ele>
        <time>2018-05-20T09:43:06.822Z</time>
      </trkpt>
      <trkpt lat="45.88853" lon="6.19022">
        <ele>1077</ele>
        <time>2018-05-20T09:43:09.822Z</time>
      </trkpt>
      <trkpt lat="45.88855" lon="6.19019">
        <ele>1077</ele>
        <time>2018-05-20T09:43:11.822Z</time>
      </trkpt>
      <trkpt lat="45.88856" lon="6.19017">
        <ele>1077</ele>
        <time>2018-05-20T09:43:13.822Z</time>
      </trkpt>
      <trkpt lat="45.88858" lon="6.19014">
        <ele>1077.0929354572</ele>
        <time>2018-05-20T09:43:15.822Z</time>
      </trkpt>
      <trkpt lat="45.88859" lon="6.19012">
        <ele>1077</ele>
        <time>2018-05-20T09:43:38.822Z</time>
      </trkpt>
      <trkpt lat="45.88862" lon="6.19011">
        <ele>1077</ele>
        <time>2018-05-20T09:43:39.822Z</time>
      </trkpt>
      <trkpt lat="45.88859" lon="6.1901">
        <ele>1077</ele>
        <time>2018-05-20T09:43:47.822Z</time>
      </trkpt>
      <trkpt lat="45.88858" lon="6.19008">
        <ele>1076</ele>
        <time>2018-05-20T09:43:50.822Z</time>
      </trkpt>
      <trkpt lat="45.88856" lon="6.19006">
        <ele>1076</ele>
        <time>2018-05-20T09:43:52.822Z</time>
      </trkpt>
      <trkpt lat="45.88855" lon="6.19003">
        <ele>1075.9097314258</ele>
        <time>2018-05-20T09:43:55.822Z</time>
      </trkpt>
      <trkpt lat="45.88854" lon="6.19">
        <ele>1075</ele>
        <time>2018-05-20T09:43:57.822Z</time>
      </trkpt>
      <trkpt lat="45.88853" lon="6.18998">
        <ele>1075</ele>
        <time>2018-05-20T09:44:00.822Z</time>
      </trkpt>
      <trkpt lat="45.88854" lon="6.18993">
        <ele>1075</ele>
        <time>2018-05-20T09:44:04.822Z</time>
      </trkpt>
      <trkpt lat="45.88855" lon="6.18991">
        <ele>1073</ele>
        <time>2018-05-20T09:44:07.822Z</time>
      </trkpt>
      <trkpt lat="45.88857" lon="6.18988">
        <ele>1073</ele>
        <time>2018-05-20T09:44:10.822Z</time>
      </trkpt>
      <trkpt lat="45.88857" lon="6.18985">
        <ele>1073</ele>
        <time>2018-05-20T09:44:13.822Z</time>
      </trkpt>
      <trkpt lat="45.88858" lon="6.18983">
        <ele>1071</ele>
        <time>2018-05-20T09:44:18.822Z</time>
      </trkpt>
      <trkpt lat="45.88857" lon="6.1898">
        <ele>1070</ele>
        <time>2018-05-20T09:44:22.822Z</time>
      </trkpt>
      <trkpt lat="45.88859" lon="6.18978">
        <ele>1068.8979968</ele>
        <time>2018-05-20T09:44:26.822Z</time>
      </trkpt>
      <trkpt lat="45.8886" lon="6.18975">
        <ele>1068</ele>
        <time>2018-05-20T09:44:30.822Z</time>
      </trkpt>
      <trkpt lat="45.88861" lon="6.18973">
        <ele>1068</ele>
        <time>2018-05-20T09:44:33.822Z</time>
      </trkpt>
      <trkpt lat="45.88861" lon="6.18975">
        <ele>1067</ele>
        <time>2018-05-20T09:44:40.822Z</time>
      </trkpt>
      <trkpt lat="45.8886" lon="6.18978">
        <ele>1067</ele>
        <time>2018-05-20T09:44:49.822Z</time>
      </trkpt>
      <trkpt lat="45.88859" lon="6.1898">
        <ele>1067</ele>
        <time>2018-05-20T09:44:51.822Z</time>
      </trkpt>
      <trkpt lat="45.88857" lon="6.18983">
        <ele>1067</ele>
        <time>2018-05-20T09:44:55.822Z</time>
      </trkpt>
      <trkpt lat="45.88857" lon="6.18986">
        <ele>1067</ele>
        <time>2018-05-20T09:44:57.822Z</time>
      </trkpt>
      <trkpt lat="45.88856" lon="6.18988">
        <ele>1066</ele>
        <time>2018-05-20T09:45:01.822Z</time>
      </trkpt>
      <trkpt lat="45.88854" lon="6.18987">
        <ele>1066</ele>
        <time>2018-05-20T09:45:04.822Z</time>
      </trkpt>
      <trkpt lat="45.88853" lon="6.18987">
        <ele>1066</ele>
        <time>2018-05-20T09:45:07.822Z</time>
      </trkpt>
      <trkpt lat="45.88851" lon="6.18987">
        <ele>1066</ele>
        <time>2018-05-20T09:45:09.822Z</time>
      </trkpt>
      <trkpt lat="45.88848" lon="6.1899">
        <ele>1066</ele>
        <time>2018-05-20T09:45:12.822Z</time>
      </trkpt>
      <trkpt lat="45.88846" lon="6.18991">
        <ele>1065</ele>
        <time>2018-05-20T09:45:15.822Z</time>
      </trkpt>
      <trkpt lat="45.88844" lon="6.18991">
        <ele>1064</ele>
        <time>2018-05-20T09:45:18.822Z</time>
      </trkpt>
      <trkpt lat="45.88841" lon="6.18992">
        <ele>1063</ele>
        <time>2018-05-20T09:45:21.822Z</time>
      </trkpt>
      <trkpt lat="45.88839" lon="6.18993">
        <ele>1062</ele>
        <time>2018-05-20T09:45:24.822Z</time>
      </trkpt>
      <trkpt lat="45.88838" lon="6.18994">
        <ele>1061</ele>
        <time>2018-05-20T09:45:28.822Z</time>
      </trkpt>
      <trkpt lat="45.88836" lon="6.18996">
        <ele>1061</ele>
        <time>2018-05-20T09:45:30.822Z</time>
      </trkpt>
      <trkpt lat="45.88835" lon="6.18998">
        <ele>1060</ele>
        <time>2018-05-20T09:45:34.822Z</time>
      </trkpt>
      <trkpt lat="45.88834" lon="6.19">
        <ele>1060</ele>
        <time>2018-05-20T09:45:36.822Z</time>
      </trkpt>
      <trkpt lat="45.88831" lon="6.19002">
        <ele>1059.8999974902</ele>
        <time>2018-05-20T09:45:38.822Z</time>
      </trkpt>
      <trkpt lat="45.88829" lon="6.19001">
        <ele>1059</ele>
        <time>2018-05-20T09:45:40.822Z</time>
      </trkpt>
      <trkpt lat="45.88827" lon="6.19004">
        <ele>1059</ele>
        <time>2018-05-20T09:45:43.822Z</time>
      </trkpt>
      <trkpt lat="45.88827" lon="6.19007">
        <ele>1058</ele>
        <time>2018-05-20T09:45:45.822Z</time>
      </trkpt>
      <trkpt lat="45.88824" lon="6.1901">
        <ele>1055</ele>
        <time>2018-05-20T09:45:54.822Z</time>
      </trkpt>
      <trkpt lat="45.8882" lon="6.18997">
        <ele>1053</ele>
        <time>2018-05-20T09:46:03.822Z</time>
      </trkpt>
      <trkpt lat="45.88819" lon="6.18994">
        <ele>1052.0247731675</ele>
        <time>2018-05-20T09:46:05.822Z</time>
      </trkpt>
      <trkpt lat="45.88819" lon="6.18986">
        <ele>1052</ele>
        <time>2018-05-20T09:46:08.822Z</time>
      </trkpt>
      <trkpt lat="45.88818" lon="6.18982">
        <ele>1052</ele>
        <time>2018-05-20T09:46:10.822Z</time>
      </trkpt>
      <trkpt lat="45.88817" lon="6.18979">
        <ele>1051.8979968</ele>
        <time>2018-05-20T09:46:12.822Z</time>
      </trkpt>
      <trkpt lat="45.88816" lon="6.18975">
        <ele>1050.1776056244</ele>
        <time>2018-05-20T09:46:14.822Z</time>
      </trkpt>
      <trkpt lat="45.88817" lon="6.1897">
        <ele>1050</ele>
        <time>2018-05-20T09:46:18.822Z</time>
      </trkpt>
      <trkpt lat="45.88817" lon="6.18967">
        <ele>1050</ele>
        <time>2018-05-20T09:46:20.822Z</time>
      </trkpt>
      <trkpt lat="45.88816" lon="6.18964">
        <ele>1050</ele>
        <time>2018-05-20T09:46:23.822Z</time>
      </trkpt>
      <trkpt lat="45.88816" lon="6.1896">
        <ele>1050</ele>
        <time>2018-05-20T09:46:25.822Z</time>
      </trkpt>
      <trkpt lat="45.88818" lon="6.18948">
        <ele>1048.3773981964</ele>
        <time>2018-05-20T09:46:33.822Z</time>
      </trkpt>
      <trkpt lat="45.88822" lon="6.18943">
        <ele>1047</ele>
        <time>2018-05-20T09:46:37.822Z</time>
      </trkpt>
      <trkpt lat="45.88823" lon="6.1893">
        <ele>1045.8979968</ele>
        <time>2018-05-20T09:46:50.822Z</time>
      </trkpt>
      <trkpt lat="45.8882" lon="6.18918">
        <ele>1042</ele>
        <time>2018-05-20T09:47:00.822Z</time>
      </trkpt>
      <trkpt lat="45.88817" lon="6.18918">
        <ele>1041.8999962353</ele>
        <time>2018-05-20T09:47:05.822Z</time>
      </trkpt>
      <trkpt lat="45.8881" lon="6.18928">
        <ele>1041</ele>
        <time>2018-05-20T09:47:13.822Z</time>
      </trkpt>
      <trkpt lat="45.88802" lon="6.18937">
        <ele>1040</ele>
        <time>2018-05-20T09:47:20.822Z</time>
      </trkpt>
      <trkpt lat="45.88798" lon="6.18949">
        <ele>1040</ele>
        <time>2018-05-20T09:47:26.822Z</time>
      </trkpt>
      <trkpt lat="45.88797" lon="6.18962">
        <ele>1037</ele>
        <time>2018-05-20T09:47:35.822Z</time>
      </trkpt>
      <trkpt lat="45.88797" lon="6.18966">
        <ele>1037</ele>
        <time>2018-05-20T09:47:38.822Z</time>
      </trkpt>
      <trkpt lat="45.88796" lon="6.18969">
        <ele>1037</ele>
        <time>2018-05-20T09:47:40.822Z</time>
      </trkpt>
      <trkpt lat="45.88794" lon="6.18971">
        <ele>1036</ele>
        <time>2018-05-20T09:47:43.822Z</time>
      </trkpt>
      <trkpt lat="45.88784" lon="6.18976">
        <ele>1034</ele>
        <time>2018-05-20T09:47:54.822Z</time>
      </trkpt>
      <trkpt lat="45.88775" lon="6.18976">
        <ele>1034</ele>
        <time>2018-05-20T09:48:02.822Z</time>
      </trkpt>
      <trkpt lat="45.88766" lon="6.18972">
        <ele>1033</ele>
        <time>2018-05-20T09:48:09.822Z</time>
      </trkpt>
      <trkpt lat="45.88758" lon="6.18975">
        <ele>1031</ele>
        <time>2018-05-20T09:48:17.822Z</time>
      </trkpt>
      <trkpt lat="45.88764" lon="6.18985">
        <ele>1029</ele>
        <time>2018-05-20T09:48:27.822Z</time>
      </trkpt>
      <trkpt lat="45.88771" lon="6.18994">
        <ele>1027</ele>
        <time>2018-05-20T09:48:34.822Z</time>
      </trkpt>
      <trkpt lat="45.88773" lon="6.19">
        <ele>1026</ele>
        <time>2018-05-20T09:48:38.822Z</time>
      </trkpt>
      <trkpt lat="45.88777" lon="6.19005">
        <ele>1026</ele>
        <time>2018-05-20T09:48:44.822Z</time>
      </trkpt>
      <trkpt lat="45.88778" lon="6.19007">
        <ele>1025.1897035294</ele>
        <time>2018-05-20T09:48:46.822Z</time>
      </trkpt>
      <trkpt lat="45.88781" lon="6.1901">
        <ele>1025</ele>
        <time>2018-05-20T09:48:48.822Z</time>
      </trkpt>
      <trkpt lat="45.88781" lon="6.19013">
        <ele>1024</ele>
        <time>2018-05-20T09:48:51.822Z</time>
      </trkpt>
      <trkpt lat="45.88781" lon="6.19016">
        <ele>1024</ele>
        <time>2018-05-20T09:48:55.822Z</time>
      </trkpt>
      <trkpt lat="45.88779" lon="6.19019">
        <ele>1023</ele>
        <time>2018-05-20T09:48:58.822Z</time>
      </trkpt>
      <trkpt lat="45.88777" lon="6.1902">
        <ele>1023</ele>
        <time>2018-05-20T09:48:59.822Z</time>
      </trkpt>
      <trkpt lat="45.88777" lon="6.19024">
        <ele>1022</ele>
        <time>2018-05-20T09:49:01.822Z</time>
      </trkpt>
      <trkpt lat="45.88779" lon="6.19033">
        <ele>1020</ele>
        <time>2018-05-20T09:49:12.822Z</time>
      </trkpt>
      <trkpt lat="45.88777" lon="6.19034">
        <ele>1020</ele>
        <time>2018-05-20T09:49:13.822Z</time>
      </trkpt>
      <trkpt lat="45.88767" lon="6.19029">
        <ele>1019</ele>
        <time>2018-05-20T09:49:20.822Z</time>
      </trkpt>
      <trkpt lat="45.8876" lon="6.19023">
        <ele>1018.1599992123</ele>
        <time>2018-05-20T09:49:24.822Z</time>
      </trkpt>
      <trkpt lat="45.88765" lon="6.19034">
        <ele>1015</ele>
        <time>2018-05-20T09:49:39.822Z</time>
      </trkpt>
      <trkpt lat="45.8877" lon="6.19046">
        <ele>1012</ele>
        <time>2018-05-20T09:49:51.822Z</time>
      </trkpt>
      <trkpt lat="45.88772" lon="6.19059">
        <ele>1011</ele>
        <time>2018-05-20T09:50:01.822Z</time>
      </trkpt>
      <trkpt lat="45.8878" lon="6.19066">
        <ele>1008</ele>
        <time>2018-05-20T09:50:09.822Z</time>
      </trkpt>
      <trkpt lat="45.88772" lon="6.19074">
        <ele>1007</ele>
        <time>2018-05-20T09:50:16.822Z</time>
      </trkpt>
      <trkpt lat="45.8877" lon="6.19087">
        <ele>1007</ele>
        <time>2018-05-20T09:50:22.822Z</time>
      </trkpt>
      <trkpt lat="45.88768" lon="6.191">
        <ele>1006</ele>
        <time>2018-05-20T09:50:28.822Z</time>
      </trkpt>
      <trkpt lat="45.88763" lon="6.19111">
        <ele>1005</ele>
        <time>2018-05-20T09:50:44.822Z</time>
      </trkpt>
      <trkpt lat="45.88759" lon="6.19125">
        <ele>1004</ele>
        <time>2018-05-20T09:50:51.822Z</time>
      </trkpt>
      <trkpt lat="45.88756" lon="6.19139">
        <ele>1001.9163172812</ele>
        <time>2018-05-20T09:51:02.822Z</time>
      </trkpt>
      <trkpt lat="45.88754" lon="6.19152">
        <ele>1000</ele>
        <time>2018-05-20T09:51:11.822Z</time>
      </trkpt>
      <trkpt lat="45.88751" lon="6.19166">
        <ele>1000</ele>
        <time>2018-05-20T09:51:18.822Z</time>
      </trkpt>
      <trkpt lat="45.88748" lon="6.19179">
        <ele>999</ele>
        <time>2018-05-20T09:51:56.822Z</time>
      </trkpt>
      <trkpt lat="45.88759" lon="6.19176">
        <ele>999.8979968</ele>
        <time>2018-05-20T09:52:04.822Z</time>
      </trkpt>
      <trkpt lat="45.88758" lon="6.19162">
        <ele>999</ele>
        <time>2018-05-20T09:52:11.822Z</time>
      </trkpt>
      <trkpt lat="45.88748" lon="6.19164">
        <ele>1000</ele>
        <time>2018-05-20T09:52:23.822Z</time>
      </trkpt>
      <trkpt lat="45.88739" lon="6.19168">
        <ele>998</ele>
        <time>2018-05-20T09:52:33.822Z</time>
      </trkpt>
      <trkpt lat="45.88731" lon="6.19162">
        <ele>997</ele>
        <time>2018-05-20T09:52:41.822Z</time>
      </trkpt>
      <trkpt lat="45.88721" lon="6.19164">
        <ele>995</ele>
        <time>2018-05-20T09:52:53.822Z</time>
      </trkpt>
      <trkpt lat="45.88713" lon="6.19171">
        <ele>990</ele>
        <time>2018-05-20T09:53:11.822Z</time>
      </trkpt>
      <trkpt lat="45.88722" lon="6.19176">
        <ele>989</ele>
        <time>2018-05-20T09:53:18.822Z</time>
      </trkpt>
      <trkpt lat="45.88729" lon="6.19186">
        <ele>988</ele>
        <time>2018-05-20T09:53:29.822Z</time>
      </trkpt>
      <trkpt lat="45.88738" lon="6.19181">
        <ele>988</ele>
        <time>2018-05-20T09:53:33.822Z</time>
      </trkpt>
      <trkpt lat="45.88727" lon="6.19185">
        <ele>988</ele>
        <time>2018-05-20T09:53:39.822Z</time>
      </trkpt>
      <trkpt lat="45.88718" lon="6.19183">
        <ele>988</ele>
        <time>2018-05-20T09:53:46.822Z</time>
      </trkpt>
      <trkpt lat="45.8871" lon="6.1919">
        <ele>987</ele>
        <time>2018-05-20T09:54:03.822Z</time>
      </trkpt>
      <trkpt lat="45.88701" lon="6.19194">
        <ele>985.16514909091</ele>
        <time>2018-05-20T09:54:20.822Z</time>
      </trkpt>
      <trkpt lat="45.88692" lon="6.19198">
        <ele>984</ele>
        <time>2018-05-20T09:54:28.822Z</time>
      </trkpt>
      <trkpt lat="45.88682" lon="6.19196">
        <ele>979</ele>
        <time>2018-05-20T09:54:44.822Z</time>
      </trkpt>
      <trkpt lat="45.88674" lon="6.19202">
        <ele>978</ele>
        <time>2018-05-20T09:54:52.822Z</time>
      </trkpt>
      <trkpt lat="45.88665" lon="6.19205">
        <ele>976</ele>
        <time>2018-05-20T09:55:00.822Z</time>
      </trkpt>
      <trkpt lat="45.88655" lon="6.19202">
        <ele>974.8979968</ele>
        <time>2018-05-20T09:55:09.822Z</time>
      </trkpt>
      <trkpt lat="45.88645" lon="6.19201">
        <ele>972</ele>
        <time>2018-05-20T09:55:20.822Z</time>
      </trkpt>
      <trkpt lat="45.88637" lon="6.19194">
        <ele>969</ele>
        <time>2018-05-20T09:55:31.822Z</time>
      </trkpt>
      <trkpt lat="45.88644" lon="6.19184">
        <ele>969</ele>
        <time>2018-05-20T09:55:37.822Z</time>
      </trkpt>
      <trkpt lat="45.88652" lon="6.19177">
        <ele>968.92554493558</ele>
        <time>2018-05-20T09:55:43.822Z</time>
      </trkpt>
      <trkpt lat="45.88661" lon="6.1917">
        <ele>968</ele>
        <time>2018-05-20T09:55:54.822Z</time>
      </trkpt>
      <trkpt lat="45.88663" lon="6.19156">
        <ele>965</ele>
        <time>2018-05-20T09:56:42.822Z</time>
      </trkpt>
      <trkpt lat="45.88672" lon="6.19152">
        <ele>964.8979968</ele>
        <time>2018-05-20T09:56:53.822Z</time>
      </trkpt>
      <trkpt lat="45.88672" lon="6.19138">
        <ele>962</ele>
        <time>2018-05-20T09:57:14.822Z</time>
      </trkpt>
      <trkpt lat="45.88674" lon="6.19125">
        <ele>960</ele>
        <time>2018-05-20T09:57:22.822Z</time>
      </trkpt>
      <trkpt lat="45.88671" lon="6.19112">
        <ele>958</ele>
        <time>2018-05-20T09:57:43.822Z</time>
      </trkpt>
      <trkpt lat="45.88669" lon="6.19099">
        <ele>957</ele>
        <time>2018-05-20T09:57:50.822Z</time>
      </trkpt>
      <trkpt lat="45.88663" lon="6.19089">
        <ele>954.8979968</ele>
        <time>2018-05-20T09:58:06.822Z</time>
      </trkpt>
      <trkpt lat="45.88656" lon="6.1908">
        <ele>954</ele>
        <time>2018-05-20T09:58:16.822Z</time>
      </trkpt>
      <trkpt lat="45.88648" lon="6.19075">
        <ele>952</ele>
        <time>2018-05-20T09:58:26.822Z</time>
      </trkpt>
      <trkpt lat="45.88641" lon="6.19065">
        <ele>951</ele>
        <time>2018-05-20T09:58:36.822Z</time>
      </trkpt>
      <trkpt lat="45.88632" lon="6.19067">
        <ele>949</ele>
        <time>2018-05-20T09:58:51.822Z</time>
      </trkpt>
      <trkpt lat="45.88623" lon="6.19061">
        <ele>946</ele>
        <time>2018-05-20T09:58:59.822Z</time>
      </trkpt>
      <trkpt lat="45.88632" lon="6.19062">
        <ele>943</ele>
        <time>2018-05-20T09:59:18.822Z</time>
      </trkpt>
      <trkpt lat="45.88642" lon="6.19062">
        <ele>942</ele>
        <time>2018-05-20T09:59:30.822Z</time>
      </trkpt>
      <trkpt lat="45.88645" lon="6.19074">
        <ele>938</ele>
        <time>2018-05-20T09:59:45.822Z</time>
      </trkpt>
      <trkpt lat="45.88639" lon="6.19084">
        <ele>935.8979968</ele>
        <time>2018-05-20T10:00:02.822Z</time>
      </trkpt>
      <trkpt lat="45.88631" lon="6.19093">
        <ele>933</ele>
        <time>2018-05-20T10:00:13.822Z</time>
      </trkpt>
      <trkpt lat="45.88636" lon="6.19105">
        <ele>933</ele>
        <time>2018-05-20T10:00:26.822Z</time>
      </trkpt>
      <trkpt lat="45.88629" lon="6.19114">
        <ele>931</ele>
        <time>2018-05-20T10:00:35.822Z</time>
      </trkpt>
      <trkpt lat="45.88622" lon="6.19124">
        <ele>929</ele>
        <time>2018-05-20T10:00:45.822Z</time>
      </trkpt>
      <trkpt lat="45.88612" lon="6.19124">
        <ele>928</ele>
        <time>2018-05-20T10:00:53.822Z</time>
      </trkpt>
      <trkpt lat="45.88603" lon="6.19118">
        <ele>926.22937011609</ele>
        <time>2018-05-20T10:01:01.822Z</time>
      </trkpt>
      <trkpt lat="45.88595" lon="6.19122">
        <ele>925</ele>
        <time>2018-05-20T10:01:11.822Z</time>
      </trkpt>
      <trkpt lat="45.88587" lon="6.1913">
        <ele>924</ele>
        <time>2018-05-20T10:01:28.822Z</time>
      </trkpt>
      <trkpt lat="45.88578" lon="6.19137">
        <ele>922</ele>
        <time>2018-05-20T10:01:42.822Z</time>
      </trkpt>
      <trkpt lat="45.8858" lon="6.19124">
        <ele>918</ele>
        <time>2018-05-20T10:02:03.822Z</time>
      </trkpt>
      <trkpt lat="45.88589" lon="6.1912">
        <ele>916</ele>
        <time>2018-05-20T10:02:10.822Z</time>
      </trkpt>
      <trkpt lat="45.88596" lon="6.1911">
        <ele>916</ele>
        <time>2018-05-20T10:02:17.822Z</time>
      </trkpt>
      <trkpt lat="45.88588" lon="6.19118">
        <ele>913</ele>
        <time>2018-05-20T10:02:31.822Z</time>
      </trkpt>
      <trkpt lat="45.88592" lon="6.19105">
        <ele>911</ele>
        <time>2018-05-20T10:02:47.822Z</time>
      </trkpt>
      <trkpt lat="45.88582" lon="6.19106">
        <ele>907</ele>
        <time>2018-05-20T10:03:04.822Z</time>
      </trkpt>
      <trkpt lat="45.88574" lon="6.1911">
        <ele>906</ele>
        <time>2018-05-20T10:03:13.822Z</time>
      </trkpt>
      <trkpt lat="45.88565" lon="6.19114">
        <ele>905</ele>
        <time>2018-05-20T10:03:19.822Z</time>
      </trkpt>
      <trkpt lat="45.88556" lon="6.19119">
        <ele>903</ele>
        <time>2018-05-20T10:03:30.822Z</time>
      </trkpt>
      <trkpt lat="45.88547" lon="6.19124">
        <ele>901</ele>
        <time>2018-05-20T10:03:40.822Z</time>
      </trkpt>
      <trkpt lat="45.88538" lon="6.19126">
        <ele>899</ele>
        <time>2018-05-20T10:03:51.822Z</time>
      </trkpt>
      <trkpt lat="45.8853" lon="6.19134">
        <ele>897</ele>
        <time>2018-05-20T10:04:07.822Z</time>
      </trkpt>
      <trkpt lat="45.88521" lon="6.19139">
        <ele>893</ele>
        <time>2018-05-20T10:04:28.822Z</time>
      </trkpt>
      <trkpt lat="45.88528" lon="6.19129">
        <ele>891</ele>
        <time>2018-05-20T10:04:38.822Z</time>
      </trkpt>
      <trkpt lat="45.88536" lon="6.19121">
        <ele>889.8979968</ele>
        <time>2018-05-20T10:04:42.822Z</time>
      </trkpt>
      <trkpt lat="45.88527" lon="6.19121">
        <ele>886</ele>
        <time>2018-05-20T10:05:07.822Z</time>
      </trkpt>
      <trkpt lat="45.8852" lon="6.19131">
        <ele>882</ele>
        <time>2018-05-20T10:05:20.822Z</time>
      </trkpt>
      <trkpt lat="45.8851" lon="6.19137">
        <ele>879.20145065994</ele>
        <time>2018-05-20T10:05:36.822Z</time>
      </trkpt>
      <trkpt lat="45.88499" lon="6.19135">
        <ele>879</ele>
        <time>2018-05-20T10:05:41.822Z</time>
      </trkpt>
      <trkpt lat="45.88489" lon="6.19132">
        <ele>878</ele>
        <time>2018-05-20T10:05:46.822Z</time>
      </trkpt>
      <trkpt lat="45.88481" lon="6.19125">
        <ele>878</ele>
        <time>2018-05-20T10:05:52.822Z</time>
      </trkpt>
      <trkpt lat="45.88471" lon="6.19123">
        <ele>876</ele>
        <time>2018-05-20T10:06:02.822Z</time>
      </trkpt>
      <trkpt lat="45.88474" lon="6.19109">
        <ele>874</ele>
        <time>2018-05-20T10:06:08.822Z</time>
      </trkpt>
      <trkpt lat="45.88483" lon="6.191">
        <ele>873</ele>
        <time>2018-05-20T10:06:12.822Z</time>
      </trkpt>
      <trkpt lat="45.88491" lon="6.19093">
        <ele>872</ele>
        <time>2018-05-20T10:06:16.822Z</time>
      </trkpt>
      <trkpt lat="45.885" lon="6.19088">
        <ele>871</ele>
        <time>2018-05-20T10:06:26.822Z</time>
      </trkpt>
      <trkpt lat="45.88492" lon="6.19093">
        <ele>867.94525660545</ele>
        <time>2018-05-20T10:06:52.822Z</time>
      </trkpt>
      <trkpt lat="45.88484" lon="6.19086">
        <ele>866.18319009562</ele>
        <time>2018-05-20T10:06:58.822Z</time>
      </trkpt>
      <trkpt lat="45.88475" lon="6.19086">
        <ele>861.09714620083</ele>
        <time>2018-05-20T10:07:12.822Z</time>
      </trkpt>
      <trkpt lat="45.88478" lon="6.19073">
        <ele>863</ele>
        <time>2018-05-20T10:07:43.822Z</time>
      </trkpt>
      <trkpt lat="45.88487" lon="6.19078">
        <ele>863</ele>
        <time>2018-05-20T10:08:03.822Z</time>
      </trkpt>
      <trkpt lat="45.88481" lon="6.19087">
        <ele>863</ele>
        <time>2018-05-20T10:08:13.822Z</time>
      </trkpt>
      <trkpt lat="45.88477" lon="6.191">
        <ele>863</ele>
        <time>2018-05-20T10:08:19.822Z</time>
      </trkpt>
      <trkpt lat="45.88467" lon="6.19096">
        <ele>863</ele>
        <time>2018-05-20T10:08:28.822Z</time>
      </trkpt>
      <trkpt lat="45.88462" lon="6.19085">
        <ele>862</ele>
        <time>2018-05-20T10:08:33.822Z</time>
      </trkpt>
      <trkpt lat="45.88453" lon="6.19088">
        <ele>861</ele>
        <time>2018-05-20T10:09:23.822Z</time>
      </trkpt>
      <trkpt lat="45.88443" lon="6.19084">
        <ele>861</ele>
        <time>2018-05-20T10:09:34.822Z</time>
      </trkpt>
      <trkpt lat="45.88433" lon="6.19082">
        <ele>861</ele>
        <time>2018-05-20T10:09:41.822Z</time>
      </trkpt>
      <trkpt lat="45.88423" lon="6.1908">
        <ele>859.8979968</ele>
        <time>2018-05-20T10:09:53.822Z</time>
      </trkpt>
      <trkpt lat="45.88416" lon="6.1907">
        <ele>856</ele>
        <time>2018-05-20T10:10:10.822Z</time>
      </trkpt>
      <trkpt lat="45.88412" lon="6.19059">
        <ele>855</ele>
        <time>2018-05-20T10:10:18.822Z</time>
      </trkpt>
      <trkpt lat="45.88407" lon="6.19048">
        <ele>854</ele>
        <time>2018-05-20T10:10:27.822Z</time>
      </trkpt>
      <trkpt lat="45.8841" lon="6.19036">
        <ele>854</ele>
        <time>2018-05-20T10:10:36.822Z</time>
      </trkpt>
      <trkpt lat="45.88401" lon="6.19028">
        <ele>852</ele>
        <time>2018-05-20T10:10:50.822Z</time>
      </trkpt>
      <trkpt lat="45.88408" lon="6.19019">
        <ele>851</ele>
        <time>2018-05-20T10:10:56.822Z</time>
      </trkpt>
      <trkpt lat="45.88417" lon="6.19022">
        <ele>850</ele>
        <time>2018-05-20T10:11:06.822Z</time>
      </trkpt>
      <trkpt lat="45.88428" lon="6.19026">
        <ele>848</ele>
        <time>2018-05-20T10:11:13.822Z</time>
      </trkpt>
      <trkpt lat="45.88436" lon="6.19019">
        <ele>843</ele>
        <time>2018-05-20T10:11:43.822Z</time>
      </trkpt>
      <trkpt lat="45.88444" lon="6.19012">
        <ele>843</ele>
        <time>2018-05-20T10:11:50.822Z</time>
      </trkpt>
      <trkpt lat="45.88438" lon="6.19003">
        <ele>841</ele>
        <time>2018-05-20T10:12:08.822Z</time>
      </trkpt>
      <trkpt lat="45.88429" lon="6.19001">
        <ele>840</ele>
        <time>2018-05-20T10:12:14.822Z</time>
      </trkpt>
      <trkpt lat="45.88443" lon="6.19015">
        <ele>839</ele>
        <time>2018-05-20T10:12:19.822Z</time>
      </trkpt>
      <trkpt lat="45.88454" lon="6.19023">
        <ele>839</ele>
        <time>2018-05-20T10:12:21.822Z</time>
      </trkpt>
      <trkpt lat="45.88449" lon="6.19011">
        <ele>839</ele>
        <time>2018-05-20T10:12:33.822Z</time>
      </trkpt>
      <trkpt lat="45.88441" lon="6.19004">
        <ele>838</ele>
        <time>2018-05-20T10:12:35.822Z</time>
      </trkpt>
      <trkpt lat="45.88432" lon="6.19">
        <ele>838</ele>
        <time>2018-05-20T10:12:40.822Z</time>
      </trkpt>
      <trkpt lat="45.8844" lon="6.18992">
        <ele>836</ele>
        <time>2018-05-20T10:12:48.822Z</time>
      </trkpt>
      <trkpt lat="45.88448" lon="6.18985">
        <ele>834.16514909091</ele>
        <time>2018-05-20T10:12:54.822Z</time>
      </trkpt>
      <trkpt lat="45.88439" lon="6.18978">
        <ele>832</ele>
        <time>2018-05-20T10:13:19.822Z</time>
      </trkpt>
      <trkpt lat="45.8844" lon="6.18993">
        <ele>831</ele>
        <time>2018-05-20T10:13:26.822Z</time>
      </trkpt>
      <trkpt lat="45.88439" lon="6.18979">
        <ele>829</ele>
        <time>2018-05-20T10:13:36.822Z</time>
      </trkpt>
      <trkpt lat="45.88432" lon="6.1897">
        <ele>828</ele>
        <time>2018-05-20T10:13:46.822Z</time>
      </trkpt>
      <trkpt lat="45.88421" lon="6.18968">
        <ele>826</ele>
        <time>2018-05-20T10:13:55.822Z</time>
      </trkpt>
      <trkpt lat="45.88426" lon="6.18956">
        <ele>825</ele>
        <time>2018-05-20T10:14:02.822Z</time>
      </trkpt>
      <trkpt lat="45.88434" lon="6.18948">
        <ele>825</ele>
        <time>2018-05-20T10:14:10.822Z</time>
      </trkpt>
      <trkpt lat="45.88435" lon="6.18935">
        <ele>825</ele>
        <time>2018-05-20T10:14:22.822Z</time>
      </trkpt>
      <trkpt lat="45.88439" lon="6.18947">
        <ele>824</ele>
        <time>2018-05-20T10:14:36.822Z</time>
      </trkpt>
      <trkpt lat="45.88445" lon="6.18935">
        <ele>821</ele>
        <time>2018-05-20T10:14:49.822Z</time>
      </trkpt>
      <trkpt lat="45.88454" lon="6.18927">
        <ele>819.8979968</ele>
        <time>2018-05-20T10:14:59.822Z</time>
      </trkpt>
      <trkpt lat="45.88462" lon="6.1892">
        <ele>817</ele>
        <time>2018-05-20T10:15:08.822Z</time>
      </trkpt>
      <trkpt lat="45.88458" lon="6.18908">
        <ele>817</ele>
        <time>2018-05-20T10:15:17.822Z</time>
      </trkpt>
      <trkpt lat="45.88455" lon="6.18894">
        <ele>815.9163292495</ele>
        <time>2018-05-20T10:15:25.822Z</time>
      </trkpt>
      <trkpt lat="45.88454" lon="6.18881">
        <ele>815</ele>
        <time>2018-05-20T10:15:31.822Z</time>
      </trkpt>
      <trkpt lat="45.88459" lon="6.18869">
        <ele>814.90192</ele>
        <time>2018-05-20T10:16:13.822Z</time>
      </trkpt>
      <trkpt lat="45.88463" lon="6.18856">
        <ele>814</ele>
        <time>2018-05-20T10:16:21.822Z</time>
      </trkpt>
      <trkpt lat="45.8846" lon="6.18842">
        <ele>812</ele>
        <time>2018-05-20T10:16:26.822Z</time>
      </trkpt>
      <trkpt lat="45.8847" lon="6.18837">
        <ele>812</ele>
        <time>2018-05-20T10:16:30.822Z</time>
      </trkpt>
      <trkpt lat="45.88477" lon="6.18828">
        <ele>811.21285485714</ele>
        <time>2018-05-20T10:16:35.822Z</time>
      </trkpt>
      <trkpt lat="45.88477" lon="6.18814">
        <ele>808</ele>
        <time>2018-05-20T10:16:42.822Z</time>
      </trkpt>
      <trkpt lat="45.8848" lon="6.18801">
        <ele>808</ele>
        <time>2018-05-20T10:16:50.822Z</time>
      </trkpt>
      <trkpt lat="45.88487" lon="6.18792">
        <ele>806.98708984805</ele>
        <time>2018-05-20T10:16:59.822Z</time>
      </trkpt>
      <trkpt lat="45.88492" lon="6.18782">
        <ele>805</ele>
        <time>2018-05-20T10:17:06.822Z</time>
      </trkpt>
      <trkpt lat="45.88497" lon="6.18769">
        <ele>804</ele>
        <time>2018-05-20T10:17:15.822Z</time>
      </trkpt>
      <trkpt lat="45.88503" lon="6.18759">
        <ele>802</ele>
        <time>2018-05-20T10:17:23.822Z</time>
      </trkpt>
      <trkpt lat="45.88509" lon="6.18749">
        <ele>802</ele>
        <time>2018-05-20T10:17:29.822Z</time>
      </trkpt>
      <trkpt lat="45.88515" lon="6.18738">
        <ele>801</ele>
        <time>2018-05-20T10:17:37.822Z</time>
      </trkpt>
      <trkpt lat="45.88521" lon="6.18727">
        <ele>798.90285379917</ele>
        <time>2018-05-20T10:17:45.822Z</time>
      </trkpt>
      <trkpt lat="45.88526" lon="6.18719">
        <ele>798</ele>
        <time>2018-05-20T10:17:55.822Z</time>
      </trkpt>
      <trkpt lat="45.88529" lon="6.18707">
        <ele>796</ele>
        <time>2018-05-20T10:18:06.822Z</time>
      </trkpt>
      <trkpt lat="45.88532" lon="6.18693">
        <ele>794</ele>
        <time>2018-05-20T10:18:14.822Z</time>
      </trkpt>
      <trkpt lat="45.88535" lon="6.1868">
        <ele>794</ele>
        <time>2018-05-20T10:18:21.822Z</time>
      </trkpt>
      <trkpt lat="45.88542" lon="6.1867">
        <ele>793</ele>
        <time>2018-05-20T10:18:27.822Z</time>
      </trkpt>
      <trkpt lat="45.8855" lon="6.18663">
        <ele>792</ele>
        <time>2018-05-20T10:18:35.822Z</time>
      </trkpt>
      <trkpt lat="45.88559" lon="6.18656">
        <ele>792</ele>
        <time>2018-05-20T10:18:42.822Z</time>
      </trkpt>
      <trkpt lat="45.88566" lon="6.18664">
        <ele>790.90973142579</ele>
        <time>2018-05-20T10:18:57.822Z</time>
      </trkpt>
      <trkpt lat="45.88573" lon="6.18654">
        <ele>791</ele>
        <time>2018-05-20T10:19:08.822Z</time>
      </trkpt>
      <trkpt lat="45.8858" lon="6.18645">
        <ele>789</ele>
        <time>2018-05-20T10:19:20.822Z</time>
      </trkpt>
      <trkpt lat="45.88585" lon="6.18633">
        <ele>787</ele>
        <time>2018-05-20T10:19:28.822Z</time>
      </trkpt>
      <trkpt lat="45.88592" lon="6.18624">
        <ele>786</ele>
        <time>2018-05-20T10:19:43.822Z</time>
      </trkpt>
      <trkpt lat="45.886" lon="6.1863">
        <ele>786</ele>
        <time>2018-05-20T10:20:21.822Z</time>
      </trkpt>
      <trkpt lat="45.88598" lon="6.18643">
        <ele>786</ele>
        <time>2018-05-20T10:20:26.822Z</time>
      </trkpt>
      <trkpt lat="45.88589" lon="6.18646">
        <ele>785</ele>
        <time>2018-05-20T10:20:30.822Z</time>
      </trkpt>
      <trkpt lat="45.88578" lon="6.18647">
        <ele>785</ele>
        <time>2018-05-20T10:20:35.822Z</time>
      </trkpt>
      <trkpt lat="45.88569" lon="6.1865">
        <ele>783</ele>
        <time>2018-05-20T10:20:42.822Z</time>
      </trkpt>
      <trkpt lat="45.8856" lon="6.18649">
        <ele>781</ele>
        <time>2018-05-20T10:20:50.822Z</time>
      </trkpt>
      <trkpt lat="45.8855" lon="6.18649">
        <ele>780</ele>
        <time>2018-05-20T10:20:58.822Z</time>
      </trkpt>
      <trkpt lat="45.88541" lon="6.18643">
        <ele>778</ele>
        <time>2018-05-20T10:21:05.822Z</time>
      </trkpt>
      <trkpt lat="45.88532" lon="6.18642">
        <ele>776</ele>
        <time>2018-05-20T10:21:14.822Z</time>
      </trkpt>
      <trkpt lat="45.88523" lon="6.1865">
        <ele>774</ele>
        <time>2018-05-20T10:21:24.822Z</time>
      </trkpt>
      <trkpt lat="45.88516" lon="6.18661">
        <ele>773</ele>
        <time>2018-05-20T10:21:33.822Z</time>
      </trkpt>
      <trkpt lat="45.88508" lon="6.18666">
        <ele>771</ele>
        <time>2018-05-20T10:21:42.822Z</time>
      </trkpt>
      <trkpt lat="45.885" lon="6.18676">
        <ele>768</ele>
        <time>2018-05-20T10:21:54.822Z</time>
      </trkpt>
      <trkpt lat="45.88493" lon="6.18686">
        <ele>767</ele>
        <time>2018-05-20T10:22:02.822Z</time>
      </trkpt>
      <trkpt lat="45.88485" lon="6.18691">
        <ele>764</ele>
        <time>2018-05-20T10:22:09.822Z</time>
      </trkpt>
      <trkpt lat="45.88487" lon="6.18678">
        <ele>763.27499789474</ele>
        <time>2018-05-20T10:22:14.822Z</time>
      </trkpt>
      <trkpt lat="45.88489" lon="6.18665">
        <ele>763</ele>
        <time>2018-05-20T10:22:20.822Z</time>
      </trkpt>
      <trkpt lat="45.88491" lon="6.18653">
        <ele>760.93541333333</ele>
        <time>2018-05-20T10:22:28.822Z</time>
      </trkpt>
      <trkpt lat="45.88495" lon="6.18641">
        <ele>758.90726927866</ele>
        <time>2018-05-20T10:22:35.822Z</time>
      </trkpt>
      <trkpt lat="45.88501" lon="6.18629">
        <ele>755</ele>
        <time>2018-05-20T10:22:43.822Z</time>
      </trkpt>
      <trkpt lat="45.88505" lon="6.18619">
        <ele>755</ele>
        <time>2018-05-20T10:22:52.822Z</time>
      </trkpt>
      <trkpt lat="45.88498" lon="6.18627">
        <ele>752</ele>
        <time>2018-05-20T10:23:03.822Z</time>
      </trkpt>
      <trkpt lat="45.8849" lon="6.18636">
        <ele>751.90973142579</ele>
        <time>2018-05-20T10:23:10.822Z</time>
      </trkpt>
      <trkpt lat="45.88481" lon="6.18643">
        <ele>747.90706454282</ele>
        <time>2018-05-20T10:23:20.822Z</time>
      </trkpt>
      <trkpt lat="45.88481" lon="6.18628">
        <ele>746</ele>
        <time>2018-05-20T10:23:30.822Z</time>
      </trkpt>
      <trkpt lat="45.88487" lon="6.18617">
        <ele>744</ele>
        <time>2018-05-20T10:23:37.822Z</time>
      </trkpt>
      <trkpt lat="45.88492" lon="6.18607">
        <ele>743</ele>
        <time>2018-05-20T10:23:43.822Z</time>
      </trkpt>
      <trkpt lat="45.88499" lon="6.18596">
        <ele>742</ele>
        <time>2018-05-20T10:23:51.822Z</time>
      </trkpt>
      <trkpt lat="45.88506" lon="6.18606">
        <ele>742</ele>
        <time>2018-05-20T10:24:21.822Z</time>
      </trkpt>
      <trkpt lat="45.88509" lon="6.18592">
        <ele>741</ele>
        <time>2018-05-20T10:24:40.822Z</time>
      </trkpt>
      <trkpt lat="45.88515" lon="6.1858">
        <ele>738</ele>
        <time>2018-05-20T10:24:50.822Z</time>
      </trkpt>
      <trkpt lat="45.88521" lon="6.18569">
        <ele>737</ele>
        <time>2018-05-20T10:24:57.822Z</time>
      </trkpt>
      <trkpt lat="45.88529" lon="6.18561">
        <ele>735</ele>
        <time>2018-05-20T10:25:07.822Z</time>
      </trkpt>
      <trkpt lat="45.8852" lon="6.18565">
        <ele>730.8979968</ele>
        <time>2018-05-20T10:25:33.822Z</time>
      </trkpt>
      <trkpt lat="45.8851" lon="6.18569">
        <ele>730</ele>
        <time>2018-05-20T10:25:40.822Z</time>
      </trkpt>
      <trkpt lat="45.88508" lon="6.18555">
        <ele>727</ele>
        <time>2018-05-20T10:25:53.822Z</time>
      </trkpt>
      <trkpt lat="45.88515" lon="6.18545">
        <ele>724.21147167753</ele>
        <time>2018-05-20T10:26:00.822Z</time>
      </trkpt>
      <trkpt lat="45.88522" lon="6.18536">
        <ele>723.8979968</ele>
        <time>2018-05-20T10:26:11.822Z</time>
      </trkpt>
      <trkpt lat="45.88526" lon="6.18525">
        <ele>721</ele>
        <time>2018-05-20T10:26:20.822Z</time>
      </trkpt>
      <trkpt lat="45.88519" lon="6.18533">
        <ele>714</ele>
        <time>2018-05-20T10:27:00.822Z</time>
      </trkpt>
      <trkpt lat="45.8851" lon="6.18534">
        <ele>713</ele>
        <time>2018-05-20T10:27:10.822Z</time>
      </trkpt>
      <trkpt lat="45.88503" lon="6.18542">
        <ele>710.18319009562</ele>
        <time>2018-05-20T10:27:19.822Z</time>
      </trkpt>
      <trkpt lat="45.88495" lon="6.1855">
        <ele>709</ele>
        <time>2018-05-20T10:27:26.822Z</time>
      </trkpt>
      <trkpt lat="45.88487" lon="6.18557">
        <ele>708</ele>
        <time>2018-05-20T10:27:33.822Z</time>
      </trkpt>
      <trkpt lat="45.88477" lon="6.18555">
        <ele>706</ele>
        <time>2018-05-20T10:27:41.822Z</time>
      </trkpt>
      <trkpt lat="45.88481" lon="6.18542">
        <ele>705</ele>
        <time>2018-05-20T10:27:50.822Z</time>
      </trkpt>
      <trkpt lat="45.88471" lon="6.18545">
        <ele>702</ele>
        <time>2018-05-20T10:28:03.822Z</time>
      </trkpt>
      <trkpt lat="45.88462" lon="6.1855">
        <ele>701</ele>
        <time>2018-05-20T10:28:09.822Z</time>
      </trkpt>
      <trkpt lat="45.88455" lon="6.18558">
        <ele>699.8979968</ele>
        <time>2018-05-20T10:28:18.822Z</time>
      </trkpt>
      <trkpt lat="45.88446" lon="6.18561">
        <ele>697</ele>
        <time>2018-05-20T10:28:25.822Z</time>
      </trkpt>
      <trkpt lat="45.88438" lon="6.18568">
        <ele>697</ele>
        <time>2018-05-20T10:28:36.822Z</time>
      </trkpt>
      <trkpt lat="45.88429" lon="6.18571">
        <ele>694</ele>
        <time>2018-05-20T10:28:46.822Z</time>
      </trkpt>
      <trkpt lat="45.88421" lon="6.18577">
        <ele>691</ele>
        <time>2018-05-20T10:28:57.822Z</time>
      </trkpt>
      <trkpt lat="45.88413" lon="6.18583">
        <ele>688</ele>
        <time>2018-05-20T10:29:07.822Z</time>
      </trkpt>
      <trkpt lat="45.8841" lon="6.1857">
        <ele>687.90467019164</ele>
        <time>2018-05-20T10:29:22.822Z</time>
      </trkpt>
      <trkpt lat="45.88401" lon="6.18578">
        <ele>683.8979968</ele>
        <time>2018-05-20T10:29:43.822Z</time>
      </trkpt>
      <trkpt lat="45.88407" lon="6.18566">
        <ele>681.8979968</ele>
        <time>2018-05-20T10:29:51.822Z</time>
      </trkpt>
      <trkpt lat="45.8841" lon="6.18553">
        <ele>679</ele>
        <time>2018-05-20T10:29:57.822Z</time>
      </trkpt>
      <trkpt lat="45.88401" lon="6.18554">
        <ele>677</ele>
        <time>2018-05-20T10:30:17.822Z</time>
      </trkpt>
      <trkpt lat="45.88403" lon="6.1854">
        <ele>672.96559127945</ele>
        <time>2018-05-20T10:30:37.822Z</time>
      </trkpt>
      <trkpt lat="45.88409" lon="6.1853">
        <ele>670.97608347826</ele>
        <time>2018-05-20T10:30:48.822Z</time>
      </trkpt>
      <trkpt lat="45.88401" lon="6.18535">
        <ele>665</ele>
        <time>2018-05-20T10:31:09.822Z</time>
      </trkpt>
      <trkpt lat="45.88392" lon="6.18537">
        <ele>664</ele>
        <time>2018-05-20T10:31:16.822Z</time>
      </trkpt>
      <trkpt lat="45.88382" lon="6.18539">
        <ele>661</ele>
        <time>2018-05-20T10:31:25.822Z</time>
      </trkpt>
      <trkpt lat="45.88373" lon="6.18542">
        <ele>659</ele>
        <time>2018-05-20T10:31:40.822Z</time>
      </trkpt>
      <trkpt lat="45.88364" lon="6.18542">
        <ele>655</ele>
        <time>2018-05-20T10:31:55.822Z</time>
      </trkpt>
      <trkpt lat="45.88364" lon="6.18555">
        <ele>652.90467019164</ele>
        <time>2018-05-20T10:32:05.822Z</time>
      </trkpt>
      <trkpt lat="45.88359" lon="6.18566">
        <ele>651.17031</ele>
        <time>2018-05-20T10:32:16.822Z</time>
      </trkpt>
      <trkpt lat="45.88355" lon="6.18555">
        <ele>650</ele>
        <time>2018-05-20T10:32:23.822Z</time>
      </trkpt>
      <trkpt lat="45.88355" lon="6.18541">
        <ele>648</ele>
        <time>2018-05-20T10:32:30.822Z</time>
      </trkpt>
      <trkpt lat="45.88345" lon="6.18542">
        <ele>643</ele>
        <time>2018-05-20T10:32:56.822Z</time>
      </trkpt>
      <trkpt lat="45.88336" lon="6.18548">
        <ele>641</ele>
        <time>2018-05-20T10:33:06.822Z</time>
      </trkpt>
      <trkpt lat="45.8833" lon="6.18538">
        <ele>637.8979968</ele>
        <time>2018-05-20T10:33:22.822Z</time>
      </trkpt>
      <trkpt lat="45.88337" lon="6.18528">
        <ele>634</ele>
        <time>2018-05-20T10:34:06.822Z</time>
      </trkpt>
      <trkpt lat="45.88342" lon="6.1854">
        <ele>634</ele>
        <time>2018-05-20T10:34:15.822Z</time>
      </trkpt>
      <trkpt lat="45.88352" lon="6.18536">
        <ele>634</ele>
        <time>2018-05-20T10:34:55.822Z</time>
      </trkpt>
      <trkpt lat="45.88346" lon="6.18526">
        <ele>634</ele>
        <time>2018-05-20T10:35:03.822Z</time>
      </trkpt>
      <trkpt lat="45.88337" lon="6.18523">
        <ele>634</ele>
        <time>2018-05-20T10:35:23.822Z</time>
      </trkpt>
      <trkpt lat="45.88332" lon="6.18535">
        <ele>633</ele>
        <time>2018-05-20T10:35:46.822Z</time>
      </trkpt>
      <trkpt lat="45.88323" lon="6.18534">
        <ele>630</ele>
        <time>2018-05-20T10:35:56.822Z</time>
      </trkpt>
      <trkpt lat="45.88322" lon="6.1852">
        <ele>628</ele>
        <time>2018-05-20T10:36:14.822Z</time>
      </trkpt>
      <trkpt lat="45.88318" lon="6.18509">
        <ele>624</ele>
        <time>2018-05-20T10:36:37.822Z</time>
      </trkpt>
      <trkpt lat="45.88309" lon="6.18509">
        <ele>620</ele>
        <time>2018-05-20T10:36:49.822Z</time>
      </trkpt>
      <trkpt lat="45.883" lon="6.18503">
        <ele>617</ele>
        <time>2018-05-20T10:37:00.822Z</time>
      </trkpt>
      <trkpt lat="45.88297" lon="6.18491">
        <ele>615</ele>
        <time>2018-05-20T10:37:08.822Z</time>
      </trkpt>
      <trkpt lat="45.88292" lon="6.18479">
        <ele>609.90096807466</ele>
        <time>2018-05-20T10:37:55.822Z</time>
      </trkpt>
      <trkpt lat="45.88286" lon="6.18467">
        <ele>607</ele>
        <time>2018-05-20T10:38:08.822Z</time>
      </trkpt>
      <trkpt lat="45.8828" lon="6.18456">
        <ele>604</ele>
        <time>2018-05-20T10:38:20.822Z</time>
      </trkpt>
      <trkpt lat="45.88277" lon="6.18444">
        <ele>598</ele>
        <time>2018-05-20T10:38:52.822Z</time>
      </trkpt>
      <trkpt lat="45.88272" lon="6.18433">
        <ele>596.99778131756</ele>
        <time>2018-05-20T10:39:03.822Z</time>
      </trkpt>
      <trkpt lat="45.88266" lon="6.18424">
        <ele>594</ele>
        <time>2018-05-20T10:39:13.822Z</time>
      </trkpt>
      <trkpt lat="45.88261" lon="6.18412">
        <ele>590.8979968</ele>
        <time>2018-05-20T10:39:24.822Z</time>
      </trkpt>
      <trkpt lat="45.88258" lon="6.184">
        <ele>589</ele>
        <time>2018-05-20T10:39:32.822Z</time>
      </trkpt>
      <trkpt lat="45.88257" lon="6.18386">
        <ele>585</ele>
        <time>2018-05-20T10:40:16.822Z</time>
      </trkpt>
      <trkpt lat="45.88254" lon="6.18374">
        <ele>583</ele>
        <time>2018-05-20T10:40:25.822Z</time>
      </trkpt>
      <trkpt lat="45.88252" lon="6.1836">
        <ele>580</ele>
        <time>2018-05-20T10:40:35.822Z</time>
      </trkpt>
      <trkpt lat="45.88257" lon="6.1835">
        <ele>577</ele>
        <time>2018-05-20T10:41:01.822Z</time>
      </trkpt>
      <trkpt lat="45.88258" lon="6.18348">
        <ele>576</ele>
        <time>2018-05-20T10:41:04.822Z</time>
      </trkpt>
      <trkpt lat="45.88259" lon="6.18345">
        <ele>575</ele>
        <time>2018-05-20T10:41:13.822Z</time>
      </trkpt>
      <trkpt lat="45.8826" lon="6.18341">
        <ele>574.9072703577</ele>
        <time>2018-05-20T10:41:16.822Z</time>
      </trkpt>
      <trkpt lat="45.8826" lon="6.18337">
        <ele>574</ele>
        <time>2018-05-20T10:41:18.822Z</time>
      </trkpt>
      <trkpt lat="45.8826" lon="6.18334">
        <ele>574</ele>
        <time>2018-05-20T10:41:20.822Z</time>
      </trkpt>
      <trkpt lat="45.8826" lon="6.1833">
        <ele>573.8979968</ele>
        <time>2018-05-20T10:41:22.822Z</time>
      </trkpt>
      <trkpt lat="45.88261" lon="6.18327">
        <ele>572</ele>
        <time>2018-05-20T10:41:24.822Z</time>
      </trkpt>
      <trkpt lat="45.88261" lon="6.18324">
        <ele>572</ele>
        <time>2018-05-20T10:41:26.822Z</time>
      </trkpt>
      <trkpt lat="45.88261" lon="6.18321">
        <ele>572</ele>
        <time>2018-05-20T10:41:28.822Z</time>
      </trkpt>
      <trkpt lat="45.88262" lon="6.18318">
        <ele>571</ele>
        <time>2018-05-20T10:41:30.822Z</time>
      </trkpt>
      <trkpt lat="45.88263" lon="6.18315">
        <ele>571</ele>
        <time>2018-05-20T10:41:32.822Z</time>
      </trkpt>
      <trkpt lat="45.88263" lon="6.18312">
        <ele>568</ele>
        <time>2018-05-20T10:41:43.822Z</time>
      </trkpt>
      <trkpt lat="45.88264" lon="6.1831">
        <ele>568</ele>
        <time>2018-05-20T10:41:45.822Z</time>
      </trkpt>
      <trkpt lat="45.88265" lon="6.18307">
        <ele>568</ele>
        <time>2018-05-20T10:41:48.822Z</time>
      </trkpt>
      <trkpt lat="45.88265" lon="6.18304">
        <ele>568</ele>
        <time>2018-05-20T10:41:57.822Z</time>
      </trkpt>
      <trkpt lat="45.88266" lon="6.183">
        <ele>566.97608347826</ele>
        <time>2018-05-20T10:42:00.822Z</time>
      </trkpt>
      <trkpt lat="45.88266" lon="6.18297">
        <ele>566</ele>
        <time>2018-05-20T10:42:02.822Z</time>
      </trkpt>
      <trkpt lat="45.88267" lon="6.18294">
        <ele>566</ele>
        <time>2018-05-20T10:42:04.822Z</time>
      </trkpt>
      <trkpt lat="45.88268" lon="6.18292">
        <ele>566</ele>
        <time>2018-05-20T10:42:06.822Z</time>
      </trkpt>
      <trkpt lat="45.8827" lon="6.1829">
        <ele>565</ele>
        <time>2018-05-20T10:42:09.822Z</time>
      </trkpt>
      <trkpt lat="45.88272" lon="6.18288">
        <ele>564</ele>
        <time>2018-05-20T10:42:12.822Z</time>
      </trkpt>
      <trkpt lat="45.88271" lon="6.18286">
        <ele>564</ele>
        <time>2018-05-20T10:42:20.822Z</time>
      </trkpt>
      <trkpt lat="45.88269" lon="6.18285">
        <ele>563</ele>
        <time>2018-05-20T10:42:22.822Z</time>
      </trkpt>
      <trkpt lat="45.88267" lon="6.18285">
        <ele>563</ele>
        <time>2018-05-20T10:42:24.822Z</time>
      </trkpt>
      <trkpt lat="45.88265" lon="6.18285">
        <ele>563</ele>
        <time>2018-05-20T10:42:26.822Z</time>
      </trkpt>
      <trkpt lat="45.88264" lon="6.18284">
        <ele>563</ele>
        <time>2018-05-20T10:42:28.822Z</time>
      </trkpt>
      <trkpt lat="45.88262" lon="6.18282">
        <ele>563</ele>
        <time>2018-05-20T10:42:31.822Z</time>
      </trkpt>
      <trkpt lat="45.88261" lon="6.18279">
        <ele>563</ele>
        <time>2018-05-20T10:42:34.822Z</time>
      </trkpt>
      <trkpt lat="45.8826" lon="6.18276">
        <ele>562</ele>
        <time>2018-05-20T10:42:37.822Z</time>
      </trkpt>
      <trkpt lat="45.8826" lon="6.18272">
        <ele>562</ele>
        <time>2018-05-20T10:42:40.822Z</time>
      </trkpt>
      <trkpt lat="45.88259" lon="6.18267">
        <ele>561</ele>
        <time>2018-05-20T10:42:43.822Z</time>
      </trkpt>
      <trkpt lat="45.88258" lon="6.18264">
        <ele>560</ele>
        <time>2018-05-20T10:42:45.822Z</time>
      </trkpt>
      <trkpt lat="45.88257" lon="6.18262">
        <ele>560</ele>
        <time>2018-05-20T10:42:47.822Z</time>
      </trkpt>
      <trkpt lat="45.88257" lon="6.18259">
        <ele>559</ele>
        <time>2018-05-20T10:42:49.822Z</time>
      </trkpt>
      <trkpt lat="45.88255" lon="6.18256">
        <ele>558</ele>
        <time>2018-05-20T10:42:51.822Z</time>
      </trkpt>
      <trkpt lat="45.88254" lon="6.18254">
        <ele>557.8979968</ele>
        <time>2018-05-20T10:42:53.822Z</time>
      </trkpt>
      <trkpt lat="45.88254" lon="6.1825">
        <ele>557</ele>
        <time>2018-05-20T10:42:55.822Z</time>
      </trkpt>
      <trkpt lat="45.88253" lon="6.18247">
        <ele>557</ele>
        <time>2018-05-20T10:42:57.822Z</time>
      </trkpt>
      <trkpt lat="45.88252" lon="6.18243">
        <ele>557</ele>
        <time>2018-05-20T10:42:59.822Z</time>
      </trkpt>
      <trkpt lat="45.88251" lon="6.1824">
        <ele>557</ele>
        <time>2018-05-20T10:43:01.822Z</time>
      </trkpt>
      <trkpt lat="45.8825" lon="6.18237">
        <ele>556.90810549015</ele>
        <time>2018-05-20T10:43:02.822Z</time>
      </trkpt>
      <trkpt lat="45.8825" lon="6.18233">
        <ele>555.8979968</ele>
        <time>2018-05-20T10:43:04.822Z</time>
      </trkpt>
      <trkpt lat="45.88249" lon="6.18228">
        <ele>554.96559127945</ele>
        <time>2018-05-20T10:43:06.822Z</time>
      </trkpt>
      <trkpt lat="45.88249" lon="6.18225">
        <ele>554</ele>
        <time>2018-05-20T10:43:08.822Z</time>
      </trkpt>
      <trkpt lat="45.88248" lon="6.1822">
        <ele>553.8979968</ele>
        <time>2018-05-20T10:43:10.822Z</time>
      </trkpt>
      <trkpt lat="45.88248" lon="6.18217">
        <ele>553</ele>
        <time>2018-05-20T10:43:11.822Z</time>
      </trkpt>
      <trkpt lat="45.88247" lon="6.18213">
        <ele>552</ele>
        <time>2018-05-20T10:43:13.822Z</time>
      </trkpt>
      <trkpt lat="45.88246" lon="6.18209">
        <ele>551</ele>
        <time>2018-05-20T10:43:15.822Z</time>
      </trkpt>
      <trkpt lat="45.88246" lon="6.18206">
        <ele>551</ele>
        <time>2018-05-20T10:43:17.822Z</time>
      </trkpt>
      <trkpt lat="45.88245" lon="6.18201">
        <ele>551</ele>
        <time>2018-05-20T10:43:19.822Z</time>
      </trkpt>
      <trkpt lat="45.88244" lon="6.18198">
        <ele>550</ele>
        <time>2018-05-20T10:43:21.822Z</time>
      </trkpt>
      <trkpt lat="45.88243" lon="6.18194">
        <ele>550</ele>
        <time>2018-05-20T10:43:23.822Z</time>
      </trkpt>
      <trkpt lat="45.88242" lon="6.18191">
        <ele>550</ele>
        <time>2018-05-20T10:43:25.822Z</time>
      </trkpt>
      <trkpt lat="45.88242" lon="6.18188">
        <ele>549</ele>
        <time>2018-05-20T10:43:32.822Z</time>
      </trkpt>
      <trkpt lat="45.88242" lon="6.18185">
        <ele>549</ele>
        <time>2018-05-20T10:43:34.822Z</time>
      </trkpt>
      <trkpt lat="45.88241" lon="6.18182">
        <ele>547</ele>
        <time>2018-05-20T10:43:37.822Z</time>
      </trkpt>
      <trkpt lat="45.88241" lon="6.18179">
        <ele>547</ele>
        <time>2018-05-20T10:43:39.822Z</time>
      </trkpt>
      <trkpt lat="45.88241" lon="6.18176">
        <ele>547</ele>
        <time>2018-05-20T10:43:41.822Z</time>
      </trkpt>
      <trkpt lat="45.88241" lon="6.18174">
        <ele>546</ele>
        <time>2018-05-20T10:43:43.822Z</time>
      </trkpt>
      <trkpt lat="45.88241" lon="6.1817">
        <ele>546</ele>
        <time>2018-05-20T10:43:46.822Z</time>
      </trkpt>
      <trkpt lat="45.88241" lon="6.18166">
        <ele>545.8979968</ele>
        <time>2018-05-20T10:43:48.822Z</time>
      </trkpt>
      <trkpt lat="45.8824" lon="6.18164">
        <ele>545</ele>
        <time>2018-05-20T10:43:50.822Z</time>
      </trkpt>
      <trkpt lat="45.88238" lon="6.18161">
        <ele>545</ele>
        <time>2018-05-20T10:43:52.822Z</time>
      </trkpt>
      <trkpt lat="45.88237" lon="6.18159">
        <ele>545</ele>
        <time>2018-05-20T10:43:54.822Z</time>
      </trkpt>
      <trkpt lat="45.88237" lon="6.18156">
        <ele>544</ele>
        <time>2018-05-20T10:43:56.822Z</time>
      </trkpt>
      <trkpt lat="45.88237" lon="6.18152">
        <ele>544</ele>
        <time>2018-05-20T10:43:58.822Z</time>
      </trkpt>
      <trkpt lat="45.88237" lon="6.18148">
        <ele>544</ele>
        <time>2018-05-20T10:44:00.822Z</time>
      </trkpt>
      <trkpt lat="45.88237" lon="6.18145">
        <ele>544</ele>
        <time>2018-05-20T10:44:02.822Z</time>
      </trkpt>
      <trkpt lat="45.88238" lon="6.18143">
        <ele>542.98680620024</ele>
        <time>2018-05-20T10:44:04.822Z</time>
      </trkpt>
      <trkpt lat="45.88239" lon="6.18142">
        <ele>542</ele>
        <time>2018-05-20T10:44:28.822Z</time>
      </trkpt>
      <trkpt lat="45.88241" lon="6.1814">
        <ele>541.96559127945</ele>
        <time>2018-05-20T10:44:32.822Z</time>
      </trkpt>
      <trkpt lat="45.88241" lon="6.18137">
        <ele>541</ele>
        <time>2018-05-20T10:44:44.822Z</time>
      </trkpt>
      <trkpt lat="45.88242" lon="6.18134">
        <ele>540</ele>
        <time>2018-05-20T10:44:48.822Z</time>
      </trkpt>
      <trkpt lat="45.88242" lon="6.18131">
        <ele>540</ele>
        <time>2018-05-20T10:44:51.822Z</time>
      </trkpt>
      <trkpt lat="45.88242" lon="6.18128">
        <ele>539</ele>
        <time>2018-05-20T10:44:54.822Z</time>
      </trkpt>
      <trkpt lat="45.88242" lon="6.18125">
        <ele>539</ele>
        <time>2018-05-20T10:44:56.822Z</time>
      </trkpt>
      <trkpt lat="45.88241" lon="6.18122">
        <ele>539</ele>
        <time>2018-05-20T10:44:58.822Z</time>
      </trkpt>
      <trkpt lat="45.88241" lon="6.18119">
        <ele>538</ele>
        <time>2018-05-20T10:45:00.822Z</time>
      </trkpt>
      <trkpt lat="45.88241" lon="6.18115">
        <ele>537</ele>
        <time>2018-05-20T10:45:02.822Z</time>
      </trkpt>
      <trkpt lat="45.8824" lon="6.18112">
        <ele>537</ele>
        <time>2018-05-20T10:45:04.822Z</time>
      </trkpt>
      <trkpt lat="45.88239" lon="6.18109">
        <ele>536.9072703577</ele>
        <time>2018-05-20T10:45:06.822Z</time>
      </trkpt>
      <trkpt lat="45.88238" lon="6.18107">
        <ele>536</ele>
        <time>2018-05-20T10:45:08.822Z</time>
      </trkpt>
      <trkpt lat="45.88237" lon="6.18104">
        <ele>536</ele>
        <time>2018-05-20T10:45:10.822Z</time>
      </trkpt>
      <trkpt lat="45.88236" lon="6.18101">
        <ele>535</ele>
        <time>2018-05-20T10:45:12.822Z</time>
      </trkpt>
      <trkpt lat="45.88234" lon="6.18098">
        <ele>535</ele>
        <time>2018-05-20T10:45:14.822Z</time>
      </trkpt>
      <trkpt lat="45.88233" lon="6.18095">
        <ele>535</ele>
        <time>2018-05-20T10:45:16.822Z</time>
      </trkpt>
      <trkpt lat="45.88231" lon="6.18093">
        <ele>534.8979968</ele>
        <time>2018-05-20T10:45:18.822Z</time>
      </trkpt>
      <trkpt lat="45.88229" lon="6.18091">
        <ele>534</ele>
        <time>2018-05-20T10:45:20.822Z</time>
      </trkpt>
      <trkpt lat="45.88227" lon="6.18088">
        <ele>533</ele>
        <time>2018-05-20T10:45:22.822Z</time>
      </trkpt>
      <trkpt lat="45.88226" lon="6.18086">
        <ele>532.8979968</ele>
        <time>2018-05-20T10:45:24.822Z</time>
      </trkpt>
      <trkpt lat="45.88224" lon="6.18084">
        <ele>532</ele>
        <time>2018-05-20T10:45:26.822Z</time>
      </trkpt>
      <trkpt lat="45.88222" lon="6.18082">
        <ele>532</ele>
        <time>2018-05-20T10:45:28.822Z</time>
      </trkpt>
      <trkpt lat="45.8822" lon="6.18079">
        <ele>531</ele>
        <time>2018-05-20T10:45:31.822Z</time>
      </trkpt>
      <trkpt lat="45.88219" lon="6.18077">
        <ele>530.8979968</ele>
        <time>2018-05-20T10:45:33.822Z</time>
      </trkpt>
      <trkpt lat="45.88217" lon="6.18075">
        <ele>530</ele>
        <time>2018-05-20T10:45:35.822Z</time>
      </trkpt>
      <trkpt lat="45.88216" lon="6.18073">
        <ele>530</ele>
        <time>2018-05-20T10:45:37.822Z</time>
      </trkpt>
      <trkpt lat="45.88213" lon="6.18071">
        <ele>529.90726927866</ele>
        <time>2018-05-20T10:45:39.822Z</time>
      </trkpt>
      <trkpt lat="45.88212" lon="6.18068">
        <ele>528.17189946262</ele>
        <time>2018-05-20T10:45:41.822Z</time>
      </trkpt>
      <trkpt lat="45.8821" lon="6.18065">
        <ele>528</ele>
        <time>2018-05-20T10:45:43.822Z</time>
      </trkpt>
      <trkpt lat="45.88209" lon="6.18061">
        <ele>527.92213515204</ele>
        <time>2018-05-20T10:45:45.822Z</time>
      </trkpt>
      <trkpt lat="45.88208" lon="6.18058">
        <ele>527</ele>
        <time>2018-05-20T10:45:47.822Z</time>
      </trkpt>
      <trkpt lat="45.88206" lon="6.18054">
        <ele>526</ele>
        <time>2018-05-20T10:45:49.822Z</time>
      </trkpt>
      <trkpt lat="45.88205" lon="6.18051">
        <ele>526</ele>
        <time>2018-05-20T10:45:51.822Z</time>
      </trkpt>
      <trkpt lat="45.88204" lon="6.18048">
        <ele>526</ele>
        <time>2018-05-20T10:45:53.822Z</time>
      </trkpt>
      <trkpt lat="45.88203" lon="6.18044">
        <ele>526</ele>
        <time>2018-05-20T10:45:55.822Z</time>
      </trkpt>
      <trkpt lat="45.88203" lon="6.1804">
        <ele>525</ele>
        <time>2018-05-20T10:45:57.822Z</time>
      </trkpt>
      <trkpt lat="45.88202" lon="6.18037">
        <ele>525</ele>
        <time>2018-05-20T10:45:59.822Z</time>
      </trkpt>
      <trkpt lat="45.88202" lon="6.18034">
        <ele>525</ele>
        <time>2018-05-20T10:46:01.822Z</time>
      </trkpt>
      <trkpt lat="45.88201" lon="6.18031">
        <ele>525</ele>
        <time>2018-05-20T10:46:03.822Z</time>
      </trkpt>
      <trkpt lat="45.882" lon="6.18028">
        <ele>524.20144325307</ele>
        <time>2018-05-20T10:46:05.822Z</time>
      </trkpt>
      <trkpt lat="45.88199" lon="6.18025">
        <ele>523.8979968</ele>
        <time>2018-05-20T10:46:07.822Z</time>
      </trkpt>
      <trkpt lat="45.88199" lon="6.18022">
        <ele>523</ele>
        <time>2018-05-20T10:46:09.822Z</time>
      </trkpt>
      <trkpt lat="45.88198" lon="6.18019">
        <ele>523</ele>
        <time>2018-05-20T10:46:12.822Z</time>
      </trkpt>
      <trkpt lat="45.88197" lon="6.18016">
        <ele>522.8979968</ele>
        <time>2018-05-20T10:46:14.822Z</time>
      </trkpt>
      <trkpt lat="45.88196" lon="6.18013">
        <ele>521.93541333333</ele>
        <time>2018-05-20T10:46:16.822Z</time>
      </trkpt>
      <trkpt lat="45.88195" lon="6.18009">
        <ele>521</ele>
        <time>2018-05-20T10:46:18.822Z</time>
      </trkpt>
      <trkpt lat="45.88195" lon="6.18006">
        <ele>521</ele>
        <time>2018-05-20T10:46:20.822Z</time>
      </trkpt>
      <trkpt lat="45.88194" lon="6.18003">
        <ele>521</ele>
        <time>2018-05-20T10:46:22.822Z</time>
      </trkpt>
      <trkpt lat="45.88193" lon="6.18001">
        <ele>521</ele>
        <time>2018-05-20T10:46:24.822Z</time>
      </trkpt>
      <trkpt lat="45.88192" lon="6.17997">
        <ele>520</ele>
        <time>2018-05-20T10:46:26.822Z</time>
      </trkpt>
      <trkpt lat="45.88192" lon="6.17995">
        <ele>519.8979968</ele>
        <time>2018-05-20T10:46:28.822Z</time>
      </trkpt>
      <trkpt lat="45.8819" lon="6.17992">
        <ele>519</ele>
        <time>2018-05-20T10:46:31.822Z</time>
      </trkpt>
      <trkpt lat="45.88192" lon="6.1799">
        <ele>519</ele>
        <time>2018-05-20T10:46:37.822Z</time>
      </trkpt>
      <trkpt lat="45.88192" lon="6.17988">
        <ele>519</ele>
        <time>2018-05-20T10:46:42.822Z</time>
      </trkpt>
      <trkpt lat="45.88191" lon="6.17985">
        <ele>518</ele>
        <time>2018-05-20T10:46:45.822Z</time>
      </trkpt>
      <trkpt lat="45.8819" lon="6.17982">
        <ele>518</ele>
        <time>2018-05-20T10:46:48.822Z</time>
      </trkpt>
      <trkpt lat="45.88188" lon="6.1798">
        <ele>518</ele>
        <time>2018-05-20T10:46:50.822Z</time>
      </trkpt>
      <trkpt lat="45.88187" lon="6.17977">
        <ele>518</ele>
        <time>2018-05-20T10:46:53.822Z</time>
      </trkpt>
      <trkpt lat="45.88185" lon="6.17975">
        <ele>518</ele>
        <time>2018-05-20T10:46:55.822Z</time>
      </trkpt>
      <trkpt lat="45.88184" lon="6.17972">
        <ele>517.90555259259</ele>
        <time>2018-05-20T10:46:57.822Z</time>
      </trkpt>
      <trkpt lat="45.88184" lon="6.17968">
        <ele>517</ele>
        <time>2018-05-20T10:46:59.822Z</time>
      </trkpt>
      <trkpt lat="45.88185" lon="6.17964">
        <ele>517</ele>
        <time>2018-05-20T10:47:01.822Z</time>
      </trkpt>
      <trkpt lat="45.88185" lon="6.17961">
        <ele>517</ele>
        <time>2018-05-20T10:47:03.822Z</time>
      </trkpt>
      <trkpt lat="45.88185" lon="6.17959">
        <ele>516</ele>
        <time>2018-05-20T10:47:05.822Z</time>
      </trkpt>
      <trkpt lat="45.88186" lon="6.17955">
        <ele>516</ele>
        <time>2018-05-20T10:47:07.822Z</time>
      </trkpt>
      <trkpt lat="45.88187" lon="6.17951">
        <ele>516</ele>
        <time>2018-05-20T10:47:09.822Z</time>
      </trkpt>
      <trkpt lat="45.88189" lon="6.17948">
        <ele>516</ele>
        <time>2018-05-20T10:47:11.822Z</time>
      </trkpt>
      <trkpt lat="45.8819" lon="6.17945">
        <ele>514.90467019164</ele>
        <time>2018-05-20T10:47:13.822Z</time>
      </trkpt>
      <trkpt lat="45.88192" lon="6.17942">
        <ele>514.82560211354</ele>
        <time>2018-05-20T10:47:15.822Z</time>
      </trkpt>
      <trkpt lat="45.88193" lon="6.17939">
        <ele>514</ele>
        <time>2018-05-20T10:47:17.822Z</time>
      </trkpt>
      <trkpt lat="45.88194" lon="6.17935">
        <ele>514</ele>
        <time>2018-05-20T10:47:19.822Z</time>
      </trkpt>
      <trkpt lat="45.88195" lon="6.17932">
        <ele>514</ele>
        <time>2018-05-20T10:47:21.822Z</time>
      </trkpt>
      <trkpt lat="45.88196" lon="6.17929">
        <ele>514</ele>
        <time>2018-05-20T10:47:23.822Z</time>
      </trkpt>
      <trkpt lat="45.88198" lon="6.17926">
        <ele>513</ele>
        <time>2018-05-20T10:47:25.822Z</time>
      </trkpt>
      <trkpt lat="45.88199" lon="6.17923">
        <ele>513</ele>
        <time>2018-05-20T10:47:27.822Z</time>
      </trkpt>
      <trkpt lat="45.88201" lon="6.17922">
        <ele>512</ele>
        <time>2018-05-20T10:47:33.822Z</time>
      </trkpt>
      <trkpt lat="45.88203" lon="6.17919">
        <ele>512</ele>
        <time>2018-05-20T10:47:36.822Z</time>
      </trkpt>
      <trkpt lat="45.88205" lon="6.17917">
        <ele>511</ele>
        <time>2018-05-20T10:47:39.822Z</time>
      </trkpt>
      <trkpt lat="45.88206" lon="6.17914">
        <ele>511</ele>
        <time>2018-05-20T10:47:42.822Z</time>
      </trkpt>
      <trkpt lat="45.88208" lon="6.17912">
        <ele>510.0927296423</ele>
        <time>2018-05-20T10:47:44.822Z</time>
      </trkpt>
      <trkpt lat="45.88209" lon="6.1791">
        <ele>511</ele>
        <time>2018-05-20T10:47:46.822Z</time>
      </trkpt>
      <trkpt lat="45.88211" lon="6.17907">
        <ele>511</ele>
        <time>2018-05-20T10:47:48.822Z</time>
      </trkpt>
      <trkpt lat="45.88212" lon="6.17905">
        <ele>511</ele>
        <time>2018-05-20T10:47:50.822Z</time>
      </trkpt>
      <trkpt lat="45.88213" lon="6.17902">
        <ele>511</ele>
        <time>2018-05-20T10:47:53.822Z</time>
      </trkpt>
      <trkpt lat="45.88214" lon="6.17899">
        <ele>510.8979968</ele>
        <time>2018-05-20T10:47:55.822Z</time>
      </trkpt>
      <trkpt lat="45.88216" lon="6.17896">
        <ele>510</ele>
        <time>2018-05-20T10:47:57.822Z</time>
      </trkpt>
      <trkpt lat="45.88216" lon="6.17893">
        <ele>510</ele>
        <time>2018-05-20T10:47:59.822Z</time>
      </trkpt>
      <trkpt lat="45.88215" lon="6.17889">
        <ele>508.98680620024</ele>
        <time>2018-05-20T10:48:02.822Z</time>
      </trkpt>
      <trkpt lat="45.88215" lon="6.17886">
        <ele>508</ele>
        <time>2018-05-20T10:48:04.822Z</time>
      </trkpt>
      <trkpt lat="45.88214" lon="6.17882">
        <ele>508</ele>
        <time>2018-05-20T10:48:08.822Z</time>
      </trkpt>
      <trkpt lat="45.88213" lon="6.17878">
        <ele>508</ele>
        <time>2018-05-20T10:48:11.822Z</time>
      </trkpt>
      <trkpt lat="45.88213" lon="6.17875">
        <ele>508</ele>
        <time>2018-05-20T10:48:13.822Z</time>
      </trkpt>
      <trkpt lat="45.88212" lon="6.1787">
        <ele>507</ele>
        <time>2018-05-20T10:48:16.822Z</time>
      </trkpt>
      <trkpt lat="45.88211" lon="6.17867">
        <ele>507</ele>
        <time>2018-05-20T10:48:18.822Z</time>
      </trkpt>
      <trkpt lat="45.88207" lon="6.17858">
        <ele>506</ele>
        <time>2018-05-20T10:48:24.822Z</time>
      </trkpt>
      <trkpt lat="45.88205" lon="6.17852">
        <ele>505.8979968</ele>
        <time>2018-05-20T10:48:27.822Z</time>
      </trkpt>
      <trkpt lat="45.88206" lon="6.17848">
        <ele>505</ele>
        <time>2018-05-20T10:48:29.822Z</time>
      </trkpt>
      <trkpt lat="45.88206" lon="6.17845">
        <ele>505</ele>
        <time>2018-05-20T10:48:31.822Z</time>
      </trkpt>
      <trkpt lat="45.88206" lon="6.17842">
        <ele>505</ele>
        <time>2018-05-20T10:48:33.822Z</time>
      </trkpt>
      <trkpt lat="45.88205" lon="6.17839">
        <ele>505</ele>
        <time>2018-05-20T10:48:36.822Z</time>
      </trkpt>
      <trkpt lat="45.88206" lon="6.17836">
        <ele>505</ele>
        <time>2018-05-20T10:48:42.822Z</time>
      </trkpt>
      <trkpt lat="45.88207" lon="6.17833">
        <ele>505</ele>
        <time>2018-05-20T10:48:44.822Z</time>
      </trkpt>
      <trkpt lat="45.88207" lon="6.1783">
        <ele>505</ele>
        <time>2018-05-20T10:48:46.822Z</time>
      </trkpt>
      <trkpt lat="45.88207" lon="6.17827">
        <ele>505</ele>
        <time>2018-05-20T10:48:48.822Z</time>
      </trkpt>
      <trkpt lat="45.88207" lon="6.17824">
        <ele>504</ele>
        <time>2018-05-20T10:48:52.822Z</time>
      </trkpt>
      <trkpt lat="45.88208" lon="6.17822">
        <ele>504</ele>
        <time>2018-05-20T10:48:58.822Z</time>
      </trkpt>
      <trkpt lat="45.88209" lon="6.17819">
        <ele>504</ele>
        <time>2018-05-20T10:49:00.822Z</time>
      </trkpt>
      <trkpt lat="45.8821" lon="6.17816">
        <ele>504</ele>
        <time>2018-05-20T10:49:03.822Z</time>
      </trkpt>
      <trkpt lat="45.88211" lon="6.17813">
        <ele>504</ele>
        <time>2018-05-20T10:49:05.822Z</time>
      </trkpt>
      <trkpt lat="45.88213" lon="6.1781">
        <ele>504</ele>
        <time>2018-05-20T10:49:07.822Z</time>
      </trkpt>
      <trkpt lat="45.88214" lon="6.17807">
        <ele>503.90706454282</ele>
        <time>2018-05-20T10:49:09.822Z</time>
      </trkpt>
      <trkpt lat="45.88215" lon="6.17804">
        <ele>503</ele>
        <time>2018-05-20T10:49:11.822Z</time>
      </trkpt>
      <trkpt lat="45.88217" lon="6.17802">
        <ele>502.90641880783</ele>
        <time>2018-05-20T10:49:13.822Z</time>
      </trkpt>
      <trkpt lat="45.88219" lon="6.17799">
        <ele>502</ele>
        <time>2018-05-20T10:49:16.822Z</time>
      </trkpt>
      <trkpt lat="45.8822" lon="6.17796">
        <ele>501.8979968</ele>
        <time>2018-05-20T10:49:18.822Z</time>
      </trkpt>
      <trkpt lat="45.88221" lon="6.17793">
        <ele>501</ele>
        <time>2018-05-20T10:49:20.822Z</time>
      </trkpt>
      <trkpt lat="45.88222" lon="6.1779">
        <ele>501</ele>
        <time>2018-05-20T10:49:22.822Z</time>
      </trkpt>
      <trkpt lat="45.88223" lon="6.17789">
        <ele>501</ele>
        <time>2018-05-20T10:49:24.822Z</time>
      </trkpt>
      <trkpt lat="45.88226" lon="6.17789">
        <ele>500.91631728119</ele>
        <time>2018-05-20T10:49:26.822Z</time>
      </trkpt>
      <trkpt lat="45.88228" lon="6.17787">
        <ele>499.00720718643</ele>
        <time>2018-05-20T10:49:31.822Z</time>
      </trkpt>
      <trkpt lat="45.8823" lon="6.17783">
        <ele>499</ele>
        <time>2018-05-20T10:49:34.822Z</time>
      </trkpt>
      <trkpt lat="45.88231" lon="6.1778">
        <ele>498.90192</ele>
        <time>2018-05-20T10:49:36.822Z</time>
      </trkpt>
      <trkpt lat="45.88232" lon="6.17777">
        <ele>498</ele>
        <time>2018-05-20T10:49:38.822Z</time>
      </trkpt>
      <trkpt lat="45.88233" lon="6.17774">
        <ele>498</ele>
        <time>2018-05-20T10:49:40.822Z</time>
      </trkpt>
      <trkpt lat="45.88233" lon="6.17771">
        <ele>498</ele>
        <time>2018-05-20T10:49:42.822Z</time>
      </trkpt>
      <trkpt lat="45.88235" lon="6.17768">
        <ele>496.90641880783</ele>
        <time>2018-05-20T10:49:44.822Z</time>
      </trkpt>
      <trkpt lat="45.88235" lon="6.17764">
        <ele>496</ele>
        <time>2018-05-20T10:49:47.822Z</time>
      </trkpt>
      <trkpt lat="45.88236" lon="6.1776">
        <ele>496</ele>
        <time>2018-05-20T10:49:50.822Z</time>
      </trkpt>
      <trkpt lat="45.88237" lon="6.17758">
        <ele>495.92444225317</ele>
        <time>2018-05-20T10:49:52.822Z</time>
      </trkpt>
      <trkpt lat="45.88239" lon="6.17756">
        <ele>495</ele>
        <time>2018-05-20T10:49:54.822Z</time>
      </trkpt>
      <trkpt lat="45.8824" lon="6.17753">
        <ele>494.8979968</ele>
        <time>2018-05-20T10:49:56.822Z</time>
      </trkpt>
      <trkpt lat="45.88241" lon="6.17749">
        <ele>494</ele>
        <time>2018-05-20T10:49:59.822Z</time>
      </trkpt>
      <trkpt lat="45.88241" lon="6.17747">
        <ele>494</ele>
        <time>2018-05-20T10:50:01.822Z</time>
      </trkpt>
      <trkpt lat="45.88242" lon="6.17744">
        <ele>493</ele>
        <time>2018-05-20T10:50:03.822Z</time>
      </trkpt>
      <trkpt lat="45.88242" lon="6.1774">
        <ele>492.90096807466</ele>
        <time>2018-05-20T10:50:06.822Z</time>
      </trkpt>
      <trkpt lat="45.88242" lon="6.17736">
        <ele>492</ele>
        <time>2018-05-20T10:50:08.822Z</time>
      </trkpt>
      <trkpt lat="45.88242" lon="6.17732">
        <ele>492</ele>
        <time>2018-05-20T10:50:10.822Z</time>
      </trkpt>
      <trkpt lat="45.88242" lon="6.17728">
        <ele>492</ele>
        <time>2018-05-20T10:50:12.822Z</time>
      </trkpt>
      <trkpt lat="45.88242" lon="6.17724">
        <ele>492</ele>
        <time>2018-05-20T10:50:14.822Z</time>
      </trkpt>
      <trkpt lat="45.88243" lon="6.17721">
        <ele>491</ele>
        <time>2018-05-20T10:50:16.822Z</time>
      </trkpt>
      <trkpt lat="45.88243" lon="6.17718">
        <ele>490.93541333333</ele>
        <time>2018-05-20T10:50:18.822Z</time>
      </trkpt>
      <trkpt lat="45.88243" lon="6.17715">
        <ele>490</ele>
        <time>2018-05-20T10:50:20.822Z</time>
      </trkpt>
      <trkpt lat="45.88244" lon="6.17711">
        <ele>490</ele>
        <time>2018-05-20T10:50:22.822Z</time>
      </trkpt>
      <trkpt lat="45.88244" lon="6.17708">
        <ele>490</ele>
        <time>2018-05-20T10:50:24.822Z</time>
      </trkpt>
      <trkpt lat="45.88245" lon="6.17705">
        <ele>490</ele>
        <time>2018-05-20T10:50:26.822Z</time>
      </trkpt>
      <trkpt lat="45.88245" lon="6.17702">
        <ele>489.90555259259</ele>
        <time>2018-05-20T10:50:28.822Z</time>
      </trkpt>
      <trkpt lat="45.88245" lon="6.17698">
        <ele>489</ele>
        <time>2018-05-20T10:50:30.822Z</time>
      </trkpt>
      <trkpt lat="45.88245" lon="6.17695">
        <ele>488</ele>
        <time>2018-05-20T10:50:32.822Z</time>
      </trkpt>
      <trkpt lat="45.88246" lon="6.17692">
        <ele>488</ele>
        <time>2018-05-20T10:50:34.822Z</time>
      </trkpt>
      <trkpt lat="45.88245" lon="6.17688">
        <ele>487</ele>
        <time>2018-05-20T10:50:36.822Z</time>
      </trkpt>
      <trkpt lat="45.88245" lon="6.17685">
        <ele>487</ele>
        <time>2018-05-20T10:50:38.822Z</time>
      </trkpt>
      <trkpt lat="45.88245" lon="6.17681">
        <ele>486.90706454282</ele>
        <time>2018-05-20T10:50:40.822Z</time>
      </trkpt>
      <trkpt lat="45.88245" lon="6.17678">
        <ele>486</ele>
        <time>2018-05-20T10:50:42.822Z</time>
      </trkpt>
      <trkpt lat="45.88246" lon="6.17674">
        <ele>486</ele>
        <time>2018-05-20T10:50:44.822Z</time>
      </trkpt>
      <trkpt lat="45.88246" lon="6.17671">
        <ele>486</ele>
        <time>2018-05-20T10:50:46.822Z</time>
      </trkpt>
      <trkpt lat="45.88247" lon="6.17667">
        <ele>486</ele>
        <time>2018-05-20T10:50:48.822Z</time>
      </trkpt>
      <trkpt lat="45.88248" lon="6.17664">
        <ele>486</ele>
        <time>2018-05-20T10:50:50.822Z</time>
      </trkpt>
      <trkpt lat="45.88249" lon="6.17662">
        <ele>485</ele>
        <time>2018-05-20T10:50:52.822Z</time>
      </trkpt>
      <trkpt lat="45.88251" lon="6.17658">
        <ele>484</ele>
        <time>2018-05-20T10:50:55.822Z</time>
      </trkpt>
      <trkpt lat="45.88251" lon="6.17655">
        <ele>484</ele>
        <time>2018-05-20T10:50:57.822Z</time>
      </trkpt>
      <trkpt lat="45.88252" lon="6.17652">
        <ele>483.8979968</ele>
        <time>2018-05-20T10:50:59.822Z</time>
      </trkpt>
      <trkpt lat="45.88252" lon="6.17649">
        <ele>482.09293545718</ele>
        <time>2018-05-20T10:51:01.822Z</time>
      </trkpt>
      <trkpt lat="45.88251" lon="6.17646">
        <ele>483</ele>
        <time>2018-05-20T10:51:03.822Z</time>
      </trkpt>
      <trkpt lat="45.8825" lon="6.17643">
        <ele>482.00720718643</ele>
        <time>2018-05-20T10:51:06.822Z</time>
      </trkpt>
      <trkpt lat="45.8825" lon="6.1764">
        <ele>481.20144325307</ele>
        <time>2018-05-20T10:51:09.822Z</time>
      </trkpt>
      <trkpt lat="45.88249" lon="6.17637">
        <ele>482</ele>
        <time>2018-05-20T10:51:17.822Z</time>
      </trkpt>
      <trkpt lat="45.88248" lon="6.17635">
        <ele>481.90467019164</ele>
        <time>2018-05-20T10:51:19.822Z</time>
      </trkpt>
      <trkpt lat="45.88247" lon="6.17632">
        <ele>481</ele>
        <time>2018-05-20T10:51:22.822Z</time>
      </trkpt>
      <trkpt lat="45.88247" lon="6.17629">
        <ele>481</ele>
        <time>2018-05-20T10:51:25.822Z</time>
      </trkpt>
      <trkpt lat="45.88246" lon="6.17625">
        <ele>480</ele>
        <time>2018-05-20T10:51:29.822Z</time>
      </trkpt>
      <trkpt lat="45.88247" lon="6.17622">
        <ele>478.34011910875</ele>
        <time>2018-05-20T10:51:32.822Z</time>
      </trkpt>
      <trkpt lat="45.88247" lon="6.17619">
        <ele>479</ele>
        <time>2018-05-20T10:51:34.822Z</time>
      </trkpt>
      <trkpt lat="45.88248" lon="6.17617">
        <ele>479</ele>
        <time>2018-05-20T10:51:36.822Z</time>
      </trkpt>
      <trkpt lat="45.88248" lon="6.17614">
        <ele>479</ele>
        <time>2018-05-20T10:51:38.822Z</time>
      </trkpt>
      <trkpt lat="45.88248" lon="6.1761">
        <ele>478.95429566353</ele>
        <time>2018-05-20T10:51:40.822Z</time>
      </trkpt>
      <trkpt lat="45.88248" lon="6.17606">
        <ele>478</ele>
        <time>2018-05-20T10:51:42.822Z</time>
      </trkpt>
      <trkpt lat="45.88248" lon="6.17603">
        <ele>477.8979968</ele>
        <time>2018-05-20T10:51:44.822Z</time>
      </trkpt>
      <trkpt lat="45.88249" lon="6.17599">
        <ele>477</ele>
        <time>2018-05-20T10:51:46.822Z</time>
      </trkpt>
      <trkpt lat="45.88251" lon="6.17596">
        <ele>476</ele>
        <time>2018-05-20T10:51:48.822Z</time>
      </trkpt>
      <trkpt lat="45.88253" lon="6.17592">
        <ele>476</ele>
        <time>2018-05-20T10:51:50.822Z</time>
      </trkpt>
      <trkpt lat="45.88253" lon="6.17588">
        <ele>476</ele>
        <time>2018-05-20T10:51:52.822Z</time>
      </trkpt>
      <trkpt lat="45.88255" lon="6.17584">
        <ele>476</ele>
        <time>2018-05-20T10:51:54.822Z</time>
      </trkpt>
      <trkpt lat="45.88255" lon="6.1758">
        <ele>476</ele>
        <time>2018-05-20T10:51:56.822Z</time>
      </trkpt>
      <trkpt lat="45.88256" lon="6.17577">
        <ele>475.8979968</ele>
        <time>2018-05-20T10:51:58.822Z</time>
      </trkpt>
      <trkpt lat="45.88257" lon="6.17574">
        <ele>474.01606857143</ele>
        <time>2018-05-20T10:52:00.822Z</time>
      </trkpt>
      <trkpt lat="45.88257" lon="6.17571">
        <ele>474</ele>
        <time>2018-05-20T10:52:02.822Z</time>
      </trkpt>
      <trkpt lat="45.88258" lon="6.17569">
        <ele>474</ele>
        <time>2018-05-20T10:52:04.822Z</time>
      </trkpt>
      <trkpt lat="45.88257" lon="6.17566">
        <ele>473.18970352941</ele>
        <time>2018-05-20T10:52:06.822Z</time>
      </trkpt>
      <trkpt lat="45.88256" lon="6.17563">
        <ele>472.99279281357</ele>
        <time>2018-05-20T10:52:11.822Z</time>
      </trkpt>
      <trkpt lat="45.88256" lon="6.17559">
        <ele>473</ele>
        <time>2018-05-20T10:52:15.822Z</time>
      </trkpt>
      <trkpt lat="45.88254" lon="6.17557">
        <ele>473</ele>
        <time>2018-05-20T10:52:18.822Z</time>
      </trkpt>
      <trkpt lat="45.88252" lon="6.17555">
        <ele>472.16768902061</ele>
        <time>2018-05-20T10:52:21.822Z</time>
      </trkpt>
      <trkpt lat="45.8825" lon="6.17552">
        <ele>472</ele>
        <time>2018-05-20T10:52:23.822Z</time>
      </trkpt>
      <trkpt lat="45.88248" lon="6.1755">
        <ele>472</ele>
        <time>2018-05-20T10:52:25.822Z</time>
      </trkpt>
      <trkpt lat="45.88246" lon="6.17549">
        <ele>472</ele>
        <time>2018-05-20T10:52:27.822Z</time>
      </trkpt>
      <trkpt lat="45.88244" lon="6.17548">
        <ele>472</ele>
        <time>2018-05-20T10:52:29.822Z</time>
      </trkpt>
      <trkpt lat="45.88242" lon="6.17546">
        <ele>471.8979968</ele>
        <time>2018-05-20T10:52:31.822Z</time>
      </trkpt>
      <trkpt lat="45.88239" lon="6.17545">
        <ele>471</ele>
        <time>2018-05-20T10:52:33.822Z</time>
      </trkpt>
      <trkpt lat="45.88238" lon="6.17542">
        <ele>471</ele>
        <time>2018-05-20T10:52:35.822Z</time>
      </trkpt>
      <trkpt lat="45.88236" lon="6.1754">
        <ele>470</ele>
        <time>2018-05-20T10:52:37.822Z</time>
      </trkpt>
      <trkpt lat="45.88233" lon="6.17538">
        <ele>470</ele>
        <time>2018-05-20T10:52:39.822Z</time>
      </trkpt>
      <trkpt lat="45.88231" lon="6.17536">
        <ele>470</ele>
        <time>2018-05-20T10:52:41.822Z</time>
      </trkpt>
      <trkpt lat="45.88228" lon="6.17536">
        <ele>469.92708857517</ele>
        <time>2018-05-20T10:52:43.822Z</time>
      </trkpt>
      <trkpt lat="45.88226" lon="6.17535">
        <ele>469</ele>
        <time>2018-05-20T10:52:45.822Z</time>
      </trkpt>
      <trkpt lat="45.88225" lon="6.17535">
        <ele>468.9163292495</ele>
        <time>2018-05-20T10:52:47.822Z</time>
      </trkpt>
      <trkpt lat="45.88223" lon="6.17533">
        <ele>468</ele>
        <time>2018-05-20T10:52:49.822Z</time>
      </trkpt>
      <trkpt lat="45.8822" lon="6.17531">
        <ele>468</ele>
        <time>2018-05-20T10:52:51.822Z</time>
      </trkpt>
      <trkpt lat="45.88218" lon="6.17528">
        <ele>468</ele>
        <time>2018-05-20T10:52:53.822Z</time>
      </trkpt>
      <trkpt lat="45.88216" lon="6.17526">
        <ele>468</ele>
        <time>2018-05-20T10:52:55.822Z</time>
      </trkpt>
      <trkpt lat="45.88214" lon="6.17524">
        <ele>467.90096807466</ele>
        <time>2018-05-20T10:52:57.822Z</time>
      </trkpt>
      <trkpt lat="45.88212" lon="6.17522">
        <ele>467</ele>
        <time>2018-05-20T10:52:59.822Z</time>
      </trkpt>
      <trkpt lat="45.8821" lon="6.1752">
        <ele>467</ele>
        <time>2018-05-20T10:53:01.822Z</time>
      </trkpt>
      <trkpt lat="45.88209" lon="6.17518">
        <ele>467</ele>
        <time>2018-05-20T10:53:03.822Z</time>
      </trkpt>
      <trkpt lat="45.88207" lon="6.17515">
        <ele>467</ele>
        <time>2018-05-20T10:53:05.822Z</time>
      </trkpt>
      <trkpt lat="45.88206" lon="6.17513">
        <ele>466</ele>
        <time>2018-05-20T10:53:07.822Z</time>
      </trkpt>
      <trkpt lat="45.88205" lon="6.1751">
        <ele>466</ele>
        <time>2018-05-20T10:53:09.822Z</time>
      </trkpt>
      <trkpt lat="45.88204" lon="6.17507">
        <ele>466</ele>
        <time>2018-05-20T10:53:11.822Z</time>
      </trkpt>
      <trkpt lat="45.88203" lon="6.17504">
        <ele>466</ele>
        <time>2018-05-20T10:53:13.822Z</time>
      </trkpt>
      <trkpt lat="45.88202" lon="6.17501">
        <ele>466</ele>
        <time>2018-05-20T10:53:15.822Z</time>
      </trkpt>
      <trkpt lat="45.88201" lon="6.17498">
        <ele>466</ele>
        <time>2018-05-20T10:53:17.822Z</time>
      </trkpt>
      <trkpt lat="45.882" lon="6.17496">
        <ele>466</ele>
        <time>2018-05-20T10:53:19.822Z</time>
      </trkpt>
      <trkpt lat="45.88199" lon="6.17493">
        <ele>466</ele>
        <time>2018-05-20T10:53:21.822Z</time>
      </trkpt>
      <trkpt lat="45.88197" lon="6.17491">
        <ele>465</ele>
        <time>2018-05-20T10:53:23.822Z</time>
      </trkpt>
      <trkpt lat="45.88196" lon="6.17487">
        <ele>465</ele>
        <time>2018-05-20T10:53:26.822Z</time>
      </trkpt>
      <trkpt lat="45.88195" lon="6.17482">
        <ele>465</ele>
        <time>2018-05-20T10:53:28.822Z</time>
      </trkpt>
      <trkpt lat="45.88192" lon="6.17477">
        <ele>464</ele>
        <time>2018-05-20T10:53:31.822Z</time>
      </trkpt>
      <trkpt lat="45.88191" lon="6.17473">
        <ele>464</ele>
        <time>2018-05-20T10:53:33.822Z</time>
      </trkpt>
      <trkpt lat="45.8819" lon="6.1747">
        <ele>464</ele>
        <time>2018-05-20T10:53:35.822Z</time>
      </trkpt>
      <trkpt lat="45.88189" lon="6.17466">
        <ele>464</ele>
        <time>2018-05-20T10:53:37.822Z</time>
      </trkpt>
      <trkpt lat="45.88188" lon="6.17464">
        <ele>464</ele>
        <time>2018-05-20T10:53:39.822Z</time>
      </trkpt>
      <trkpt lat="45.88186" lon="6.17462">
        <ele>464</ele>
        <time>2018-05-20T10:53:41.822Z</time>
      </trkpt>
      <trkpt lat="45.88185" lon="6.17459">
        <ele>464</ele>
        <time>2018-05-20T10:53:43.822Z</time>
      </trkpt>
      <trkpt lat="45.88184" lon="6.17457">
        <ele>463</ele>
        <time>2018-05-20T10:53:45.822Z</time>
      </trkpt>
      <trkpt lat="45.88183" lon="6.17454">
        <ele>463</ele>
        <time>2018-05-20T10:53:47.822Z</time>
      </trkpt>
      <trkpt lat="45.88182" lon="6.17452">
        <ele>463</ele>
        <time>2018-05-20T10:53:49.822Z</time>
      </trkpt>
      <trkpt lat="45.8818" lon="6.1745">
        <ele>462</ele>
        <time>2018-05-20T10:53:51.822Z</time>
      </trkpt>
      <trkpt lat="45.88178" lon="6.17449">
        <ele>462</ele>
        <time>2018-05-20T10:53:55.822Z</time>
      </trkpt>
      <trkpt lat="45.88179" lon="6.17446">
        <ele>462</ele>
        <time>2018-05-20T10:53:58.822Z</time>
      </trkpt>
      <trkpt lat="45.88178" lon="6.17443">
        <ele>462</ele>
        <time>2018-05-20T10:54:01.822Z</time>
      </trkpt>
      <trkpt lat="45.88179" lon="6.17446">
        <ele>462</ele>
        <time>2018-05-20T10:54:17.822Z</time>
      </trkpt>
      <trkpt lat="45.88178" lon="6.17448">
        <ele>462</ele>
        <time>2018-05-20T10:54:20.822Z</time>
      </trkpt>
      <trkpt lat="45.88176" lon="6.1745">
        <ele>462</ele>
        <time>2018-05-20T10:54:23.822Z</time>
      </trkpt>
      <trkpt lat="45.88174" lon="6.17452">
        <ele>462</ele>
        <time>2018-05-20T10:54:26.822Z</time>
      </trkpt>
      <trkpt lat="45.88172" lon="6.17454">
        <ele>462</ele>
        <time>2018-05-20T10:54:28.822Z</time>
      </trkpt>
      <trkpt lat="45.88171" lon="6.17456">
        <ele>462</ele>
        <time>2018-05-20T10:54:30.822Z</time>
      </trkpt>
      <trkpt lat="45.88169" lon="6.17457">
        <ele>462</ele>
        <time>2018-05-20T10:54:32.822Z</time>
      </trkpt>
      <trkpt lat="45.88168" lon="6.17459">
        <ele>462</ele>
        <time>2018-05-20T10:54:34.822Z</time>
      </trkpt>
      <trkpt lat="45.88166" lon="6.1746">
        <ele>462</ele>
        <time>2018-05-20T10:54:36.822Z</time>
      </trkpt>
      <trkpt lat="45.88164" lon="6.17462">
        <ele>462</ele>
        <time>2018-05-20T10:54:38.822Z</time>
      </trkpt>
      <trkpt lat="45.88162" lon="6.17463">
        <ele>462</ele>
        <time>2018-05-20T10:54:40.822Z</time>
      </trkpt>
      <trkpt lat="45.8816" lon="6.17465">
        <ele>462</ele>
        <time>2018-05-20T10:54:42.822Z</time>
      </trkpt>
      <trkpt lat="45.88158" lon="6.17466">
        <ele>462</ele>
        <time>2018-05-20T10:54:44.822Z</time>
      </trkpt>
      <trkpt lat="45.88156" lon="6.17467">
        <ele>462</ele>
        <time>2018-05-20T10:54:46.822Z</time>
      </trkpt>
      <trkpt lat="45.88154" lon="6.17468">
        <ele>462</ele>
        <time>2018-05-20T10:54:48.822Z</time>
      </trkpt>
      <trkpt lat="45.88152" lon="6.1747">
        <ele>462</ele>
        <time>2018-05-20T10:54:50.822Z</time>
      </trkpt>
      <trkpt lat="45.8815" lon="6.17471">
        <ele>462</ele>
        <time>2018-05-20T10:54:52.822Z</time>
      </trkpt>
      <trkpt lat="45.88147" lon="6.17473">
        <ele>462</ele>
        <time>2018-05-20T10:54:56.822Z</time>
      </trkpt>
      <trkpt lat="45.88145" lon="6.17474">
        <ele>462</ele>
        <time>2018-05-20T10:54:58.822Z</time>
      </trkpt>
      <trkpt lat="45.88143" lon="6.17474">
        <ele>461.8979968</ele>
        <time>2018-05-20T10:55:00.822Z</time>
      </trkpt>
      <trkpt lat="45.8814" lon="6.17475">
        <ele>461</ele>
        <time>2018-05-20T10:55:03.822Z</time>
      </trkpt>
      <trkpt lat="45.88138" lon="6.17477">
        <ele>461</ele>
        <time>2018-05-20T10:55:05.822Z</time>
      </trkpt>
      <trkpt lat="45.88135" lon="6.17479">
        <ele>461</ele>
        <time>2018-05-20T10:55:07.822Z</time>
      </trkpt>
      <trkpt lat="45.88133" lon="6.1748">
        <ele>461</ele>
        <time>2018-05-20T10:55:09.822Z</time>
      </trkpt>
      <trkpt lat="45.88131" lon="6.17482">
        <ele>461</ele>
        <time>2018-05-20T10:55:11.822Z</time>
      </trkpt>
      <trkpt lat="45.88129" lon="6.17484">
        <ele>461</ele>
        <time>2018-05-20T10:55:13.822Z</time>
      </trkpt>
      <trkpt lat="45.88126" lon="6.17485">
        <ele>461</ele>
        <time>2018-05-20T10:55:15.822Z</time>
      </trkpt>
      <trkpt lat="45.88124" lon="6.17486">
        <ele>461</ele>
        <time>2018-05-20T10:55:17.822Z</time>
      </trkpt>
      <trkpt lat="45.88122" lon="6.17487">
        <ele>461</ele>
        <time>2018-05-20T10:55:19.822Z</time>
      </trkpt>
      <trkpt lat="45.8812" lon="6.17487">
        <ele>461</ele>
        <time>2018-05-20T10:55:21.822Z</time>
      </trkpt>
      <trkpt lat="45.88118" lon="6.17488">
        <ele>461</ele>
        <time>2018-05-20T10:55:23.822Z</time>
      </trkpt>
      <trkpt lat="45.88116" lon="6.17489">
        <ele>461</ele>
        <time>2018-05-20T10:55:25.822Z</time>
      </trkpt>
      <trkpt lat="45.88114" lon="6.1749">
        <ele>461</ele>
        <time>2018-05-20T10:55:27.822Z</time>
      </trkpt>
      <trkpt lat="45.88112" lon="6.17491">
        <ele>461</ele>
        <time>2018-05-20T10:55:29.822Z</time>
      </trkpt>
      <trkpt lat="45.8811" lon="6.17491">
        <ele>461</ele>
        <time>2018-05-20T10:55:31.822Z</time>
      </trkpt>
      <trkpt lat="45.88108" lon="6.17492">
        <ele>461</ele>
        <time>2018-05-20T10:55:33.822Z</time>
      </trkpt>
      <trkpt lat="45.88105" lon="6.17492">
        <ele>461</ele>
        <time>2018-05-20T10:55:35.822Z</time>
      </trkpt>
      <trkpt lat="45.88103" lon="6.17493">
        <ele>461</ele>
        <time>2018-05-20T10:55:37.822Z</time>
      </trkpt>
      <trkpt lat="45.88101" lon="6.17493">
        <ele>461</ele>
        <time>2018-05-20T10:55:39.822Z</time>
      </trkpt>
      <trkpt lat="45.88099" lon="6.17494">
        <ele>461</ele>
        <time>2018-05-20T10:55:41.822Z</time>
      </trkpt>
      <trkpt lat="45.88097" lon="6.17494">
        <ele>461</ele>
        <time>2018-05-20T10:55:43.822Z</time>
      </trkpt>
      <trkpt lat="45.88095" lon="6.17494">
        <ele>461</ele>
        <time>2018-05-20T10:55:45.822Z</time>
      </trkpt>
      <trkpt lat="45.88092" lon="6.17494">
        <ele>461</ele>
        <time>2018-05-20T10:55:47.822Z</time>
      </trkpt>
      <trkpt lat="45.8809" lon="6.17494">
        <ele>461</ele>
        <time>2018-05-20T10:55:49.822Z</time>
      </trkpt>
      <trkpt lat="45.88088" lon="6.17494">
        <ele>461</ele>
        <time>2018-05-20T10:55:51.822Z</time>
      </trkpt>
      <trkpt lat="45.88085" lon="6.17494">
        <ele>461</ele>
        <time>2018-05-20T10:55:53.822Z</time>
      </trkpt>
      <trkpt lat="45.88083" lon="6.17495">
        <ele>461</ele>
        <time>2018-05-20T10:55:55.822Z</time>
      </trkpt>
      <trkpt lat="45.88081" lon="6.17494">
        <ele>461</ele>
        <time>2018-05-20T10:55:57.822Z</time>
      </trkpt>
      <trkpt lat="45.88078" lon="6.17494">
        <ele>461</ele>
        <time>2018-05-20T10:55:59.822Z</time>
      </trkpt>
      <trkpt lat="45.88076" lon="6.17495">
        <ele>461</ele>
        <time>2018-05-20T10:56:01.822Z</time>
      </trkpt>
      <trkpt lat="45.88073" lon="6.17495">
        <ele>461</ele>
        <time>2018-05-20T10:56:03.822Z</time>
      </trkpt>
      <trkpt lat="45.88071" lon="6.17495">
        <ele>460.8979968</ele>
        <time>2018-05-20T10:56:05.822Z</time>
      </trkpt>
      <trkpt lat="45.88069" lon="6.17495">
        <ele>460</ele>
        <time>2018-05-20T10:56:07.822Z</time>
      </trkpt>
      <trkpt lat="45.88067" lon="6.17495">
        <ele>460.09358119217</ele>
        <time>2018-05-20T10:56:09.822Z</time>
      </trkpt>
      <trkpt lat="45.88064" lon="6.17495">
        <ele>461</ele>
        <time>2018-05-20T10:56:12.822Z</time>
      </trkpt>
      <trkpt lat="45.88062" lon="6.17495">
        <ele>461</ele>
        <time>2018-05-20T10:56:14.822Z</time>
      </trkpt>
      <trkpt lat="45.8806" lon="6.17495">
        <ele>461</ele>
        <time>2018-05-20T10:56:16.822Z</time>
      </trkpt>
      <trkpt lat="45.88057" lon="6.17495">
        <ele>461</ele>
        <time>2018-05-20T10:56:18.822Z</time>
      </trkpt>
      <trkpt lat="45.88055" lon="6.17495">
        <ele>461</ele>
        <time>2018-05-20T10:56:20.822Z</time>
      </trkpt>
      <trkpt lat="45.88054" lon="6.17495">
        <ele>461</ele>
        <time>2018-05-20T10:56:22.822Z</time>
      </trkpt>
      <trkpt lat="45.88051" lon="6.17495">
        <ele>461</ele>
        <time>2018-05-20T10:56:24.822Z</time>
      </trkpt>
      <trkpt lat="45.88049" lon="6.17495">
        <ele>461</ele>
        <time>2018-05-20T10:56:26.822Z</time>
      </trkpt>
      <trkpt lat="45.88047" lon="6.17494">
        <ele>461</ele>
        <time>2018-05-20T10:56:28.822Z</time>
      </trkpt>
      <trkpt lat="45.88045" lon="6.17494">
        <ele>461</ele>
        <time>2018-05-20T10:56:30.822Z</time>
      </trkpt>
      <trkpt lat="45.88043" lon="6.17494">
        <ele>460</ele>
        <time>2018-05-20T10:56:32.822Z</time>
      </trkpt>
      <trkpt lat="45.8804" lon="6.17494">
        <ele>461</ele>
        <time>2018-05-20T10:56:34.822Z</time>
      </trkpt>
      <trkpt lat="45.88038" lon="6.17494">
        <ele>460</ele>
        <time>2018-05-20T10:56:36.822Z</time>
      </trkpt>
      <trkpt lat="45.88036" lon="6.17494">
        <ele>460.1020032</ele>
        <time>2018-05-20T10:56:38.822Z</time>
      </trkpt>
      <trkpt lat="45.88034" lon="6.17494">
        <ele>461</ele>
        <time>2018-05-20T10:56:40.822Z</time>
      </trkpt>
      <trkpt lat="45.88031" lon="6.17494">
        <ele>460.0333359532</ele>
        <time>2018-05-20T10:56:42.822Z</time>
      </trkpt>
      <trkpt lat="45.88029" lon="6.17494">
        <ele>460.0927296423</ele>
        <time>2018-05-20T10:56:44.822Z</time>
      </trkpt>
      <trkpt lat="45.88027" lon="6.17494">
        <ele>461</ele>
        <time>2018-05-20T10:56:46.822Z</time>
      </trkpt>
      <trkpt lat="45.88025" lon="6.17495">
        <ele>461</ele>
        <time>2018-05-20T10:56:48.822Z</time>
      </trkpt>
      <trkpt lat="45.88023" lon="6.17495">
        <ele>461</ele>
        <time>2018-05-20T10:56:50.822Z</time>
      </trkpt>
      <trkpt lat="45.8802" lon="6.17495">
        <ele>460.90641880783</ele>
        <time>2018-05-20T10:56:52.822Z</time>
      </trkpt>
      <trkpt lat="45.88018" lon="6.17495">
        <ele>460</ele>
        <time>2018-05-20T10:56:54.822Z</time>
      </trkpt>
      <trkpt lat="45.88016" lon="6.17495">
        <ele>460</ele>
        <time>2018-05-20T10:56:56.822Z</time>
      </trkpt>
      <trkpt lat="45.88014" lon="6.17495">
        <ele>460</ele>
        <time>2018-05-20T10:56:58.822Z</time>
      </trkpt>
      <trkpt lat="45.88012" lon="6.17496">
        <ele>460</ele>
        <time>2018-05-20T10:57:00.822Z</time>
      </trkpt>
      <trkpt lat="45.88009" lon="6.17496">
        <ele>460</ele>
        <time>2018-05-20T10:57:03.822Z</time>
      </trkpt>
      <trkpt lat="45.88007" lon="6.17496">
        <ele>460</ele>
        <time>2018-05-20T10:57:05.822Z</time>
      </trkpt>
      <trkpt lat="45.88005" lon="6.17497">
        <ele>460</ele>
        <time>2018-05-20T10:57:07.822Z</time>
      </trkpt>
      <trkpt lat="45.88003" lon="6.17497">
        <ele>460</ele>
        <time>2018-05-20T10:57:09.822Z</time>
      </trkpt>
      <trkpt lat="45.88" lon="6.17497">
        <ele>460</ele>
        <time>2018-05-20T10:57:11.822Z</time>
      </trkpt>
      <trkpt lat="45.87999" lon="6.17497">
        <ele>460</ele>
        <time>2018-05-20T10:57:13.822Z</time>
      </trkpt>
      <trkpt lat="45.87996" lon="6.17497">
        <ele>460</ele>
        <time>2018-05-20T10:57:16.822Z</time>
      </trkpt>
      <trkpt lat="45.87994" lon="6.17497">
        <ele>460</ele>
        <time>2018-05-20T10:57:19.822Z</time>
      </trkpt>
      <trkpt lat="45.87992" lon="6.17496">
        <ele>460</ele>
        <time>2018-05-20T10:57:21.822Z</time>
      </trkpt>
      <trkpt lat="45.87989" lon="6.17496">
        <ele>460</ele>
        <time>2018-05-20T10:57:24.822Z</time>
      </trkpt>
      <trkpt lat="45.87987" lon="6.17496">
        <ele>460</ele>
        <time>2018-05-20T10:57:28.822Z</time>
      </trkpt>
      <trkpt lat="45.87987" lon="6.17499">
        <ele>460</ele>
        <time>2018-05-20T10:57:37.822Z</time>
      </trkpt>
      <trkpt lat="45.87986" lon="6.175">
        <ele>448</ele>
        <time>2018-05-20T10:57:52.822Z</time>
      </trkpt>
    </trkseg>
  </trk>
</gpx>